<?xml version="1.0" encoding="UTF-8" standalone="no" ?>
<gpx xmlns="http://www.topografix.com/GPX/1/1" xmlns:xsi="http://www.w3.org/2001/XMLSchema-instance" xsi:schemaLocation="http://www.topografix.com/GPX/1/1 http://www.topografix.com/GPX/1/1/gpx.xsd" version="1.1" creator="VisuGPX - https://www.visugpx.com">
  <metadata>
    <name>Saint-Georges-les-Bains VTT</name>
  </metadata>
  <trk>
    <name><![CDATA[Saint-Georges-les-Bains VTT]]></name>
    <trkseg>
      <trkpt lat="44.86003" lon="4.80707">
        <ele>242.39999389648</ele>
        <time>2023-12-17T08:12:37.000Z</time>
      </trkpt>
      <trkpt lat="44.86003" lon="4.80707">
        <ele>242.39999389648</ele>
        <time>2023-12-17T08:12:48.000Z</time>
      </trkpt>
      <trkpt lat="44.86003" lon="4.80707">
        <ele>242.39999389648</ele>
        <time>2023-12-17T08:12:56.000Z</time>
      </trkpt>
      <trkpt lat="44.86003" lon="4.80707">
        <ele>242.39999389648</ele>
        <time>2023-12-17T08:13:09.000Z</time>
      </trkpt>
      <trkpt lat="44.86003" lon="4.80706">
        <ele>242.39999389648</ele>
        <time>2023-12-17T08:13:25.000Z</time>
      </trkpt>
      <trkpt lat="44.86003" lon="4.80707">
        <ele>242.39999389648</ele>
        <time>2023-12-17T08:13:37.000Z</time>
      </trkpt>
      <trkpt lat="44.86001" lon="4.80706">
        <ele>242.39999389648</ele>
        <time>2023-12-17T08:13:54.000Z</time>
      </trkpt>
      <trkpt lat="44.86" lon="4.80706">
        <ele>242.39999389648</ele>
        <time>2023-12-17T08:13:55.000Z</time>
      </trkpt>
      <trkpt lat="44.85999" lon="4.80707">
        <ele>242.39999389648</ele>
        <time>2023-12-17T08:13:56.000Z</time>
      </trkpt>
      <trkpt lat="44.85995" lon="4.80714">
        <ele>242.60000610352</ele>
        <time>2023-12-17T08:14:00.000Z</time>
      </trkpt>
      <trkpt lat="44.85991" lon="4.80738">
        <ele>242.80000305176</ele>
        <time>2023-12-17T08:14:06.000Z</time>
      </trkpt>
      <trkpt lat="44.85988" lon="4.80779">
        <ele>242.80000305176</ele>
        <time>2023-12-17T08:14:15.000Z</time>
      </trkpt>
      <trkpt lat="44.85987" lon="4.80812">
        <ele>243.60000610352</ele>
        <time>2023-12-17T08:14:22.000Z</time>
      </trkpt>
      <trkpt lat="44.85992" lon="4.8084">
        <ele>244.39999389648</ele>
        <time>2023-12-17T08:14:28.000Z</time>
      </trkpt>
      <trkpt lat="44.85994" lon="4.80843">
        <ele>244.60000610352</ele>
        <time>2023-12-17T08:14:29.000Z</time>
      </trkpt>
      <trkpt lat="44.86005" lon="4.80865">
        <ele>245</ele>
        <time>2023-12-17T08:14:34.000Z</time>
      </trkpt>
      <trkpt lat="44.86019" lon="4.80886">
        <ele>245</ele>
        <time>2023-12-17T08:14:39.000Z</time>
      </trkpt>
      <trkpt lat="44.86032" lon="4.80899">
        <ele>244.60000610352</ele>
        <time>2023-12-17T08:14:43.000Z</time>
      </trkpt>
      <trkpt lat="44.86039" lon="4.80906">
        <ele>244.60000610352</ele>
        <time>2023-12-17T08:14:45.000Z</time>
      </trkpt>
      <trkpt lat="44.86048" lon="4.80913">
        <ele>244.39999389648</ele>
        <time>2023-12-17T08:14:47.000Z</time>
      </trkpt>
      <trkpt lat="44.86061" lon="4.80919">
        <ele>244</ele>
        <time>2023-12-17T08:14:50.000Z</time>
      </trkpt>
      <trkpt lat="44.86069" lon="4.80924">
        <ele>243.60000610352</ele>
        <time>2023-12-17T08:14:52.000Z</time>
      </trkpt>
      <trkpt lat="44.86079" lon="4.80929">
        <ele>243.60000610352</ele>
        <time>2023-12-17T08:14:55.000Z</time>
      </trkpt>
      <trkpt lat="44.86085" lon="4.80931">
        <ele>243.80000305176</ele>
        <time>2023-12-17T08:14:57.000Z</time>
      </trkpt>
      <trkpt lat="44.86086" lon="4.80929">
        <ele>244</ele>
        <time>2023-12-17T08:14:58.000Z</time>
      </trkpt>
      <trkpt lat="44.86089" lon="4.80923">
        <ele>244.60000610352</ele>
        <time>2023-12-17T08:15:00.000Z</time>
      </trkpt>
      <trkpt lat="44.8609" lon="4.80916">
        <ele>245.60000610352</ele>
        <time>2023-12-17T08:15:02.000Z</time>
      </trkpt>
      <trkpt lat="44.86089" lon="4.80913">
        <ele>246.39999389648</ele>
        <time>2023-12-17T08:15:03.000Z</time>
      </trkpt>
      <trkpt lat="44.86088" lon="4.80906">
        <ele>248.19999694824</ele>
        <time>2023-12-17T08:15:05.000Z</time>
      </trkpt>
      <trkpt lat="44.86084" lon="4.80898">
        <ele>249.39999389648</ele>
        <time>2023-12-17T08:15:08.000Z</time>
      </trkpt>
      <trkpt lat="44.86082" lon="4.80889">
        <ele>250.60000610352</ele>
        <time>2023-12-17T08:15:11.000Z</time>
      </trkpt>
      <trkpt lat="44.8608" lon="4.80881">
        <ele>251.19999694824</ele>
        <time>2023-12-17T08:15:14.000Z</time>
      </trkpt>
      <trkpt lat="44.86074" lon="4.80866">
        <ele>251.80000305176</ele>
        <time>2023-12-17T08:15:18.000Z</time>
      </trkpt>
      <trkpt lat="44.86073" lon="4.80862">
        <ele>251.80000305176</ele>
        <time>2023-12-17T08:15:19.000Z</time>
      </trkpt>
      <trkpt lat="44.8607" lon="4.80851">
        <ele>252.80000305176</ele>
        <time>2023-12-17T08:15:22.000Z</time>
      </trkpt>
      <trkpt lat="44.86065" lon="4.80836">
        <ele>253.60000610352</ele>
        <time>2023-12-17T08:15:26.000Z</time>
      </trkpt>
      <trkpt lat="44.86064" lon="4.80828">
        <ele>253.80000305176</ele>
        <time>2023-12-17T08:15:28.000Z</time>
      </trkpt>
      <trkpt lat="44.86067" lon="4.80821">
        <ele>254</ele>
        <time>2023-12-17T08:15:30.000Z</time>
      </trkpt>
      <trkpt lat="44.86075" lon="4.80812">
        <ele>254.80000305176</ele>
        <time>2023-12-17T08:15:34.000Z</time>
      </trkpt>
      <trkpt lat="44.86077" lon="4.80811">
        <ele>255.19999694824</ele>
        <time>2023-12-17T08:15:35.000Z</time>
      </trkpt>
      <trkpt lat="44.86082" lon="4.8081">
        <ele>256.39999389648</ele>
        <time>2023-12-17T08:15:37.000Z</time>
      </trkpt>
      <trkpt lat="44.86092" lon="4.80813">
        <ele>257.79998779297</ele>
        <time>2023-12-17T08:15:41.000Z</time>
      </trkpt>
      <trkpt lat="44.86102" lon="4.80819">
        <ele>258.79998779297</ele>
        <time>2023-12-17T08:15:45.000Z</time>
      </trkpt>
      <trkpt lat="44.86112" lon="4.80821">
        <ele>259.60000610352</ele>
        <time>2023-12-17T08:15:49.000Z</time>
      </trkpt>
      <trkpt lat="44.86114" lon="4.80821">
        <ele>260</ele>
        <time>2023-12-17T08:15:50.000Z</time>
      </trkpt>
      <trkpt lat="44.86119" lon="4.80821">
        <ele>261</ele>
        <time>2023-12-17T08:15:52.000Z</time>
      </trkpt>
      <trkpt lat="44.86124" lon="4.80821">
        <ele>262</ele>
        <time>2023-12-17T08:15:54.000Z</time>
      </trkpt>
      <trkpt lat="44.86129" lon="4.8082">
        <ele>263.79998779297</ele>
        <time>2023-12-17T08:15:57.000Z</time>
      </trkpt>
      <trkpt lat="44.86131" lon="4.80819">
        <ele>264.20001220703</ele>
        <time>2023-12-17T08:15:58.000Z</time>
      </trkpt>
      <trkpt lat="44.86135" lon="4.80819">
        <ele>265.20001220703</ele>
        <time>2023-12-17T08:16:00.000Z</time>
      </trkpt>
      <trkpt lat="44.86141" lon="4.80819">
        <ele>266.20001220703</ele>
        <time>2023-12-17T08:16:03.000Z</time>
      </trkpt>
      <trkpt lat="44.86145" lon="4.80819">
        <ele>267.39999389648</ele>
        <time>2023-12-17T08:16:06.000Z</time>
      </trkpt>
      <trkpt lat="44.86148" lon="4.80821">
        <ele>268.79998779297</ele>
        <time>2023-12-17T08:16:08.000Z</time>
      </trkpt>
      <trkpt lat="44.86152" lon="4.80823">
        <ele>270</ele>
        <time>2023-12-17T08:16:11.000Z</time>
      </trkpt>
      <trkpt lat="44.86154" lon="4.80826">
        <ele>270.60000610352</ele>
        <time>2023-12-17T08:16:13.000Z</time>
      </trkpt>
      <trkpt lat="44.86155" lon="4.80827">
        <ele>271</ele>
        <time>2023-12-17T08:16:14.000Z</time>
      </trkpt>
      <trkpt lat="44.8616" lon="4.80829">
        <ele>272.20001220703</ele>
        <time>2023-12-17T08:16:17.000Z</time>
      </trkpt>
      <trkpt lat="44.86164" lon="4.8083">
        <ele>272.60000610352</ele>
        <time>2023-12-17T08:16:19.000Z</time>
      </trkpt>
      <trkpt lat="44.86168" lon="4.8083">
        <ele>273.60000610352</ele>
        <time>2023-12-17T08:16:21.000Z</time>
      </trkpt>
      <trkpt lat="44.86174" lon="4.8083">
        <ele>274.79998779297</ele>
        <time>2023-12-17T08:16:24.000Z</time>
      </trkpt>
      <trkpt lat="44.86176" lon="4.8083">
        <ele>275</ele>
        <time>2023-12-17T08:16:25.000Z</time>
      </trkpt>
      <trkpt lat="44.86183" lon="4.80827">
        <ele>275.79998779297</ele>
        <time>2023-12-17T08:16:29.000Z</time>
      </trkpt>
      <trkpt lat="44.86192" lon="4.80825">
        <ele>277</ele>
        <time>2023-12-17T08:16:34.000Z</time>
      </trkpt>
      <trkpt lat="44.86201" lon="4.80825">
        <ele>278.20001220703</ele>
        <time>2023-12-17T08:16:39.000Z</time>
      </trkpt>
      <trkpt lat="44.86204" lon="4.80825">
        <ele>279.20001220703</ele>
        <time>2023-12-17T08:16:41.000Z</time>
      </trkpt>
      <trkpt lat="44.86206" lon="4.80825">
        <ele>279.39999389648</ele>
        <time>2023-12-17T08:16:42.000Z</time>
      </trkpt>
      <trkpt lat="44.86213" lon="4.80822">
        <ele>280.20001220703</ele>
        <time>2023-12-17T08:16:46.000Z</time>
      </trkpt>
      <trkpt lat="44.86217" lon="4.80819">
        <ele>280.79998779297</ele>
        <time>2023-12-17T08:16:48.000Z</time>
      </trkpt>
      <trkpt lat="44.86221" lon="4.80817">
        <ele>281.39999389648</ele>
        <time>2023-12-17T08:16:50.000Z</time>
      </trkpt>
      <trkpt lat="44.86233" lon="4.80808">
        <ele>282.39999389648</ele>
        <time>2023-12-17T08:16:56.000Z</time>
      </trkpt>
      <trkpt lat="44.86241" lon="4.80803">
        <ele>283.39999389648</ele>
        <time>2023-12-17T08:17:01.000Z</time>
      </trkpt>
      <trkpt lat="44.86244" lon="4.80801">
        <ele>284.39999389648</ele>
        <time>2023-12-17T08:17:03.000Z</time>
      </trkpt>
      <trkpt lat="44.86245" lon="4.808">
        <ele>284.79998779297</ele>
        <time>2023-12-17T08:17:04.000Z</time>
      </trkpt>
      <trkpt lat="44.86251" lon="4.80796">
        <ele>286.39999389648</ele>
        <time>2023-12-17T08:17:08.000Z</time>
      </trkpt>
      <trkpt lat="44.86254" lon="4.80794">
        <ele>287.39999389648</ele>
        <time>2023-12-17T08:17:10.000Z</time>
      </trkpt>
      <trkpt lat="44.86255" lon="4.80794">
        <ele>288</ele>
        <time>2023-12-17T08:17:11.000Z</time>
      </trkpt>
      <trkpt lat="44.86259" lon="4.80792">
        <ele>288.39999389648</ele>
        <time>2023-12-17T08:17:13.000Z</time>
      </trkpt>
      <trkpt lat="44.86262" lon="4.8079">
        <ele>290</ele>
        <time>2023-12-17T08:17:15.000Z</time>
      </trkpt>
      <trkpt lat="44.86268" lon="4.80785">
        <ele>291.60000610352</ele>
        <time>2023-12-17T08:17:19.000Z</time>
      </trkpt>
      <trkpt lat="44.86275" lon="4.80782">
        <ele>292.79998779297</ele>
        <time>2023-12-17T08:17:23.000Z</time>
      </trkpt>
      <trkpt lat="44.86279" lon="4.8078">
        <ele>293.60000610352</ele>
        <time>2023-12-17T08:17:25.000Z</time>
      </trkpt>
      <trkpt lat="44.86282" lon="4.80778">
        <ele>294</ele>
        <time>2023-12-17T08:17:27.000Z</time>
      </trkpt>
      <trkpt lat="44.86289" lon="4.80773">
        <ele>295</ele>
        <time>2023-12-17T08:17:32.000Z</time>
      </trkpt>
      <trkpt lat="44.8629" lon="4.80772">
        <ele>295.20001220703</ele>
        <time>2023-12-17T08:17:33.000Z</time>
      </trkpt>
      <trkpt lat="44.86296" lon="4.80768">
        <ele>296.39999389648</ele>
        <time>2023-12-17T08:17:37.000Z</time>
      </trkpt>
      <trkpt lat="44.86301" lon="4.80763">
        <ele>297.60000610352</ele>
        <time>2023-12-17T08:17:40.000Z</time>
      </trkpt>
      <trkpt lat="44.86306" lon="4.80754">
        <ele>298.79998779297</ele>
        <time>2023-12-17T08:17:44.000Z</time>
      </trkpt>
      <trkpt lat="44.86312" lon="4.80747">
        <ele>299.60000610352</ele>
        <time>2023-12-17T08:17:48.000Z</time>
      </trkpt>
      <trkpt lat="44.86313" lon="4.80745">
        <ele>300.20001220703</ele>
        <time>2023-12-17T08:17:49.000Z</time>
      </trkpt>
      <trkpt lat="44.86319" lon="4.8074">
        <ele>301.39999389648</ele>
        <time>2023-12-17T08:17:53.000Z</time>
      </trkpt>
      <trkpt lat="44.8632" lon="4.80737">
        <ele>301.60000610352</ele>
        <time>2023-12-17T08:17:54.000Z</time>
      </trkpt>
      <trkpt lat="44.86323" lon="4.80732">
        <ele>302.60000610352</ele>
        <time>2023-12-17T08:17:57.000Z</time>
      </trkpt>
      <trkpt lat="44.86328" lon="4.80726">
        <ele>303.60000610352</ele>
        <time>2023-12-17T08:18:01.000Z</time>
      </trkpt>
      <trkpt lat="44.86335" lon="4.8072">
        <ele>304.79998779297</ele>
        <time>2023-12-17T08:18:06.000Z</time>
      </trkpt>
      <trkpt lat="44.86338" lon="4.80715">
        <ele>305.60000610352</ele>
        <time>2023-12-17T08:18:09.000Z</time>
      </trkpt>
      <trkpt lat="44.86341" lon="4.80712">
        <ele>306.20001220703</ele>
        <time>2023-12-17T08:18:11.000Z</time>
      </trkpt>
      <trkpt lat="44.86342" lon="4.8071">
        <ele>306.39999389648</ele>
        <time>2023-12-17T08:18:12.000Z</time>
      </trkpt>
      <trkpt lat="44.86347" lon="4.80706">
        <ele>307.39999389648</ele>
        <time>2023-12-17T08:18:15.000Z</time>
      </trkpt>
      <trkpt lat="44.86351" lon="4.80696">
        <ele>308.39999389648</ele>
        <time>2023-12-17T08:18:20.000Z</time>
      </trkpt>
      <trkpt lat="44.86352" lon="4.80691">
        <ele>308.79998779297</ele>
        <time>2023-12-17T08:18:22.000Z</time>
      </trkpt>
      <trkpt lat="44.86353" lon="4.80683">
        <ele>309.79998779297</ele>
        <time>2023-12-17T08:18:25.000Z</time>
      </trkpt>
      <trkpt lat="44.86354" lon="4.80674">
        <ele>310.79998779297</ele>
        <time>2023-12-17T08:18:29.000Z</time>
      </trkpt>
      <trkpt lat="44.86353" lon="4.80672">
        <ele>311.39999389648</ele>
        <time>2023-12-17T08:18:30.000Z</time>
      </trkpt>
      <trkpt lat="44.86353" lon="4.80667">
        <ele>312</ele>
        <time>2023-12-17T08:18:32.000Z</time>
      </trkpt>
      <trkpt lat="44.86353" lon="4.8066">
        <ele>313.20001220703</ele>
        <time>2023-12-17T08:18:35.000Z</time>
      </trkpt>
      <trkpt lat="44.86352" lon="4.80654">
        <ele>313.79998779297</ele>
        <time>2023-12-17T08:18:37.000Z</time>
      </trkpt>
      <trkpt lat="44.86351" lon="4.80646">
        <ele>314.79998779297</ele>
        <time>2023-12-17T08:18:40.000Z</time>
      </trkpt>
      <trkpt lat="44.86351" lon="4.80638">
        <ele>316</ele>
        <time>2023-12-17T08:18:43.000Z</time>
      </trkpt>
      <trkpt lat="44.86351" lon="4.80632">
        <ele>316.79998779297</ele>
        <time>2023-12-17T08:18:46.000Z</time>
      </trkpt>
      <trkpt lat="44.86352" lon="4.80629">
        <ele>317.20001220703</ele>
        <time>2023-12-17T08:18:47.000Z</time>
      </trkpt>
      <trkpt lat="44.86353" lon="4.80624">
        <ele>318.20001220703</ele>
        <time>2023-12-17T08:18:50.000Z</time>
      </trkpt>
      <trkpt lat="44.86354" lon="4.80619">
        <ele>319.20001220703</ele>
        <time>2023-12-17T08:18:52.000Z</time>
      </trkpt>
      <trkpt lat="44.86355" lon="4.80617">
        <ele>319.39999389648</ele>
        <time>2023-12-17T08:18:53.000Z</time>
      </trkpt>
      <trkpt lat="44.86359" lon="4.80609">
        <ele>320.60000610352</ele>
        <time>2023-12-17T08:18:57.000Z</time>
      </trkpt>
      <trkpt lat="44.86362" lon="4.80603">
        <ele>321.79998779297</ele>
        <time>2023-12-17T08:19:00.000Z</time>
      </trkpt>
      <trkpt lat="44.86365" lon="4.80596">
        <ele>322.79998779297</ele>
        <time>2023-12-17T08:19:04.000Z</time>
      </trkpt>
      <trkpt lat="44.86371" lon="4.80589">
        <ele>324</ele>
        <time>2023-12-17T08:19:08.000Z</time>
      </trkpt>
      <trkpt lat="44.8638" lon="4.80581">
        <ele>325.20001220703</ele>
        <time>2023-12-17T08:19:13.000Z</time>
      </trkpt>
      <trkpt lat="44.86386" lon="4.80577">
        <ele>325.79998779297</ele>
        <time>2023-12-17T08:19:16.000Z</time>
      </trkpt>
      <trkpt lat="44.86388" lon="4.80575">
        <ele>326.20001220703</ele>
        <time>2023-12-17T08:19:17.000Z</time>
      </trkpt>
      <trkpt lat="44.86396" lon="4.80569">
        <ele>327.39999389648</ele>
        <time>2023-12-17T08:19:21.000Z</time>
      </trkpt>
      <trkpt lat="44.864" lon="4.80565">
        <ele>327.60000610352</ele>
        <time>2023-12-17T08:19:23.000Z</time>
      </trkpt>
      <trkpt lat="44.86409" lon="4.80551">
        <ele>327.79998779297</ele>
        <time>2023-12-17T08:19:29.000Z</time>
      </trkpt>
      <trkpt lat="44.86417" lon="4.80538">
        <ele>328.20001220703</ele>
        <time>2023-12-17T08:19:35.000Z</time>
      </trkpt>
      <trkpt lat="44.86419" lon="4.80536">
        <ele>328.39999389648</ele>
        <time>2023-12-17T08:19:36.000Z</time>
      </trkpt>
      <trkpt lat="44.86432" lon="4.80529">
        <ele>329.79998779297</ele>
        <time>2023-12-17T08:19:43.000Z</time>
      </trkpt>
      <trkpt lat="44.86444" lon="4.80519">
        <ele>331.20001220703</ele>
        <time>2023-12-17T08:19:50.000Z</time>
      </trkpt>
      <trkpt lat="44.86446" lon="4.80518">
        <ele>331.39999389648</ele>
        <time>2023-12-17T08:19:51.000Z</time>
      </trkpt>
      <trkpt lat="44.86452" lon="4.80511">
        <ele>332.60000610352</ele>
        <time>2023-12-17T08:19:55.000Z</time>
      </trkpt>
      <trkpt lat="44.86454" lon="4.80508">
        <ele>333.20001220703</ele>
        <time>2023-12-17T08:19:57.000Z</time>
      </trkpt>
      <trkpt lat="44.86455" lon="4.80506">
        <ele>333.79998779297</ele>
        <time>2023-12-17T08:19:58.000Z</time>
      </trkpt>
      <trkpt lat="44.86463" lon="4.80497">
        <ele>335</ele>
        <time>2023-12-17T08:20:03.000Z</time>
      </trkpt>
      <trkpt lat="44.86465" lon="4.80493">
        <ele>335.60000610352</ele>
        <time>2023-12-17T08:20:05.000Z</time>
      </trkpt>
      <trkpt lat="44.86467" lon="4.80491">
        <ele>336</ele>
        <time>2023-12-17T08:20:06.000Z</time>
      </trkpt>
      <trkpt lat="44.86471" lon="4.80488">
        <ele>337.20001220703</ele>
        <time>2023-12-17T08:20:09.000Z</time>
      </trkpt>
      <trkpt lat="44.86476" lon="4.80483">
        <ele>338.20001220703</ele>
        <time>2023-12-17T08:20:13.000Z</time>
      </trkpt>
      <trkpt lat="44.86477" lon="4.80481">
        <ele>338.60000610352</ele>
        <time>2023-12-17T08:20:14.000Z</time>
      </trkpt>
      <trkpt lat="44.8648" lon="4.80476">
        <ele>339.60000610352</ele>
        <time>2023-12-17T08:20:17.000Z</time>
      </trkpt>
      <trkpt lat="44.86484" lon="4.80466">
        <ele>340.60000610352</ele>
        <time>2023-12-17T08:20:21.000Z</time>
      </trkpt>
      <trkpt lat="44.86487" lon="4.80457">
        <ele>341.60000610352</ele>
        <time>2023-12-17T08:20:25.000Z</time>
      </trkpt>
      <trkpt lat="44.86488" lon="4.8045">
        <ele>342.20001220703</ele>
        <time>2023-12-17T08:20:28.000Z</time>
      </trkpt>
      <trkpt lat="44.8649" lon="4.80444">
        <ele>342.79998779297</ele>
        <time>2023-12-17T08:20:31.000Z</time>
      </trkpt>
      <trkpt lat="44.86493" lon="4.80436">
        <ele>344</ele>
        <time>2023-12-17T08:20:34.000Z</time>
      </trkpt>
      <trkpt lat="44.86496" lon="4.80428">
        <ele>345.20001220703</ele>
        <time>2023-12-17T08:20:38.000Z</time>
      </trkpt>
      <trkpt lat="44.86498" lon="4.80423">
        <ele>346.60000610352</ele>
        <time>2023-12-17T08:20:41.000Z</time>
      </trkpt>
      <trkpt lat="44.86499" lon="4.80409">
        <ele>348</ele>
        <time>2023-12-17T08:20:46.000Z</time>
      </trkpt>
      <trkpt lat="44.86499" lon="4.80405">
        <ele>348.20001220703</ele>
        <time>2023-12-17T08:20:47.000Z</time>
      </trkpt>
      <trkpt lat="44.865" lon="4.80403">
        <ele>349.20001220703</ele>
        <time>2023-12-17T08:20:48.000Z</time>
      </trkpt>
      <trkpt lat="44.86504" lon="4.80397">
        <ele>350.20001220703</ele>
        <time>2023-12-17T08:20:51.000Z</time>
      </trkpt>
      <trkpt lat="44.86506" lon="4.80392">
        <ele>350.60000610352</ele>
        <time>2023-12-17T08:20:53.000Z</time>
      </trkpt>
      <trkpt lat="44.86508" lon="4.80388">
        <ele>351.20001220703</ele>
        <time>2023-12-17T08:20:55.000Z</time>
      </trkpt>
      <trkpt lat="44.86512" lon="4.80381">
        <ele>352.39999389648</ele>
        <time>2023-12-17T08:20:58.000Z</time>
      </trkpt>
      <trkpt lat="44.86514" lon="4.8038">
        <ele>353</ele>
        <time>2023-12-17T08:20:59.000Z</time>
      </trkpt>
      <trkpt lat="44.86518" lon="4.80377">
        <ele>353.79998779297</ele>
        <time>2023-12-17T08:21:01.000Z</time>
      </trkpt>
      <trkpt lat="44.86521" lon="4.8037">
        <ele>354.60000610352</ele>
        <time>2023-12-17T08:21:05.000Z</time>
      </trkpt>
      <trkpt lat="44.86523" lon="4.80368">
        <ele>354.79998779297</ele>
        <time>2023-12-17T08:21:06.000Z</time>
      </trkpt>
      <trkpt lat="44.86527" lon="4.80361">
        <ele>356</ele>
        <time>2023-12-17T08:21:10.000Z</time>
      </trkpt>
      <trkpt lat="44.86529" lon="4.80356">
        <ele>356.60000610352</ele>
        <time>2023-12-17T08:21:12.000Z</time>
      </trkpt>
      <trkpt lat="44.86532" lon="4.80352">
        <ele>357.39999389648</ele>
        <time>2023-12-17T08:21:14.000Z</time>
      </trkpt>
      <trkpt lat="44.86537" lon="4.80343">
        <ele>358.20001220703</ele>
        <time>2023-12-17T08:21:18.000Z</time>
      </trkpt>
      <trkpt lat="44.86538" lon="4.80341">
        <ele>358.39999389648</ele>
        <time>2023-12-17T08:21:19.000Z</time>
      </trkpt>
      <trkpt lat="44.86542" lon="4.80331">
        <ele>359.60000610352</ele>
        <time>2023-12-17T08:21:23.000Z</time>
      </trkpt>
      <trkpt lat="44.86543" lon="4.80328">
        <ele>359.79998779297</ele>
        <time>2023-12-17T08:21:24.000Z</time>
      </trkpt>
      <trkpt lat="44.86545" lon="4.80325">
        <ele>359.79998779297</ele>
        <time>2023-12-17T08:21:25.000Z</time>
      </trkpt>
      <trkpt lat="44.86548" lon="4.80317">
        <ele>360.79998779297</ele>
        <time>2023-12-17T08:21:28.000Z</time>
      </trkpt>
      <trkpt lat="44.86552" lon="4.80312">
        <ele>361.60000610352</ele>
        <time>2023-12-17T08:21:31.000Z</time>
      </trkpt>
      <trkpt lat="44.86553" lon="4.8031">
        <ele>361.79998779297</ele>
        <time>2023-12-17T08:21:32.000Z</time>
      </trkpt>
      <trkpt lat="44.86561" lon="4.80297">
        <ele>362.79998779297</ele>
        <time>2023-12-17T08:21:38.000Z</time>
      </trkpt>
      <trkpt lat="44.86562" lon="4.80294">
        <ele>362.79998779297</ele>
        <time>2023-12-17T08:21:39.000Z</time>
      </trkpt>
      <trkpt lat="44.86569" lon="4.80278">
        <ele>364</ele>
        <time>2023-12-17T08:21:45.000Z</time>
      </trkpt>
      <trkpt lat="44.86577" lon="4.80262">
        <ele>364.60000610352</ele>
        <time>2023-12-17T08:21:52.000Z</time>
      </trkpt>
      <trkpt lat="44.86579" lon="4.8026">
        <ele>364.79998779297</ele>
        <time>2023-12-17T08:21:53.000Z</time>
      </trkpt>
      <trkpt lat="44.8658" lon="4.80258">
        <ele>365.20001220703</ele>
        <time>2023-12-17T08:21:54.000Z</time>
      </trkpt>
      <trkpt lat="44.86582" lon="4.8025">
        <ele>366.39999389648</ele>
        <time>2023-12-17T08:21:57.000Z</time>
      </trkpt>
      <trkpt lat="44.86585" lon="4.80245">
        <ele>366.79998779297</ele>
        <time>2023-12-17T08:21:59.000Z</time>
      </trkpt>
      <trkpt lat="44.86588" lon="4.80236">
        <ele>367.60000610352</ele>
        <time>2023-12-17T08:22:03.000Z</time>
      </trkpt>
      <trkpt lat="44.86594" lon="4.80226">
        <ele>368.60000610352</ele>
        <time>2023-12-17T08:22:07.000Z</time>
      </trkpt>
      <trkpt lat="44.866" lon="4.80208">
        <ele>369.60000610352</ele>
        <time>2023-12-17T08:22:12.000Z</time>
      </trkpt>
      <trkpt lat="44.86601" lon="4.80201">
        <ele>370</ele>
        <time>2023-12-17T08:22:14.000Z</time>
      </trkpt>
      <trkpt lat="44.86602" lon="4.80198">
        <ele>370</ele>
        <time>2023-12-17T08:22:15.000Z</time>
      </trkpt>
      <trkpt lat="44.86604" lon="4.80189">
        <ele>370.79998779297</ele>
        <time>2023-12-17T08:22:18.000Z</time>
      </trkpt>
      <trkpt lat="44.86607" lon="4.80177">
        <ele>371.79998779297</ele>
        <time>2023-12-17T08:22:22.000Z</time>
      </trkpt>
      <trkpt lat="44.86608" lon="4.80167">
        <ele>372.79998779297</ele>
        <time>2023-12-17T08:22:25.000Z</time>
      </trkpt>
      <trkpt lat="44.86609" lon="4.80164">
        <ele>373</ele>
        <time>2023-12-17T08:22:26.000Z</time>
      </trkpt>
      <trkpt lat="44.86609" lon="4.80153">
        <ele>373.60000610352</ele>
        <time>2023-12-17T08:22:30.000Z</time>
      </trkpt>
      <trkpt lat="44.86611" lon="4.80146">
        <ele>374.20001220703</ele>
        <time>2023-12-17T08:22:33.000Z</time>
      </trkpt>
      <trkpt lat="44.8661" lon="4.80141">
        <ele>374.39999389648</ele>
        <time>2023-12-17T08:22:35.000Z</time>
      </trkpt>
      <trkpt lat="44.86609" lon="4.80131">
        <ele>375</ele>
        <time>2023-12-17T08:22:39.000Z</time>
      </trkpt>
      <trkpt lat="44.86609" lon="4.80128">
        <ele>375.39999389648</ele>
        <time>2023-12-17T08:22:40.000Z</time>
      </trkpt>
      <trkpt lat="44.86609" lon="4.80126">
        <ele>375.79998779297</ele>
        <time>2023-12-17T08:22:41.000Z</time>
      </trkpt>
      <trkpt lat="44.86608" lon="4.8012">
        <ele>376.39999389648</ele>
        <time>2023-12-17T08:22:43.000Z</time>
      </trkpt>
      <trkpt lat="44.86609" lon="4.80116">
        <ele>377</ele>
        <time>2023-12-17T08:22:45.000Z</time>
      </trkpt>
      <trkpt lat="44.8661" lon="4.80114">
        <ele>377.60000610352</ele>
        <time>2023-12-17T08:22:46.000Z</time>
      </trkpt>
      <trkpt lat="44.86611" lon="4.80107">
        <ele>378.79998779297</ele>
        <time>2023-12-17T08:22:49.000Z</time>
      </trkpt>
      <trkpt lat="44.86612" lon="4.801">
        <ele>380</ele>
        <time>2023-12-17T08:22:52.000Z</time>
      </trkpt>
      <trkpt lat="44.86611" lon="4.80093">
        <ele>381</ele>
        <time>2023-12-17T08:22:55.000Z</time>
      </trkpt>
      <trkpt lat="44.86612" lon="4.80091">
        <ele>381.20001220703</ele>
        <time>2023-12-17T08:22:56.000Z</time>
      </trkpt>
      <trkpt lat="44.86614" lon="4.80084">
        <ele>382.20001220703</ele>
        <time>2023-12-17T08:22:59.000Z</time>
      </trkpt>
      <trkpt lat="44.86614" lon="4.80073">
        <ele>383.20001220703</ele>
        <time>2023-12-17T08:23:03.000Z</time>
      </trkpt>
      <trkpt lat="44.86615" lon="4.8007">
        <ele>383.39999389648</ele>
        <time>2023-12-17T08:23:04.000Z</time>
      </trkpt>
      <trkpt lat="44.86615" lon="4.80062">
        <ele>384.39999389648</ele>
        <time>2023-12-17T08:23:08.000Z</time>
      </trkpt>
      <trkpt lat="44.86616" lon="4.80057">
        <ele>384.79998779297</ele>
        <time>2023-12-17T08:23:10.000Z</time>
      </trkpt>
      <trkpt lat="44.86617" lon="4.80048">
        <ele>385.79998779297</ele>
        <time>2023-12-17T08:23:13.000Z</time>
      </trkpt>
      <trkpt lat="44.86618" lon="4.80036">
        <ele>387</ele>
        <time>2023-12-17T08:23:16.000Z</time>
      </trkpt>
      <trkpt lat="44.86618" lon="4.80021">
        <ele>388.39999389648</ele>
        <time>2023-12-17T08:23:21.000Z</time>
      </trkpt>
      <trkpt lat="44.86617" lon="4.80013">
        <ele>389</ele>
        <time>2023-12-17T08:23:24.000Z</time>
      </trkpt>
      <trkpt lat="44.86617" lon="4.80008">
        <ele>389.60000610352</ele>
        <time>2023-12-17T08:23:26.000Z</time>
      </trkpt>
      <trkpt lat="44.86615" lon="4.79997">
        <ele>390.60000610352</ele>
        <time>2023-12-17T08:23:30.000Z</time>
      </trkpt>
      <trkpt lat="44.86614" lon="4.79992">
        <ele>391.20001220703</ele>
        <time>2023-12-17T08:23:32.000Z</time>
      </trkpt>
      <trkpt lat="44.86614" lon="4.79989">
        <ele>391.60000610352</ele>
        <time>2023-12-17T08:23:33.000Z</time>
      </trkpt>
      <trkpt lat="44.86613" lon="4.7998">
        <ele>392.60000610352</ele>
        <time>2023-12-17T08:23:36.000Z</time>
      </trkpt>
      <trkpt lat="44.86613" lon="4.79972">
        <ele>393.20001220703</ele>
        <time>2023-12-17T08:23:39.000Z</time>
      </trkpt>
      <trkpt lat="44.86612" lon="4.79964">
        <ele>393.60000610352</ele>
        <time>2023-12-17T08:23:42.000Z</time>
      </trkpt>
      <trkpt lat="44.86611" lon="4.79959">
        <ele>394</ele>
        <time>2023-12-17T08:23:44.000Z</time>
      </trkpt>
      <trkpt lat="44.86612" lon="4.79954">
        <ele>394.79998779297</ele>
        <time>2023-12-17T08:23:46.000Z</time>
      </trkpt>
      <trkpt lat="44.86612" lon="4.79947">
        <ele>395.60000610352</ele>
        <time>2023-12-17T08:23:49.000Z</time>
      </trkpt>
      <trkpt lat="44.86614" lon="4.79942">
        <ele>396</ele>
        <time>2023-12-17T08:23:51.000Z</time>
      </trkpt>
      <trkpt lat="44.86617" lon="4.79934">
        <ele>397.20001220703</ele>
        <time>2023-12-17T08:23:54.000Z</time>
      </trkpt>
      <trkpt lat="44.8662" lon="4.79927">
        <ele>398.39999389648</ele>
        <time>2023-12-17T08:23:57.000Z</time>
      </trkpt>
      <trkpt lat="44.86623" lon="4.79913">
        <ele>399.79998779297</ele>
        <time>2023-12-17T08:24:03.000Z</time>
      </trkpt>
      <trkpt lat="44.86624" lon="4.79908">
        <ele>401.60000610352</ele>
        <time>2023-12-17T08:24:06.000Z</time>
      </trkpt>
      <trkpt lat="44.86626" lon="4.79901">
        <ele>402.79998779297</ele>
        <time>2023-12-17T08:24:10.000Z</time>
      </trkpt>
      <trkpt lat="44.86628" lon="4.79894">
        <ele>404</ele>
        <time>2023-12-17T08:24:13.000Z</time>
      </trkpt>
      <trkpt lat="44.8663" lon="4.79889">
        <ele>405.20001220703</ele>
        <time>2023-12-17T08:24:16.000Z</time>
      </trkpt>
      <trkpt lat="44.86631" lon="4.79883">
        <ele>405.60000610352</ele>
        <time>2023-12-17T08:24:18.000Z</time>
      </trkpt>
      <trkpt lat="44.86635" lon="4.79875">
        <ele>406.20001220703</ele>
        <time>2023-12-17T08:24:21.000Z</time>
      </trkpt>
      <trkpt lat="44.86637" lon="4.79866">
        <ele>407.60000610352</ele>
        <time>2023-12-17T08:24:24.000Z</time>
      </trkpt>
      <trkpt lat="44.86638" lon="4.79861">
        <ele>408.20001220703</ele>
        <time>2023-12-17T08:24:26.000Z</time>
      </trkpt>
      <trkpt lat="44.86638" lon="4.79859">
        <ele>408.60000610352</ele>
        <time>2023-12-17T08:24:27.000Z</time>
      </trkpt>
      <trkpt lat="44.86639" lon="4.79851">
        <ele>409.20001220703</ele>
        <time>2023-12-17T08:24:29.000Z</time>
      </trkpt>
      <trkpt lat="44.8664" lon="4.79846">
        <ele>409.60000610352</ele>
        <time>2023-12-17T08:24:31.000Z</time>
      </trkpt>
      <trkpt lat="44.86643" lon="4.79836">
        <ele>410.79998779297</ele>
        <time>2023-12-17T08:24:34.000Z</time>
      </trkpt>
      <trkpt lat="44.86645" lon="4.79829">
        <ele>412</ele>
        <time>2023-12-17T08:24:37.000Z</time>
      </trkpt>
      <trkpt lat="44.86646" lon="4.79824">
        <ele>412.39999389648</ele>
        <time>2023-12-17T08:24:39.000Z</time>
      </trkpt>
      <trkpt lat="44.86648" lon="4.79814">
        <ele>413.60000610352</ele>
        <time>2023-12-17T08:24:42.000Z</time>
      </trkpt>
      <trkpt lat="44.8665" lon="4.79807">
        <ele>414.39999389648</ele>
        <time>2023-12-17T08:24:45.000Z</time>
      </trkpt>
      <trkpt lat="44.86652" lon="4.79798">
        <ele>415</ele>
        <time>2023-12-17T08:24:48.000Z</time>
      </trkpt>
      <trkpt lat="44.86655" lon="4.79789">
        <ele>416.39999389648</ele>
        <time>2023-12-17T08:24:52.000Z</time>
      </trkpt>
      <trkpt lat="44.86656" lon="4.79787">
        <ele>416.79998779297</ele>
        <time>2023-12-17T08:24:53.000Z</time>
      </trkpt>
      <trkpt lat="44.86657" lon="4.79785">
        <ele>417</ele>
        <time>2023-12-17T08:24:54.000Z</time>
      </trkpt>
      <trkpt lat="44.86658" lon="4.7978">
        <ele>417.60000610352</ele>
        <time>2023-12-17T08:24:56.000Z</time>
      </trkpt>
      <trkpt lat="44.8666" lon="4.79772">
        <ele>418.79998779297</ele>
        <time>2023-12-17T08:24:59.000Z</time>
      </trkpt>
      <trkpt lat="44.86666" lon="4.79752">
        <ele>419.79998779297</ele>
        <time>2023-12-17T08:25:05.000Z</time>
      </trkpt>
      <trkpt lat="44.86666" lon="4.79745">
        <ele>420.79998779297</ele>
        <time>2023-12-17T08:25:07.000Z</time>
      </trkpt>
      <trkpt lat="44.86667" lon="4.79735">
        <ele>422</ele>
        <time>2023-12-17T08:25:10.000Z</time>
      </trkpt>
      <trkpt lat="44.86668" lon="4.79729">
        <ele>422.39999389648</ele>
        <time>2023-12-17T08:25:12.000Z</time>
      </trkpt>
      <trkpt lat="44.86668" lon="4.79725">
        <ele>422.79998779297</ele>
        <time>2023-12-17T08:25:13.000Z</time>
      </trkpt>
      <trkpt lat="44.86669" lon="4.79719">
        <ele>423.20001220703</ele>
        <time>2023-12-17T08:25:15.000Z</time>
      </trkpt>
      <trkpt lat="44.86668" lon="4.79716">
        <ele>423.79998779297</ele>
        <time>2023-12-17T08:25:16.000Z</time>
      </trkpt>
      <trkpt lat="44.86669" lon="4.79706">
        <ele>424.39999389648</ele>
        <time>2023-12-17T08:25:19.000Z</time>
      </trkpt>
      <trkpt lat="44.86668" lon="4.79699">
        <ele>425.79998779297</ele>
        <time>2023-12-17T08:25:22.000Z</time>
      </trkpt>
      <trkpt lat="44.86667" lon="4.79693">
        <ele>426.60000610352</ele>
        <time>2023-12-17T08:25:25.000Z</time>
      </trkpt>
      <trkpt lat="44.86666" lon="4.79688">
        <ele>427.20001220703</ele>
        <time>2023-12-17T08:25:27.000Z</time>
      </trkpt>
      <trkpt lat="44.86668" lon="4.79683">
        <ele>428</ele>
        <time>2023-12-17T08:25:29.000Z</time>
      </trkpt>
      <trkpt lat="44.8667" lon="4.79677">
        <ele>428.39999389648</ele>
        <time>2023-12-17T08:25:31.000Z</time>
      </trkpt>
      <trkpt lat="44.86674" lon="4.79662">
        <ele>429.60000610352</ele>
        <time>2023-12-17T08:25:36.000Z</time>
      </trkpt>
      <trkpt lat="44.86673" lon="4.79657">
        <ele>430.20001220703</ele>
        <time>2023-12-17T08:25:38.000Z</time>
      </trkpt>
      <trkpt lat="44.86673" lon="4.79653">
        <ele>430.79998779297</ele>
        <time>2023-12-17T08:25:40.000Z</time>
      </trkpt>
      <trkpt lat="44.86672" lon="4.79651">
        <ele>431</ele>
        <time>2023-12-17T08:25:42.000Z</time>
      </trkpt>
      <trkpt lat="44.86672" lon="4.79649">
        <ele>431.20001220703</ele>
        <time>2023-12-17T08:25:43.000Z</time>
      </trkpt>
      <trkpt lat="44.86673" lon="4.79645">
        <ele>431.20001220703</ele>
        <time>2023-12-17T08:25:45.000Z</time>
      </trkpt>
      <trkpt lat="44.86673" lon="4.79643">
        <ele>431.20001220703</ele>
        <time>2023-12-17T08:25:48.000Z</time>
      </trkpt>
      <trkpt lat="44.86672" lon="4.79644">
        <ele>431.79998779297</ele>
        <time>2023-12-17T08:25:55.000Z</time>
      </trkpt>
      <trkpt lat="44.86672" lon="4.79644">
        <ele>431.79998779297</ele>
        <time>2023-12-17T08:25:56.000Z</time>
      </trkpt>
      <trkpt lat="44.86671" lon="4.79645">
        <ele>431.39999389648</ele>
        <time>2023-12-17T08:26:02.000Z</time>
      </trkpt>
      <trkpt lat="44.8667" lon="4.79645">
        <ele>431.39999389648</ele>
        <time>2023-12-17T08:26:03.000Z</time>
      </trkpt>
      <trkpt lat="44.86669" lon="4.79647">
        <ele>431.20001220703</ele>
        <time>2023-12-17T08:26:05.000Z</time>
      </trkpt>
      <trkpt lat="44.86668" lon="4.79648">
        <ele>427.79998779297</ele>
        <time>2023-12-17T08:26:06.000Z</time>
      </trkpt>
      <trkpt lat="44.86667" lon="4.79649">
        <ele>427.79998779297</ele>
        <time>2023-12-17T08:26:07.000Z</time>
      </trkpt>
      <trkpt lat="44.86666" lon="4.79654">
        <ele>429.20001220703</ele>
        <time>2023-12-17T08:26:10.000Z</time>
      </trkpt>
      <trkpt lat="44.86665" lon="4.79658">
        <ele>430.39999389648</ele>
        <time>2023-12-17T08:26:12.000Z</time>
      </trkpt>
      <trkpt lat="44.86664" lon="4.79661">
        <ele>430.60000610352</ele>
        <time>2023-12-17T08:26:13.000Z</time>
      </trkpt>
      <trkpt lat="44.86662" lon="4.79672">
        <ele>431.39999389648</ele>
        <time>2023-12-17T08:26:18.000Z</time>
      </trkpt>
      <trkpt lat="44.86661" lon="4.79674">
        <ele>431.39999389648</ele>
        <time>2023-12-17T08:26:19.000Z</time>
      </trkpt>
      <trkpt lat="44.86657" lon="4.79686">
        <ele>431</ele>
        <time>2023-12-17T08:26:25.000Z</time>
      </trkpt>
      <trkpt lat="44.86651" lon="4.79698">
        <ele>431.39999389648</ele>
        <time>2023-12-17T08:26:30.000Z</time>
      </trkpt>
      <trkpt lat="44.86641" lon="4.79712">
        <ele>432.60000610352</ele>
        <time>2023-12-17T08:26:36.000Z</time>
      </trkpt>
      <trkpt lat="44.86639" lon="4.79715">
        <ele>432.60000610352</ele>
        <time>2023-12-17T08:26:37.000Z</time>
      </trkpt>
      <trkpt lat="44.86631" lon="4.7973">
        <ele>432.60000610352</ele>
        <time>2023-12-17T08:26:43.000Z</time>
      </trkpt>
      <trkpt lat="44.86617" lon="4.79752">
        <ele>433.60000610352</ele>
        <time>2023-12-17T08:26:51.000Z</time>
      </trkpt>
      <trkpt lat="44.86606" lon="4.79763">
        <ele>434.79998779297</ele>
        <time>2023-12-17T08:26:56.000Z</time>
      </trkpt>
      <trkpt lat="44.86604" lon="4.79765">
        <ele>435.20001220703</ele>
        <time>2023-12-17T08:26:57.000Z</time>
      </trkpt>
      <trkpt lat="44.86597" lon="4.7977">
        <ele>436</ele>
        <time>2023-12-17T08:27:00.000Z</time>
      </trkpt>
      <trkpt lat="44.86588" lon="4.79777">
        <ele>436.60000610352</ele>
        <time>2023-12-17T08:27:04.000Z</time>
      </trkpt>
      <trkpt lat="44.86585" lon="4.79778">
        <ele>437.39999389648</ele>
        <time>2023-12-17T08:27:06.000Z</time>
      </trkpt>
      <trkpt lat="44.86582" lon="4.7978">
        <ele>438.60000610352</ele>
        <time>2023-12-17T08:27:08.000Z</time>
      </trkpt>
      <trkpt lat="44.8658" lon="4.7978">
        <ele>438.79998779297</ele>
        <time>2023-12-17T08:27:09.000Z</time>
      </trkpt>
      <trkpt lat="44.86574" lon="4.79783">
        <ele>439.79998779297</ele>
        <time>2023-12-17T08:27:12.000Z</time>
      </trkpt>
      <trkpt lat="44.86568" lon="4.79785">
        <ele>440.60000610352</ele>
        <time>2023-12-17T08:27:15.000Z</time>
      </trkpt>
      <trkpt lat="44.86565" lon="4.79785">
        <ele>440.79998779297</ele>
        <time>2023-12-17T08:27:17.000Z</time>
      </trkpt>
      <trkpt lat="44.86559" lon="4.79786">
        <ele>441.60000610352</ele>
        <time>2023-12-17T08:27:20.000Z</time>
      </trkpt>
      <trkpt lat="44.86556" lon="4.79786">
        <ele>441.79998779297</ele>
        <time>2023-12-17T08:27:22.000Z</time>
      </trkpt>
      <trkpt lat="44.86545" lon="4.79789">
        <ele>442.79998779297</ele>
        <time>2023-12-17T08:27:27.000Z</time>
      </trkpt>
      <trkpt lat="44.86542" lon="4.79791">
        <ele>443</ele>
        <time>2023-12-17T08:27:28.000Z</time>
      </trkpt>
      <trkpt lat="44.86533" lon="4.79793">
        <ele>443.39999389648</ele>
        <time>2023-12-17T08:27:32.000Z</time>
      </trkpt>
      <trkpt lat="44.86527" lon="4.79794">
        <ele>444.39999389648</ele>
        <time>2023-12-17T08:27:35.000Z</time>
      </trkpt>
      <trkpt lat="44.8652" lon="4.79794">
        <ele>445.60000610352</ele>
        <time>2023-12-17T08:27:38.000Z</time>
      </trkpt>
      <trkpt lat="44.86517" lon="4.79794">
        <ele>445.79998779297</ele>
        <time>2023-12-17T08:27:39.000Z</time>
      </trkpt>
      <trkpt lat="44.86503" lon="4.79799">
        <ele>446.39999389648</ele>
        <time>2023-12-17T08:27:44.000Z</time>
      </trkpt>
      <trkpt lat="44.86499" lon="4.798">
        <ele>446.60000610352</ele>
        <time>2023-12-17T08:27:45.000Z</time>
      </trkpt>
      <trkpt lat="44.86492" lon="4.79805">
        <ele>447.39999389648</ele>
        <time>2023-12-17T08:27:48.000Z</time>
      </trkpt>
      <trkpt lat="44.86482" lon="4.79808">
        <ele>447.79998779297</ele>
        <time>2023-12-17T08:27:51.000Z</time>
      </trkpt>
      <trkpt lat="44.86476" lon="4.7981">
        <ele>448.60000610352</ele>
        <time>2023-12-17T08:27:54.000Z</time>
      </trkpt>
      <trkpt lat="44.86474" lon="4.79811">
        <ele>448.79998779297</ele>
        <time>2023-12-17T08:27:55.000Z</time>
      </trkpt>
      <trkpt lat="44.86471" lon="4.79813">
        <ele>449</ele>
        <time>2023-12-17T08:27:57.000Z</time>
      </trkpt>
      <trkpt lat="44.86465" lon="4.79814">
        <ele>449.39999389648</ele>
        <time>2023-12-17T08:27:59.000Z</time>
      </trkpt>
      <trkpt lat="44.86461" lon="4.79815">
        <ele>449.79998779297</ele>
        <time>2023-12-17T08:28:00.000Z</time>
      </trkpt>
      <trkpt lat="44.86453" lon="4.79816">
        <ele>451.20001220703</ele>
        <time>2023-12-17T08:28:03.000Z</time>
      </trkpt>
      <trkpt lat="44.86451" lon="4.79816">
        <ele>451.60000610352</ele>
        <time>2023-12-17T08:28:04.000Z</time>
      </trkpt>
      <trkpt lat="44.86444" lon="4.79817">
        <ele>452.20001220703</ele>
        <time>2023-12-17T08:28:06.000Z</time>
      </trkpt>
      <trkpt lat="44.86437" lon="4.79817">
        <ele>453.39999389648</ele>
        <time>2023-12-17T08:28:08.000Z</time>
      </trkpt>
      <trkpt lat="44.86428" lon="4.79816">
        <ele>454.20001220703</ele>
        <time>2023-12-17T08:28:11.000Z</time>
      </trkpt>
      <trkpt lat="44.86418" lon="4.79815">
        <ele>454.60000610352</ele>
        <time>2023-12-17T08:28:14.000Z</time>
      </trkpt>
      <trkpt lat="44.86409" lon="4.79816">
        <ele>455.20001220703</ele>
        <time>2023-12-17T08:28:17.000Z</time>
      </trkpt>
      <trkpt lat="44.86401" lon="4.79817">
        <ele>456</ele>
        <time>2023-12-17T08:28:20.000Z</time>
      </trkpt>
      <trkpt lat="44.86391" lon="4.79817">
        <ele>456.60000610352</ele>
        <time>2023-12-17T08:28:24.000Z</time>
      </trkpt>
      <trkpt lat="44.86383" lon="4.79809">
        <ele>457.60000610352</ele>
        <time>2023-12-17T08:28:28.000Z</time>
      </trkpt>
      <trkpt lat="44.86383" lon="4.79803">
        <ele>458.20001220703</ele>
        <time>2023-12-17T08:28:30.000Z</time>
      </trkpt>
      <trkpt lat="44.86385" lon="4.79799">
        <ele>458.60000610352</ele>
        <time>2023-12-17T08:28:32.000Z</time>
      </trkpt>
      <trkpt lat="44.8639" lon="4.79792">
        <ele>458.79998779297</ele>
        <time>2023-12-17T08:28:35.000Z</time>
      </trkpt>
      <trkpt lat="44.86394" lon="4.79783">
        <ele>459.20001220703</ele>
        <time>2023-12-17T08:28:38.000Z</time>
      </trkpt>
      <trkpt lat="44.86401" lon="4.79772">
        <ele>459.79998779297</ele>
        <time>2023-12-17T08:28:42.000Z</time>
      </trkpt>
      <trkpt lat="44.86409" lon="4.79759">
        <ele>460.79998779297</ele>
        <time>2023-12-17T08:28:47.000Z</time>
      </trkpt>
      <trkpt lat="44.86412" lon="4.79754">
        <ele>461.39999389648</ele>
        <time>2023-12-17T08:28:49.000Z</time>
      </trkpt>
      <trkpt lat="44.86422" lon="4.79741">
        <ele>462.60000610352</ele>
        <time>2023-12-17T08:28:54.000Z</time>
      </trkpt>
      <trkpt lat="44.86426" lon="4.79734">
        <ele>463.60000610352</ele>
        <time>2023-12-17T08:28:59.000Z</time>
      </trkpt>
      <trkpt lat="44.86428" lon="4.79729">
        <ele>463.60000610352</ele>
        <time>2023-12-17T08:29:02.000Z</time>
      </trkpt>
      <trkpt lat="44.86428" lon="4.79728">
        <ele>463.79998779297</ele>
        <time>2023-12-17T08:29:03.000Z</time>
      </trkpt>
      <trkpt lat="44.86427" lon="4.79727">
        <ele>463.79998779297</ele>
        <time>2023-12-17T08:29:04.000Z</time>
      </trkpt>
      <trkpt lat="44.86426" lon="4.79725">
        <ele>463.79998779297</ele>
        <time>2023-12-17T08:29:05.000Z</time>
      </trkpt>
      <trkpt lat="44.86418" lon="4.79716">
        <ele>465</ele>
        <time>2023-12-17T08:29:10.000Z</time>
      </trkpt>
      <trkpt lat="44.86418" lon="4.79712">
        <ele>465.60000610352</ele>
        <time>2023-12-17T08:29:12.000Z</time>
      </trkpt>
      <trkpt lat="44.86418" lon="4.7971">
        <ele>466</ele>
        <time>2023-12-17T08:29:13.000Z</time>
      </trkpt>
      <trkpt lat="44.86418" lon="4.79699">
        <ele>466.79998779297</ele>
        <time>2023-12-17T08:29:17.000Z</time>
      </trkpt>
      <trkpt lat="44.86418" lon="4.79696">
        <ele>467.20001220703</ele>
        <time>2023-12-17T08:29:18.000Z</time>
      </trkpt>
      <trkpt lat="44.86422" lon="4.79687">
        <ele>468.39999389648</ele>
        <time>2023-12-17T08:29:22.000Z</time>
      </trkpt>
      <trkpt lat="44.86423" lon="4.79681">
        <ele>468.79998779297</ele>
        <time>2023-12-17T08:29:24.000Z</time>
      </trkpt>
      <trkpt lat="44.86424" lon="4.79674">
        <ele>469.39999389648</ele>
        <time>2023-12-17T08:29:27.000Z</time>
      </trkpt>
      <trkpt lat="44.86423" lon="4.79664">
        <ele>470.39999389648</ele>
        <time>2023-12-17T08:29:31.000Z</time>
      </trkpt>
      <trkpt lat="44.86423" lon="4.79661">
        <ele>470.79998779297</ele>
        <time>2023-12-17T08:29:32.000Z</time>
      </trkpt>
      <trkpt lat="44.86425" lon="4.79647">
        <ele>471.60000610352</ele>
        <time>2023-12-17T08:29:37.000Z</time>
      </trkpt>
      <trkpt lat="44.86427" lon="4.79644">
        <ele>471.79998779297</ele>
        <time>2023-12-17T08:29:38.000Z</time>
      </trkpt>
      <trkpt lat="44.86428" lon="4.79642">
        <ele>472.20001220703</ele>
        <time>2023-12-17T08:29:39.000Z</time>
      </trkpt>
      <trkpt lat="44.8643" lon="4.79636">
        <ele>473.39999389648</ele>
        <time>2023-12-17T08:29:42.000Z</time>
      </trkpt>
      <trkpt lat="44.86429" lon="4.79633">
        <ele>473.60000610352</ele>
        <time>2023-12-17T08:29:43.000Z</time>
      </trkpt>
      <trkpt lat="44.86429" lon="4.79613">
        <ele>474.39999389648</ele>
        <time>2023-12-17T08:29:49.000Z</time>
      </trkpt>
      <trkpt lat="44.86433" lon="4.79606">
        <ele>475.60000610352</ele>
        <time>2023-12-17T08:29:52.000Z</time>
      </trkpt>
      <trkpt lat="44.86436" lon="4.79599">
        <ele>475.79998779297</ele>
        <time>2023-12-17T08:29:54.000Z</time>
      </trkpt>
      <trkpt lat="44.86441" lon="4.79588">
        <ele>476.79998779297</ele>
        <time>2023-12-17T08:29:57.000Z</time>
      </trkpt>
      <trkpt lat="44.86446" lon="4.79584">
        <ele>477</ele>
        <time>2023-12-17T08:29:59.000Z</time>
      </trkpt>
      <trkpt lat="44.86461" lon="4.79578">
        <ele>477</ele>
        <time>2023-12-17T08:30:05.000Z</time>
      </trkpt>
      <trkpt lat="44.86472" lon="4.79567">
        <ele>477.60000610352</ele>
        <time>2023-12-17T08:30:11.000Z</time>
      </trkpt>
      <trkpt lat="44.86475" lon="4.79566">
        <ele>478</ele>
        <time>2023-12-17T08:30:12.000Z</time>
      </trkpt>
      <trkpt lat="44.86478" lon="4.79561">
        <ele>478.60000610352</ele>
        <time>2023-12-17T08:30:16.000Z</time>
      </trkpt>
      <trkpt lat="44.86484" lon="4.79548">
        <ele>479</ele>
        <time>2023-12-17T08:30:21.000Z</time>
      </trkpt>
      <trkpt lat="44.86484" lon="4.79545">
        <ele>479.20001220703</ele>
        <time>2023-12-17T08:30:22.000Z</time>
      </trkpt>
      <trkpt lat="44.86485" lon="4.79542">
        <ele>479.20001220703</ele>
        <time>2023-12-17T08:30:23.000Z</time>
      </trkpt>
      <trkpt lat="44.86485" lon="4.7953">
        <ele>479.39999389648</ele>
        <time>2023-12-17T08:30:26.000Z</time>
      </trkpt>
      <trkpt lat="44.86485" lon="4.79525">
        <ele>479.60000610352</ele>
        <time>2023-12-17T08:30:27.000Z</time>
      </trkpt>
      <trkpt lat="44.8649" lon="4.79513">
        <ele>480.39999389648</ele>
        <time>2023-12-17T08:30:30.000Z</time>
      </trkpt>
      <trkpt lat="44.86497" lon="4.79491">
        <ele>481.60000610352</ele>
        <time>2023-12-17T08:30:35.000Z</time>
      </trkpt>
      <trkpt lat="44.86499" lon="4.79488">
        <ele>481.79998779297</ele>
        <time>2023-12-17T08:30:36.000Z</time>
      </trkpt>
      <trkpt lat="44.86511" lon="4.7949">
        <ele>482</ele>
        <time>2023-12-17T08:30:41.000Z</time>
      </trkpt>
      <trkpt lat="44.86528" lon="4.79493">
        <ele>482.60000610352</ele>
        <time>2023-12-17T08:30:46.000Z</time>
      </trkpt>
      <trkpt lat="44.86531" lon="4.79493">
        <ele>482.60000610352</ele>
        <time>2023-12-17T08:30:47.000Z</time>
      </trkpt>
      <trkpt lat="44.86537" lon="4.79493">
        <ele>481.79998779297</ele>
        <time>2023-12-17T08:30:49.000Z</time>
      </trkpt>
      <trkpt lat="44.8654" lon="4.79491">
        <ele>481.20001220703</ele>
        <time>2023-12-17T08:30:50.000Z</time>
      </trkpt>
      <trkpt lat="44.86541" lon="4.79488">
        <ele>480.60000610352</ele>
        <time>2023-12-17T08:30:51.000Z</time>
      </trkpt>
      <trkpt lat="44.86544" lon="4.79478">
        <ele>480</ele>
        <time>2023-12-17T08:30:54.000Z</time>
      </trkpt>
      <trkpt lat="44.86549" lon="4.79464">
        <ele>481</ele>
        <time>2023-12-17T08:30:58.000Z</time>
      </trkpt>
      <trkpt lat="44.8655" lon="4.7946">
        <ele>481.20001220703</ele>
        <time>2023-12-17T08:30:59.000Z</time>
      </trkpt>
      <trkpt lat="44.86556" lon="4.79429">
        <ele>482.60000610352</ele>
        <time>2023-12-17T08:31:06.000Z</time>
      </trkpt>
      <trkpt lat="44.86561" lon="4.7941">
        <ele>483.79998779297</ele>
        <time>2023-12-17T08:31:11.000Z</time>
      </trkpt>
      <trkpt lat="44.86562" lon="4.79403">
        <ele>484</ele>
        <time>2023-12-17T08:31:13.000Z</time>
      </trkpt>
      <trkpt lat="44.86565" lon="4.79392">
        <ele>485</ele>
        <time>2023-12-17T08:31:17.000Z</time>
      </trkpt>
      <trkpt lat="44.86565" lon="4.7939">
        <ele>485.20001220703</ele>
        <time>2023-12-17T08:31:18.000Z</time>
      </trkpt>
      <trkpt lat="44.86571" lon="4.79374">
        <ele>485.79998779297</ele>
        <time>2023-12-17T08:31:25.000Z</time>
      </trkpt>
      <trkpt lat="44.86574" lon="4.79373">
        <ele>486</ele>
        <time>2023-12-17T08:31:27.000Z</time>
      </trkpt>
      <trkpt lat="44.86576" lon="4.79373">
        <ele>486.20001220703</ele>
        <time>2023-12-17T08:31:28.000Z</time>
      </trkpt>
      <trkpt lat="44.8658" lon="4.79374">
        <ele>486.20001220703</ele>
        <time>2023-12-17T08:31:30.000Z</time>
      </trkpt>
      <trkpt lat="44.86595" lon="4.7939">
        <ele>486.20001220703</ele>
        <time>2023-12-17T08:31:38.000Z</time>
      </trkpt>
      <trkpt lat="44.86605" lon="4.79393">
        <ele>486.20001220703</ele>
        <time>2023-12-17T08:31:43.000Z</time>
      </trkpt>
      <trkpt lat="44.86625" lon="4.79389">
        <ele>486.20001220703</ele>
        <time>2023-12-17T08:31:49.000Z</time>
      </trkpt>
      <trkpt lat="44.86644" lon="4.79392">
        <ele>487.20001220703</ele>
        <time>2023-12-17T08:31:54.000Z</time>
      </trkpt>
      <trkpt lat="44.86674" lon="4.79391">
        <ele>487.60000610352</ele>
        <time>2023-12-17T08:32:00.000Z</time>
      </trkpt>
      <trkpt lat="44.86697" lon="4.7939">
        <ele>488.20001220703</ele>
        <time>2023-12-17T08:32:06.000Z</time>
      </trkpt>
      <trkpt lat="44.86705" lon="4.79389">
        <ele>488.79998779297</ele>
        <time>2023-12-17T08:32:08.000Z</time>
      </trkpt>
      <trkpt lat="44.86718" lon="4.79387">
        <ele>490</ele>
        <time>2023-12-17T08:32:11.000Z</time>
      </trkpt>
      <trkpt lat="44.86733" lon="4.79388">
        <ele>489.60000610352</ele>
        <time>2023-12-17T08:32:15.000Z</time>
      </trkpt>
      <trkpt lat="44.86752" lon="4.79386">
        <ele>491</ele>
        <time>2023-12-17T08:32:20.000Z</time>
      </trkpt>
      <trkpt lat="44.86756" lon="4.79385">
        <ele>491.20001220703</ele>
        <time>2023-12-17T08:32:21.000Z</time>
      </trkpt>
      <trkpt lat="44.86768" lon="4.79384">
        <ele>492.39999389648</ele>
        <time>2023-12-17T08:32:25.000Z</time>
      </trkpt>
      <trkpt lat="44.86772" lon="4.7938">
        <ele>492.79998779297</ele>
        <time>2023-12-17T08:32:27.000Z</time>
      </trkpt>
      <trkpt lat="44.86774" lon="4.7938">
        <ele>493.60000610352</ele>
        <time>2023-12-17T08:32:28.000Z</time>
      </trkpt>
      <trkpt lat="44.86778" lon="4.79381">
        <ele>494.20001220703</ele>
        <time>2023-12-17T08:32:30.000Z</time>
      </trkpt>
      <trkpt lat="44.86787" lon="4.7938">
        <ele>494.20001220703</ele>
        <time>2023-12-17T08:32:35.000Z</time>
      </trkpt>
      <trkpt lat="44.86791" lon="4.7938">
        <ele>494.79998779297</ele>
        <time>2023-12-17T08:32:37.000Z</time>
      </trkpt>
      <trkpt lat="44.86792" lon="4.7938">
        <ele>495</ele>
        <time>2023-12-17T08:32:38.000Z</time>
      </trkpt>
      <trkpt lat="44.86799" lon="4.79381">
        <ele>495.39999389648</ele>
        <time>2023-12-17T08:32:41.000Z</time>
      </trkpt>
      <trkpt lat="44.86803" lon="4.79381">
        <ele>495.79998779297</ele>
        <time>2023-12-17T08:32:42.000Z</time>
      </trkpt>
      <trkpt lat="44.86806" lon="4.79381">
        <ele>495.79998779297</ele>
        <time>2023-12-17T08:32:43.000Z</time>
      </trkpt>
      <trkpt lat="44.86811" lon="4.79379">
        <ele>496.39999389648</ele>
        <time>2023-12-17T08:32:45.000Z</time>
      </trkpt>
      <trkpt lat="44.86819" lon="4.79377">
        <ele>497.39999389648</ele>
        <time>2023-12-17T08:32:47.000Z</time>
      </trkpt>
      <trkpt lat="44.86827" lon="4.79377">
        <ele>497.39999389648</ele>
        <time>2023-12-17T08:32:49.000Z</time>
      </trkpt>
      <trkpt lat="44.86836" lon="4.79379">
        <ele>498.20001220703</ele>
        <time>2023-12-17T08:32:52.000Z</time>
      </trkpt>
      <trkpt lat="44.86838" lon="4.79378">
        <ele>498.39999389648</ele>
        <time>2023-12-17T08:32:53.000Z</time>
      </trkpt>
      <trkpt lat="44.86843" lon="4.79374">
        <ele>499</ele>
        <time>2023-12-17T08:32:55.000Z</time>
      </trkpt>
      <trkpt lat="44.86846" lon="4.79375">
        <ele>499.60000610352</ele>
        <time>2023-12-17T08:32:57.000Z</time>
      </trkpt>
      <trkpt lat="44.8685" lon="4.79376">
        <ele>500.79998779297</ele>
        <time>2023-12-17T08:32:59.000Z</time>
      </trkpt>
      <trkpt lat="44.86858" lon="4.79378">
        <ele>502.20001220703</ele>
        <time>2023-12-17T08:33:02.000Z</time>
      </trkpt>
      <trkpt lat="44.86862" lon="4.79379">
        <ele>502.60000610352</ele>
        <time>2023-12-17T08:33:03.000Z</time>
      </trkpt>
      <trkpt lat="44.86865" lon="4.79379">
        <ele>503.20001220703</ele>
        <time>2023-12-17T08:33:04.000Z</time>
      </trkpt>
      <trkpt lat="44.86875" lon="4.79378">
        <ele>504.60000610352</ele>
        <time>2023-12-17T08:33:08.000Z</time>
      </trkpt>
      <trkpt lat="44.86878" lon="4.79378">
        <ele>504.79998779297</ele>
        <time>2023-12-17T08:33:09.000Z</time>
      </trkpt>
      <trkpt lat="44.86884" lon="4.79379">
        <ele>505.60000610352</ele>
        <time>2023-12-17T08:33:11.000Z</time>
      </trkpt>
      <trkpt lat="44.86897" lon="4.7938">
        <ele>506</ele>
        <time>2023-12-17T08:33:14.000Z</time>
      </trkpt>
      <trkpt lat="44.86915" lon="4.7938">
        <ele>506.39999389648</ele>
        <time>2023-12-17T08:33:19.000Z</time>
      </trkpt>
      <trkpt lat="44.86939" lon="4.79376">
        <ele>505.79998779297</ele>
        <time>2023-12-17T08:33:25.000Z</time>
      </trkpt>
      <trkpt lat="44.86959" lon="4.79372">
        <ele>504.79998779297</ele>
        <time>2023-12-17T08:33:30.000Z</time>
      </trkpt>
      <trkpt lat="44.86962" lon="4.7937">
        <ele>504.79998779297</ele>
        <time>2023-12-17T08:33:32.000Z</time>
      </trkpt>
      <trkpt lat="44.86965" lon="4.79367">
        <ele>505</ele>
        <time>2023-12-17T08:33:34.000Z</time>
      </trkpt>
      <trkpt lat="44.86967" lon="4.79365">
        <ele>505</ele>
        <time>2023-12-17T08:33:36.000Z</time>
      </trkpt>
      <trkpt lat="44.86968" lon="4.79365">
        <ele>504.79998779297</ele>
        <time>2023-12-17T08:33:40.000Z</time>
      </trkpt>
      <trkpt lat="44.86972" lon="4.79367">
        <ele>504.60000610352</ele>
        <time>2023-12-17T08:33:45.000Z</time>
      </trkpt>
      <trkpt lat="44.86973" lon="4.79368">
        <ele>504.39999389648</ele>
        <time>2023-12-17T08:33:48.000Z</time>
      </trkpt>
      <trkpt lat="44.86975" lon="4.79368">
        <ele>504.39999389648</ele>
        <time>2023-12-17T08:33:54.000Z</time>
      </trkpt>
      <trkpt lat="44.86981" lon="4.79373">
        <ele>504</ele>
        <time>2023-12-17T08:34:04.000Z</time>
      </trkpt>
      <trkpt lat="44.86982" lon="4.79373">
        <ele>503.79998779297</ele>
        <time>2023-12-17T08:34:12.000Z</time>
      </trkpt>
      <trkpt lat="44.86982" lon="4.79372">
        <ele>503.60000610352</ele>
        <time>2023-12-17T08:34:15.000Z</time>
      </trkpt>
      <trkpt lat="44.86982" lon="4.79373">
        <ele>503.39999389648</ele>
        <time>2023-12-17T08:34:18.000Z</time>
      </trkpt>
      <trkpt lat="44.86981" lon="4.79372">
        <ele>503.39999389648</ele>
        <time>2023-12-17T08:34:28.000Z</time>
      </trkpt>
      <trkpt lat="44.86979" lon="4.79371">
        <ele>503.20001220703</ele>
        <time>2023-12-17T08:34:36.000Z</time>
      </trkpt>
      <trkpt lat="44.86978" lon="4.79372">
        <ele>502.79998779297</ele>
        <time>2023-12-17T08:34:45.000Z</time>
      </trkpt>
      <trkpt lat="44.86977" lon="4.79373">
        <ele>502.60000610352</ele>
        <time>2023-12-17T08:34:57.000Z</time>
      </trkpt>
      <trkpt lat="44.86977" lon="4.79373">
        <ele>502.39999389648</ele>
        <time>2023-12-17T08:34:58.000Z</time>
      </trkpt>
      <trkpt lat="44.86976" lon="4.79373">
        <ele>502.39999389648</ele>
        <time>2023-12-17T08:35:07.000Z</time>
      </trkpt>
      <trkpt lat="44.86973" lon="4.79375">
        <ele>502</ele>
        <time>2023-12-17T08:35:19.000Z</time>
      </trkpt>
      <trkpt lat="44.86972" lon="4.79375">
        <ele>502</ele>
        <time>2023-12-17T08:35:29.000Z</time>
      </trkpt>
      <trkpt lat="44.8697" lon="4.79374">
        <ele>502.20001220703</ele>
        <time>2023-12-17T08:35:40.000Z</time>
      </trkpt>
      <trkpt lat="44.86973" lon="4.79369">
        <ele>502</ele>
        <time>2023-12-17T08:35:48.000Z</time>
      </trkpt>
      <trkpt lat="44.86978" lon="4.79369">
        <ele>501.79998779297</ele>
        <time>2023-12-17T08:35:50.000Z</time>
      </trkpt>
      <trkpt lat="44.86981" lon="4.79371">
        <ele>499.20001220703</ele>
        <time>2023-12-17T08:35:51.000Z</time>
      </trkpt>
      <trkpt lat="44.86985" lon="4.79377">
        <ele>499.20001220703</ele>
        <time>2023-12-17T08:35:53.000Z</time>
      </trkpt>
      <trkpt lat="44.86989" lon="4.79384">
        <ele>501</ele>
        <time>2023-12-17T08:35:55.000Z</time>
      </trkpt>
      <trkpt lat="44.86992" lon="4.79394">
        <ele>502.39999389648</ele>
        <time>2023-12-17T08:35:57.000Z</time>
      </trkpt>
      <trkpt lat="44.86993" lon="4.79399">
        <ele>502.79998779297</ele>
        <time>2023-12-17T08:35:58.000Z</time>
      </trkpt>
      <trkpt lat="44.86994" lon="4.79423">
        <ele>503.60000610352</ele>
        <time>2023-12-17T08:36:01.000Z</time>
      </trkpt>
      <trkpt lat="44.86994" lon="4.79433">
        <ele>503.79998779297</ele>
        <time>2023-12-17T08:36:02.000Z</time>
      </trkpt>
      <trkpt lat="44.86994" lon="4.79449">
        <ele>503.79998779297</ele>
        <time>2023-12-17T08:36:04.000Z</time>
      </trkpt>
      <trkpt lat="44.86994" lon="4.79465">
        <ele>503.79998779297</ele>
        <time>2023-12-17T08:36:06.000Z</time>
      </trkpt>
      <trkpt lat="44.86993" lon="4.79472">
        <ele>503.79998779297</ele>
        <time>2023-12-17T08:36:07.000Z</time>
      </trkpt>
      <trkpt lat="44.86991" lon="4.79485">
        <ele>503.79998779297</ele>
        <time>2023-12-17T08:36:09.000Z</time>
      </trkpt>
      <trkpt lat="44.86991" lon="4.79499">
        <ele>504</ele>
        <time>2023-12-17T08:36:11.000Z</time>
      </trkpt>
      <trkpt lat="44.86987" lon="4.7952">
        <ele>504.20001220703</ele>
        <time>2023-12-17T08:36:14.000Z</time>
      </trkpt>
      <trkpt lat="44.86984" lon="4.79528">
        <ele>504</ele>
        <time>2023-12-17T08:36:15.000Z</time>
      </trkpt>
      <trkpt lat="44.86982" lon="4.79536">
        <ele>503.20001220703</ele>
        <time>2023-12-17T08:36:16.000Z</time>
      </trkpt>
      <trkpt lat="44.86982" lon="4.79552">
        <ele>501.60000610352</ele>
        <time>2023-12-17T08:36:18.000Z</time>
      </trkpt>
      <trkpt lat="44.86986" lon="4.79564">
        <ele>500.39999389648</ele>
        <time>2023-12-17T08:36:20.000Z</time>
      </trkpt>
      <trkpt lat="44.86989" lon="4.7957">
        <ele>500.20001220703</ele>
        <time>2023-12-17T08:36:21.000Z</time>
      </trkpt>
      <trkpt lat="44.86991" lon="4.79576">
        <ele>500</ele>
        <time>2023-12-17T08:36:22.000Z</time>
      </trkpt>
      <trkpt lat="44.86993" lon="4.79582">
        <ele>499.20001220703</ele>
        <time>2023-12-17T08:36:23.000Z</time>
      </trkpt>
      <trkpt lat="44.86993" lon="4.79589">
        <ele>498.79998779297</ele>
        <time>2023-12-17T08:36:24.000Z</time>
      </trkpt>
      <trkpt lat="44.86993" lon="4.79605">
        <ele>497.39999389648</ele>
        <time>2023-12-17T08:36:26.000Z</time>
      </trkpt>
      <trkpt lat="44.86992" lon="4.79621">
        <ele>495.20001220703</ele>
        <time>2023-12-17T08:36:28.000Z</time>
      </trkpt>
      <trkpt lat="44.86994" lon="4.79635">
        <ele>494</ele>
        <time>2023-12-17T08:36:30.000Z</time>
      </trkpt>
      <trkpt lat="44.86993" lon="4.79648">
        <ele>493.79998779297</ele>
        <time>2023-12-17T08:36:32.000Z</time>
      </trkpt>
      <trkpt lat="44.86993" lon="4.79674">
        <ele>493.79998779297</ele>
        <time>2023-12-17T08:36:35.000Z</time>
      </trkpt>
      <trkpt lat="44.86994" lon="4.79682">
        <ele>493.20001220703</ele>
        <time>2023-12-17T08:36:36.000Z</time>
      </trkpt>
      <trkpt lat="44.86995" lon="4.79691">
        <ele>492.20001220703</ele>
        <time>2023-12-17T08:36:37.000Z</time>
      </trkpt>
      <trkpt lat="44.86996" lon="4.79707">
        <ele>490.39999389648</ele>
        <time>2023-12-17T08:36:39.000Z</time>
      </trkpt>
      <trkpt lat="44.86993" lon="4.79715">
        <ele>489.79998779297</ele>
        <time>2023-12-17T08:36:40.000Z</time>
      </trkpt>
      <trkpt lat="44.8699" lon="4.79722">
        <ele>489.39999389648</ele>
        <time>2023-12-17T08:36:41.000Z</time>
      </trkpt>
      <trkpt lat="44.86984" lon="4.79728">
        <ele>488.20001220703</ele>
        <time>2023-12-17T08:36:42.000Z</time>
      </trkpt>
      <trkpt lat="44.86979" lon="4.7973">
        <ele>487.20001220703</ele>
        <time>2023-12-17T08:36:43.000Z</time>
      </trkpt>
      <trkpt lat="44.86975" lon="4.7973">
        <ele>486.60000610352</ele>
        <time>2023-12-17T08:36:44.000Z</time>
      </trkpt>
      <trkpt lat="44.86972" lon="4.79737">
        <ele>486.20001220703</ele>
        <time>2023-12-17T08:36:46.000Z</time>
      </trkpt>
      <trkpt lat="44.86971" lon="4.79741">
        <ele>486.20001220703</ele>
        <time>2023-12-17T08:36:47.000Z</time>
      </trkpt>
      <trkpt lat="44.86969" lon="4.79754">
        <ele>486</ele>
        <time>2023-12-17T08:36:49.000Z</time>
      </trkpt>
      <trkpt lat="44.86967" lon="4.7976">
        <ele>486</ele>
        <time>2023-12-17T08:36:50.000Z</time>
      </trkpt>
      <trkpt lat="44.86967" lon="4.79766">
        <ele>485.79998779297</ele>
        <time>2023-12-17T08:36:51.000Z</time>
      </trkpt>
      <trkpt lat="44.86968" lon="4.79773">
        <ele>485.39999389648</ele>
        <time>2023-12-17T08:36:52.000Z</time>
      </trkpt>
      <trkpt lat="44.86969" lon="4.79781">
        <ele>484.60000610352</ele>
        <time>2023-12-17T08:36:53.000Z</time>
      </trkpt>
      <trkpt lat="44.86971" lon="4.7979">
        <ele>483.79998779297</ele>
        <time>2023-12-17T08:36:54.000Z</time>
      </trkpt>
      <trkpt lat="44.86972" lon="4.79797">
        <ele>483</ele>
        <time>2023-12-17T08:36:55.000Z</time>
      </trkpt>
      <trkpt lat="44.86971" lon="4.79803">
        <ele>482.20001220703</ele>
        <time>2023-12-17T08:36:56.000Z</time>
      </trkpt>
      <trkpt lat="44.86969" lon="4.79817">
        <ele>481.20001220703</ele>
        <time>2023-12-17T08:36:58.000Z</time>
      </trkpt>
      <trkpt lat="44.86967" lon="4.79829">
        <ele>479.20001220703</ele>
        <time>2023-12-17T08:37:00.000Z</time>
      </trkpt>
      <trkpt lat="44.86965" lon="4.79846">
        <ele>478.20001220703</ele>
        <time>2023-12-17T08:37:02.000Z</time>
      </trkpt>
      <trkpt lat="44.86967" lon="4.79865">
        <ele>476.79998779297</ele>
        <time>2023-12-17T08:37:05.000Z</time>
      </trkpt>
      <trkpt lat="44.86967" lon="4.79871">
        <ele>475.79998779297</ele>
        <time>2023-12-17T08:37:06.000Z</time>
      </trkpt>
      <trkpt lat="44.86967" lon="4.79878">
        <ele>475</ele>
        <time>2023-12-17T08:37:07.000Z</time>
      </trkpt>
      <trkpt lat="44.86965" lon="4.79888">
        <ele>473.79998779297</ele>
        <time>2023-12-17T08:37:08.000Z</time>
      </trkpt>
      <trkpt lat="44.86966" lon="4.79893">
        <ele>473.20001220703</ele>
        <time>2023-12-17T08:37:09.000Z</time>
      </trkpt>
      <trkpt lat="44.86966" lon="4.79904">
        <ele>471.20001220703</ele>
        <time>2023-12-17T08:37:10.000Z</time>
      </trkpt>
      <trkpt lat="44.8697" lon="4.79917">
        <ele>469.60000610352</ele>
        <time>2023-12-17T08:37:11.000Z</time>
      </trkpt>
      <trkpt lat="44.86969" lon="4.79923">
        <ele>468.60000610352</ele>
        <time>2023-12-17T08:37:12.000Z</time>
      </trkpt>
      <trkpt lat="44.86966" lon="4.79929">
        <ele>468</ele>
        <time>2023-12-17T08:37:13.000Z</time>
      </trkpt>
      <trkpt lat="44.86963" lon="4.79936">
        <ele>466.20001220703</ele>
        <time>2023-12-17T08:37:14.000Z</time>
      </trkpt>
      <trkpt lat="44.86959" lon="4.79944">
        <ele>463.20001220703</ele>
        <time>2023-12-17T08:37:15.000Z</time>
      </trkpt>
      <trkpt lat="44.86955" lon="4.79953">
        <ele>461.60000610352</ele>
        <time>2023-12-17T08:37:16.000Z</time>
      </trkpt>
      <trkpt lat="44.86951" lon="4.79963">
        <ele>460.60000610352</ele>
        <time>2023-12-17T08:37:17.000Z</time>
      </trkpt>
      <trkpt lat="44.86947" lon="4.79973">
        <ele>459.39999389648</ele>
        <time>2023-12-17T08:37:18.000Z</time>
      </trkpt>
      <trkpt lat="44.86938" lon="4.79996">
        <ele>457.79998779297</ele>
        <time>2023-12-17T08:37:20.000Z</time>
      </trkpt>
      <trkpt lat="44.86926" lon="4.80021">
        <ele>456.60000610352</ele>
        <time>2023-12-17T08:37:22.000Z</time>
      </trkpt>
      <trkpt lat="44.86923" lon="4.80029">
        <ele>456.60000610352</ele>
        <time>2023-12-17T08:37:23.000Z</time>
      </trkpt>
      <trkpt lat="44.86919" lon="4.80039">
        <ele>456.60000610352</ele>
        <time>2023-12-17T08:37:25.000Z</time>
      </trkpt>
      <trkpt lat="44.86915" lon="4.80043">
        <ele>456.60000610352</ele>
        <time>2023-12-17T08:37:26.000Z</time>
      </trkpt>
      <trkpt lat="44.86907" lon="4.80046">
        <ele>456.79998779297</ele>
        <time>2023-12-17T08:37:30.000Z</time>
      </trkpt>
      <trkpt lat="44.86903" lon="4.80049">
        <ele>456.39999389648</ele>
        <time>2023-12-17T08:37:38.000Z</time>
      </trkpt>
      <trkpt lat="44.86901" lon="4.80049">
        <ele>456.39999389648</ele>
        <time>2023-12-17T08:37:39.000Z</time>
      </trkpt>
      <trkpt lat="44.86892" lon="4.80045">
        <ele>456.20001220703</ele>
        <time>2023-12-17T08:37:43.000Z</time>
      </trkpt>
      <trkpt lat="44.8689" lon="4.80041">
        <ele>456</ele>
        <time>2023-12-17T08:37:44.000Z</time>
      </trkpt>
      <trkpt lat="44.86889" lon="4.80038">
        <ele>455.60000610352</ele>
        <time>2023-12-17T08:37:45.000Z</time>
      </trkpt>
      <trkpt lat="44.86886" lon="4.80024">
        <ele>455.39999389648</ele>
        <time>2023-12-17T08:37:48.000Z</time>
      </trkpt>
      <trkpt lat="44.86885" lon="4.80019">
        <ele>455.39999389648</ele>
        <time>2023-12-17T08:37:49.000Z</time>
      </trkpt>
      <trkpt lat="44.86875" lon="4.80005">
        <ele>455.20001220703</ele>
        <time>2023-12-17T08:37:53.000Z</time>
      </trkpt>
      <trkpt lat="44.86863" lon="4.79996">
        <ele>454.79998779297</ele>
        <time>2023-12-17T08:37:55.000Z</time>
      </trkpt>
      <trkpt lat="44.86858" lon="4.79992">
        <ele>454.60000610352</ele>
        <time>2023-12-17T08:37:56.000Z</time>
      </trkpt>
      <trkpt lat="44.86852" lon="4.79989">
        <ele>453.79998779297</ele>
        <time>2023-12-17T08:37:57.000Z</time>
      </trkpt>
      <trkpt lat="44.86846" lon="4.79989">
        <ele>452.39999389648</ele>
        <time>2023-12-17T08:37:58.000Z</time>
      </trkpt>
      <trkpt lat="44.8684" lon="4.7999">
        <ele>451.39999389648</ele>
        <time>2023-12-17T08:37:59.000Z</time>
      </trkpt>
      <trkpt lat="44.86836" lon="4.79991">
        <ele>450.39999389648</ele>
        <time>2023-12-17T08:38:00.000Z</time>
      </trkpt>
      <trkpt lat="44.86833" lon="4.79994">
        <ele>449</ele>
        <time>2023-12-17T08:38:01.000Z</time>
      </trkpt>
      <trkpt lat="44.86832" lon="4.79999">
        <ele>447.60000610352</ele>
        <time>2023-12-17T08:38:02.000Z</time>
      </trkpt>
      <trkpt lat="44.8683" lon="4.80005">
        <ele>446.79998779297</ele>
        <time>2023-12-17T08:38:03.000Z</time>
      </trkpt>
      <trkpt lat="44.86828" lon="4.8001">
        <ele>446.39999389648</ele>
        <time>2023-12-17T08:38:04.000Z</time>
      </trkpt>
      <trkpt lat="44.86825" lon="4.80015">
        <ele>446.20001220703</ele>
        <time>2023-12-17T08:38:05.000Z</time>
      </trkpt>
      <trkpt lat="44.86822" lon="4.80027">
        <ele>446</ele>
        <time>2023-12-17T08:38:07.000Z</time>
      </trkpt>
      <trkpt lat="44.86819" lon="4.80041">
        <ele>445.39999389648</ele>
        <time>2023-12-17T08:38:10.000Z</time>
      </trkpt>
      <trkpt lat="44.86821" lon="4.80045">
        <ele>445.39999389648</ele>
        <time>2023-12-17T08:38:11.000Z</time>
      </trkpt>
      <trkpt lat="44.8682" lon="4.80069">
        <ele>445.20001220703</ele>
        <time>2023-12-17T08:38:14.000Z</time>
      </trkpt>
      <trkpt lat="44.86826" lon="4.8009">
        <ele>446.60000610352</ele>
        <time>2023-12-17T08:38:18.000Z</time>
      </trkpt>
      <trkpt lat="44.86828" lon="4.80093">
        <ele>447.39999389648</ele>
        <time>2023-12-17T08:38:19.000Z</time>
      </trkpt>
      <trkpt lat="44.86828" lon="4.80097">
        <ele>447.60000610352</ele>
        <time>2023-12-17T08:38:20.000Z</time>
      </trkpt>
      <trkpt lat="44.86829" lon="4.801">
        <ele>447.79998779297</ele>
        <time>2023-12-17T08:38:21.000Z</time>
      </trkpt>
      <trkpt lat="44.86827" lon="4.80108">
        <ele>447.20001220703</ele>
        <time>2023-12-17T08:38:23.000Z</time>
      </trkpt>
      <trkpt lat="44.86827" lon="4.80122">
        <ele>447</ele>
        <time>2023-12-17T08:38:25.000Z</time>
      </trkpt>
      <trkpt lat="44.8683" lon="4.80133">
        <ele>447</ele>
        <time>2023-12-17T08:38:27.000Z</time>
      </trkpt>
      <trkpt lat="44.8683" lon="4.80138">
        <ele>447</ele>
        <time>2023-12-17T08:38:28.000Z</time>
      </trkpt>
      <trkpt lat="44.86831" lon="4.80151">
        <ele>447.20001220703</ele>
        <time>2023-12-17T08:38:31.000Z</time>
      </trkpt>
      <trkpt lat="44.86832" lon="4.8016">
        <ele>447</ele>
        <time>2023-12-17T08:38:33.000Z</time>
      </trkpt>
      <trkpt lat="44.86833" lon="4.80163">
        <ele>446.39999389648</ele>
        <time>2023-12-17T08:38:34.000Z</time>
      </trkpt>
      <trkpt lat="44.86833" lon="4.80166">
        <ele>445.79998779297</ele>
        <time>2023-12-17T08:38:35.000Z</time>
      </trkpt>
      <trkpt lat="44.86831" lon="4.80169">
        <ele>445.39999389648</ele>
        <time>2023-12-17T08:38:36.000Z</time>
      </trkpt>
      <trkpt lat="44.86826" lon="4.80178">
        <ele>443.79998779297</ele>
        <time>2023-12-17T08:38:38.000Z</time>
      </trkpt>
      <trkpt lat="44.86822" lon="4.80181">
        <ele>443</ele>
        <time>2023-12-17T08:38:39.000Z</time>
      </trkpt>
      <trkpt lat="44.86819" lon="4.80183">
        <ele>442.20001220703</ele>
        <time>2023-12-17T08:38:40.000Z</time>
      </trkpt>
      <trkpt lat="44.86817" lon="4.80191">
        <ele>441</ele>
        <time>2023-12-17T08:38:42.000Z</time>
      </trkpt>
      <trkpt lat="44.86814" lon="4.80205">
        <ele>439.79998779297</ele>
        <time>2023-12-17T08:38:44.000Z</time>
      </trkpt>
      <trkpt lat="44.86812" lon="4.80217">
        <ele>438.79998779297</ele>
        <time>2023-12-17T08:38:46.000Z</time>
      </trkpt>
      <trkpt lat="44.8681" lon="4.80226">
        <ele>438.60000610352</ele>
        <time>2023-12-17T08:38:47.000Z</time>
      </trkpt>
      <trkpt lat="44.86806" lon="4.80244">
        <ele>438.20001220703</ele>
        <time>2023-12-17T08:38:50.000Z</time>
      </trkpt>
      <trkpt lat="44.86809" lon="4.80264">
        <ele>439</ele>
        <time>2023-12-17T08:38:55.000Z</time>
      </trkpt>
      <trkpt lat="44.86808" lon="4.80267">
        <ele>438.60000610352</ele>
        <time>2023-12-17T08:38:56.000Z</time>
      </trkpt>
      <trkpt lat="44.86808" lon="4.80284">
        <ele>437.60000610352</ele>
        <time>2023-12-17T08:39:00.000Z</time>
      </trkpt>
      <trkpt lat="44.86807" lon="4.80296">
        <ele>436.20001220703</ele>
        <time>2023-12-17T08:39:03.000Z</time>
      </trkpt>
      <trkpt lat="44.86807" lon="4.80301">
        <ele>435.20001220703</ele>
        <time>2023-12-17T08:39:04.000Z</time>
      </trkpt>
      <trkpt lat="44.86807" lon="4.80306">
        <ele>434.20001220703</ele>
        <time>2023-12-17T08:39:05.000Z</time>
      </trkpt>
      <trkpt lat="44.86807" lon="4.8031">
        <ele>433.60000610352</ele>
        <time>2023-12-17T08:39:06.000Z</time>
      </trkpt>
      <trkpt lat="44.86805" lon="4.80329">
        <ele>432.39999389648</ele>
        <time>2023-12-17T08:39:09.000Z</time>
      </trkpt>
      <trkpt lat="44.86804" lon="4.80339">
        <ele>431.60000610352</ele>
        <time>2023-12-17T08:39:10.000Z</time>
      </trkpt>
      <trkpt lat="44.86802" lon="4.80344">
        <ele>431</ele>
        <time>2023-12-17T08:39:11.000Z</time>
      </trkpt>
      <trkpt lat="44.86797" lon="4.80354">
        <ele>430.60000610352</ele>
        <time>2023-12-17T08:39:12.000Z</time>
      </trkpt>
      <trkpt lat="44.86792" lon="4.80358">
        <ele>430.20001220703</ele>
        <time>2023-12-17T08:39:13.000Z</time>
      </trkpt>
      <trkpt lat="44.86788" lon="4.80363">
        <ele>430.20001220703</ele>
        <time>2023-12-17T08:39:14.000Z</time>
      </trkpt>
      <trkpt lat="44.86786" lon="4.80367">
        <ele>429.60000610352</ele>
        <time>2023-12-17T08:39:15.000Z</time>
      </trkpt>
      <trkpt lat="44.86785" lon="4.80372">
        <ele>429.20001220703</ele>
        <time>2023-12-17T08:39:16.000Z</time>
      </trkpt>
      <trkpt lat="44.86786" lon="4.80376">
        <ele>428.79998779297</ele>
        <time>2023-12-17T08:39:17.000Z</time>
      </trkpt>
      <trkpt lat="44.86788" lon="4.80385">
        <ele>428.39999389648</ele>
        <time>2023-12-17T08:39:19.000Z</time>
      </trkpt>
      <trkpt lat="44.86787" lon="4.8041">
        <ele>427.79998779297</ele>
        <time>2023-12-17T08:39:22.000Z</time>
      </trkpt>
      <trkpt lat="44.86795" lon="4.80437">
        <ele>427.60000610352</ele>
        <time>2023-12-17T08:39:27.000Z</time>
      </trkpt>
      <trkpt lat="44.86798" lon="4.80437">
        <ele>427.60000610352</ele>
        <time>2023-12-17T08:39:29.000Z</time>
      </trkpt>
      <trkpt lat="44.868" lon="4.80437">
        <ele>427.60000610352</ele>
        <time>2023-12-17T08:39:31.000Z</time>
      </trkpt>
      <trkpt lat="44.868" lon="4.8044">
        <ele>427.39999389648</ele>
        <time>2023-12-17T08:39:40.000Z</time>
      </trkpt>
      <trkpt lat="44.868" lon="4.80441">
        <ele>427.20001220703</ele>
        <time>2023-12-17T08:39:43.000Z</time>
      </trkpt>
      <trkpt lat="44.868" lon="4.80442">
        <ele>426.79998779297</ele>
        <time>2023-12-17T08:39:48.000Z</time>
      </trkpt>
      <trkpt lat="44.86799" lon="4.80442">
        <ele>426.20001220703</ele>
        <time>2023-12-17T08:39:55.000Z</time>
      </trkpt>
      <trkpt lat="44.86799" lon="4.80443">
        <ele>426</ele>
        <time>2023-12-17T08:39:59.000Z</time>
      </trkpt>
      <trkpt lat="44.86799" lon="4.80445">
        <ele>425.60000610352</ele>
        <time>2023-12-17T08:40:08.000Z</time>
      </trkpt>
      <trkpt lat="44.86799" lon="4.80446">
        <ele>425</ele>
        <time>2023-12-17T08:40:18.000Z</time>
      </trkpt>
      <trkpt lat="44.86799" lon="4.80448">
        <ele>425</ele>
        <time>2023-12-17T08:40:24.000Z</time>
      </trkpt>
      <trkpt lat="44.86799" lon="4.80449">
        <ele>424.79998779297</ele>
        <time>2023-12-17T08:40:27.000Z</time>
      </trkpt>
      <trkpt lat="44.86798" lon="4.8045">
        <ele>424.60000610352</ele>
        <time>2023-12-17T08:40:40.000Z</time>
      </trkpt>
      <trkpt lat="44.86798" lon="4.80452">
        <ele>424.39999389648</ele>
        <time>2023-12-17T08:40:49.000Z</time>
      </trkpt>
      <trkpt lat="44.86798" lon="4.80453">
        <ele>424.39999389648</ele>
        <time>2023-12-17T08:41:01.000Z</time>
      </trkpt>
      <trkpt lat="44.86798" lon="4.80453">
        <ele>424</ele>
        <time>2023-12-17T08:41:10.000Z</time>
      </trkpt>
      <trkpt lat="44.86798" lon="4.80453">
        <ele>423.79998779297</ele>
        <time>2023-12-17T08:41:14.000Z</time>
      </trkpt>
      <trkpt lat="44.86799" lon="4.80452">
        <ele>423.60000610352</ele>
        <time>2023-12-17T08:41:30.000Z</time>
      </trkpt>
      <trkpt lat="44.86798" lon="4.80451">
        <ele>423.39999389648</ele>
        <time>2023-12-17T08:41:39.000Z</time>
      </trkpt>
      <trkpt lat="44.86799" lon="4.80452">
        <ele>422</ele>
        <time>2023-12-17T08:41:51.000Z</time>
      </trkpt>
      <trkpt lat="44.86797" lon="4.80453">
        <ele>423.39999389648</ele>
        <time>2023-12-17T08:41:54.000Z</time>
      </trkpt>
      <trkpt lat="44.86797" lon="4.80454">
        <ele>423.39999389648</ele>
        <time>2023-12-17T08:42:02.000Z</time>
      </trkpt>
      <trkpt lat="44.86797" lon="4.80456">
        <ele>423.20001220703</ele>
        <time>2023-12-17T08:42:15.000Z</time>
      </trkpt>
      <trkpt lat="44.86797" lon="4.80455">
        <ele>423.39999389648</ele>
        <time>2023-12-17T08:42:20.000Z</time>
      </trkpt>
      <trkpt lat="44.86796" lon="4.80454">
        <ele>423.20001220703</ele>
        <time>2023-12-17T08:42:22.000Z</time>
      </trkpt>
      <trkpt lat="44.86792" lon="4.80453">
        <ele>423.20001220703</ele>
        <time>2023-12-17T08:42:27.000Z</time>
      </trkpt>
      <trkpt lat="44.86791" lon="4.80453">
        <ele>423</ele>
        <time>2023-12-17T08:42:34.000Z</time>
      </trkpt>
      <trkpt lat="44.86792" lon="4.80452">
        <ele>422.79998779297</ele>
        <time>2023-12-17T08:42:38.000Z</time>
      </trkpt>
      <trkpt lat="44.8679" lon="4.80449">
        <ele>422.39999389648</ele>
        <time>2023-12-17T08:42:41.000Z</time>
      </trkpt>
      <trkpt lat="44.86788" lon="4.80448">
        <ele>422.20001220703</ele>
        <time>2023-12-17T08:42:49.000Z</time>
      </trkpt>
      <trkpt lat="44.86789" lon="4.80449">
        <ele>422.39999389648</ele>
        <time>2023-12-17T08:42:56.000Z</time>
      </trkpt>
      <trkpt lat="44.8679" lon="4.80446">
        <ele>422.39999389648</ele>
        <time>2023-12-17T08:43:03.000Z</time>
      </trkpt>
      <trkpt lat="44.86788" lon="4.80445">
        <ele>422.20001220703</ele>
        <time>2023-12-17T08:43:11.000Z</time>
      </trkpt>
      <trkpt lat="44.8679" lon="4.80446">
        <ele>421.79998779297</ele>
        <time>2023-12-17T08:43:19.000Z</time>
      </trkpt>
      <trkpt lat="44.86791" lon="4.80446">
        <ele>421.79998779297</ele>
        <time>2023-12-17T08:43:26.000Z</time>
      </trkpt>
      <trkpt lat="44.8679" lon="4.80446">
        <ele>422.20001220703</ele>
        <time>2023-12-17T08:43:37.000Z</time>
      </trkpt>
      <trkpt lat="44.86786" lon="4.80446">
        <ele>421.79998779297</ele>
        <time>2023-12-17T08:43:47.000Z</time>
      </trkpt>
      <trkpt lat="44.86785" lon="4.80446">
        <ele>421.79998779297</ele>
        <time>2023-12-17T08:43:48.000Z</time>
      </trkpt>
      <trkpt lat="44.86777" lon="4.80452">
        <ele>421.79998779297</ele>
        <time>2023-12-17T08:43:55.000Z</time>
      </trkpt>
      <trkpt lat="44.86781" lon="4.80452">
        <ele>421.79998779297</ele>
        <time>2023-12-17T08:44:03.000Z</time>
      </trkpt>
      <trkpt lat="44.86782" lon="4.80451">
        <ele>421.79998779297</ele>
        <time>2023-12-17T08:44:11.000Z</time>
      </trkpt>
      <trkpt lat="44.86784" lon="4.80449">
        <ele>421.79998779297</ele>
        <time>2023-12-17T08:44:23.000Z</time>
      </trkpt>
      <trkpt lat="44.86791" lon="4.80448">
        <ele>422.39999389648</ele>
        <time>2023-12-17T08:44:31.000Z</time>
      </trkpt>
      <trkpt lat="44.86793" lon="4.80446">
        <ele>422.60000610352</ele>
        <time>2023-12-17T08:44:37.000Z</time>
      </trkpt>
      <trkpt lat="44.86795" lon="4.80447">
        <ele>422.20001220703</ele>
        <time>2023-12-17T08:44:48.000Z</time>
      </trkpt>
      <trkpt lat="44.86796" lon="4.80447">
        <ele>422.20001220703</ele>
        <time>2023-12-17T08:45:01.000Z</time>
      </trkpt>
      <trkpt lat="44.86797" lon="4.80448">
        <ele>422</ele>
        <time>2023-12-17T08:45:16.000Z</time>
      </trkpt>
      <trkpt lat="44.86798" lon="4.80449">
        <ele>422</ele>
        <time>2023-12-17T08:45:22.000Z</time>
      </trkpt>
      <trkpt lat="44.86797" lon="4.80449">
        <ele>422</ele>
        <time>2023-12-17T08:45:29.000Z</time>
      </trkpt>
      <trkpt lat="44.86796" lon="4.8045">
        <ele>422</ele>
        <time>2023-12-17T08:45:37.000Z</time>
      </trkpt>
      <trkpt lat="44.86794" lon="4.8045">
        <ele>423</ele>
        <time>2023-12-17T08:45:45.000Z</time>
      </trkpt>
      <trkpt lat="44.86796" lon="4.80448">
        <ele>423.39999389648</ele>
        <time>2023-12-17T08:45:50.000Z</time>
      </trkpt>
      <trkpt lat="44.86797" lon="4.80448">
        <ele>423.39999389648</ele>
        <time>2023-12-17T08:45:52.000Z</time>
      </trkpt>
      <trkpt lat="44.86792" lon="4.80443">
        <ele>423.39999389648</ele>
        <time>2023-12-17T08:46:01.000Z</time>
      </trkpt>
      <trkpt lat="44.86791" lon="4.80442">
        <ele>423.39999389648</ele>
        <time>2023-12-17T08:46:02.000Z</time>
      </trkpt>
      <trkpt lat="44.86794" lon="4.80448">
        <ele>423</ele>
        <time>2023-12-17T08:46:09.000Z</time>
      </trkpt>
      <trkpt lat="44.86795" lon="4.8045">
        <ele>423</ele>
        <time>2023-12-17T08:46:10.000Z</time>
      </trkpt>
      <trkpt lat="44.86798" lon="4.80457">
        <ele>423.20001220703</ele>
        <time>2023-12-17T08:46:12.000Z</time>
      </trkpt>
      <trkpt lat="44.86797" lon="4.8046">
        <ele>423.20001220703</ele>
        <time>2023-12-17T08:46:13.000Z</time>
      </trkpt>
      <trkpt lat="44.86796" lon="4.80464">
        <ele>423.20001220703</ele>
        <time>2023-12-17T08:46:14.000Z</time>
      </trkpt>
      <trkpt lat="44.8679" lon="4.80475">
        <ele>422.39999389648</ele>
        <time>2023-12-17T08:46:17.000Z</time>
      </trkpt>
      <trkpt lat="44.86788" lon="4.8048">
        <ele>422.20001220703</ele>
        <time>2023-12-17T08:46:18.000Z</time>
      </trkpt>
      <trkpt lat="44.86783" lon="4.80485">
        <ele>421.20001220703</ele>
        <time>2023-12-17T08:46:20.000Z</time>
      </trkpt>
      <trkpt lat="44.86779" lon="4.80485">
        <ele>421.20001220703</ele>
        <time>2023-12-17T08:46:21.000Z</time>
      </trkpt>
      <trkpt lat="44.86772" lon="4.8048">
        <ele>421</ele>
        <time>2023-12-17T08:46:23.000Z</time>
      </trkpt>
      <trkpt lat="44.86766" lon="4.80472">
        <ele>420.20001220703</ele>
        <time>2023-12-17T08:46:25.000Z</time>
      </trkpt>
      <trkpt lat="44.86763" lon="4.8047">
        <ele>419.20001220703</ele>
        <time>2023-12-17T08:46:26.000Z</time>
      </trkpt>
      <trkpt lat="44.86756" lon="4.8047">
        <ele>417.79998779297</ele>
        <time>2023-12-17T08:46:28.000Z</time>
      </trkpt>
      <trkpt lat="44.8674" lon="4.80475">
        <ele>415.79998779297</ele>
        <time>2023-12-17T08:46:32.000Z</time>
      </trkpt>
      <trkpt lat="44.86735" lon="4.80483">
        <ele>414.60000610352</ele>
        <time>2023-12-17T08:46:35.000Z</time>
      </trkpt>
      <trkpt lat="44.86734" lon="4.80487">
        <ele>414.60000610352</ele>
        <time>2023-12-17T08:46:36.000Z</time>
      </trkpt>
      <trkpt lat="44.8673" lon="4.80497">
        <ele>414.79998779297</ele>
        <time>2023-12-17T08:46:38.000Z</time>
      </trkpt>
      <trkpt lat="44.86724" lon="4.80511">
        <ele>414.79998779297</ele>
        <time>2023-12-17T08:46:40.000Z</time>
      </trkpt>
      <trkpt lat="44.86713" lon="4.80535">
        <ele>413.60000610352</ele>
        <time>2023-12-17T08:46:43.000Z</time>
      </trkpt>
      <trkpt lat="44.86709" lon="4.80545">
        <ele>413.20001220703</ele>
        <time>2023-12-17T08:46:44.000Z</time>
      </trkpt>
      <trkpt lat="44.86705" lon="4.80554">
        <ele>413</ele>
        <time>2023-12-17T08:46:45.000Z</time>
      </trkpt>
      <trkpt lat="44.867" lon="4.80563">
        <ele>412.79998779297</ele>
        <time>2023-12-17T08:46:46.000Z</time>
      </trkpt>
      <trkpt lat="44.86696" lon="4.80575">
        <ele>411.39999389648</ele>
        <time>2023-12-17T08:46:47.000Z</time>
      </trkpt>
      <trkpt lat="44.86694" lon="4.80587">
        <ele>409.39999389648</ele>
        <time>2023-12-17T08:46:48.000Z</time>
      </trkpt>
      <trkpt lat="44.86694" lon="4.806">
        <ele>406</ele>
        <time>2023-12-17T08:46:49.000Z</time>
      </trkpt>
      <trkpt lat="44.86693" lon="4.80614">
        <ele>404.39999389648</ele>
        <time>2023-12-17T08:46:50.000Z</time>
      </trkpt>
      <trkpt lat="44.86693" lon="4.80629">
        <ele>402.79998779297</ele>
        <time>2023-12-17T08:46:51.000Z</time>
      </trkpt>
      <trkpt lat="44.86693" lon="4.80643">
        <ele>402</ele>
        <time>2023-12-17T08:46:52.000Z</time>
      </trkpt>
      <trkpt lat="44.86694" lon="4.80656">
        <ele>400.39999389648</ele>
        <time>2023-12-17T08:46:53.000Z</time>
      </trkpt>
      <trkpt lat="44.86698" lon="4.80667">
        <ele>398.39999389648</ele>
        <time>2023-12-17T08:46:54.000Z</time>
      </trkpt>
      <trkpt lat="44.86702" lon="4.80676">
        <ele>396.60000610352</ele>
        <time>2023-12-17T08:46:55.000Z</time>
      </trkpt>
      <trkpt lat="44.86712" lon="4.8069">
        <ele>395.20001220703</ele>
        <time>2023-12-17T08:46:57.000Z</time>
      </trkpt>
      <trkpt lat="44.86724" lon="4.80702">
        <ele>394.79998779297</ele>
        <time>2023-12-17T08:46:59.000Z</time>
      </trkpt>
      <trkpt lat="44.86728" lon="4.80708">
        <ele>394.79998779297</ele>
        <time>2023-12-17T08:47:00.000Z</time>
      </trkpt>
      <trkpt lat="44.86733" lon="4.80715">
        <ele>394.39999389648</ele>
        <time>2023-12-17T08:47:01.000Z</time>
      </trkpt>
      <trkpt lat="44.86737" lon="4.80722">
        <ele>394</ele>
        <time>2023-12-17T08:47:02.000Z</time>
      </trkpt>
      <trkpt lat="44.86741" lon="4.80728">
        <ele>393.20001220703</ele>
        <time>2023-12-17T08:47:03.000Z</time>
      </trkpt>
      <trkpt lat="44.86744" lon="4.80734">
        <ele>392.79998779297</ele>
        <time>2023-12-17T08:47:04.000Z</time>
      </trkpt>
      <trkpt lat="44.86748" lon="4.8074">
        <ele>391.20001220703</ele>
        <time>2023-12-17T08:47:05.000Z</time>
      </trkpt>
      <trkpt lat="44.8675" lon="4.80746">
        <ele>390.20001220703</ele>
        <time>2023-12-17T08:47:06.000Z</time>
      </trkpt>
      <trkpt lat="44.86752" lon="4.80752">
        <ele>388.60000610352</ele>
        <time>2023-12-17T08:47:07.000Z</time>
      </trkpt>
      <trkpt lat="44.86752" lon="4.80758">
        <ele>387.79998779297</ele>
        <time>2023-12-17T08:47:08.000Z</time>
      </trkpt>
      <trkpt lat="44.86751" lon="4.80765">
        <ele>386.79998779297</ele>
        <time>2023-12-17T08:47:09.000Z</time>
      </trkpt>
      <trkpt lat="44.86749" lon="4.80779">
        <ele>384.79998779297</ele>
        <time>2023-12-17T08:47:11.000Z</time>
      </trkpt>
      <trkpt lat="44.86751" lon="4.80789">
        <ele>382.60000610352</ele>
        <time>2023-12-17T08:47:13.000Z</time>
      </trkpt>
      <trkpt lat="44.86753" lon="4.80793">
        <ele>381.60000610352</ele>
        <time>2023-12-17T08:47:14.000Z</time>
      </trkpt>
      <trkpt lat="44.86756" lon="4.80797">
        <ele>380.39999389648</ele>
        <time>2023-12-17T08:47:15.000Z</time>
      </trkpt>
      <trkpt lat="44.86762" lon="4.80806">
        <ele>379.20001220703</ele>
        <time>2023-12-17T08:47:19.000Z</time>
      </trkpt>
      <trkpt lat="44.86763" lon="4.80808">
        <ele>379</ele>
        <time>2023-12-17T08:47:20.000Z</time>
      </trkpt>
      <trkpt lat="44.8677" lon="4.80812">
        <ele>378.60000610352</ele>
        <time>2023-12-17T08:47:24.000Z</time>
      </trkpt>
      <trkpt lat="44.86781" lon="4.80814">
        <ele>379</ele>
        <time>2023-12-17T08:47:28.000Z</time>
      </trkpt>
      <trkpt lat="44.86783" lon="4.80816">
        <ele>379</ele>
        <time>2023-12-17T08:47:29.000Z</time>
      </trkpt>
      <trkpt lat="44.86788" lon="4.80819">
        <ele>378.39999389648</ele>
        <time>2023-12-17T08:47:31.000Z</time>
      </trkpt>
      <trkpt lat="44.86791" lon="4.80823">
        <ele>378.20001220703</ele>
        <time>2023-12-17T08:47:32.000Z</time>
      </trkpt>
      <trkpt lat="44.86801" lon="4.80828">
        <ele>377.79998779297</ele>
        <time>2023-12-17T08:47:36.000Z</time>
      </trkpt>
      <trkpt lat="44.86819" lon="4.80836">
        <ele>377.60000610352</ele>
        <time>2023-12-17T08:47:41.000Z</time>
      </trkpt>
      <trkpt lat="44.86829" lon="4.80842">
        <ele>376.60000610352</ele>
        <time>2023-12-17T08:47:44.000Z</time>
      </trkpt>
      <trkpt lat="44.86832" lon="4.80844">
        <ele>376.20001220703</ele>
        <time>2023-12-17T08:47:45.000Z</time>
      </trkpt>
      <trkpt lat="44.86838" lon="4.80843">
        <ele>375.79998779297</ele>
        <time>2023-12-17T08:47:48.000Z</time>
      </trkpt>
      <trkpt lat="44.86842" lon="4.80841">
        <ele>376.39999389648</ele>
        <time>2023-12-17T08:47:50.000Z</time>
      </trkpt>
      <trkpt lat="44.86848" lon="4.80843">
        <ele>376.79998779297</ele>
        <time>2023-12-17T08:47:52.000Z</time>
      </trkpt>
      <trkpt lat="44.8686" lon="4.80849">
        <ele>375.60000610352</ele>
        <time>2023-12-17T08:47:56.000Z</time>
      </trkpt>
      <trkpt lat="44.86862" lon="4.80852">
        <ele>374.60000610352</ele>
        <time>2023-12-17T08:47:57.000Z</time>
      </trkpt>
      <trkpt lat="44.86863" lon="4.80853">
        <ele>373.79998779297</ele>
        <time>2023-12-17T08:47:58.000Z</time>
      </trkpt>
      <trkpt lat="44.86871" lon="4.80855">
        <ele>371.60000610352</ele>
        <time>2023-12-17T08:48:00.000Z</time>
      </trkpt>
      <trkpt lat="44.86874" lon="4.80859">
        <ele>370.60000610352</ele>
        <time>2023-12-17T08:48:01.000Z</time>
      </trkpt>
      <trkpt lat="44.86875" lon="4.80863">
        <ele>368.20001220703</ele>
        <time>2023-12-17T08:48:02.000Z</time>
      </trkpt>
      <trkpt lat="44.86877" lon="4.80866">
        <ele>366.60000610352</ele>
        <time>2023-12-17T08:48:03.000Z</time>
      </trkpt>
      <trkpt lat="44.8688" lon="4.80874">
        <ele>364.39999389648</ele>
        <time>2023-12-17T08:48:05.000Z</time>
      </trkpt>
      <trkpt lat="44.86886" lon="4.80878">
        <ele>362.79998779297</ele>
        <time>2023-12-17T08:48:07.000Z</time>
      </trkpt>
      <trkpt lat="44.86889" lon="4.80881">
        <ele>362.39999389648</ele>
        <time>2023-12-17T08:48:08.000Z</time>
      </trkpt>
      <trkpt lat="44.86891" lon="4.80884">
        <ele>361.79998779297</ele>
        <time>2023-12-17T08:48:09.000Z</time>
      </trkpt>
      <trkpt lat="44.86896" lon="4.80892">
        <ele>359.79998779297</ele>
        <time>2023-12-17T08:48:11.000Z</time>
      </trkpt>
      <trkpt lat="44.86898" lon="4.80897">
        <ele>358.60000610352</ele>
        <time>2023-12-17T08:48:12.000Z</time>
      </trkpt>
      <trkpt lat="44.86902" lon="4.80902">
        <ele>356.39999389648</ele>
        <time>2023-12-17T08:48:13.000Z</time>
      </trkpt>
      <trkpt lat="44.86904" lon="4.80909">
        <ele>355.20001220703</ele>
        <time>2023-12-17T08:48:14.000Z</time>
      </trkpt>
      <trkpt lat="44.86906" lon="4.80915">
        <ele>353.60000610352</ele>
        <time>2023-12-17T08:48:15.000Z</time>
      </trkpt>
      <trkpt lat="44.86907" lon="4.80921">
        <ele>352.39999389648</ele>
        <time>2023-12-17T08:48:16.000Z</time>
      </trkpt>
      <trkpt lat="44.86909" lon="4.80928">
        <ele>351</ele>
        <time>2023-12-17T08:48:18.000Z</time>
      </trkpt>
      <trkpt lat="44.86913" lon="4.80935">
        <ele>350.39999389648</ele>
        <time>2023-12-17T08:48:20.000Z</time>
      </trkpt>
      <trkpt lat="44.86917" lon="4.80945">
        <ele>350</ele>
        <time>2023-12-17T08:48:22.000Z</time>
      </trkpt>
      <trkpt lat="44.86917" lon="4.8095">
        <ele>348.39999389648</ele>
        <time>2023-12-17T08:48:23.000Z</time>
      </trkpt>
      <trkpt lat="44.86918" lon="4.80953">
        <ele>347.20001220703</ele>
        <time>2023-12-17T08:48:24.000Z</time>
      </trkpt>
      <trkpt lat="44.86921" lon="4.80957">
        <ele>345.60000610352</ele>
        <time>2023-12-17T08:48:26.000Z</time>
      </trkpt>
      <trkpt lat="44.86926" lon="4.80958">
        <ele>344.79998779297</ele>
        <time>2023-12-17T08:48:28.000Z</time>
      </trkpt>
      <trkpt lat="44.86929" lon="4.8096">
        <ele>344.39999389648</ele>
        <time>2023-12-17T08:48:29.000Z</time>
      </trkpt>
      <trkpt lat="44.86936" lon="4.80961">
        <ele>343</ele>
        <time>2023-12-17T08:48:31.000Z</time>
      </trkpt>
      <trkpt lat="44.86941" lon="4.80965">
        <ele>341.20001220703</ele>
        <time>2023-12-17T08:48:33.000Z</time>
      </trkpt>
      <trkpt lat="44.86944" lon="4.80967">
        <ele>339</ele>
        <time>2023-12-17T08:48:34.000Z</time>
      </trkpt>
      <trkpt lat="44.86947" lon="4.80969">
        <ele>337.60000610352</ele>
        <time>2023-12-17T08:48:35.000Z</time>
      </trkpt>
      <trkpt lat="44.86949" lon="4.80973">
        <ele>336.39999389648</ele>
        <time>2023-12-17T08:48:36.000Z</time>
      </trkpt>
      <trkpt lat="44.86951" lon="4.80982">
        <ele>333.39999389648</ele>
        <time>2023-12-17T08:48:38.000Z</time>
      </trkpt>
      <trkpt lat="44.86952" lon="4.80986">
        <ele>332.20001220703</ele>
        <time>2023-12-17T08:48:39.000Z</time>
      </trkpt>
      <trkpt lat="44.86952" lon="4.80988">
        <ele>331.20001220703</ele>
        <time>2023-12-17T08:48:40.000Z</time>
      </trkpt>
      <trkpt lat="44.86953" lon="4.80991">
        <ele>330.60000610352</ele>
        <time>2023-12-17T08:48:41.000Z</time>
      </trkpt>
      <trkpt lat="44.86953" lon="4.80996">
        <ele>329.20001220703</ele>
        <time>2023-12-17T08:48:43.000Z</time>
      </trkpt>
      <trkpt lat="44.86953" lon="4.80998">
        <ele>328.20001220703</ele>
        <time>2023-12-17T08:48:44.000Z</time>
      </trkpt>
      <trkpt lat="44.86952" lon="4.81">
        <ele>327.60000610352</ele>
        <time>2023-12-17T08:48:45.000Z</time>
      </trkpt>
      <trkpt lat="44.86953" lon="4.81003">
        <ele>327</ele>
        <time>2023-12-17T08:48:46.000Z</time>
      </trkpt>
      <trkpt lat="44.86953" lon="4.81007">
        <ele>325.60000610352</ele>
        <time>2023-12-17T08:48:47.000Z</time>
      </trkpt>
      <trkpt lat="44.86954" lon="4.8101">
        <ele>324.60000610352</ele>
        <time>2023-12-17T08:48:48.000Z</time>
      </trkpt>
      <trkpt lat="44.86955" lon="4.81012">
        <ele>323.60000610352</ele>
        <time>2023-12-17T08:48:49.000Z</time>
      </trkpt>
      <trkpt lat="44.86956" lon="4.81015">
        <ele>322.79998779297</ele>
        <time>2023-12-17T08:48:50.000Z</time>
      </trkpt>
      <trkpt lat="44.8696" lon="4.81018">
        <ele>321.60000610352</ele>
        <time>2023-12-17T08:48:51.000Z</time>
      </trkpt>
      <trkpt lat="44.86962" lon="4.8102">
        <ele>320.39999389648</ele>
        <time>2023-12-17T08:48:52.000Z</time>
      </trkpt>
      <trkpt lat="44.86965" lon="4.81021">
        <ele>319.39999389648</ele>
        <time>2023-12-17T08:48:53.000Z</time>
      </trkpt>
      <trkpt lat="44.86966" lon="4.81024">
        <ele>318.60000610352</ele>
        <time>2023-12-17T08:48:54.000Z</time>
      </trkpt>
      <trkpt lat="44.86966" lon="4.81028">
        <ele>316.39999389648</ele>
        <time>2023-12-17T08:48:55.000Z</time>
      </trkpt>
      <trkpt lat="44.86965" lon="4.81031">
        <ele>314.79998779297</ele>
        <time>2023-12-17T08:48:56.000Z</time>
      </trkpt>
      <trkpt lat="44.86962" lon="4.81036">
        <ele>312.60000610352</ele>
        <time>2023-12-17T08:48:58.000Z</time>
      </trkpt>
      <trkpt lat="44.86961" lon="4.81037">
        <ele>311.39999389648</ele>
        <time>2023-12-17T08:48:59.000Z</time>
      </trkpt>
      <trkpt lat="44.86963" lon="4.8104">
        <ele>309.60000610352</ele>
        <time>2023-12-17T08:49:01.000Z</time>
      </trkpt>
      <trkpt lat="44.86969" lon="4.81045">
        <ele>308.20001220703</ele>
        <time>2023-12-17T08:49:03.000Z</time>
      </trkpt>
      <trkpt lat="44.86973" lon="4.81048">
        <ele>307.79998779297</ele>
        <time>2023-12-17T08:49:04.000Z</time>
      </trkpt>
      <trkpt lat="44.8698" lon="4.81053">
        <ele>306.39999389648</ele>
        <time>2023-12-17T08:49:06.000Z</time>
      </trkpt>
      <trkpt lat="44.86986" lon="4.81053">
        <ele>305</ele>
        <time>2023-12-17T08:49:07.000Z</time>
      </trkpt>
      <trkpt lat="44.8699" lon="4.81051">
        <ele>302.60000610352</ele>
        <time>2023-12-17T08:49:08.000Z</time>
      </trkpt>
      <trkpt lat="44.86993" lon="4.81048">
        <ele>301.20001220703</ele>
        <time>2023-12-17T08:49:09.000Z</time>
      </trkpt>
      <trkpt lat="44.86994" lon="4.81046">
        <ele>300.39999389648</ele>
        <time>2023-12-17T08:49:10.000Z</time>
      </trkpt>
      <trkpt lat="44.86996" lon="4.81044">
        <ele>300</ele>
        <time>2023-12-17T08:49:11.000Z</time>
      </trkpt>
      <trkpt lat="44.87005" lon="4.81042">
        <ele>299.79998779297</ele>
        <time>2023-12-17T08:49:14.000Z</time>
      </trkpt>
      <trkpt lat="44.87008" lon="4.81042">
        <ele>299.79998779297</ele>
        <time>2023-12-17T08:49:15.000Z</time>
      </trkpt>
      <trkpt lat="44.8701" lon="4.81044">
        <ele>298.79998779297</ele>
        <time>2023-12-17T08:49:16.000Z</time>
      </trkpt>
      <trkpt lat="44.8701" lon="4.81048">
        <ele>298</ele>
        <time>2023-12-17T08:49:17.000Z</time>
      </trkpt>
      <trkpt lat="44.87009" lon="4.8105">
        <ele>296.79998779297</ele>
        <time>2023-12-17T08:49:18.000Z</time>
      </trkpt>
      <trkpt lat="44.87008" lon="4.81061">
        <ele>295.39999389648</ele>
        <time>2023-12-17T08:49:21.000Z</time>
      </trkpt>
      <trkpt lat="44.87007" lon="4.81068">
        <ele>293.20001220703</ele>
        <time>2023-12-17T08:49:23.000Z</time>
      </trkpt>
      <trkpt lat="44.87009" lon="4.81069">
        <ele>292.39999389648</ele>
        <time>2023-12-17T08:49:24.000Z</time>
      </trkpt>
      <trkpt lat="44.87011" lon="4.8107">
        <ele>291.79998779297</ele>
        <time>2023-12-17T08:49:25.000Z</time>
      </trkpt>
      <trkpt lat="44.87014" lon="4.81072">
        <ele>290.60000610352</ele>
        <time>2023-12-17T08:49:26.000Z</time>
      </trkpt>
      <trkpt lat="44.87017" lon="4.81073">
        <ele>289</ele>
        <time>2023-12-17T08:49:27.000Z</time>
      </trkpt>
      <trkpt lat="44.87023" lon="4.81076">
        <ele>287.39999389648</ele>
        <time>2023-12-17T08:49:29.000Z</time>
      </trkpt>
      <trkpt lat="44.87026" lon="4.8108">
        <ele>285.20001220703</ele>
        <time>2023-12-17T08:49:30.000Z</time>
      </trkpt>
      <trkpt lat="44.87028" lon="4.81084">
        <ele>283.79998779297</ele>
        <time>2023-12-17T08:49:31.000Z</time>
      </trkpt>
      <trkpt lat="44.87029" lon="4.81086">
        <ele>281.60000610352</ele>
        <time>2023-12-17T08:49:32.000Z</time>
      </trkpt>
      <trkpt lat="44.87029" lon="4.81087">
        <ele>280.39999389648</ele>
        <time>2023-12-17T08:49:33.000Z</time>
      </trkpt>
      <trkpt lat="44.8703" lon="4.81091">
        <ele>278.39999389648</ele>
        <time>2023-12-17T08:49:35.000Z</time>
      </trkpt>
      <trkpt lat="44.8703" lon="4.81095">
        <ele>277.39999389648</ele>
        <time>2023-12-17T08:49:36.000Z</time>
      </trkpt>
      <trkpt lat="44.8703" lon="4.81098">
        <ele>276.79998779297</ele>
        <time>2023-12-17T08:49:37.000Z</time>
      </trkpt>
      <trkpt lat="44.87029" lon="4.81099">
        <ele>275.79998779297</ele>
        <time>2023-12-17T08:49:38.000Z</time>
      </trkpt>
      <trkpt lat="44.87028" lon="4.81104">
        <ele>274.79998779297</ele>
        <time>2023-12-17T08:49:40.000Z</time>
      </trkpt>
      <trkpt lat="44.87028" lon="4.81108">
        <ele>273.60000610352</ele>
        <time>2023-12-17T08:49:42.000Z</time>
      </trkpt>
      <trkpt lat="44.87028" lon="4.81108">
        <ele>272.39999389648</ele>
        <time>2023-12-17T08:49:43.000Z</time>
      </trkpt>
      <trkpt lat="44.87028" lon="4.81109">
        <ele>271.20001220703</ele>
        <time>2023-12-17T08:49:44.000Z</time>
      </trkpt>
      <trkpt lat="44.87028" lon="4.8111">
        <ele>270.39999389648</ele>
        <time>2023-12-17T08:49:46.000Z</time>
      </trkpt>
      <trkpt lat="44.87028" lon="4.81112">
        <ele>270.20001220703</ele>
        <time>2023-12-17T08:49:47.000Z</time>
      </trkpt>
      <trkpt lat="44.87027" lon="4.81115">
        <ele>270</ele>
        <time>2023-12-17T08:49:48.000Z</time>
      </trkpt>
      <trkpt lat="44.87026" lon="4.81125">
        <ele>269.79998779297</ele>
        <time>2023-12-17T08:49:51.000Z</time>
      </trkpt>
      <trkpt lat="44.87028" lon="4.81131">
        <ele>269</ele>
        <time>2023-12-17T08:49:52.000Z</time>
      </trkpt>
      <trkpt lat="44.8703" lon="4.8114">
        <ele>267.39999389648</ele>
        <time>2023-12-17T08:49:54.000Z</time>
      </trkpt>
      <trkpt lat="44.87031" lon="4.81144">
        <ele>265.79998779297</ele>
        <time>2023-12-17T08:49:55.000Z</time>
      </trkpt>
      <trkpt lat="44.87033" lon="4.81148">
        <ele>264</ele>
        <time>2023-12-17T08:49:56.000Z</time>
      </trkpt>
      <trkpt lat="44.87035" lon="4.81153">
        <ele>262.39999389648</ele>
        <time>2023-12-17T08:49:57.000Z</time>
      </trkpt>
      <trkpt lat="44.87036" lon="4.8116">
        <ele>261.20001220703</ele>
        <time>2023-12-17T08:49:58.000Z</time>
      </trkpt>
      <trkpt lat="44.87038" lon="4.81164">
        <ele>259.39999389648</ele>
        <time>2023-12-17T08:49:59.000Z</time>
      </trkpt>
      <trkpt lat="44.87039" lon="4.81169">
        <ele>258.39999389648</ele>
        <time>2023-12-17T08:50:00.000Z</time>
      </trkpt>
      <trkpt lat="44.87041" lon="4.81175">
        <ele>257.39999389648</ele>
        <time>2023-12-17T08:50:01.000Z</time>
      </trkpt>
      <trkpt lat="44.87042" lon="4.81181">
        <ele>256</ele>
        <time>2023-12-17T08:50:02.000Z</time>
      </trkpt>
      <trkpt lat="44.87043" lon="4.81183">
        <ele>255</ele>
        <time>2023-12-17T08:50:03.000Z</time>
      </trkpt>
      <trkpt lat="44.87044" lon="4.81184">
        <ele>254.19999694824</ele>
        <time>2023-12-17T08:50:04.000Z</time>
      </trkpt>
      <trkpt lat="44.87045" lon="4.81183">
        <ele>252.80000305176</ele>
        <time>2023-12-17T08:50:06.000Z</time>
      </trkpt>
      <trkpt lat="44.87046" lon="4.81183">
        <ele>252.60000610352</ele>
        <time>2023-12-17T08:50:07.000Z</time>
      </trkpt>
      <trkpt lat="44.87046" lon="4.81183">
        <ele>251.80000305176</ele>
        <time>2023-12-17T08:50:12.000Z</time>
      </trkpt>
      <trkpt lat="44.87046" lon="4.81183">
        <ele>251.80000305176</ele>
        <time>2023-12-17T08:50:15.000Z</time>
      </trkpt>
      <trkpt lat="44.87046" lon="4.81184">
        <ele>251.80000305176</ele>
        <time>2023-12-17T08:50:22.000Z</time>
      </trkpt>
      <trkpt lat="44.87046" lon="4.81184">
        <ele>251.39999389648</ele>
        <time>2023-12-17T08:50:30.000Z</time>
      </trkpt>
      <trkpt lat="44.87046" lon="4.81182">
        <ele>251</ele>
        <time>2023-12-17T08:50:37.000Z</time>
      </trkpt>
      <trkpt lat="44.87046" lon="4.81182">
        <ele>250.80000305176</ele>
        <time>2023-12-17T08:50:41.000Z</time>
      </trkpt>
      <trkpt lat="44.87047" lon="4.81181">
        <ele>250.39999389648</ele>
        <time>2023-12-17T08:50:48.000Z</time>
      </trkpt>
      <trkpt lat="44.87047" lon="4.81181">
        <ele>250</ele>
        <time>2023-12-17T08:50:56.000Z</time>
      </trkpt>
      <trkpt lat="44.87047" lon="4.81181">
        <ele>250</ele>
        <time>2023-12-17T08:50:58.000Z</time>
      </trkpt>
      <trkpt lat="44.87047" lon="4.81181">
        <ele>249.80000305176</ele>
        <time>2023-12-17T08:51:08.000Z</time>
      </trkpt>
      <trkpt lat="44.87047" lon="4.81181">
        <ele>249.60000610352</ele>
        <time>2023-12-17T08:51:09.000Z</time>
      </trkpt>
      <trkpt lat="44.87047" lon="4.8118">
        <ele>249.39999389648</ele>
        <time>2023-12-17T08:51:16.000Z</time>
      </trkpt>
      <trkpt lat="44.87046" lon="4.81182">
        <ele>249.19999694824</ele>
        <time>2023-12-17T08:51:22.000Z</time>
      </trkpt>
      <trkpt lat="44.87046" lon="4.81181">
        <ele>249</ele>
        <time>2023-12-17T08:51:28.000Z</time>
      </trkpt>
      <trkpt lat="44.87046" lon="4.81181">
        <ele>248.80000305176</ele>
        <time>2023-12-17T08:51:31.000Z</time>
      </trkpt>
      <trkpt lat="44.87045" lon="4.81182">
        <ele>248.39999389648</ele>
        <time>2023-12-17T08:51:37.000Z</time>
      </trkpt>
      <trkpt lat="44.87044" lon="4.81183">
        <ele>248.39999389648</ele>
        <time>2023-12-17T08:51:38.000Z</time>
      </trkpt>
      <trkpt lat="44.87035" lon="4.81188">
        <ele>248</ele>
        <time>2023-12-17T08:51:43.000Z</time>
      </trkpt>
      <trkpt lat="44.8703" lon="4.81189">
        <ele>247.60000610352</ele>
        <time>2023-12-17T08:51:45.000Z</time>
      </trkpt>
      <trkpt lat="44.87022" lon="4.8119">
        <ele>247.39999389648</ele>
        <time>2023-12-17T08:51:48.000Z</time>
      </trkpt>
      <trkpt lat="44.87001" lon="4.81197">
        <ele>246.80000305176</ele>
        <time>2023-12-17T08:51:53.000Z</time>
      </trkpt>
      <trkpt lat="44.86996" lon="4.81199">
        <ele>246.39999389648</ele>
        <time>2023-12-17T08:51:54.000Z</time>
      </trkpt>
      <trkpt lat="44.86977" lon="4.81208">
        <ele>245.19999694824</ele>
        <time>2023-12-17T08:51:57.000Z</time>
      </trkpt>
      <trkpt lat="44.86964" lon="4.81215">
        <ele>243.80000305176</ele>
        <time>2023-12-17T08:51:59.000Z</time>
      </trkpt>
      <trkpt lat="44.86957" lon="4.81226">
        <ele>243</ele>
        <time>2023-12-17T08:52:01.000Z</time>
      </trkpt>
      <trkpt lat="44.86954" lon="4.81237">
        <ele>242</ele>
        <time>2023-12-17T08:52:03.000Z</time>
      </trkpt>
      <trkpt lat="44.86954" lon="4.8124">
        <ele>241.19999694824</ele>
        <time>2023-12-17T08:52:04.000Z</time>
      </trkpt>
      <trkpt lat="44.86954" lon="4.81242">
        <ele>240.19999694824</ele>
        <time>2023-12-17T08:52:05.000Z</time>
      </trkpt>
      <trkpt lat="44.86955" lon="4.81242">
        <ele>238.80000305176</ele>
        <time>2023-12-17T08:52:07.000Z</time>
      </trkpt>
      <trkpt lat="44.86955" lon="4.81242">
        <ele>238.39999389648</ele>
        <time>2023-12-17T08:52:08.000Z</time>
      </trkpt>
      <trkpt lat="44.86955" lon="4.81243">
        <ele>237.60000610352</ele>
        <time>2023-12-17T08:52:11.000Z</time>
      </trkpt>
      <trkpt lat="44.86956" lon="4.81244">
        <ele>237.60000610352</ele>
        <time>2023-12-17T08:52:12.000Z</time>
      </trkpt>
      <trkpt lat="44.86955" lon="4.81246">
        <ele>236.80000305176</ele>
        <time>2023-12-17T08:52:37.000Z</time>
      </trkpt>
      <trkpt lat="44.86956" lon="4.81244">
        <ele>237</ele>
        <time>2023-12-17T08:52:43.000Z</time>
      </trkpt>
      <trkpt lat="44.86958" lon="4.81239">
        <ele>237.19999694824</ele>
        <time>2023-12-17T08:52:49.000Z</time>
      </trkpt>
      <trkpt lat="44.86958" lon="4.81239">
        <ele>237.39999389648</ele>
        <time>2023-12-17T08:52:50.000Z</time>
      </trkpt>
      <trkpt lat="44.86956" lon="4.81242">
        <ele>237.80000305176</ele>
        <time>2023-12-17T08:52:53.000Z</time>
      </trkpt>
      <trkpt lat="44.86954" lon="4.81246">
        <ele>237.39999389648</ele>
        <time>2023-12-17T08:52:59.000Z</time>
      </trkpt>
      <trkpt lat="44.86953" lon="4.81247">
        <ele>236.80000305176</ele>
        <time>2023-12-17T08:53:05.000Z</time>
      </trkpt>
      <trkpt lat="44.86951" lon="4.81247">
        <ele>236.80000305176</ele>
        <time>2023-12-17T08:53:14.000Z</time>
      </trkpt>
      <trkpt lat="44.86951" lon="4.81247">
        <ele>236.80000305176</ele>
        <time>2023-12-17T08:53:19.000Z</time>
      </trkpt>
      <trkpt lat="44.86951" lon="4.81248">
        <ele>236.80000305176</ele>
        <time>2023-12-17T08:53:20.000Z</time>
      </trkpt>
      <trkpt lat="44.86951" lon="4.81248">
        <ele>236.80000305176</ele>
        <time>2023-12-17T08:53:23.000Z</time>
      </trkpt>
      <trkpt lat="44.86952" lon="4.81248">
        <ele>236.60000610352</ele>
        <time>2023-12-17T08:53:24.000Z</time>
      </trkpt>
      <trkpt lat="44.86951" lon="4.81248">
        <ele>236.80000305176</ele>
        <time>2023-12-17T08:53:41.000Z</time>
      </trkpt>
      <trkpt lat="44.86951" lon="4.81249">
        <ele>236.60000610352</ele>
        <time>2023-12-17T08:53:47.000Z</time>
      </trkpt>
      <trkpt lat="44.86952" lon="4.81249">
        <ele>236.39999389648</ele>
        <time>2023-12-17T08:53:55.000Z</time>
      </trkpt>
      <trkpt lat="44.86952" lon="4.81249">
        <ele>236.39999389648</ele>
        <time>2023-12-17T08:54:01.000Z</time>
      </trkpt>
      <trkpt lat="44.86953" lon="4.81249">
        <ele>236.80000305176</ele>
        <time>2023-12-17T08:54:09.000Z</time>
      </trkpt>
      <trkpt lat="44.86954" lon="4.81249">
        <ele>236.39999389648</ele>
        <time>2023-12-17T08:54:23.000Z</time>
      </trkpt>
      <trkpt lat="44.86954" lon="4.81249">
        <ele>236.19999694824</ele>
        <time>2023-12-17T08:54:31.000Z</time>
      </trkpt>
      <trkpt lat="44.86954" lon="4.81248">
        <ele>236.19999694824</ele>
        <time>2023-12-17T08:54:38.000Z</time>
      </trkpt>
      <trkpt lat="44.86954" lon="4.81248">
        <ele>236.19999694824</ele>
        <time>2023-12-17T08:54:49.000Z</time>
      </trkpt>
      <trkpt lat="44.86954" lon="4.81246">
        <ele>236.19999694824</ele>
        <time>2023-12-17T08:54:57.000Z</time>
      </trkpt>
      <trkpt lat="44.86955" lon="4.81246">
        <ele>236</ele>
        <time>2023-12-17T08:55:06.000Z</time>
      </trkpt>
      <trkpt lat="44.86955" lon="4.81245">
        <ele>235.60000610352</ele>
        <time>2023-12-17T08:55:11.000Z</time>
      </trkpt>
      <trkpt lat="44.86955" lon="4.81246">
        <ele>235.80000305176</ele>
        <time>2023-12-17T08:55:14.000Z</time>
      </trkpt>
      <trkpt lat="44.86954" lon="4.81245">
        <ele>235.39999389648</ele>
        <time>2023-12-17T08:55:29.000Z</time>
      </trkpt>
      <trkpt lat="44.86954" lon="4.81246">
        <ele>235.80000305176</ele>
        <time>2023-12-17T08:55:39.000Z</time>
      </trkpt>
      <trkpt lat="44.86954" lon="4.81248">
        <ele>236</ele>
        <time>2023-12-17T08:55:47.000Z</time>
      </trkpt>
      <trkpt lat="44.86954" lon="4.81246">
        <ele>235.80000305176</ele>
        <time>2023-12-17T08:55:59.000Z</time>
      </trkpt>
      <trkpt lat="44.86954" lon="4.81246">
        <ele>236.39999389648</ele>
        <time>2023-12-17T08:56:07.000Z</time>
      </trkpt>
      <trkpt lat="44.86954" lon="4.81246">
        <ele>236.39999389648</ele>
        <time>2023-12-17T08:56:18.000Z</time>
      </trkpt>
      <trkpt lat="44.86954" lon="4.81246">
        <ele>236.39999389648</ele>
        <time>2023-12-17T08:56:19.000Z</time>
      </trkpt>
      <trkpt lat="44.86954" lon="4.81246">
        <ele>236.60000610352</ele>
        <time>2023-12-17T08:56:30.000Z</time>
      </trkpt>
      <trkpt lat="44.86954" lon="4.81246">
        <ele>236.60000610352</ele>
        <time>2023-12-17T08:56:35.000Z</time>
      </trkpt>
      <trkpt lat="44.86954" lon="4.81247">
        <ele>236.80000305176</ele>
        <time>2023-12-17T08:56:47.000Z</time>
      </trkpt>
      <trkpt lat="44.86954" lon="4.81248">
        <ele>236.60000610352</ele>
        <time>2023-12-17T08:57:01.000Z</time>
      </trkpt>
      <trkpt lat="44.86955" lon="4.81248">
        <ele>236.39999389648</ele>
        <time>2023-12-17T08:57:10.000Z</time>
      </trkpt>
      <trkpt lat="44.86954" lon="4.81249">
        <ele>236.19999694824</ele>
        <time>2023-12-17T08:57:20.000Z</time>
      </trkpt>
      <trkpt lat="44.86954" lon="4.81248">
        <ele>236.19999694824</ele>
        <time>2023-12-17T08:57:27.000Z</time>
      </trkpt>
      <trkpt lat="44.86952" lon="4.81247">
        <ele>236.39999389648</ele>
        <time>2023-12-17T08:57:35.000Z</time>
      </trkpt>
      <trkpt lat="44.86953" lon="4.81246">
        <ele>236.60000610352</ele>
        <time>2023-12-17T08:57:42.000Z</time>
      </trkpt>
      <trkpt lat="44.86952" lon="4.81246">
        <ele>236.39999389648</ele>
        <time>2023-12-17T08:57:51.000Z</time>
      </trkpt>
      <trkpt lat="44.86953" lon="4.81248">
        <ele>237</ele>
        <time>2023-12-17T08:58:03.000Z</time>
      </trkpt>
      <trkpt lat="44.86954" lon="4.81248">
        <ele>237</ele>
        <time>2023-12-17T08:58:12.000Z</time>
      </trkpt>
      <trkpt lat="44.86954" lon="4.81248">
        <ele>237.19999694824</ele>
        <time>2023-12-17T08:58:21.000Z</time>
      </trkpt>
      <trkpt lat="44.86954" lon="4.81249">
        <ele>237.19999694824</ele>
        <time>2023-12-17T08:58:31.000Z</time>
      </trkpt>
      <trkpt lat="44.86954" lon="4.81249">
        <ele>237</ele>
        <time>2023-12-17T08:58:59.000Z</time>
      </trkpt>
      <trkpt lat="44.86954" lon="4.81249">
        <ele>237</ele>
        <time>2023-12-17T08:59:09.000Z</time>
      </trkpt>
      <trkpt lat="44.86954" lon="4.81248">
        <ele>237</ele>
        <time>2023-12-17T08:59:15.000Z</time>
      </trkpt>
      <trkpt lat="44.86954" lon="4.81249">
        <ele>237.19999694824</ele>
        <time>2023-12-17T08:59:22.000Z</time>
      </trkpt>
      <trkpt lat="44.86955" lon="4.81248">
        <ele>237.19999694824</ele>
        <time>2023-12-17T08:59:24.000Z</time>
      </trkpt>
      <trkpt lat="44.86954" lon="4.81252">
        <ele>237.39999389648</ele>
        <time>2023-12-17T08:59:31.000Z</time>
      </trkpt>
      <trkpt lat="44.86955" lon="4.81253">
        <ele>237.39999389648</ele>
        <time>2023-12-17T08:59:42.000Z</time>
      </trkpt>
      <trkpt lat="44.86957" lon="4.81254">
        <ele>237.39999389648</ele>
        <time>2023-12-17T08:59:52.000Z</time>
      </trkpt>
      <trkpt lat="44.86958" lon="4.81251">
        <ele>237.39999389648</ele>
        <time>2023-12-17T09:00:02.000Z</time>
      </trkpt>
      <trkpt lat="44.8696" lon="4.8125">
        <ele>237.39999389648</ele>
        <time>2023-12-17T09:00:16.000Z</time>
      </trkpt>
      <trkpt lat="44.86958" lon="4.81251">
        <ele>237.39999389648</ele>
        <time>2023-12-17T09:00:24.000Z</time>
      </trkpt>
      <trkpt lat="44.86958" lon="4.81252">
        <ele>237.39999389648</ele>
        <time>2023-12-17T09:00:31.000Z</time>
      </trkpt>
      <trkpt lat="44.86958" lon="4.81251">
        <ele>237.39999389648</ele>
        <time>2023-12-17T09:00:39.000Z</time>
      </trkpt>
      <trkpt lat="44.86957" lon="4.81248">
        <ele>237.39999389648</ele>
        <time>2023-12-17T09:00:47.000Z</time>
      </trkpt>
      <trkpt lat="44.86957" lon="4.81247">
        <ele>237.39999389648</ele>
        <time>2023-12-17T09:00:53.000Z</time>
      </trkpt>
      <trkpt lat="44.86956" lon="4.81247">
        <ele>237.39999389648</ele>
        <time>2023-12-17T09:00:59.000Z</time>
      </trkpt>
      <trkpt lat="44.86954" lon="4.81246">
        <ele>237.39999389648</ele>
        <time>2023-12-17T09:01:06.000Z</time>
      </trkpt>
      <trkpt lat="44.86953" lon="4.81246">
        <ele>237.39999389648</ele>
        <time>2023-12-17T09:01:12.000Z</time>
      </trkpt>
      <trkpt lat="44.86952" lon="4.81246">
        <ele>237.39999389648</ele>
        <time>2023-12-17T09:01:20.000Z</time>
      </trkpt>
      <trkpt lat="44.86952" lon="4.81246">
        <ele>235</ele>
        <time>2023-12-17T09:01:22.000Z</time>
      </trkpt>
      <trkpt lat="44.86952" lon="4.81244">
        <ele>235.19999694824</ele>
        <time>2023-12-17T09:01:26.000Z</time>
      </trkpt>
      <trkpt lat="44.86951" lon="4.81245">
        <ele>235.60000610352</ele>
        <time>2023-12-17T09:01:36.000Z</time>
      </trkpt>
      <trkpt lat="44.86952" lon="4.81245">
        <ele>235.39999389648</ele>
        <time>2023-12-17T09:01:45.000Z</time>
      </trkpt>
      <trkpt lat="44.86951" lon="4.81247">
        <ele>235.19999694824</ele>
        <time>2023-12-17T09:01:56.000Z</time>
      </trkpt>
      <trkpt lat="44.8695" lon="4.81247">
        <ele>236</ele>
        <time>2023-12-17T09:02:06.000Z</time>
      </trkpt>
      <trkpt lat="44.8695" lon="4.81248">
        <ele>236.60000610352</ele>
        <time>2023-12-17T09:02:12.000Z</time>
      </trkpt>
      <trkpt lat="44.8695" lon="4.81248">
        <ele>236.60000610352</ele>
        <time>2023-12-17T09:02:13.000Z</time>
      </trkpt>
      <trkpt lat="44.8695" lon="4.81249">
        <ele>237</ele>
        <time>2023-12-17T09:02:22.000Z</time>
      </trkpt>
      <trkpt lat="44.8695" lon="4.81248">
        <ele>236.80000305176</ele>
        <time>2023-12-17T09:02:30.000Z</time>
      </trkpt>
      <trkpt lat="44.8695" lon="4.81248">
        <ele>236.19999694824</ele>
        <time>2023-12-17T09:02:37.000Z</time>
      </trkpt>
      <trkpt lat="44.8695" lon="4.81247">
        <ele>236.19999694824</ele>
        <time>2023-12-17T09:02:45.000Z</time>
      </trkpt>
      <trkpt lat="44.8695" lon="4.81247">
        <ele>236</ele>
        <time>2023-12-17T09:02:49.000Z</time>
      </trkpt>
      <trkpt lat="44.8695" lon="4.81246">
        <ele>236.60000610352</ele>
        <time>2023-12-17T09:02:56.000Z</time>
      </trkpt>
      <trkpt lat="44.8695" lon="4.81247">
        <ele>236.39999389648</ele>
        <time>2023-12-17T09:03:06.000Z</time>
      </trkpt>
      <trkpt lat="44.8695" lon="4.81245">
        <ele>236.80000305176</ele>
        <time>2023-12-17T09:03:11.000Z</time>
      </trkpt>
      <trkpt lat="44.86951" lon="4.81246">
        <ele>237</ele>
        <time>2023-12-17T09:03:16.000Z</time>
      </trkpt>
      <trkpt lat="44.86951" lon="4.81248">
        <ele>237.60000610352</ele>
        <time>2023-12-17T09:03:25.000Z</time>
      </trkpt>
      <trkpt lat="44.86953" lon="4.81246">
        <ele>237.39999389648</ele>
        <time>2023-12-17T09:03:32.000Z</time>
      </trkpt>
      <trkpt lat="44.86953" lon="4.81245">
        <ele>237.39999389648</ele>
        <time>2023-12-17T09:03:42.000Z</time>
      </trkpt>
      <trkpt lat="44.86953" lon="4.81245">
        <ele>237.39999389648</ele>
        <time>2023-12-17T09:03:55.000Z</time>
      </trkpt>
      <trkpt lat="44.86954" lon="4.81245">
        <ele>237.39999389648</ele>
        <time>2023-12-17T09:04:02.000Z</time>
      </trkpt>
      <trkpt lat="44.86953" lon="4.81244">
        <ele>237.39999389648</ele>
        <time>2023-12-17T09:04:11.000Z</time>
      </trkpt>
      <trkpt lat="44.86954" lon="4.81245">
        <ele>237.39999389648</ele>
        <time>2023-12-17T09:04:18.000Z</time>
      </trkpt>
      <trkpt lat="44.86954" lon="4.81244">
        <ele>237.39999389648</ele>
        <time>2023-12-17T09:04:24.000Z</time>
      </trkpt>
      <trkpt lat="44.86954" lon="4.81244">
        <ele>237.39999389648</ele>
        <time>2023-12-17T09:04:36.000Z</time>
      </trkpt>
      <trkpt lat="44.86953" lon="4.81245">
        <ele>237.39999389648</ele>
        <time>2023-12-17T09:04:45.000Z</time>
      </trkpt>
      <trkpt lat="44.86951" lon="4.81243">
        <ele>237.39999389648</ele>
        <time>2023-12-17T09:04:57.000Z</time>
      </trkpt>
      <trkpt lat="44.86951" lon="4.81244">
        <ele>237.39999389648</ele>
        <time>2023-12-17T09:05:04.000Z</time>
      </trkpt>
      <trkpt lat="44.86951" lon="4.81244">
        <ele>237.39999389648</ele>
        <time>2023-12-17T09:05:18.000Z</time>
      </trkpt>
      <trkpt lat="44.86951" lon="4.81245">
        <ele>237.39999389648</ele>
        <time>2023-12-17T09:05:46.000Z</time>
      </trkpt>
      <trkpt lat="44.86951" lon="4.81245">
        <ele>237.39999389648</ele>
        <time>2023-12-17T09:06:13.000Z</time>
      </trkpt>
      <trkpt lat="44.86951" lon="4.81244">
        <ele>237.39999389648</ele>
        <time>2023-12-17T09:06:25.000Z</time>
      </trkpt>
      <trkpt lat="44.86951" lon="4.81246">
        <ele>237.39999389648</ele>
        <time>2023-12-17T09:06:31.000Z</time>
      </trkpt>
      <trkpt lat="44.8695" lon="4.81245">
        <ele>237.39999389648</ele>
        <time>2023-12-17T09:06:33.000Z</time>
      </trkpt>
      <trkpt lat="44.8695" lon="4.81243">
        <ele>237.39999389648</ele>
        <time>2023-12-17T09:06:36.000Z</time>
      </trkpt>
      <trkpt lat="44.8695" lon="4.81242">
        <ele>237.39999389648</ele>
        <time>2023-12-17T09:06:42.000Z</time>
      </trkpt>
      <trkpt lat="44.86951" lon="4.8124">
        <ele>237.39999389648</ele>
        <time>2023-12-17T09:06:46.000Z</time>
      </trkpt>
      <trkpt lat="44.86952" lon="4.81239">
        <ele>237.80000305176</ele>
        <time>2023-12-17T09:06:47.000Z</time>
      </trkpt>
      <trkpt lat="44.86952" lon="4.81237">
        <ele>237.80000305176</ele>
        <time>2023-12-17T09:06:48.000Z</time>
      </trkpt>
      <trkpt lat="44.86955" lon="4.81231">
        <ele>238</ele>
        <time>2023-12-17T09:06:52.000Z</time>
      </trkpt>
      <trkpt lat="44.86956" lon="4.81228">
        <ele>238.19999694824</ele>
        <time>2023-12-17T09:06:54.000Z</time>
      </trkpt>
      <trkpt lat="44.86958" lon="4.81225">
        <ele>238.80000305176</ele>
        <time>2023-12-17T09:06:56.000Z</time>
      </trkpt>
      <trkpt lat="44.86963" lon="4.81218">
        <ele>239.80000305176</ele>
        <time>2023-12-17T09:07:00.000Z</time>
      </trkpt>
      <trkpt lat="44.86965" lon="4.81216">
        <ele>240</ele>
        <time>2023-12-17T09:07:01.000Z</time>
      </trkpt>
      <trkpt lat="44.86979" lon="4.81207">
        <ele>241</ele>
        <time>2023-12-17T09:07:06.000Z</time>
      </trkpt>
      <trkpt lat="44.86989" lon="4.81201">
        <ele>242.19999694824</ele>
        <time>2023-12-17T09:07:10.000Z</time>
      </trkpt>
      <trkpt lat="44.86997" lon="4.81197">
        <ele>243.19999694824</ele>
        <time>2023-12-17T09:07:13.000Z</time>
      </trkpt>
      <trkpt lat="44.87" lon="4.81196">
        <ele>243.39999389648</ele>
        <time>2023-12-17T09:07:14.000Z</time>
      </trkpt>
      <trkpt lat="44.87007" lon="4.81194">
        <ele>244.39999389648</ele>
        <time>2023-12-17T09:07:17.000Z</time>
      </trkpt>
      <trkpt lat="44.87017" lon="4.81191">
        <ele>245.19999694824</ele>
        <time>2023-12-17T09:07:21.000Z</time>
      </trkpt>
      <trkpt lat="44.8702" lon="4.8119">
        <ele>245.39999389648</ele>
        <time>2023-12-17T09:07:22.000Z</time>
      </trkpt>
      <trkpt lat="44.87032" lon="4.81188">
        <ele>246.60000610352</ele>
        <time>2023-12-17T09:07:26.000Z</time>
      </trkpt>
      <trkpt lat="44.87035" lon="4.81187">
        <ele>246.60000610352</ele>
        <time>2023-12-17T09:07:27.000Z</time>
      </trkpt>
      <trkpt lat="44.87047" lon="4.81174">
        <ele>247.39999389648</ele>
        <time>2023-12-17T09:07:32.000Z</time>
      </trkpt>
      <trkpt lat="44.87047" lon="4.8117">
        <ele>247.60000610352</ele>
        <time>2023-12-17T09:07:33.000Z</time>
      </trkpt>
      <trkpt lat="44.87048" lon="4.81152">
        <ele>249.19999694824</ele>
        <time>2023-12-17T09:07:37.000Z</time>
      </trkpt>
      <trkpt lat="44.87051" lon="4.81131">
        <ele>250.19999694824</ele>
        <time>2023-12-17T09:07:42.000Z</time>
      </trkpt>
      <trkpt lat="44.87052" lon="4.81127">
        <ele>251</ele>
        <time>2023-12-17T09:07:43.000Z</time>
      </trkpt>
      <trkpt lat="44.87053" lon="4.81123">
        <ele>251.39999389648</ele>
        <time>2023-12-17T09:07:44.000Z</time>
      </trkpt>
      <trkpt lat="44.87056" lon="4.81111">
        <ele>252.39999389648</ele>
        <time>2023-12-17T09:07:48.000Z</time>
      </trkpt>
      <trkpt lat="44.87057" lon="4.81107">
        <ele>253</ele>
        <time>2023-12-17T09:07:49.000Z</time>
      </trkpt>
      <trkpt lat="44.87059" lon="4.81093">
        <ele>253.80000305176</ele>
        <time>2023-12-17T09:07:53.000Z</time>
      </trkpt>
      <trkpt lat="44.8706" lon="4.81087">
        <ele>254.19999694824</ele>
        <time>2023-12-17T09:07:55.000Z</time>
      </trkpt>
      <trkpt lat="44.87062" lon="4.81072">
        <ele>255.39999389648</ele>
        <time>2023-12-17T09:07:59.000Z</time>
      </trkpt>
      <trkpt lat="44.87062" lon="4.81069">
        <ele>255.60000610352</ele>
        <time>2023-12-17T09:08:00.000Z</time>
      </trkpt>
      <trkpt lat="44.87064" lon="4.81055">
        <ele>256.60000610352</ele>
        <time>2023-12-17T09:08:04.000Z</time>
      </trkpt>
      <trkpt lat="44.87064" lon="4.81044">
        <ele>257.39999389648</ele>
        <time>2023-12-17T09:08:07.000Z</time>
      </trkpt>
      <trkpt lat="44.87065" lon="4.81041">
        <ele>257.60000610352</ele>
        <time>2023-12-17T09:08:08.000Z</time>
      </trkpt>
      <trkpt lat="44.87067" lon="4.81022">
        <ele>258.60000610352</ele>
        <time>2023-12-17T09:08:13.000Z</time>
      </trkpt>
      <trkpt lat="44.87067" lon="4.81018">
        <ele>259</ele>
        <time>2023-12-17T09:08:14.000Z</time>
      </trkpt>
      <trkpt lat="44.87067" lon="4.81007">
        <ele>260.20001220703</ele>
        <time>2023-12-17T09:08:17.000Z</time>
      </trkpt>
      <trkpt lat="44.87066" lon="4.81004">
        <ele>260.60000610352</ele>
        <time>2023-12-17T09:08:18.000Z</time>
      </trkpt>
      <trkpt lat="44.87065" lon="4.80994">
        <ele>261.39999389648</ele>
        <time>2023-12-17T09:08:21.000Z</time>
      </trkpt>
      <trkpt lat="44.87065" lon="4.8099">
        <ele>261.60000610352</ele>
        <time>2023-12-17T09:08:22.000Z</time>
      </trkpt>
      <trkpt lat="44.87063" lon="4.8098">
        <ele>262.60000610352</ele>
        <time>2023-12-17T09:08:25.000Z</time>
      </trkpt>
      <trkpt lat="44.87059" lon="4.80969">
        <ele>263.39999389648</ele>
        <time>2023-12-17T09:08:28.000Z</time>
      </trkpt>
      <trkpt lat="44.87058" lon="4.80966">
        <ele>263.60000610352</ele>
        <time>2023-12-17T09:08:29.000Z</time>
      </trkpt>
      <trkpt lat="44.87054" lon="4.80952">
        <ele>264.60000610352</ele>
        <time>2023-12-17T09:08:33.000Z</time>
      </trkpt>
      <trkpt lat="44.87052" lon="4.80944">
        <ele>265.20001220703</ele>
        <time>2023-12-17T09:08:35.000Z</time>
      </trkpt>
      <trkpt lat="44.87049" lon="4.80937">
        <ele>265.79998779297</ele>
        <time>2023-12-17T09:08:37.000Z</time>
      </trkpt>
      <trkpt lat="44.87042" lon="4.8092">
        <ele>266.79998779297</ele>
        <time>2023-12-17T09:08:42.000Z</time>
      </trkpt>
      <trkpt lat="44.87039" lon="4.80913">
        <ele>267.20001220703</ele>
        <time>2023-12-17T09:08:44.000Z</time>
      </trkpt>
      <trkpt lat="44.87035" lon="4.80902">
        <ele>268</ele>
        <time>2023-12-17T09:08:47.000Z</time>
      </trkpt>
      <trkpt lat="44.87032" lon="4.80892">
        <ele>269.20001220703</ele>
        <time>2023-12-17T09:08:50.000Z</time>
      </trkpt>
      <trkpt lat="44.8703" lon="4.80885">
        <ele>270.20001220703</ele>
        <time>2023-12-17T09:08:52.000Z</time>
      </trkpt>
      <trkpt lat="44.87028" lon="4.80874">
        <ele>271.39999389648</ele>
        <time>2023-12-17T09:08:55.000Z</time>
      </trkpt>
      <trkpt lat="44.87027" lon="4.80866">
        <ele>272.60000610352</ele>
        <time>2023-12-17T09:08:57.000Z</time>
      </trkpt>
      <trkpt lat="44.87027" lon="4.80863">
        <ele>273</ele>
        <time>2023-12-17T09:08:58.000Z</time>
      </trkpt>
      <trkpt lat="44.87027" lon="4.80855">
        <ele>274.20001220703</ele>
        <time>2023-12-17T09:09:00.000Z</time>
      </trkpt>
      <trkpt lat="44.87027" lon="4.80844">
        <ele>275.60000610352</ele>
        <time>2023-12-17T09:09:03.000Z</time>
      </trkpt>
      <trkpt lat="44.87027" lon="4.80831">
        <ele>276.79998779297</ele>
        <time>2023-12-17T09:09:06.000Z</time>
      </trkpt>
      <trkpt lat="44.87027" lon="4.80827">
        <ele>277</ele>
        <time>2023-12-17T09:09:07.000Z</time>
      </trkpt>
      <trkpt lat="44.87027" lon="4.80814">
        <ele>278</ele>
        <time>2023-12-17T09:09:10.000Z</time>
      </trkpt>
      <trkpt lat="44.8703" lon="4.80802">
        <ele>279.20001220703</ele>
        <time>2023-12-17T09:09:13.000Z</time>
      </trkpt>
      <trkpt lat="44.87032" lon="4.80798">
        <ele>279.39999389648</ele>
        <time>2023-12-17T09:09:14.000Z</time>
      </trkpt>
      <trkpt lat="44.87038" lon="4.80784">
        <ele>280.79998779297</ele>
        <time>2023-12-17T09:09:18.000Z</time>
      </trkpt>
      <trkpt lat="44.87043" lon="4.80774">
        <ele>281.79998779297</ele>
        <time>2023-12-17T09:09:21.000Z</time>
      </trkpt>
      <trkpt lat="44.87045" lon="4.8077">
        <ele>282.20001220703</ele>
        <time>2023-12-17T09:09:22.000Z</time>
      </trkpt>
      <trkpt lat="44.8705" lon="4.80754">
        <ele>283.20001220703</ele>
        <time>2023-12-17T09:09:26.000Z</time>
      </trkpt>
      <trkpt lat="44.87052" lon="4.80746">
        <ele>284</ele>
        <time>2023-12-17T09:09:28.000Z</time>
      </trkpt>
      <trkpt lat="44.87052" lon="4.80742">
        <ele>284.60000610352</ele>
        <time>2023-12-17T09:09:29.000Z</time>
      </trkpt>
      <trkpt lat="44.87053" lon="4.80735">
        <ele>285.79998779297</ele>
        <time>2023-12-17T09:09:31.000Z</time>
      </trkpt>
      <trkpt lat="44.87054" lon="4.80725">
        <ele>286.79998779297</ele>
        <time>2023-12-17T09:09:33.000Z</time>
      </trkpt>
      <trkpt lat="44.87056" lon="4.80717">
        <ele>287.79998779297</ele>
        <time>2023-12-17T09:09:35.000Z</time>
      </trkpt>
      <trkpt lat="44.87061" lon="4.80707">
        <ele>289</ele>
        <time>2023-12-17T09:09:38.000Z</time>
      </trkpt>
      <trkpt lat="44.87066" lon="4.80698">
        <ele>290</ele>
        <time>2023-12-17T09:09:41.000Z</time>
      </trkpt>
      <trkpt lat="44.87073" lon="4.8069">
        <ele>290.79998779297</ele>
        <time>2023-12-17T09:09:44.000Z</time>
      </trkpt>
      <trkpt lat="44.87075" lon="4.80687">
        <ele>291.39999389648</ele>
        <time>2023-12-17T09:09:45.000Z</time>
      </trkpt>
      <trkpt lat="44.8708" lon="4.80679">
        <ele>292.39999389648</ele>
        <time>2023-12-17T09:09:48.000Z</time>
      </trkpt>
      <trkpt lat="44.87085" lon="4.80671">
        <ele>293.60000610352</ele>
        <time>2023-12-17T09:09:51.000Z</time>
      </trkpt>
      <trkpt lat="44.87092" lon="4.8066">
        <ele>295</ele>
        <time>2023-12-17T09:09:55.000Z</time>
      </trkpt>
      <trkpt lat="44.87096" lon="4.8065">
        <ele>296</ele>
        <time>2023-12-17T09:09:58.000Z</time>
      </trkpt>
      <trkpt lat="44.87098" lon="4.80647">
        <ele>296.39999389648</ele>
        <time>2023-12-17T09:09:59.000Z</time>
      </trkpt>
      <trkpt lat="44.87103" lon="4.80632">
        <ele>297.79998779297</ele>
        <time>2023-12-17T09:10:03.000Z</time>
      </trkpt>
      <trkpt lat="44.87105" lon="4.80629">
        <ele>298</ele>
        <time>2023-12-17T09:10:04.000Z</time>
      </trkpt>
      <trkpt lat="44.87112" lon="4.80614">
        <ele>298.79998779297</ele>
        <time>2023-12-17T09:10:09.000Z</time>
      </trkpt>
      <trkpt lat="44.87114" lon="4.80612">
        <ele>299</ele>
        <time>2023-12-17T09:10:10.000Z</time>
      </trkpt>
      <trkpt lat="44.87123" lon="4.80595">
        <ele>300</ele>
        <time>2023-12-17T09:10:16.000Z</time>
      </trkpt>
      <trkpt lat="44.87127" lon="4.80581">
        <ele>301.20001220703</ele>
        <time>2023-12-17T09:10:20.000Z</time>
      </trkpt>
      <trkpt lat="44.87128" lon="4.80574">
        <ele>301.79998779297</ele>
        <time>2023-12-17T09:10:22.000Z</time>
      </trkpt>
      <trkpt lat="44.87128" lon="4.80566">
        <ele>302.39999389648</ele>
        <time>2023-12-17T09:10:24.000Z</time>
      </trkpt>
      <trkpt lat="44.87128" lon="4.80545">
        <ele>303.39999389648</ele>
        <time>2023-12-17T09:10:29.000Z</time>
      </trkpt>
      <trkpt lat="44.87128" lon="4.8054">
        <ele>303.79998779297</ele>
        <time>2023-12-17T09:10:30.000Z</time>
      </trkpt>
      <trkpt lat="44.87129" lon="4.80531">
        <ele>304.39999389648</ele>
        <time>2023-12-17T09:10:32.000Z</time>
      </trkpt>
      <trkpt lat="44.87132" lon="4.80507">
        <ele>305.39999389648</ele>
        <time>2023-12-17T09:10:38.000Z</time>
      </trkpt>
      <trkpt lat="44.87133" lon="4.80504">
        <ele>305.79998779297</ele>
        <time>2023-12-17T09:10:39.000Z</time>
      </trkpt>
      <trkpt lat="44.87136" lon="4.80492">
        <ele>306.79998779297</ele>
        <time>2023-12-17T09:10:42.000Z</time>
      </trkpt>
      <trkpt lat="44.87141" lon="4.80488">
        <ele>307.20001220703</ele>
        <time>2023-12-17T09:10:44.000Z</time>
      </trkpt>
      <trkpt lat="44.87146" lon="4.80484">
        <ele>307.79998779297</ele>
        <time>2023-12-17T09:10:46.000Z</time>
      </trkpt>
      <trkpt lat="44.87154" lon="4.80479">
        <ele>308.60000610352</ele>
        <time>2023-12-17T09:10:49.000Z</time>
      </trkpt>
      <trkpt lat="44.87159" lon="4.80475">
        <ele>309.20001220703</ele>
        <time>2023-12-17T09:10:51.000Z</time>
      </trkpt>
      <trkpt lat="44.87167" lon="4.80462">
        <ele>310.39999389648</ele>
        <time>2023-12-17T09:10:55.000Z</time>
      </trkpt>
      <trkpt lat="44.87169" lon="4.80459">
        <ele>310.79998779297</ele>
        <time>2023-12-17T09:10:56.000Z</time>
      </trkpt>
      <trkpt lat="44.87176" lon="4.80446">
        <ele>311.39999389648</ele>
        <time>2023-12-17T09:11:00.000Z</time>
      </trkpt>
      <trkpt lat="44.87183" lon="4.80432">
        <ele>312.60000610352</ele>
        <time>2023-12-17T09:11:04.000Z</time>
      </trkpt>
      <trkpt lat="44.87188" lon="4.80418">
        <ele>313.60000610352</ele>
        <time>2023-12-17T09:11:08.000Z</time>
      </trkpt>
      <trkpt lat="44.87192" lon="4.80408">
        <ele>314.79998779297</ele>
        <time>2023-12-17T09:11:11.000Z</time>
      </trkpt>
      <trkpt lat="44.87194" lon="4.80404">
        <ele>315.20001220703</ele>
        <time>2023-12-17T09:11:12.000Z</time>
      </trkpt>
      <trkpt lat="44.87196" lon="4.80397">
        <ele>315.79998779297</ele>
        <time>2023-12-17T09:11:14.000Z</time>
      </trkpt>
      <trkpt lat="44.87202" lon="4.80383">
        <ele>317</ele>
        <time>2023-12-17T09:11:18.000Z</time>
      </trkpt>
      <trkpt lat="44.87203" lon="4.80379">
        <ele>317.60000610352</ele>
        <time>2023-12-17T09:11:19.000Z</time>
      </trkpt>
      <trkpt lat="44.87204" lon="4.80371">
        <ele>318.20001220703</ele>
        <time>2023-12-17T09:11:21.000Z</time>
      </trkpt>
      <trkpt lat="44.87209" lon="4.80353">
        <ele>320</ele>
        <time>2023-12-17T09:11:26.000Z</time>
      </trkpt>
      <trkpt lat="44.87211" lon="4.80343">
        <ele>321.39999389648</ele>
        <time>2023-12-17T09:11:29.000Z</time>
      </trkpt>
      <trkpt lat="44.87216" lon="4.80328">
        <ele>322.60000610352</ele>
        <time>2023-12-17T09:11:33.000Z</time>
      </trkpt>
      <trkpt lat="44.87217" lon="4.80324">
        <ele>323</ele>
        <time>2023-12-17T09:11:34.000Z</time>
      </trkpt>
      <trkpt lat="44.87221" lon="4.80313">
        <ele>324.20001220703</ele>
        <time>2023-12-17T09:11:37.000Z</time>
      </trkpt>
      <trkpt lat="44.87224" lon="4.80296">
        <ele>325.79998779297</ele>
        <time>2023-12-17T09:11:41.000Z</time>
      </trkpt>
      <trkpt lat="44.87227" lon="4.80275">
        <ele>326.79998779297</ele>
        <time>2023-12-17T09:11:46.000Z</time>
      </trkpt>
      <trkpt lat="44.87228" lon="4.80265">
        <ele>327.20001220703</ele>
        <time>2023-12-17T09:11:48.000Z</time>
      </trkpt>
      <trkpt lat="44.87229" lon="4.80256">
        <ele>327.79998779297</ele>
        <time>2023-12-17T09:11:50.000Z</time>
      </trkpt>
      <trkpt lat="44.87232" lon="4.80242">
        <ele>328.60000610352</ele>
        <time>2023-12-17T09:11:53.000Z</time>
      </trkpt>
      <trkpt lat="44.87234" lon="4.80239">
        <ele>328.79998779297</ele>
        <time>2023-12-17T09:11:54.000Z</time>
      </trkpt>
      <trkpt lat="44.87242" lon="4.80231">
        <ele>329.39999389648</ele>
        <time>2023-12-17T09:11:57.000Z</time>
      </trkpt>
      <trkpt lat="44.87249" lon="4.80228">
        <ele>329.79998779297</ele>
        <time>2023-12-17T09:11:59.000Z</time>
      </trkpt>
      <trkpt lat="44.87259" lon="4.80229">
        <ele>331</ele>
        <time>2023-12-17T09:12:02.000Z</time>
      </trkpt>
      <trkpt lat="44.87276" lon="4.80232">
        <ele>332.20001220703</ele>
        <time>2023-12-17T09:12:07.000Z</time>
      </trkpt>
      <trkpt lat="44.87282" lon="4.80233">
        <ele>332.60000610352</ele>
        <time>2023-12-17T09:12:09.000Z</time>
      </trkpt>
      <trkpt lat="44.87284" lon="4.80233">
        <ele>333.39999389648</ele>
        <time>2023-12-17T09:12:10.000Z</time>
      </trkpt>
      <trkpt lat="44.87298" lon="4.80229">
        <ele>334.39999389648</ele>
        <time>2023-12-17T09:12:15.000Z</time>
      </trkpt>
      <trkpt lat="44.87301" lon="4.80228">
        <ele>335</ele>
        <time>2023-12-17T09:12:16.000Z</time>
      </trkpt>
      <trkpt lat="44.87307" lon="4.80224">
        <ele>335.60000610352</ele>
        <time>2023-12-17T09:12:18.000Z</time>
      </trkpt>
      <trkpt lat="44.87317" lon="4.80218">
        <ele>337</ele>
        <time>2023-12-17T09:12:21.000Z</time>
      </trkpt>
      <trkpt lat="44.87326" lon="4.80212">
        <ele>337.79998779297</ele>
        <time>2023-12-17T09:12:24.000Z</time>
      </trkpt>
      <trkpt lat="44.87329" lon="4.8021">
        <ele>338</ele>
        <time>2023-12-17T09:12:25.000Z</time>
      </trkpt>
      <trkpt lat="44.87339" lon="4.80203">
        <ele>339.20001220703</ele>
        <time>2023-12-17T09:12:29.000Z</time>
      </trkpt>
      <trkpt lat="44.87344" lon="4.802">
        <ele>340.20001220703</ele>
        <time>2023-12-17T09:12:31.000Z</time>
      </trkpt>
      <trkpt lat="44.87347" lon="4.80198">
        <ele>340.39999389648</ele>
        <time>2023-12-17T09:12:32.000Z</time>
      </trkpt>
      <trkpt lat="44.87361" lon="4.80187">
        <ele>341.60000610352</ele>
        <time>2023-12-17T09:12:37.000Z</time>
      </trkpt>
      <trkpt lat="44.87364" lon="4.80185">
        <ele>341.79998779297</ele>
        <time>2023-12-17T09:12:38.000Z</time>
      </trkpt>
      <trkpt lat="44.87372" lon="4.80178">
        <ele>342.79998779297</ele>
        <time>2023-12-17T09:12:41.000Z</time>
      </trkpt>
      <trkpt lat="44.87379" lon="4.8017">
        <ele>344</ele>
        <time>2023-12-17T09:12:44.000Z</time>
      </trkpt>
      <trkpt lat="44.87381" lon="4.80167">
        <ele>344.20001220703</ele>
        <time>2023-12-17T09:12:45.000Z</time>
      </trkpt>
      <trkpt lat="44.87388" lon="4.80158">
        <ele>345</ele>
        <time>2023-12-17T09:12:48.000Z</time>
      </trkpt>
      <trkpt lat="44.87397" lon="4.80147">
        <ele>346.20001220703</ele>
        <time>2023-12-17T09:12:52.000Z</time>
      </trkpt>
      <trkpt lat="44.87405" lon="4.80137">
        <ele>347.20001220703</ele>
        <time>2023-12-17T09:12:56.000Z</time>
      </trkpt>
      <trkpt lat="44.87409" lon="4.80132">
        <ele>347.60000610352</ele>
        <time>2023-12-17T09:12:58.000Z</time>
      </trkpt>
      <trkpt lat="44.87414" lon="4.80128">
        <ele>348.60000610352</ele>
        <time>2023-12-17T09:13:00.000Z</time>
      </trkpt>
      <trkpt lat="44.87425" lon="4.80119">
        <ele>349.60000610352</ele>
        <time>2023-12-17T09:13:04.000Z</time>
      </trkpt>
      <trkpt lat="44.87433" lon="4.80112">
        <ele>350.60000610352</ele>
        <time>2023-12-17T09:13:07.000Z</time>
      </trkpt>
      <trkpt lat="44.87435" lon="4.80109">
        <ele>351</ele>
        <time>2023-12-17T09:13:08.000Z</time>
      </trkpt>
      <trkpt lat="44.87443" lon="4.80103">
        <ele>352.39999389648</ele>
        <time>2023-12-17T09:13:11.000Z</time>
      </trkpt>
      <trkpt lat="44.87452" lon="4.80093">
        <ele>353.60000610352</ele>
        <time>2023-12-17T09:13:15.000Z</time>
      </trkpt>
      <trkpt lat="44.87458" lon="4.80086">
        <ele>354.60000610352</ele>
        <time>2023-12-17T09:13:18.000Z</time>
      </trkpt>
      <trkpt lat="44.87464" lon="4.80078">
        <ele>355.79998779297</ele>
        <time>2023-12-17T09:13:21.000Z</time>
      </trkpt>
      <trkpt lat="44.87466" lon="4.80075">
        <ele>356</ele>
        <time>2023-12-17T09:13:22.000Z</time>
      </trkpt>
      <trkpt lat="44.87468" lon="4.80064">
        <ele>357</ele>
        <time>2023-12-17T09:13:25.000Z</time>
      </trkpt>
      <trkpt lat="44.87468" lon="4.80052">
        <ele>357.79998779297</ele>
        <time>2023-12-17T09:13:28.000Z</time>
      </trkpt>
      <trkpt lat="44.87468" lon="4.80044">
        <ele>358.39999389648</ele>
        <time>2023-12-17T09:13:30.000Z</time>
      </trkpt>
      <trkpt lat="44.87468" lon="4.80039">
        <ele>358.60000610352</ele>
        <time>2023-12-17T09:13:31.000Z</time>
      </trkpt>
      <trkpt lat="44.87468" lon="4.80031">
        <ele>359.20001220703</ele>
        <time>2023-12-17T09:13:33.000Z</time>
      </trkpt>
      <trkpt lat="44.87468" lon="4.80027">
        <ele>359.39999389648</ele>
        <time>2023-12-17T09:13:34.000Z</time>
      </trkpt>
      <trkpt lat="44.87469" lon="4.8001">
        <ele>360.60000610352</ele>
        <time>2023-12-17T09:13:38.000Z</time>
      </trkpt>
      <trkpt lat="44.87469" lon="4.80001">
        <ele>361.60000610352</ele>
        <time>2023-12-17T09:13:40.000Z</time>
      </trkpt>
      <trkpt lat="44.8747" lon="4.79998">
        <ele>361.79998779297</ele>
        <time>2023-12-17T09:13:41.000Z</time>
      </trkpt>
      <trkpt lat="44.87471" lon="4.79986">
        <ele>363</ele>
        <time>2023-12-17T09:13:44.000Z</time>
      </trkpt>
      <trkpt lat="44.87474" lon="4.79974">
        <ele>364.20001220703</ele>
        <time>2023-12-17T09:13:47.000Z</time>
      </trkpt>
      <trkpt lat="44.87477" lon="4.79963">
        <ele>366</ele>
        <time>2023-12-17T09:13:50.000Z</time>
      </trkpt>
      <trkpt lat="44.87478" lon="4.7996">
        <ele>366.39999389648</ele>
        <time>2023-12-17T09:13:51.000Z</time>
      </trkpt>
      <trkpt lat="44.87481" lon="4.79948">
        <ele>367.39999389648</ele>
        <time>2023-12-17T09:13:54.000Z</time>
      </trkpt>
      <trkpt lat="44.87483" lon="4.79939">
        <ele>368.39999389648</ele>
        <time>2023-12-17T09:13:56.000Z</time>
      </trkpt>
      <trkpt lat="44.87483" lon="4.79928">
        <ele>369.39999389648</ele>
        <time>2023-12-17T09:13:59.000Z</time>
      </trkpt>
      <trkpt lat="44.87484" lon="4.79916">
        <ele>370.39999389648</ele>
        <time>2023-12-17T09:14:02.000Z</time>
      </trkpt>
      <trkpt lat="44.87485" lon="4.79912">
        <ele>370.60000610352</ele>
        <time>2023-12-17T09:14:03.000Z</time>
      </trkpt>
      <trkpt lat="44.87485" lon="4.79906">
        <ele>371</ele>
        <time>2023-12-17T09:14:05.000Z</time>
      </trkpt>
      <trkpt lat="44.87486" lon="4.79892">
        <ele>371.60000610352</ele>
        <time>2023-12-17T09:14:09.000Z</time>
      </trkpt>
      <trkpt lat="44.87486" lon="4.79884">
        <ele>372.20001220703</ele>
        <time>2023-12-17T09:14:11.000Z</time>
      </trkpt>
      <trkpt lat="44.87484" lon="4.79874">
        <ele>372.60000610352</ele>
        <time>2023-12-17T09:14:13.000Z</time>
      </trkpt>
      <trkpt lat="44.87483" lon="4.79866">
        <ele>373.79998779297</ele>
        <time>2023-12-17T09:14:15.000Z</time>
      </trkpt>
      <trkpt lat="44.87484" lon="4.79863">
        <ele>374</ele>
        <time>2023-12-17T09:14:16.000Z</time>
      </trkpt>
      <trkpt lat="44.87485" lon="4.79857">
        <ele>375</ele>
        <time>2023-12-17T09:14:18.000Z</time>
      </trkpt>
      <trkpt lat="44.87484" lon="4.79841">
        <ele>375.79998779297</ele>
        <time>2023-12-17T09:14:22.000Z</time>
      </trkpt>
      <trkpt lat="44.87484" lon="4.79835">
        <ele>376.20001220703</ele>
        <time>2023-12-17T09:14:24.000Z</time>
      </trkpt>
      <trkpt lat="44.87483" lon="4.79825">
        <ele>377.60000610352</ele>
        <time>2023-12-17T09:14:27.000Z</time>
      </trkpt>
      <trkpt lat="44.87482" lon="4.79813">
        <ele>379</ele>
        <time>2023-12-17T09:14:30.000Z</time>
      </trkpt>
      <trkpt lat="44.8748" lon="4.79801">
        <ele>380</ele>
        <time>2023-12-17T09:14:33.000Z</time>
      </trkpt>
      <trkpt lat="44.8748" lon="4.79797">
        <ele>380.39999389648</ele>
        <time>2023-12-17T09:14:34.000Z</time>
      </trkpt>
      <trkpt lat="44.87479" lon="4.79789">
        <ele>381.39999389648</ele>
        <time>2023-12-17T09:14:36.000Z</time>
      </trkpt>
      <trkpt lat="44.87476" lon="4.79779">
        <ele>382.60000610352</ele>
        <time>2023-12-17T09:14:39.000Z</time>
      </trkpt>
      <trkpt lat="44.87474" lon="4.79771">
        <ele>383</ele>
        <time>2023-12-17T09:14:41.000Z</time>
      </trkpt>
      <trkpt lat="44.87471" lon="4.7976">
        <ele>383.60000610352</ele>
        <time>2023-12-17T09:14:44.000Z</time>
      </trkpt>
      <trkpt lat="44.87468" lon="4.7975">
        <ele>384.39999389648</ele>
        <time>2023-12-17T09:14:46.000Z</time>
      </trkpt>
      <trkpt lat="44.87468" lon="4.79746">
        <ele>384.79998779297</ele>
        <time>2023-12-17T09:14:47.000Z</time>
      </trkpt>
      <trkpt lat="44.87468" lon="4.79732">
        <ele>385.79998779297</ele>
        <time>2023-12-17T09:14:51.000Z</time>
      </trkpt>
      <trkpt lat="44.87463" lon="4.79711">
        <ele>387.20001220703</ele>
        <time>2023-12-17T09:14:56.000Z</time>
      </trkpt>
      <trkpt lat="44.87463" lon="4.79707">
        <ele>387.60000610352</ele>
        <time>2023-12-17T09:14:57.000Z</time>
      </trkpt>
      <trkpt lat="44.87462" lon="4.79697">
        <ele>388.20001220703</ele>
        <time>2023-12-17T09:14:59.000Z</time>
      </trkpt>
      <trkpt lat="44.87461" lon="4.7969">
        <ele>389.39999389648</ele>
        <time>2023-12-17T09:15:01.000Z</time>
      </trkpt>
      <trkpt lat="44.87462" lon="4.79682">
        <ele>389.79998779297</ele>
        <time>2023-12-17T09:15:03.000Z</time>
      </trkpt>
      <trkpt lat="44.87462" lon="4.79662">
        <ele>390.39999389648</ele>
        <time>2023-12-17T09:15:08.000Z</time>
      </trkpt>
      <trkpt lat="44.87463" lon="4.79655">
        <ele>391.60000610352</ele>
        <time>2023-12-17T09:15:10.000Z</time>
      </trkpt>
      <trkpt lat="44.87462" lon="4.79645">
        <ele>392.39999389648</ele>
        <time>2023-12-17T09:15:13.000Z</time>
      </trkpt>
      <trkpt lat="44.87462" lon="4.7964">
        <ele>392.79998779297</ele>
        <time>2023-12-17T09:15:14.000Z</time>
      </trkpt>
      <trkpt lat="44.87466" lon="4.79628">
        <ele>393.60000610352</ele>
        <time>2023-12-17T09:15:17.000Z</time>
      </trkpt>
      <trkpt lat="44.87467" lon="4.79625">
        <ele>393.79998779297</ele>
        <time>2023-12-17T09:15:18.000Z</time>
      </trkpt>
      <trkpt lat="44.87469" lon="4.79613">
        <ele>394.39999389648</ele>
        <time>2023-12-17T09:15:22.000Z</time>
      </trkpt>
      <trkpt lat="44.87469" lon="4.7961">
        <ele>394.79998779297</ele>
        <time>2023-12-17T09:15:23.000Z</time>
      </trkpt>
      <trkpt lat="44.8746" lon="4.79579">
        <ele>395.79998779297</ele>
        <time>2023-12-17T09:15:28.000Z</time>
      </trkpt>
      <trkpt lat="44.87458" lon="4.79574">
        <ele>396</ele>
        <time>2023-12-17T09:15:29.000Z</time>
      </trkpt>
      <trkpt lat="44.8745" lon="4.79554">
        <ele>397.20001220703</ele>
        <time>2023-12-17T09:15:33.000Z</time>
      </trkpt>
      <trkpt lat="44.87445" lon="4.79545">
        <ele>397.60000610352</ele>
        <time>2023-12-17T09:15:35.000Z</time>
      </trkpt>
      <trkpt lat="44.87442" lon="4.79538">
        <ele>398.20001220703</ele>
        <time>2023-12-17T09:15:37.000Z</time>
      </trkpt>
      <trkpt lat="44.87441" lon="4.79527">
        <ele>399</ele>
        <time>2023-12-17T09:15:40.000Z</time>
      </trkpt>
      <trkpt lat="44.87442" lon="4.7952">
        <ele>399.39999389648</ele>
        <time>2023-12-17T09:15:42.000Z</time>
      </trkpt>
      <trkpt lat="44.87442" lon="4.79512">
        <ele>399.79998779297</ele>
        <time>2023-12-17T09:15:45.000Z</time>
      </trkpt>
      <trkpt lat="44.87441" lon="4.79508">
        <ele>399.60000610352</ele>
        <time>2023-12-17T09:15:51.000Z</time>
      </trkpt>
      <trkpt lat="44.87441" lon="4.79505">
        <ele>399.39999389648</ele>
        <time>2023-12-17T09:16:03.000Z</time>
      </trkpt>
      <trkpt lat="44.87441" lon="4.79505">
        <ele>399.39999389648</ele>
        <time>2023-12-17T09:16:11.000Z</time>
      </trkpt>
      <trkpt lat="44.87441" lon="4.79503">
        <ele>399.39999389648</ele>
        <time>2023-12-17T09:16:15.000Z</time>
      </trkpt>
      <trkpt lat="44.8744" lon="4.795">
        <ele>399.39999389648</ele>
        <time>2023-12-17T09:16:17.000Z</time>
      </trkpt>
      <trkpt lat="44.87436" lon="4.79485">
        <ele>399.79998779297</ele>
        <time>2023-12-17T09:16:24.000Z</time>
      </trkpt>
      <trkpt lat="44.87435" lon="4.7948">
        <ele>400.39999389648</ele>
        <time>2023-12-17T09:16:26.000Z</time>
      </trkpt>
      <trkpt lat="44.87434" lon="4.79478">
        <ele>400.60000610352</ele>
        <time>2023-12-17T09:16:27.000Z</time>
      </trkpt>
      <trkpt lat="44.87432" lon="4.79475">
        <ele>401.39999389648</ele>
        <time>2023-12-17T09:16:29.000Z</time>
      </trkpt>
      <trkpt lat="44.87431" lon="4.79473">
        <ele>401.60000610352</ele>
        <time>2023-12-17T09:16:30.000Z</time>
      </trkpt>
      <trkpt lat="44.87422" lon="4.79465">
        <ele>401.60000610352</ele>
        <time>2023-12-17T09:16:33.000Z</time>
      </trkpt>
      <trkpt lat="44.8741" lon="4.79453">
        <ele>402.79998779297</ele>
        <time>2023-12-17T09:16:36.000Z</time>
      </trkpt>
      <trkpt lat="44.87404" lon="4.79447">
        <ele>404.20001220703</ele>
        <time>2023-12-17T09:16:38.000Z</time>
      </trkpt>
      <trkpt lat="44.87401" lon="4.79444">
        <ele>405.20001220703</ele>
        <time>2023-12-17T09:16:39.000Z</time>
      </trkpt>
      <trkpt lat="44.87399" lon="4.79442">
        <ele>405.79998779297</ele>
        <time>2023-12-17T09:16:40.000Z</time>
      </trkpt>
      <trkpt lat="44.87394" lon="4.79438">
        <ele>407</ele>
        <time>2023-12-17T09:16:42.000Z</time>
      </trkpt>
      <trkpt lat="44.87389" lon="4.79434">
        <ele>408.39999389648</ele>
        <time>2023-12-17T09:16:44.000Z</time>
      </trkpt>
      <trkpt lat="44.87387" lon="4.7943">
        <ele>409.79998779297</ele>
        <time>2023-12-17T09:16:46.000Z</time>
      </trkpt>
      <trkpt lat="44.87384" lon="4.79422">
        <ele>411.20001220703</ele>
        <time>2023-12-17T09:16:49.000Z</time>
      </trkpt>
      <trkpt lat="44.87382" lon="4.79416">
        <ele>412.79998779297</ele>
        <time>2023-12-17T09:16:52.000Z</time>
      </trkpt>
      <trkpt lat="44.8738" lon="4.79412">
        <ele>414</ele>
        <time>2023-12-17T09:16:54.000Z</time>
      </trkpt>
      <trkpt lat="44.87378" lon="4.79409">
        <ele>415.20001220703</ele>
        <time>2023-12-17T09:16:56.000Z</time>
      </trkpt>
      <trkpt lat="44.87376" lon="4.79404">
        <ele>416.39999389648</ele>
        <time>2023-12-17T09:16:58.000Z</time>
      </trkpt>
      <trkpt lat="44.87373" lon="4.794">
        <ele>417.60000610352</ele>
        <time>2023-12-17T09:17:00.000Z</time>
      </trkpt>
      <trkpt lat="44.87371" lon="4.79396">
        <ele>418.60000610352</ele>
        <time>2023-12-17T09:17:02.000Z</time>
      </trkpt>
      <trkpt lat="44.87369" lon="4.79392">
        <ele>420.39999389648</ele>
        <time>2023-12-17T09:17:04.000Z</time>
      </trkpt>
      <trkpt lat="44.87365" lon="4.79384">
        <ele>421.39999389648</ele>
        <time>2023-12-17T09:17:07.000Z</time>
      </trkpt>
      <trkpt lat="44.87361" lon="4.79375">
        <ele>423.20001220703</ele>
        <time>2023-12-17T09:17:11.000Z</time>
      </trkpt>
      <trkpt lat="44.8736" lon="4.79373">
        <ele>424.20001220703</ele>
        <time>2023-12-17T09:17:12.000Z</time>
      </trkpt>
      <trkpt lat="44.87359" lon="4.79371">
        <ele>424.79998779297</ele>
        <time>2023-12-17T09:17:13.000Z</time>
      </trkpt>
      <trkpt lat="44.87358" lon="4.79368">
        <ele>425.60000610352</ele>
        <time>2023-12-17T09:17:14.000Z</time>
      </trkpt>
      <trkpt lat="44.87352" lon="4.79358">
        <ele>426.60000610352</ele>
        <time>2023-12-17T09:17:18.000Z</time>
      </trkpt>
      <trkpt lat="44.87349" lon="4.79353">
        <ele>427.20001220703</ele>
        <time>2023-12-17T09:17:20.000Z</time>
      </trkpt>
      <trkpt lat="44.87344" lon="4.79347">
        <ele>427.79998779297</ele>
        <time>2023-12-17T09:17:23.000Z</time>
      </trkpt>
      <trkpt lat="44.87341" lon="4.79343">
        <ele>429</ele>
        <time>2023-12-17T09:17:25.000Z</time>
      </trkpt>
      <trkpt lat="44.87338" lon="4.7934">
        <ele>430.39999389648</ele>
        <time>2023-12-17T09:17:27.000Z</time>
      </trkpt>
      <trkpt lat="44.87336" lon="4.79338">
        <ele>430.60000610352</ele>
        <time>2023-12-17T09:17:28.000Z</time>
      </trkpt>
      <trkpt lat="44.8733" lon="4.79332">
        <ele>431.79998779297</ele>
        <time>2023-12-17T09:17:32.000Z</time>
      </trkpt>
      <trkpt lat="44.87325" lon="4.79326">
        <ele>433.39999389648</ele>
        <time>2023-12-17T09:17:35.000Z</time>
      </trkpt>
      <trkpt lat="44.87324" lon="4.79325">
        <ele>433.79998779297</ele>
        <time>2023-12-17T09:17:36.000Z</time>
      </trkpt>
      <trkpt lat="44.87322" lon="4.79322">
        <ele>434.60000610352</ele>
        <time>2023-12-17T09:17:38.000Z</time>
      </trkpt>
      <trkpt lat="44.87318" lon="4.79317">
        <ele>435.79998779297</ele>
        <time>2023-12-17T09:17:41.000Z</time>
      </trkpt>
      <trkpt lat="44.87316" lon="4.79312">
        <ele>436.79998779297</ele>
        <time>2023-12-17T09:17:43.000Z</time>
      </trkpt>
      <trkpt lat="44.87311" lon="4.79301">
        <ele>438.39999389648</ele>
        <time>2023-12-17T09:17:47.000Z</time>
      </trkpt>
      <trkpt lat="44.87308" lon="4.79291">
        <ele>439</ele>
        <time>2023-12-17T09:17:50.000Z</time>
      </trkpt>
      <trkpt lat="44.87307" lon="4.79284">
        <ele>440</ele>
        <time>2023-12-17T09:17:52.000Z</time>
      </trkpt>
      <trkpt lat="44.87304" lon="4.79271">
        <ele>441</ele>
        <time>2023-12-17T09:17:56.000Z</time>
      </trkpt>
      <trkpt lat="44.87303" lon="4.79261">
        <ele>441.79998779297</ele>
        <time>2023-12-17T09:17:59.000Z</time>
      </trkpt>
      <trkpt lat="44.87302" lon="4.79257">
        <ele>442.20001220703</ele>
        <time>2023-12-17T09:18:00.000Z</time>
      </trkpt>
      <trkpt lat="44.87299" lon="4.79246">
        <ele>443.20001220703</ele>
        <time>2023-12-17T09:18:03.000Z</time>
      </trkpt>
      <trkpt lat="44.87298" lon="4.79239">
        <ele>444.20001220703</ele>
        <time>2023-12-17T09:18:05.000Z</time>
      </trkpt>
      <trkpt lat="44.87297" lon="4.79236">
        <ele>444.60000610352</ele>
        <time>2023-12-17T09:18:06.000Z</time>
      </trkpt>
      <trkpt lat="44.87294" lon="4.79225">
        <ele>445.79998779297</ele>
        <time>2023-12-17T09:18:09.000Z</time>
      </trkpt>
      <trkpt lat="44.87292" lon="4.79214">
        <ele>447</ele>
        <time>2023-12-17T09:18:12.000Z</time>
      </trkpt>
      <trkpt lat="44.87289" lon="4.79202">
        <ele>448.60000610352</ele>
        <time>2023-12-17T09:18:15.000Z</time>
      </trkpt>
      <trkpt lat="44.87288" lon="4.79191">
        <ele>449.20001220703</ele>
        <time>2023-12-17T09:18:18.000Z</time>
      </trkpt>
      <trkpt lat="44.87288" lon="4.79184">
        <ele>450.60000610352</ele>
        <time>2023-12-17T09:18:20.000Z</time>
      </trkpt>
      <trkpt lat="44.87288" lon="4.79176">
        <ele>451.60000610352</ele>
        <time>2023-12-17T09:18:22.000Z</time>
      </trkpt>
      <trkpt lat="44.87287" lon="4.79159">
        <ele>452.60000610352</ele>
        <time>2023-12-17T09:18:27.000Z</time>
      </trkpt>
      <trkpt lat="44.87286" lon="4.79156">
        <ele>453.20001220703</ele>
        <time>2023-12-17T09:18:28.000Z</time>
      </trkpt>
      <trkpt lat="44.87285" lon="4.79149">
        <ele>453.79998779297</ele>
        <time>2023-12-17T09:18:30.000Z</time>
      </trkpt>
      <trkpt lat="44.87284" lon="4.79142">
        <ele>455</ele>
        <time>2023-12-17T09:18:32.000Z</time>
      </trkpt>
      <trkpt lat="44.87282" lon="4.79133">
        <ele>456.20001220703</ele>
        <time>2023-12-17T09:18:35.000Z</time>
      </trkpt>
      <trkpt lat="44.8728" lon="4.79125">
        <ele>457.39999389648</ele>
        <time>2023-12-17T09:18:38.000Z</time>
      </trkpt>
      <trkpt lat="44.87279" lon="4.79119">
        <ele>458.60000610352</ele>
        <time>2023-12-17T09:18:40.000Z</time>
      </trkpt>
      <trkpt lat="44.87279" lon="4.79117">
        <ele>458.79998779297</ele>
        <time>2023-12-17T09:18:41.000Z</time>
      </trkpt>
      <trkpt lat="44.87279" lon="4.79111">
        <ele>459.79998779297</ele>
        <time>2023-12-17T09:18:43.000Z</time>
      </trkpt>
      <trkpt lat="44.87279" lon="4.79102">
        <ele>461.20001220703</ele>
        <time>2023-12-17T09:18:46.000Z</time>
      </trkpt>
      <trkpt lat="44.87279" lon="4.79099">
        <ele>461.60000610352</ele>
        <time>2023-12-17T09:18:47.000Z</time>
      </trkpt>
      <trkpt lat="44.87278" lon="4.79085">
        <ele>462.39999389648</ele>
        <time>2023-12-17T09:18:51.000Z</time>
      </trkpt>
      <trkpt lat="44.87278" lon="4.79082">
        <ele>462.60000610352</ele>
        <time>2023-12-17T09:18:52.000Z</time>
      </trkpt>
      <trkpt lat="44.87277" lon="4.79078">
        <ele>462.79998779297</ele>
        <time>2023-12-17T09:18:53.000Z</time>
      </trkpt>
      <trkpt lat="44.87277" lon="4.79072">
        <ele>463.39999389648</ele>
        <time>2023-12-17T09:18:55.000Z</time>
      </trkpt>
      <trkpt lat="44.87276" lon="4.79069">
        <ele>464</ele>
        <time>2023-12-17T09:18:56.000Z</time>
      </trkpt>
      <trkpt lat="44.87275" lon="4.79068">
        <ele>464.60000610352</ele>
        <time>2023-12-17T09:18:57.000Z</time>
      </trkpt>
      <trkpt lat="44.8727" lon="4.79063">
        <ele>465.60000610352</ele>
        <time>2023-12-17T09:19:00.000Z</time>
      </trkpt>
      <trkpt lat="44.87266" lon="4.79057">
        <ele>467.20001220703</ele>
        <time>2023-12-17T09:19:03.000Z</time>
      </trkpt>
      <trkpt lat="44.87266" lon="4.79051">
        <ele>468</ele>
        <time>2023-12-17T09:19:05.000Z</time>
      </trkpt>
      <trkpt lat="44.87266" lon="4.79048">
        <ele>468.39999389648</ele>
        <time>2023-12-17T09:19:06.000Z</time>
      </trkpt>
      <trkpt lat="44.87266" lon="4.79045">
        <ele>469</ele>
        <time>2023-12-17T09:19:07.000Z</time>
      </trkpt>
      <trkpt lat="44.87267" lon="4.79042">
        <ele>469.39999389648</ele>
        <time>2023-12-17T09:19:08.000Z</time>
      </trkpt>
      <trkpt lat="44.87267" lon="4.79039">
        <ele>469.60000610352</ele>
        <time>2023-12-17T09:19:09.000Z</time>
      </trkpt>
      <trkpt lat="44.87269" lon="4.79028">
        <ele>470</ele>
        <time>2023-12-17T09:19:12.000Z</time>
      </trkpt>
      <trkpt lat="44.87272" lon="4.79005">
        <ele>471</ele>
        <time>2023-12-17T09:19:18.000Z</time>
      </trkpt>
      <trkpt lat="44.87273" lon="4.78994">
        <ele>471.60000610352</ele>
        <time>2023-12-17T09:19:21.000Z</time>
      </trkpt>
      <trkpt lat="44.87275" lon="4.78986">
        <ele>472</ele>
        <time>2023-12-17T09:19:23.000Z</time>
      </trkpt>
      <trkpt lat="44.87277" lon="4.78973">
        <ele>472.20001220703</ele>
        <time>2023-12-17T09:19:27.000Z</time>
      </trkpt>
      <trkpt lat="44.87279" lon="4.7897">
        <ele>472.20001220703</ele>
        <time>2023-12-17T09:19:28.000Z</time>
      </trkpt>
      <trkpt lat="44.87287" lon="4.78952">
        <ele>472.39999389648</ele>
        <time>2023-12-17T09:19:32.000Z</time>
      </trkpt>
      <trkpt lat="44.87291" lon="4.78922">
        <ele>473.20001220703</ele>
        <time>2023-12-17T09:19:38.000Z</time>
      </trkpt>
      <trkpt lat="44.87294" lon="4.7891">
        <ele>474.39999389648</ele>
        <time>2023-12-17T09:19:41.000Z</time>
      </trkpt>
      <trkpt lat="44.87295" lon="4.78902">
        <ele>475</ele>
        <time>2023-12-17T09:19:43.000Z</time>
      </trkpt>
      <trkpt lat="44.87297" lon="4.7889">
        <ele>475.39999389648</ele>
        <time>2023-12-17T09:19:46.000Z</time>
      </trkpt>
      <trkpt lat="44.873" lon="4.78878">
        <ele>477.20001220703</ele>
        <time>2023-12-17T09:19:49.000Z</time>
      </trkpt>
      <trkpt lat="44.873" lon="4.78874">
        <ele>477.60000610352</ele>
        <time>2023-12-17T09:19:50.000Z</time>
      </trkpt>
      <trkpt lat="44.87301" lon="4.78869">
        <ele>478.20001220703</ele>
        <time>2023-12-17T09:19:51.000Z</time>
      </trkpt>
      <trkpt lat="44.87305" lon="4.78857">
        <ele>479.39999389648</ele>
        <time>2023-12-17T09:19:54.000Z</time>
      </trkpt>
      <trkpt lat="44.87308" lon="4.78849">
        <ele>479.60000610352</ele>
        <time>2023-12-17T09:19:56.000Z</time>
      </trkpt>
      <trkpt lat="44.87315" lon="4.78829">
        <ele>480.79998779297</ele>
        <time>2023-12-17T09:20:01.000Z</time>
      </trkpt>
      <trkpt lat="44.87317" lon="4.78827">
        <ele>480.79998779297</ele>
        <time>2023-12-17T09:20:02.000Z</time>
      </trkpt>
      <trkpt lat="44.87318" lon="4.78823">
        <ele>481.20001220703</ele>
        <time>2023-12-17T09:20:03.000Z</time>
      </trkpt>
      <trkpt lat="44.87316" lon="4.7882">
        <ele>481.39999389648</ele>
        <time>2023-12-17T09:20:05.000Z</time>
      </trkpt>
      <trkpt lat="44.87315" lon="4.7882">
        <ele>481.60000610352</ele>
        <time>2023-12-17T09:20:06.000Z</time>
      </trkpt>
      <trkpt lat="44.87311" lon="4.78821">
        <ele>482.79998779297</ele>
        <time>2023-12-17T09:20:09.000Z</time>
      </trkpt>
      <trkpt lat="44.87306" lon="4.78824">
        <ele>483.79998779297</ele>
        <time>2023-12-17T09:20:12.000Z</time>
      </trkpt>
      <trkpt lat="44.873" lon="4.78832">
        <ele>484.79998779297</ele>
        <time>2023-12-17T09:20:16.000Z</time>
      </trkpt>
      <trkpt lat="44.87298" lon="4.78835">
        <ele>485.39999389648</ele>
        <time>2023-12-17T09:20:17.000Z</time>
      </trkpt>
      <trkpt lat="44.87295" lon="4.7884">
        <ele>486.20001220703</ele>
        <time>2023-12-17T09:20:19.000Z</time>
      </trkpt>
      <trkpt lat="44.87292" lon="4.78844">
        <ele>486.79998779297</ele>
        <time>2023-12-17T09:20:23.000Z</time>
      </trkpt>
      <trkpt lat="44.87291" lon="4.78844">
        <ele>486.60000610352</ele>
        <time>2023-12-17T09:20:28.000Z</time>
      </trkpt>
      <trkpt lat="44.87291" lon="4.78845">
        <ele>486.60000610352</ele>
        <time>2023-12-17T09:20:35.000Z</time>
      </trkpt>
      <trkpt lat="44.87291" lon="4.78845">
        <ele>486.20001220703</ele>
        <time>2023-12-17T09:20:44.000Z</time>
      </trkpt>
      <trkpt lat="44.8729" lon="4.78845">
        <ele>485.79998779297</ele>
        <time>2023-12-17T09:20:52.000Z</time>
      </trkpt>
      <trkpt lat="44.87289" lon="4.78845">
        <ele>486</ele>
        <time>2023-12-17T09:20:53.000Z</time>
      </trkpt>
      <trkpt lat="44.87281" lon="4.78853">
        <ele>485.79998779297</ele>
        <time>2023-12-17T09:20:58.000Z</time>
      </trkpt>
      <trkpt lat="44.87272" lon="4.78859">
        <ele>487.60000610352</ele>
        <time>2023-12-17T09:21:02.000Z</time>
      </trkpt>
      <trkpt lat="44.87266" lon="4.78864">
        <ele>488.60000610352</ele>
        <time>2023-12-17T09:21:04.000Z</time>
      </trkpt>
      <trkpt lat="44.87263" lon="4.78866">
        <ele>488.79998779297</ele>
        <time>2023-12-17T09:21:05.000Z</time>
      </trkpt>
      <trkpt lat="44.87253" lon="4.78874">
        <ele>490.39999389648</ele>
        <time>2023-12-17T09:21:09.000Z</time>
      </trkpt>
      <trkpt lat="44.87248" lon="4.78878">
        <ele>491.39999389648</ele>
        <time>2023-12-17T09:21:11.000Z</time>
      </trkpt>
      <trkpt lat="44.87246" lon="4.7888">
        <ele>491.79998779297</ele>
        <time>2023-12-17T09:21:12.000Z</time>
      </trkpt>
      <trkpt lat="44.87235" lon="4.7889">
        <ele>493.20001220703</ele>
        <time>2023-12-17T09:21:16.000Z</time>
      </trkpt>
      <trkpt lat="44.8723" lon="4.78896">
        <ele>494.39999389648</ele>
        <time>2023-12-17T09:21:18.000Z</time>
      </trkpt>
      <trkpt lat="44.87224" lon="4.78904">
        <ele>495.60000610352</ele>
        <time>2023-12-17T09:21:21.000Z</time>
      </trkpt>
      <trkpt lat="44.87222" lon="4.78907">
        <ele>496.20001220703</ele>
        <time>2023-12-17T09:21:22.000Z</time>
      </trkpt>
      <trkpt lat="44.8722" lon="4.78911">
        <ele>496.79998779297</ele>
        <time>2023-12-17T09:21:23.000Z</time>
      </trkpt>
      <trkpt lat="44.87216" lon="4.78923">
        <ele>497.20001220703</ele>
        <time>2023-12-17T09:21:26.000Z</time>
      </trkpt>
      <trkpt lat="44.87214" lon="4.78924">
        <ele>497.39999389648</ele>
        <time>2023-12-17T09:21:27.000Z</time>
      </trkpt>
      <trkpt lat="44.87212" lon="4.78924">
        <ele>497.60000610352</ele>
        <time>2023-12-17T09:21:28.000Z</time>
      </trkpt>
      <trkpt lat="44.8721" lon="4.78924">
        <ele>498.39999389648</ele>
        <time>2023-12-17T09:21:29.000Z</time>
      </trkpt>
      <trkpt lat="44.87207" lon="4.78925">
        <ele>499.39999389648</ele>
        <time>2023-12-17T09:21:31.000Z</time>
      </trkpt>
      <trkpt lat="44.87202" lon="4.7892">
        <ele>501</ele>
        <time>2023-12-17T09:21:34.000Z</time>
      </trkpt>
      <trkpt lat="44.87201" lon="4.78918">
        <ele>501.79998779297</ele>
        <time>2023-12-17T09:21:35.000Z</time>
      </trkpt>
      <trkpt lat="44.87201" lon="4.78915">
        <ele>502.20001220703</ele>
        <time>2023-12-17T09:21:36.000Z</time>
      </trkpt>
      <trkpt lat="44.87202" lon="4.78912">
        <ele>502.39999389648</ele>
        <time>2023-12-17T09:21:37.000Z</time>
      </trkpt>
      <trkpt lat="44.87205" lon="4.78906">
        <ele>503.20001220703</ele>
        <time>2023-12-17T09:21:39.000Z</time>
      </trkpt>
      <trkpt lat="44.87207" lon="4.78901">
        <ele>504.39999389648</ele>
        <time>2023-12-17T09:21:41.000Z</time>
      </trkpt>
      <trkpt lat="44.8721" lon="4.78884">
        <ele>503.39999389648</ele>
        <time>2023-12-17T09:21:46.000Z</time>
      </trkpt>
      <trkpt lat="44.87215" lon="4.78865">
        <ele>503.60000610352</ele>
        <time>2023-12-17T09:21:51.000Z</time>
      </trkpt>
      <trkpt lat="44.87217" lon="4.78856">
        <ele>504.60000610352</ele>
        <time>2023-12-17T09:21:53.000Z</time>
      </trkpt>
      <trkpt lat="44.87219" lon="4.78842">
        <ele>505.20001220703</ele>
        <time>2023-12-17T09:21:56.000Z</time>
      </trkpt>
      <trkpt lat="44.87221" lon="4.7883">
        <ele>505.60000610352</ele>
        <time>2023-12-17T09:22:00.000Z</time>
      </trkpt>
      <trkpt lat="44.87223" lon="4.78828">
        <ele>505.60000610352</ele>
        <time>2023-12-17T09:22:01.000Z</time>
      </trkpt>
      <trkpt lat="44.87227" lon="4.78824">
        <ele>505.39999389648</ele>
        <time>2023-12-17T09:22:05.000Z</time>
      </trkpt>
      <trkpt lat="44.8723" lon="4.78819">
        <ele>505</ele>
        <time>2023-12-17T09:22:11.000Z</time>
      </trkpt>
      <trkpt lat="44.87232" lon="4.78818">
        <ele>505</ele>
        <time>2023-12-17T09:22:12.000Z</time>
      </trkpt>
      <trkpt lat="44.87238" lon="4.78807">
        <ele>505</ele>
        <time>2023-12-17T09:22:17.000Z</time>
      </trkpt>
      <trkpt lat="44.87244" lon="4.78792">
        <ele>504.60000610352</ele>
        <time>2023-12-17T09:22:20.000Z</time>
      </trkpt>
      <trkpt lat="44.87245" lon="4.78786">
        <ele>504.60000610352</ele>
        <time>2023-12-17T09:22:21.000Z</time>
      </trkpt>
      <trkpt lat="44.87249" lon="4.78773">
        <ele>506</ele>
        <time>2023-12-17T09:22:24.000Z</time>
      </trkpt>
      <trkpt lat="44.87251" lon="4.7877">
        <ele>506.39999389648</ele>
        <time>2023-12-17T09:22:25.000Z</time>
      </trkpt>
      <trkpt lat="44.87253" lon="4.78763">
        <ele>507.20001220703</ele>
        <time>2023-12-17T09:22:27.000Z</time>
      </trkpt>
      <trkpt lat="44.87255" lon="4.7875">
        <ele>508</ele>
        <time>2023-12-17T09:22:30.000Z</time>
      </trkpt>
      <trkpt lat="44.87257" lon="4.78746">
        <ele>508.39999389648</ele>
        <time>2023-12-17T09:22:31.000Z</time>
      </trkpt>
      <trkpt lat="44.87261" lon="4.78736">
        <ele>509.79998779297</ele>
        <time>2023-12-17T09:22:34.000Z</time>
      </trkpt>
      <trkpt lat="44.87263" lon="4.78729">
        <ele>510.39999389648</ele>
        <time>2023-12-17T09:22:36.000Z</time>
      </trkpt>
      <trkpt lat="44.87264" lon="4.78725">
        <ele>510.79998779297</ele>
        <time>2023-12-17T09:22:37.000Z</time>
      </trkpt>
      <trkpt lat="44.87268" lon="4.78714">
        <ele>512</ele>
        <time>2023-12-17T09:22:40.000Z</time>
      </trkpt>
      <trkpt lat="44.87269" lon="4.7871">
        <ele>512.40002441406</ele>
        <time>2023-12-17T09:22:41.000Z</time>
      </trkpt>
      <trkpt lat="44.87273" lon="4.78699">
        <ele>513.40002441406</ele>
        <time>2023-12-17T09:22:44.000Z</time>
      </trkpt>
      <trkpt lat="44.87277" lon="4.78692">
        <ele>513.79998779297</ele>
        <time>2023-12-17T09:22:46.000Z</time>
      </trkpt>
      <trkpt lat="44.87283" lon="4.7868">
        <ele>514.40002441406</ele>
        <time>2023-12-17T09:22:49.000Z</time>
      </trkpt>
      <trkpt lat="44.87283" lon="4.78675">
        <ele>514.59997558594</ele>
        <time>2023-12-17T09:22:50.000Z</time>
      </trkpt>
      <trkpt lat="44.87284" lon="4.78656">
        <ele>516.20001220703</ele>
        <time>2023-12-17T09:22:55.000Z</time>
      </trkpt>
      <trkpt lat="44.87287" lon="4.78641">
        <ele>517.20001220703</ele>
        <time>2023-12-17T09:22:59.000Z</time>
      </trkpt>
      <trkpt lat="44.87289" lon="4.78625">
        <ele>518.40002441406</ele>
        <time>2023-12-17T09:23:02.000Z</time>
      </trkpt>
      <trkpt lat="44.8729" lon="4.78613">
        <ele>518.79998779297</ele>
        <time>2023-12-17T09:23:04.000Z</time>
      </trkpt>
      <trkpt lat="44.8729" lon="4.78599">
        <ele>518.79998779297</ele>
        <time>2023-12-17T09:23:06.000Z</time>
      </trkpt>
      <trkpt lat="44.8729" lon="4.78579">
        <ele>519.40002441406</ele>
        <time>2023-12-17T09:23:09.000Z</time>
      </trkpt>
      <trkpt lat="44.87291" lon="4.78573">
        <ele>519.59997558594</ele>
        <time>2023-12-17T09:23:10.000Z</time>
      </trkpt>
      <trkpt lat="44.87289" lon="4.78556">
        <ele>520.59997558594</ele>
        <time>2023-12-17T09:23:13.000Z</time>
      </trkpt>
      <trkpt lat="44.87291" lon="4.78552">
        <ele>521</ele>
        <time>2023-12-17T09:23:14.000Z</time>
      </trkpt>
      <trkpt lat="44.87297" lon="4.78533">
        <ele>521.40002441406</ele>
        <time>2023-12-17T09:23:20.000Z</time>
      </trkpt>
      <trkpt lat="44.87294" lon="4.78523">
        <ele>521.79998779297</ele>
        <time>2023-12-17T09:23:22.000Z</time>
      </trkpt>
      <trkpt lat="44.87289" lon="4.78513">
        <ele>521.79998779297</ele>
        <time>2023-12-17T09:23:24.000Z</time>
      </trkpt>
      <trkpt lat="44.87289" lon="4.78507">
        <ele>521.40002441406</ele>
        <time>2023-12-17T09:23:26.000Z</time>
      </trkpt>
      <trkpt lat="44.87285" lon="4.785">
        <ele>521.59997558594</ele>
        <time>2023-12-17T09:23:28.000Z</time>
      </trkpt>
      <trkpt lat="44.8728" lon="4.78488">
        <ele>522.79998779297</ele>
        <time>2023-12-17T09:23:31.000Z</time>
      </trkpt>
      <trkpt lat="44.87278" lon="4.78488">
        <ele>523.20001220703</ele>
        <time>2023-12-17T09:23:32.000Z</time>
      </trkpt>
      <trkpt lat="44.87274" lon="4.78494">
        <ele>523.79998779297</ele>
        <time>2023-12-17T09:23:37.000Z</time>
      </trkpt>
      <trkpt lat="44.87274" lon="4.78495">
        <ele>523.79998779297</ele>
        <time>2023-12-17T09:23:38.000Z</time>
      </trkpt>
      <trkpt lat="44.87271" lon="4.78496">
        <ele>523.40002441406</ele>
        <time>2023-12-17T09:23:43.000Z</time>
      </trkpt>
      <trkpt lat="44.8727" lon="4.78496">
        <ele>523.20001220703</ele>
        <time>2023-12-17T09:23:49.000Z</time>
      </trkpt>
      <trkpt lat="44.8727" lon="4.78495">
        <ele>523</ele>
        <time>2023-12-17T09:24:05.000Z</time>
      </trkpt>
      <trkpt lat="44.87271" lon="4.78494">
        <ele>522.40002441406</ele>
        <time>2023-12-17T09:24:22.000Z</time>
      </trkpt>
      <trkpt lat="44.8727" lon="4.78495">
        <ele>522.40002441406</ele>
        <time>2023-12-17T09:24:25.000Z</time>
      </trkpt>
      <trkpt lat="44.87269" lon="4.78499">
        <ele>522.20001220703</ele>
        <time>2023-12-17T09:24:27.000Z</time>
      </trkpt>
      <trkpt lat="44.87264" lon="4.78515">
        <ele>522.20001220703</ele>
        <time>2023-12-17T09:24:31.000Z</time>
      </trkpt>
      <trkpt lat="44.87252" lon="4.78542">
        <ele>522</ele>
        <time>2023-12-17T09:24:36.000Z</time>
      </trkpt>
      <trkpt lat="44.87249" lon="4.78547">
        <ele>522</ele>
        <time>2023-12-17T09:24:37.000Z</time>
      </trkpt>
      <trkpt lat="44.87238" lon="4.78559">
        <ele>522.20001220703</ele>
        <time>2023-12-17T09:24:40.000Z</time>
      </trkpt>
      <trkpt lat="44.87229" lon="4.78564">
        <ele>523</ele>
        <time>2023-12-17T09:24:42.000Z</time>
      </trkpt>
      <trkpt lat="44.87219" lon="4.78566">
        <ele>523.79998779297</ele>
        <time>2023-12-17T09:24:44.000Z</time>
      </trkpt>
      <trkpt lat="44.87214" lon="4.78567">
        <ele>524</ele>
        <time>2023-12-17T09:24:45.000Z</time>
      </trkpt>
      <trkpt lat="44.87205" lon="4.78568">
        <ele>525.20001220703</ele>
        <time>2023-12-17T09:24:47.000Z</time>
      </trkpt>
      <trkpt lat="44.87195" lon="4.7857">
        <ele>526</ele>
        <time>2023-12-17T09:24:49.000Z</time>
      </trkpt>
      <trkpt lat="44.87191" lon="4.78572">
        <ele>526.40002441406</ele>
        <time>2023-12-17T09:24:50.000Z</time>
      </trkpt>
      <trkpt lat="44.87184" lon="4.78578">
        <ele>527.20001220703</ele>
        <time>2023-12-17T09:24:52.000Z</time>
      </trkpt>
      <trkpt lat="44.8718" lon="4.78581">
        <ele>528.40002441406</ele>
        <time>2023-12-17T09:24:53.000Z</time>
      </trkpt>
      <trkpt lat="44.87172" lon="4.78587">
        <ele>529.59997558594</ele>
        <time>2023-12-17T09:24:55.000Z</time>
      </trkpt>
      <trkpt lat="44.87151" lon="4.78602">
        <ele>530</ele>
        <time>2023-12-17T09:25:00.000Z</time>
      </trkpt>
      <trkpt lat="44.87146" lon="4.78605">
        <ele>530</ele>
        <time>2023-12-17T09:25:01.000Z</time>
      </trkpt>
      <trkpt lat="44.87119" lon="4.78614">
        <ele>528.79998779297</ele>
        <time>2023-12-17T09:25:06.000Z</time>
      </trkpt>
      <trkpt lat="44.87113" lon="4.78616">
        <ele>528.40002441406</ele>
        <time>2023-12-17T09:25:07.000Z</time>
      </trkpt>
      <trkpt lat="44.87085" lon="4.78629">
        <ele>527.40002441406</ele>
        <time>2023-12-17T09:25:12.000Z</time>
      </trkpt>
      <trkpt lat="44.8708" lon="4.78633">
        <ele>527.40002441406</ele>
        <time>2023-12-17T09:25:13.000Z</time>
      </trkpt>
      <trkpt lat="44.87035" lon="4.78663">
        <ele>526.59997558594</ele>
        <time>2023-12-17T09:25:22.000Z</time>
      </trkpt>
      <trkpt lat="44.87024" lon="4.78674">
        <ele>527</ele>
        <time>2023-12-17T09:25:25.000Z</time>
      </trkpt>
      <trkpt lat="44.8702" lon="4.78679">
        <ele>527.20001220703</ele>
        <time>2023-12-17T09:25:27.000Z</time>
      </trkpt>
      <trkpt lat="44.87019" lon="4.78682">
        <ele>527.59997558594</ele>
        <time>2023-12-17T09:25:31.000Z</time>
      </trkpt>
      <trkpt lat="44.87019" lon="4.78682">
        <ele>526.79998779297</ele>
        <time>2023-12-17T09:25:46.000Z</time>
      </trkpt>
      <trkpt lat="44.87019" lon="4.78682">
        <ele>526.59997558594</ele>
        <time>2023-12-17T09:25:58.000Z</time>
      </trkpt>
      <trkpt lat="44.87019" lon="4.78683">
        <ele>526.40002441406</ele>
        <time>2023-12-17T09:26:07.000Z</time>
      </trkpt>
      <trkpt lat="44.87019" lon="4.78683">
        <ele>526</ele>
        <time>2023-12-17T09:26:10.000Z</time>
      </trkpt>
      <trkpt lat="44.87018" lon="4.78683">
        <ele>526.20001220703</ele>
        <time>2023-12-17T09:26:21.000Z</time>
      </trkpt>
      <trkpt lat="44.87018" lon="4.78684">
        <ele>525.59997558594</ele>
        <time>2023-12-17T09:26:34.000Z</time>
      </trkpt>
      <trkpt lat="44.87018" lon="4.78683">
        <ele>525.59997558594</ele>
        <time>2023-12-17T09:26:47.000Z</time>
      </trkpt>
      <trkpt lat="44.87018" lon="4.78683">
        <ele>525.20001220703</ele>
        <time>2023-12-17T09:26:51.000Z</time>
      </trkpt>
      <trkpt lat="44.87018" lon="4.78683">
        <ele>525.20001220703</ele>
        <time>2023-12-17T09:26:59.000Z</time>
      </trkpt>
      <trkpt lat="44.87018" lon="4.78682">
        <ele>525.20001220703</ele>
        <time>2023-12-17T09:27:04.000Z</time>
      </trkpt>
      <trkpt lat="44.87018" lon="4.78682">
        <ele>524.40002441406</ele>
        <time>2023-12-17T09:27:23.000Z</time>
      </trkpt>
      <trkpt lat="44.87018" lon="4.78682">
        <ele>524.20001220703</ele>
        <time>2023-12-17T09:27:31.000Z</time>
      </trkpt>
      <trkpt lat="44.87018" lon="4.78682">
        <ele>524.20001220703</ele>
        <time>2023-12-17T09:27:38.000Z</time>
      </trkpt>
      <trkpt lat="44.87019" lon="4.78683">
        <ele>524</ele>
        <time>2023-12-17T09:27:57.000Z</time>
      </trkpt>
      <trkpt lat="44.87018" lon="4.78683">
        <ele>523.59997558594</ele>
        <time>2023-12-17T09:28:13.000Z</time>
      </trkpt>
      <trkpt lat="44.87018" lon="4.78683">
        <ele>523.59997558594</ele>
        <time>2023-12-17T09:28:15.000Z</time>
      </trkpt>
      <trkpt lat="44.87019" lon="4.78685">
        <ele>523.59997558594</ele>
        <time>2023-12-17T09:28:19.000Z</time>
      </trkpt>
      <trkpt lat="44.8702" lon="4.7869">
        <ele>523.79998779297</ele>
        <time>2023-12-17T09:28:21.000Z</time>
      </trkpt>
      <trkpt lat="44.87025" lon="4.78711">
        <ele>524</ele>
        <time>2023-12-17T09:28:25.000Z</time>
      </trkpt>
      <trkpt lat="44.87027" lon="4.78719">
        <ele>524</ele>
        <time>2023-12-17T09:28:26.000Z</time>
      </trkpt>
      <trkpt lat="44.8703" lon="4.78745">
        <ele>523.40002441406</ele>
        <time>2023-12-17T09:28:29.000Z</time>
      </trkpt>
      <trkpt lat="44.87032" lon="4.78753">
        <ele>523.20001220703</ele>
        <time>2023-12-17T09:28:30.000Z</time>
      </trkpt>
      <trkpt lat="44.87038" lon="4.78777">
        <ele>522.59997558594</ele>
        <time>2023-12-17T09:28:33.000Z</time>
      </trkpt>
      <trkpt lat="44.87039" lon="4.78784">
        <ele>522.59997558594</ele>
        <time>2023-12-17T09:28:34.000Z</time>
      </trkpt>
      <trkpt lat="44.8704" lon="4.78785">
        <ele>523.59997558594</ele>
        <time>2023-12-17T09:28:35.000Z</time>
      </trkpt>
      <trkpt lat="44.87044" lon="4.78784">
        <ele>524.20001220703</ele>
        <time>2023-12-17T09:28:37.000Z</time>
      </trkpt>
      <trkpt lat="44.8705" lon="4.78784">
        <ele>524.40002441406</ele>
        <time>2023-12-17T09:28:38.000Z</time>
      </trkpt>
      <trkpt lat="44.87056" lon="4.78784">
        <ele>524.40002441406</ele>
        <time>2023-12-17T09:28:39.000Z</time>
      </trkpt>
      <trkpt lat="44.87068" lon="4.78778">
        <ele>524.40002441406</ele>
        <time>2023-12-17T09:28:41.000Z</time>
      </trkpt>
      <trkpt lat="44.87077" lon="4.78767">
        <ele>524.79998779297</ele>
        <time>2023-12-17T09:28:43.000Z</time>
      </trkpt>
      <trkpt lat="44.87082" lon="4.78764">
        <ele>524.20001220703</ele>
        <time>2023-12-17T09:28:44.000Z</time>
      </trkpt>
      <trkpt lat="44.87086" lon="4.78763">
        <ele>523.79998779297</ele>
        <time>2023-12-17T09:28:45.000Z</time>
      </trkpt>
      <trkpt lat="44.87093" lon="4.78767">
        <ele>523.59997558594</ele>
        <time>2023-12-17T09:28:47.000Z</time>
      </trkpt>
      <trkpt lat="44.87099" lon="4.78767">
        <ele>523.40002441406</ele>
        <time>2023-12-17T09:28:49.000Z</time>
      </trkpt>
      <trkpt lat="44.87101" lon="4.78769">
        <ele>523.40002441406</ele>
        <time>2023-12-17T09:28:50.000Z</time>
      </trkpt>
      <trkpt lat="44.87103" lon="4.78772">
        <ele>523.59997558594</ele>
        <time>2023-12-17T09:28:51.000Z</time>
      </trkpt>
      <trkpt lat="44.87105" lon="4.78784">
        <ele>523.40002441406</ele>
        <time>2023-12-17T09:28:53.000Z</time>
      </trkpt>
      <trkpt lat="44.87109" lon="4.78798">
        <ele>522.79998779297</ele>
        <time>2023-12-17T09:28:55.000Z</time>
      </trkpt>
      <trkpt lat="44.8711" lon="4.78804">
        <ele>522</ele>
        <time>2023-12-17T09:28:56.000Z</time>
      </trkpt>
      <trkpt lat="44.87111" lon="4.7881">
        <ele>521.59997558594</ele>
        <time>2023-12-17T09:28:57.000Z</time>
      </trkpt>
      <trkpt lat="44.87111" lon="4.78826">
        <ele>521.20001220703</ele>
        <time>2023-12-17T09:28:59.000Z</time>
      </trkpt>
      <trkpt lat="44.87107" lon="4.78832">
        <ele>521.20001220703</ele>
        <time>2023-12-17T09:29:01.000Z</time>
      </trkpt>
      <trkpt lat="44.87104" lon="4.78833">
        <ele>521.59997558594</ele>
        <time>2023-12-17T09:29:02.000Z</time>
      </trkpt>
      <trkpt lat="44.87098" lon="4.78834">
        <ele>522.40002441406</ele>
        <time>2023-12-17T09:29:04.000Z</time>
      </trkpt>
      <trkpt lat="44.87094" lon="4.78842">
        <ele>522</ele>
        <time>2023-12-17T09:29:06.000Z</time>
      </trkpt>
      <trkpt lat="44.8708" lon="4.78856">
        <ele>522.59997558594</ele>
        <time>2023-12-17T09:29:10.000Z</time>
      </trkpt>
      <trkpt lat="44.87075" lon="4.78869">
        <ele>522.79998779297</ele>
        <time>2023-12-17T09:29:12.000Z</time>
      </trkpt>
      <trkpt lat="44.87072" lon="4.78875">
        <ele>523</ele>
        <time>2023-12-17T09:29:13.000Z</time>
      </trkpt>
      <trkpt lat="44.87067" lon="4.7888">
        <ele>523</ele>
        <time>2023-12-17T09:29:14.000Z</time>
      </trkpt>
      <trkpt lat="44.87053" lon="4.78889">
        <ele>522.79998779297</ele>
        <time>2023-12-17T09:29:17.000Z</time>
      </trkpt>
      <trkpt lat="44.87049" lon="4.789">
        <ele>522</ele>
        <time>2023-12-17T09:29:19.000Z</time>
      </trkpt>
      <trkpt lat="44.87047" lon="4.78908">
        <ele>521</ele>
        <time>2023-12-17T09:29:20.000Z</time>
      </trkpt>
      <trkpt lat="44.87044" lon="4.78945">
        <ele>520.79998779297</ele>
        <time>2023-12-17T09:29:24.000Z</time>
      </trkpt>
      <trkpt lat="44.87043" lon="4.78966">
        <ele>519.20001220703</ele>
        <time>2023-12-17T09:29:26.000Z</time>
      </trkpt>
      <trkpt lat="44.87042" lon="4.78984">
        <ele>517</ele>
        <time>2023-12-17T09:29:28.000Z</time>
      </trkpt>
      <trkpt lat="44.87041" lon="4.78999">
        <ele>515.79998779297</ele>
        <time>2023-12-17T09:29:30.000Z</time>
      </trkpt>
      <trkpt lat="44.87041" lon="4.79028">
        <ele>514.59997558594</ele>
        <time>2023-12-17T09:29:34.000Z</time>
      </trkpt>
      <trkpt lat="44.87041" lon="4.79036">
        <ele>513.79998779297</ele>
        <time>2023-12-17T09:29:35.000Z</time>
      </trkpt>
      <trkpt lat="44.8704" lon="4.79043">
        <ele>513.20001220703</ele>
        <time>2023-12-17T09:29:36.000Z</time>
      </trkpt>
      <trkpt lat="44.8704" lon="4.79067">
        <ele>512</ele>
        <time>2023-12-17T09:29:39.000Z</time>
      </trkpt>
      <trkpt lat="44.8704" lon="4.79083">
        <ele>511.20001220703</ele>
        <time>2023-12-17T09:29:41.000Z</time>
      </trkpt>
      <trkpt lat="44.87039" lon="4.79091">
        <ele>511</ele>
        <time>2023-12-17T09:29:42.000Z</time>
      </trkpt>
      <trkpt lat="44.8704" lon="4.791">
        <ele>510.39999389648</ele>
        <time>2023-12-17T09:29:43.000Z</time>
      </trkpt>
      <trkpt lat="44.87039" lon="4.79118">
        <ele>510</ele>
        <time>2023-12-17T09:29:45.000Z</time>
      </trkpt>
      <trkpt lat="44.87041" lon="4.79134">
        <ele>509.39999389648</ele>
        <time>2023-12-17T09:29:48.000Z</time>
      </trkpt>
      <trkpt lat="44.87051" lon="4.79149">
        <ele>508.20001220703</ele>
        <time>2023-12-17T09:29:51.000Z</time>
      </trkpt>
      <trkpt lat="44.87056" lon="4.79155">
        <ele>507.20001220703</ele>
        <time>2023-12-17T09:29:52.000Z</time>
      </trkpt>
      <trkpt lat="44.8706" lon="4.79163">
        <ele>505.39999389648</ele>
        <time>2023-12-17T09:29:53.000Z</time>
      </trkpt>
      <trkpt lat="44.87069" lon="4.7917">
        <ele>503.60000610352</ele>
        <time>2023-12-17T09:29:54.000Z</time>
      </trkpt>
      <trkpt lat="44.87075" lon="4.79178">
        <ele>502.60000610352</ele>
        <time>2023-12-17T09:29:55.000Z</time>
      </trkpt>
      <trkpt lat="44.87079" lon="4.79187">
        <ele>502.20001220703</ele>
        <time>2023-12-17T09:29:56.000Z</time>
      </trkpt>
      <trkpt lat="44.8708" lon="4.79196">
        <ele>501.39999389648</ele>
        <time>2023-12-17T09:29:57.000Z</time>
      </trkpt>
      <trkpt lat="44.87079" lon="4.79204">
        <ele>500.79998779297</ele>
        <time>2023-12-17T09:29:58.000Z</time>
      </trkpt>
      <trkpt lat="44.87077" lon="4.79209">
        <ele>500.20001220703</ele>
        <time>2023-12-17T09:29:59.000Z</time>
      </trkpt>
      <trkpt lat="44.87073" lon="4.79211">
        <ele>499.60000610352</ele>
        <time>2023-12-17T09:30:00.000Z</time>
      </trkpt>
      <trkpt lat="44.87066" lon="4.7921">
        <ele>499.20001220703</ele>
        <time>2023-12-17T09:30:02.000Z</time>
      </trkpt>
      <trkpt lat="44.87057" lon="4.79209">
        <ele>499.60000610352</ele>
        <time>2023-12-17T09:30:04.000Z</time>
      </trkpt>
      <trkpt lat="44.87046" lon="4.79211">
        <ele>501</ele>
        <time>2023-12-17T09:30:06.000Z</time>
      </trkpt>
      <trkpt lat="44.87038" lon="4.79221">
        <ele>501.60000610352</ele>
        <time>2023-12-17T09:30:08.000Z</time>
      </trkpt>
      <trkpt lat="44.87033" lon="4.79234">
        <ele>501.39999389648</ele>
        <time>2023-12-17T09:30:10.000Z</time>
      </trkpt>
      <trkpt lat="44.8703" lon="4.79237">
        <ele>501.39999389648</ele>
        <time>2023-12-17T09:30:11.000Z</time>
      </trkpt>
      <trkpt lat="44.87021" lon="4.79246">
        <ele>500</ele>
        <time>2023-12-17T09:30:14.000Z</time>
      </trkpt>
      <trkpt lat="44.87015" lon="4.7925">
        <ele>501.20001220703</ele>
        <time>2023-12-17T09:30:16.000Z</time>
      </trkpt>
      <trkpt lat="44.87013" lon="4.79255">
        <ele>501.60000610352</ele>
        <time>2023-12-17T09:30:17.000Z</time>
      </trkpt>
      <trkpt lat="44.87008" lon="4.79265">
        <ele>502.39999389648</ele>
        <time>2023-12-17T09:30:19.000Z</time>
      </trkpt>
      <trkpt lat="44.87006" lon="4.79275">
        <ele>502.20001220703</ele>
        <time>2023-12-17T09:30:21.000Z</time>
      </trkpt>
      <trkpt lat="44.87005" lon="4.7928">
        <ele>501.20001220703</ele>
        <time>2023-12-17T09:30:22.000Z</time>
      </trkpt>
      <trkpt lat="44.87005" lon="4.79287">
        <ele>500</ele>
        <time>2023-12-17T09:30:23.000Z</time>
      </trkpt>
      <trkpt lat="44.87002" lon="4.79303">
        <ele>498.79998779297</ele>
        <time>2023-12-17T09:30:25.000Z</time>
      </trkpt>
      <trkpt lat="44.86997" lon="4.79316">
        <ele>497.79998779297</ele>
        <time>2023-12-17T09:30:27.000Z</time>
      </trkpt>
      <trkpt lat="44.8699" lon="4.79326">
        <ele>498.20001220703</ele>
        <time>2023-12-17T09:30:29.000Z</time>
      </trkpt>
      <trkpt lat="44.86987" lon="4.79338">
        <ele>498.20001220703</ele>
        <time>2023-12-17T09:30:31.000Z</time>
      </trkpt>
      <trkpt lat="44.86983" lon="4.79364">
        <ele>498.60000610352</ele>
        <time>2023-12-17T09:30:35.000Z</time>
      </trkpt>
      <trkpt lat="44.86978" lon="4.79376">
        <ele>498.79998779297</ele>
        <time>2023-12-17T09:30:39.000Z</time>
      </trkpt>
      <trkpt lat="44.86978" lon="4.79381">
        <ele>498.79998779297</ele>
        <time>2023-12-17T09:30:43.000Z</time>
      </trkpt>
      <trkpt lat="44.86978" lon="4.79382">
        <ele>498.20001220703</ele>
        <time>2023-12-17T09:30:52.000Z</time>
      </trkpt>
      <trkpt lat="44.86978" lon="4.79383">
        <ele>497.79998779297</ele>
        <time>2023-12-17T09:31:01.000Z</time>
      </trkpt>
      <trkpt lat="44.86978" lon="4.79383">
        <ele>497.60000610352</ele>
        <time>2023-12-17T09:31:02.000Z</time>
      </trkpt>
      <trkpt lat="44.86979" lon="4.79384">
        <ele>497.20001220703</ele>
        <time>2023-12-17T09:31:08.000Z</time>
      </trkpt>
      <trkpt lat="44.8698" lon="4.79384">
        <ele>496.79998779297</ele>
        <time>2023-12-17T09:31:19.000Z</time>
      </trkpt>
      <trkpt lat="44.8698" lon="4.79384">
        <ele>496.60000610352</ele>
        <time>2023-12-17T09:31:25.000Z</time>
      </trkpt>
      <trkpt lat="44.8698" lon="4.79384">
        <ele>496.20001220703</ele>
        <time>2023-12-17T09:31:28.000Z</time>
      </trkpt>
      <trkpt lat="44.8698" lon="4.79384">
        <ele>496</ele>
        <time>2023-12-17T09:31:37.000Z</time>
      </trkpt>
      <trkpt lat="44.86981" lon="4.79385">
        <ele>495.60000610352</ele>
        <time>2023-12-17T09:31:41.000Z</time>
      </trkpt>
      <trkpt lat="44.86982" lon="4.79386">
        <ele>495.39999389648</ele>
        <time>2023-12-17T09:31:42.000Z</time>
      </trkpt>
      <trkpt lat="44.86983" lon="4.79388">
        <ele>495.39999389648</ele>
        <time>2023-12-17T09:31:43.000Z</time>
      </trkpt>
      <trkpt lat="44.86985" lon="4.79411">
        <ele>495.20001220703</ele>
        <time>2023-12-17T09:31:47.000Z</time>
      </trkpt>
      <trkpt lat="44.86986" lon="4.79419">
        <ele>494.79998779297</ele>
        <time>2023-12-17T09:31:48.000Z</time>
      </trkpt>
      <trkpt lat="44.86986" lon="4.79427">
        <ele>494.39999389648</ele>
        <time>2023-12-17T09:31:49.000Z</time>
      </trkpt>
      <trkpt lat="44.86988" lon="4.79451">
        <ele>494.20001220703</ele>
        <time>2023-12-17T09:31:52.000Z</time>
      </trkpt>
      <trkpt lat="44.86987" lon="4.79468">
        <ele>495.20001220703</ele>
        <time>2023-12-17T09:31:54.000Z</time>
      </trkpt>
      <trkpt lat="44.86985" lon="4.79496">
        <ele>495.39999389648</ele>
        <time>2023-12-17T09:31:57.000Z</time>
      </trkpt>
      <trkpt lat="44.86983" lon="4.79516">
        <ele>495.20001220703</ele>
        <time>2023-12-17T09:31:59.000Z</time>
      </trkpt>
      <trkpt lat="44.86979" lon="4.79533">
        <ele>493</ele>
        <time>2023-12-17T09:32:01.000Z</time>
      </trkpt>
      <trkpt lat="44.86979" lon="4.79543">
        <ele>491.60000610352</ele>
        <time>2023-12-17T09:32:02.000Z</time>
      </trkpt>
      <trkpt lat="44.86982" lon="4.79551">
        <ele>491</ele>
        <time>2023-12-17T09:32:03.000Z</time>
      </trkpt>
      <trkpt lat="44.86993" lon="4.79569">
        <ele>491</ele>
        <time>2023-12-17T09:32:06.000Z</time>
      </trkpt>
      <trkpt lat="44.86995" lon="4.79576">
        <ele>490</ele>
        <time>2023-12-17T09:32:07.000Z</time>
      </trkpt>
      <trkpt lat="44.86996" lon="4.79584">
        <ele>489.60000610352</ele>
        <time>2023-12-17T09:32:08.000Z</time>
      </trkpt>
      <trkpt lat="44.86996" lon="4.79592">
        <ele>488.60000610352</ele>
        <time>2023-12-17T09:32:09.000Z</time>
      </trkpt>
      <trkpt lat="44.86994" lon="4.79602">
        <ele>488.20001220703</ele>
        <time>2023-12-17T09:32:10.000Z</time>
      </trkpt>
      <trkpt lat="44.86992" lon="4.79612">
        <ele>487.60000610352</ele>
        <time>2023-12-17T09:32:11.000Z</time>
      </trkpt>
      <trkpt lat="44.86993" lon="4.79621">
        <ele>487.20001220703</ele>
        <time>2023-12-17T09:32:12.000Z</time>
      </trkpt>
      <trkpt lat="44.86995" lon="4.79635">
        <ele>487</ele>
        <time>2023-12-17T09:32:14.000Z</time>
      </trkpt>
      <trkpt lat="44.86995" lon="4.79651">
        <ele>486.79998779297</ele>
        <time>2023-12-17T09:32:16.000Z</time>
      </trkpt>
      <trkpt lat="44.86994" lon="4.79659">
        <ele>486.79998779297</ele>
        <time>2023-12-17T09:32:17.000Z</time>
      </trkpt>
      <trkpt lat="44.86996" lon="4.79678">
        <ele>486.79998779297</ele>
        <time>2023-12-17T09:32:19.000Z</time>
      </trkpt>
      <trkpt lat="44.86997" lon="4.79687">
        <ele>486.60000610352</ele>
        <time>2023-12-17T09:32:20.000Z</time>
      </trkpt>
      <trkpt lat="44.86998" lon="4.79696">
        <ele>486</ele>
        <time>2023-12-17T09:32:21.000Z</time>
      </trkpt>
      <trkpt lat="44.86996" lon="4.79706">
        <ele>483.39999389648</ele>
        <time>2023-12-17T09:32:22.000Z</time>
      </trkpt>
      <trkpt lat="44.86993" lon="4.79714">
        <ele>482.20001220703</ele>
        <time>2023-12-17T09:32:23.000Z</time>
      </trkpt>
      <trkpt lat="44.8698" lon="4.79724">
        <ele>479.79998779297</ele>
        <time>2023-12-17T09:32:25.000Z</time>
      </trkpt>
      <trkpt lat="44.8697" lon="4.79729">
        <ele>478.79998779297</ele>
        <time>2023-12-17T09:32:27.000Z</time>
      </trkpt>
      <trkpt lat="44.86969" lon="4.79734">
        <ele>478.60000610352</ele>
        <time>2023-12-17T09:32:28.000Z</time>
      </trkpt>
      <trkpt lat="44.86968" lon="4.79748">
        <ele>478.39999389648</ele>
        <time>2023-12-17T09:32:30.000Z</time>
      </trkpt>
      <trkpt lat="44.86965" lon="4.79754">
        <ele>478.20001220703</ele>
        <time>2023-12-17T09:32:31.000Z</time>
      </trkpt>
      <trkpt lat="44.86962" lon="4.7976">
        <ele>477.20001220703</ele>
        <time>2023-12-17T09:32:32.000Z</time>
      </trkpt>
      <trkpt lat="44.8696" lon="4.79776">
        <ele>475.79998779297</ele>
        <time>2023-12-17T09:32:34.000Z</time>
      </trkpt>
      <trkpt lat="44.86963" lon="4.79794">
        <ele>475.20001220703</ele>
        <time>2023-12-17T09:32:36.000Z</time>
      </trkpt>
      <trkpt lat="44.8696" lon="4.7982">
        <ele>474.60000610352</ele>
        <time>2023-12-17T09:32:39.000Z</time>
      </trkpt>
      <trkpt lat="44.86956" lon="4.79837">
        <ele>472.79998779297</ele>
        <time>2023-12-17T09:32:41.000Z</time>
      </trkpt>
      <trkpt lat="44.86955" lon="4.79847">
        <ele>471.60000610352</ele>
        <time>2023-12-17T09:32:42.000Z</time>
      </trkpt>
      <trkpt lat="44.86955" lon="4.79856">
        <ele>470.60000610352</ele>
        <time>2023-12-17T09:32:43.000Z</time>
      </trkpt>
      <trkpt lat="44.86955" lon="4.79876">
        <ele>468.20001220703</ele>
        <time>2023-12-17T09:32:45.000Z</time>
      </trkpt>
      <trkpt lat="44.86953" lon="4.79886">
        <ele>466.79998779297</ele>
        <time>2023-12-17T09:32:46.000Z</time>
      </trkpt>
      <trkpt lat="44.86952" lon="4.79893">
        <ele>466</ele>
        <time>2023-12-17T09:32:47.000Z</time>
      </trkpt>
      <trkpt lat="44.86952" lon="4.799">
        <ele>464.39999389648</ele>
        <time>2023-12-17T09:32:48.000Z</time>
      </trkpt>
      <trkpt lat="44.86952" lon="4.79914">
        <ele>463.20001220703</ele>
        <time>2023-12-17T09:32:50.000Z</time>
      </trkpt>
      <trkpt lat="44.86946" lon="4.79927">
        <ele>461.79998779297</ele>
        <time>2023-12-17T09:32:52.000Z</time>
      </trkpt>
      <trkpt lat="44.86942" lon="4.79935">
        <ele>460.60000610352</ele>
        <time>2023-12-17T09:32:53.000Z</time>
      </trkpt>
      <trkpt lat="44.86929" lon="4.79967">
        <ele>456.79998779297</ele>
        <time>2023-12-17T09:32:56.000Z</time>
      </trkpt>
      <trkpt lat="44.86925" lon="4.7998">
        <ele>455.20001220703</ele>
        <time>2023-12-17T09:32:57.000Z</time>
      </trkpt>
      <trkpt lat="44.86917" lon="4.80002">
        <ele>452</ele>
        <time>2023-12-17T09:32:59.000Z</time>
      </trkpt>
      <trkpt lat="44.86913" lon="4.80013">
        <ele>450</ele>
        <time>2023-12-17T09:33:00.000Z</time>
      </trkpt>
      <trkpt lat="44.86909" lon="4.80029">
        <ele>449.20001220703</ele>
        <time>2023-12-17T09:33:01.000Z</time>
      </trkpt>
      <trkpt lat="44.86907" lon="4.80038">
        <ele>448.60000610352</ele>
        <time>2023-12-17T09:33:02.000Z</time>
      </trkpt>
      <trkpt lat="44.86904" lon="4.80044">
        <ele>449</ele>
        <time>2023-12-17T09:33:03.000Z</time>
      </trkpt>
      <trkpt lat="44.86898" lon="4.80043">
        <ele>449.60000610352</ele>
        <time>2023-12-17T09:33:06.000Z</time>
      </trkpt>
      <trkpt lat="44.86897" lon="4.80042">
        <ele>449.79998779297</ele>
        <time>2023-12-17T09:33:07.000Z</time>
      </trkpt>
      <trkpt lat="44.86894" lon="4.8004">
        <ele>450</ele>
        <time>2023-12-17T09:33:09.000Z</time>
      </trkpt>
      <trkpt lat="44.86892" lon="4.80042">
        <ele>450</ele>
        <time>2023-12-17T09:33:11.000Z</time>
      </trkpt>
      <trkpt lat="44.86886" lon="4.80043">
        <ele>450.20001220703</ele>
        <time>2023-12-17T09:33:16.000Z</time>
      </trkpt>
      <trkpt lat="44.86883" lon="4.80023">
        <ele>449.79998779297</ele>
        <time>2023-12-17T09:33:20.000Z</time>
      </trkpt>
      <trkpt lat="44.86879" lon="4.80007">
        <ele>449.60000610352</ele>
        <time>2023-12-17T09:33:22.000Z</time>
      </trkpt>
      <trkpt lat="44.86875" lon="4.80001">
        <ele>449</ele>
        <time>2023-12-17T09:33:23.000Z</time>
      </trkpt>
      <trkpt lat="44.8687" lon="4.79996">
        <ele>448.79998779297</ele>
        <time>2023-12-17T09:33:24.000Z</time>
      </trkpt>
      <trkpt lat="44.86859" lon="4.79989">
        <ele>448.20001220703</ele>
        <time>2023-12-17T09:33:26.000Z</time>
      </trkpt>
      <trkpt lat="44.86855" lon="4.79984">
        <ele>448</ele>
        <time>2023-12-17T09:33:27.000Z</time>
      </trkpt>
      <trkpt lat="44.8685" lon="4.79981">
        <ele>448</ele>
        <time>2023-12-17T09:33:28.000Z</time>
      </trkpt>
      <trkpt lat="44.86843" lon="4.7998">
        <ele>447.39999389648</ele>
        <time>2023-12-17T09:33:29.000Z</time>
      </trkpt>
      <trkpt lat="44.86838" lon="4.79982">
        <ele>447.20001220703</ele>
        <time>2023-12-17T09:33:30.000Z</time>
      </trkpt>
      <trkpt lat="44.86833" lon="4.79985">
        <ele>446.39999389648</ele>
        <time>2023-12-17T09:33:31.000Z</time>
      </trkpt>
      <trkpt lat="44.8683" lon="4.7999">
        <ele>445.60000610352</ele>
        <time>2023-12-17T09:33:32.000Z</time>
      </trkpt>
      <trkpt lat="44.86827" lon="4.79996">
        <ele>444.79998779297</ele>
        <time>2023-12-17T09:33:33.000Z</time>
      </trkpt>
      <trkpt lat="44.86825" lon="4.80003">
        <ele>444.20001220703</ele>
        <time>2023-12-17T09:33:34.000Z</time>
      </trkpt>
      <trkpt lat="44.86823" lon="4.80009">
        <ele>443.20001220703</ele>
        <time>2023-12-17T09:33:35.000Z</time>
      </trkpt>
      <trkpt lat="44.86819" lon="4.80023">
        <ele>442.20001220703</ele>
        <time>2023-12-17T09:33:37.000Z</time>
      </trkpt>
      <trkpt lat="44.86817" lon="4.8003">
        <ele>442</ele>
        <time>2023-12-17T09:33:38.000Z</time>
      </trkpt>
      <trkpt lat="44.86815" lon="4.80037">
        <ele>441.39999389648</ele>
        <time>2023-12-17T09:33:39.000Z</time>
      </trkpt>
      <trkpt lat="44.86816" lon="4.80043">
        <ele>440.79998779297</ele>
        <time>2023-12-17T09:33:40.000Z</time>
      </trkpt>
      <trkpt lat="44.86816" lon="4.80052">
        <ele>440.39999389648</ele>
        <time>2023-12-17T09:33:41.000Z</time>
      </trkpt>
      <trkpt lat="44.86819" lon="4.80075">
        <ele>440.20001220703</ele>
        <time>2023-12-17T09:33:44.000Z</time>
      </trkpt>
      <trkpt lat="44.86822" lon="4.80078">
        <ele>440.39999389648</ele>
        <time>2023-12-17T09:33:45.000Z</time>
      </trkpt>
      <trkpt lat="44.86828" lon="4.80085">
        <ele>442.39999389648</ele>
        <time>2023-12-17T09:33:47.000Z</time>
      </trkpt>
      <trkpt lat="44.86829" lon="4.80089">
        <ele>442.60000610352</ele>
        <time>2023-12-17T09:33:48.000Z</time>
      </trkpt>
      <trkpt lat="44.86826" lon="4.801">
        <ele>443</ele>
        <time>2023-12-17T09:33:50.000Z</time>
      </trkpt>
      <trkpt lat="44.86825" lon="4.80106">
        <ele>443.20001220703</ele>
        <time>2023-12-17T09:33:51.000Z</time>
      </trkpt>
      <trkpt lat="44.86824" lon="4.80113">
        <ele>443.39999389648</ele>
        <time>2023-12-17T09:33:52.000Z</time>
      </trkpt>
      <trkpt lat="44.86827" lon="4.8012">
        <ele>443.60000610352</ele>
        <time>2023-12-17T09:33:53.000Z</time>
      </trkpt>
      <trkpt lat="44.86827" lon="4.80138">
        <ele>443.60000610352</ele>
        <time>2023-12-17T09:33:56.000Z</time>
      </trkpt>
      <trkpt lat="44.86825" lon="4.80163">
        <ele>441.60000610352</ele>
        <time>2023-12-17T09:34:00.000Z</time>
      </trkpt>
      <trkpt lat="44.86824" lon="4.80169">
        <ele>440.79998779297</ele>
        <time>2023-12-17T09:34:01.000Z</time>
      </trkpt>
      <trkpt lat="44.86821" lon="4.80175">
        <ele>439.60000610352</ele>
        <time>2023-12-17T09:34:02.000Z</time>
      </trkpt>
      <trkpt lat="44.86818" lon="4.80181">
        <ele>438.60000610352</ele>
        <time>2023-12-17T09:34:03.000Z</time>
      </trkpt>
      <trkpt lat="44.86813" lon="4.80187">
        <ele>437.39999389648</ele>
        <time>2023-12-17T09:34:04.000Z</time>
      </trkpt>
      <trkpt lat="44.86806" lon="4.80194">
        <ele>436.20001220703</ele>
        <time>2023-12-17T09:34:06.000Z</time>
      </trkpt>
      <trkpt lat="44.86805" lon="4.80199">
        <ele>435.39999389648</ele>
        <time>2023-12-17T09:34:07.000Z</time>
      </trkpt>
      <trkpt lat="44.86804" lon="4.80208">
        <ele>434</ele>
        <time>2023-12-17T09:34:08.000Z</time>
      </trkpt>
      <trkpt lat="44.86804" lon="4.80218">
        <ele>433</ele>
        <time>2023-12-17T09:34:09.000Z</time>
      </trkpt>
      <trkpt lat="44.86803" lon="4.80228">
        <ele>432.60000610352</ele>
        <time>2023-12-17T09:34:10.000Z</time>
      </trkpt>
      <trkpt lat="44.86801" lon="4.80245">
        <ele>432.39999389648</ele>
        <time>2023-12-17T09:34:12.000Z</time>
      </trkpt>
      <trkpt lat="44.86799" lon="4.80267">
        <ele>432.79998779297</ele>
        <time>2023-12-17T09:34:16.000Z</time>
      </trkpt>
      <trkpt lat="44.86799" lon="4.80273">
        <ele>432.79998779297</ele>
        <time>2023-12-17T09:34:17.000Z</time>
      </trkpt>
      <trkpt lat="44.86795" lon="4.80285">
        <ele>432.39999389648</ele>
        <time>2023-12-17T09:34:19.000Z</time>
      </trkpt>
      <trkpt lat="44.86794" lon="4.80292">
        <ele>432.20001220703</ele>
        <time>2023-12-17T09:34:20.000Z</time>
      </trkpt>
      <trkpt lat="44.86792" lon="4.80298">
        <ele>432</ele>
        <time>2023-12-17T09:34:21.000Z</time>
      </trkpt>
      <trkpt lat="44.86789" lon="4.80314">
        <ele>431.20001220703</ele>
        <time>2023-12-17T09:34:23.000Z</time>
      </trkpt>
      <trkpt lat="44.86785" lon="4.80327">
        <ele>430.39999389648</ele>
        <time>2023-12-17T09:34:25.000Z</time>
      </trkpt>
      <trkpt lat="44.86784" lon="4.80335">
        <ele>429.60000610352</ele>
        <time>2023-12-17T09:34:26.000Z</time>
      </trkpt>
      <trkpt lat="44.8678" lon="4.8036">
        <ele>427.79998779297</ele>
        <time>2023-12-17T09:34:29.000Z</time>
      </trkpt>
      <trkpt lat="44.8678" lon="4.8038">
        <ele>425.20001220703</ele>
        <time>2023-12-17T09:34:31.000Z</time>
      </trkpt>
      <trkpt lat="44.86775" lon="4.8039">
        <ele>423.60000610352</ele>
        <time>2023-12-17T09:34:33.000Z</time>
      </trkpt>
      <trkpt lat="44.86772" lon="4.80393">
        <ele>423</ele>
        <time>2023-12-17T09:34:35.000Z</time>
      </trkpt>
      <trkpt lat="44.86773" lon="4.80396">
        <ele>422.60000610352</ele>
        <time>2023-12-17T09:34:36.000Z</time>
      </trkpt>
      <trkpt lat="44.86775" lon="4.80401">
        <ele>422.39999389648</ele>
        <time>2023-12-17T09:34:37.000Z</time>
      </trkpt>
      <trkpt lat="44.86777" lon="4.80421">
        <ele>421.79998779297</ele>
        <time>2023-12-17T09:34:40.000Z</time>
      </trkpt>
      <trkpt lat="44.8678" lon="4.80431">
        <ele>421.39999389648</ele>
        <time>2023-12-17T09:34:42.000Z</time>
      </trkpt>
      <trkpt lat="44.86784" lon="4.80439">
        <ele>421.20001220703</ele>
        <time>2023-12-17T09:34:44.000Z</time>
      </trkpt>
      <trkpt lat="44.86787" lon="4.80447">
        <ele>415.79998779297</ele>
        <time>2023-12-17T09:34:46.000Z</time>
      </trkpt>
      <trkpt lat="44.86792" lon="4.80449">
        <ele>415.79998779297</ele>
        <time>2023-12-17T09:34:49.000Z</time>
      </trkpt>
      <trkpt lat="44.86794" lon="4.80449">
        <ele>419.60000610352</ele>
        <time>2023-12-17T09:34:50.000Z</time>
      </trkpt>
      <trkpt lat="44.86795" lon="4.80451">
        <ele>421.60000610352</ele>
        <time>2023-12-17T09:34:51.000Z</time>
      </trkpt>
      <trkpt lat="44.86795" lon="4.80451">
        <ele>422.60000610352</ele>
        <time>2023-12-17T09:34:52.000Z</time>
      </trkpt>
      <trkpt lat="44.86796" lon="4.80451">
        <ele>423.20001220703</ele>
        <time>2023-12-17T09:34:53.000Z</time>
      </trkpt>
      <trkpt lat="44.86797" lon="4.80452">
        <ele>423.60000610352</ele>
        <time>2023-12-17T09:35:02.000Z</time>
      </trkpt>
      <trkpt lat="44.868" lon="4.80453">
        <ele>422.79998779297</ele>
        <time>2023-12-17T09:35:16.000Z</time>
      </trkpt>
      <trkpt lat="44.868" lon="4.80454">
        <ele>421.79998779297</ele>
        <time>2023-12-17T09:35:32.000Z</time>
      </trkpt>
      <trkpt lat="44.86799" lon="4.80455">
        <ele>421.60000610352</ele>
        <time>2023-12-17T09:35:39.000Z</time>
      </trkpt>
      <trkpt lat="44.86799" lon="4.80456">
        <ele>421.60000610352</ele>
        <time>2023-12-17T09:35:40.000Z</time>
      </trkpt>
      <trkpt lat="44.86795" lon="4.80465">
        <ele>421.60000610352</ele>
        <time>2023-12-17T09:35:43.000Z</time>
      </trkpt>
      <trkpt lat="44.86792" lon="4.80469">
        <ele>421.60000610352</ele>
        <time>2023-12-17T09:35:44.000Z</time>
      </trkpt>
      <trkpt lat="44.86784" lon="4.80481">
        <ele>420.79998779297</ele>
        <time>2023-12-17T09:35:47.000Z</time>
      </trkpt>
      <trkpt lat="44.86781" lon="4.80488">
        <ele>420.79998779297</ele>
        <time>2023-12-17T09:35:50.000Z</time>
      </trkpt>
      <trkpt lat="44.86781" lon="4.8049">
        <ele>420.79998779297</ele>
        <time>2023-12-17T09:35:52.000Z</time>
      </trkpt>
      <trkpt lat="44.8678" lon="4.80493">
        <ele>420.39999389648</ele>
        <time>2023-12-17T09:35:56.000Z</time>
      </trkpt>
      <trkpt lat="44.86781" lon="4.80492">
        <ele>420.39999389648</ele>
        <time>2023-12-17T09:35:57.000Z</time>
      </trkpt>
      <trkpt lat="44.86784" lon="4.8048">
        <ele>419.79998779297</ele>
        <time>2023-12-17T09:36:03.000Z</time>
      </trkpt>
      <trkpt lat="44.86786" lon="4.80477">
        <ele>420</ele>
        <time>2023-12-17T09:36:05.000Z</time>
      </trkpt>
      <trkpt lat="44.86789" lon="4.80477">
        <ele>420</ele>
        <time>2023-12-17T09:36:07.000Z</time>
      </trkpt>
      <trkpt lat="44.86796" lon="4.80484">
        <ele>420</ele>
        <time>2023-12-17T09:36:12.000Z</time>
      </trkpt>
      <trkpt lat="44.86798" lon="4.80484">
        <ele>420</ele>
        <time>2023-12-17T09:36:13.000Z</time>
      </trkpt>
      <trkpt lat="44.86803" lon="4.80486">
        <ele>419.79998779297</ele>
        <time>2023-12-17T09:36:15.000Z</time>
      </trkpt>
      <trkpt lat="44.86806" lon="4.80488">
        <ele>419.79998779297</ele>
        <time>2023-12-17T09:36:16.000Z</time>
      </trkpt>
      <trkpt lat="44.86811" lon="4.80495">
        <ele>419.39999389648</ele>
        <time>2023-12-17T09:36:18.000Z</time>
      </trkpt>
      <trkpt lat="44.86817" lon="4.80503">
        <ele>418.39999389648</ele>
        <time>2023-12-17T09:36:20.000Z</time>
      </trkpt>
      <trkpt lat="44.86819" lon="4.80505">
        <ele>417.79998779297</ele>
        <time>2023-12-17T09:36:21.000Z</time>
      </trkpt>
      <trkpt lat="44.86823" lon="4.80509">
        <ele>417.39999389648</ele>
        <time>2023-12-17T09:36:23.000Z</time>
      </trkpt>
      <trkpt lat="44.86828" lon="4.80516">
        <ele>416.20001220703</ele>
        <time>2023-12-17T09:36:26.000Z</time>
      </trkpt>
      <trkpt lat="44.86833" lon="4.80526">
        <ele>415</ele>
        <time>2023-12-17T09:36:28.000Z</time>
      </trkpt>
      <trkpt lat="44.86838" lon="4.80536">
        <ele>413.60000610352</ele>
        <time>2023-12-17T09:36:30.000Z</time>
      </trkpt>
      <trkpt lat="44.86841" lon="4.80539">
        <ele>412.79998779297</ele>
        <time>2023-12-17T09:36:31.000Z</time>
      </trkpt>
      <trkpt lat="44.86844" lon="4.8054">
        <ele>411.60000610352</ele>
        <time>2023-12-17T09:36:32.000Z</time>
      </trkpt>
      <trkpt lat="44.86847" lon="4.8054">
        <ele>410</ele>
        <time>2023-12-17T09:36:33.000Z</time>
      </trkpt>
      <trkpt lat="44.86849" lon="4.80541">
        <ele>407.79998779297</ele>
        <time>2023-12-17T09:36:34.000Z</time>
      </trkpt>
      <trkpt lat="44.86852" lon="4.80542">
        <ele>406.60000610352</ele>
        <time>2023-12-17T09:36:35.000Z</time>
      </trkpt>
      <trkpt lat="44.86856" lon="4.80543">
        <ele>405.39999389648</ele>
        <time>2023-12-17T09:36:37.000Z</time>
      </trkpt>
      <trkpt lat="44.86858" lon="4.80542">
        <ele>404.39999389648</ele>
        <time>2023-12-17T09:36:38.000Z</time>
      </trkpt>
      <trkpt lat="44.86859" lon="4.80541">
        <ele>403.60000610352</ele>
        <time>2023-12-17T09:36:39.000Z</time>
      </trkpt>
      <trkpt lat="44.86859" lon="4.80539">
        <ele>403</ele>
        <time>2023-12-17T09:36:40.000Z</time>
      </trkpt>
      <trkpt lat="44.86862" lon="4.80538">
        <ele>402.60000610352</ele>
        <time>2023-12-17T09:36:41.000Z</time>
      </trkpt>
      <trkpt lat="44.86868" lon="4.80536">
        <ele>402.20001220703</ele>
        <time>2023-12-17T09:36:43.000Z</time>
      </trkpt>
      <trkpt lat="44.86892" lon="4.80525">
        <ele>402.20001220703</ele>
        <time>2023-12-17T09:36:48.000Z</time>
      </trkpt>
      <trkpt lat="44.869" lon="4.80522">
        <ele>401.60000610352</ele>
        <time>2023-12-17T09:36:50.000Z</time>
      </trkpt>
      <trkpt lat="44.86905" lon="4.80523">
        <ele>399.20001220703</ele>
        <time>2023-12-17T09:36:52.000Z</time>
      </trkpt>
      <trkpt lat="44.86907" lon="4.80524">
        <ele>397.79998779297</ele>
        <time>2023-12-17T09:36:53.000Z</time>
      </trkpt>
      <trkpt lat="44.8691" lon="4.80526">
        <ele>396.20001220703</ele>
        <time>2023-12-17T09:36:54.000Z</time>
      </trkpt>
      <trkpt lat="44.86913" lon="4.8053">
        <ele>395</ele>
        <time>2023-12-17T09:36:56.000Z</time>
      </trkpt>
      <trkpt lat="44.86919" lon="4.80533">
        <ele>392</ele>
        <time>2023-12-17T09:36:58.000Z</time>
      </trkpt>
      <trkpt lat="44.86923" lon="4.80532">
        <ele>390.79998779297</ele>
        <time>2023-12-17T09:36:59.000Z</time>
      </trkpt>
      <trkpt lat="44.86925" lon="4.80529">
        <ele>388.60000610352</ele>
        <time>2023-12-17T09:37:00.000Z</time>
      </trkpt>
      <trkpt lat="44.86928" lon="4.80525">
        <ele>387</ele>
        <time>2023-12-17T09:37:01.000Z</time>
      </trkpt>
      <trkpt lat="44.86931" lon="4.80522">
        <ele>386.20001220703</ele>
        <time>2023-12-17T09:37:02.000Z</time>
      </trkpt>
      <trkpt lat="44.86932" lon="4.8052">
        <ele>385.60000610352</ele>
        <time>2023-12-17T09:37:03.000Z</time>
      </trkpt>
      <trkpt lat="44.86933" lon="4.8052">
        <ele>384.39999389648</ele>
        <time>2023-12-17T09:37:04.000Z</time>
      </trkpt>
      <trkpt lat="44.86937" lon="4.80522">
        <ele>383</ele>
        <time>2023-12-17T09:37:06.000Z</time>
      </trkpt>
      <trkpt lat="44.86947" lon="4.80524">
        <ele>381.60000610352</ele>
        <time>2023-12-17T09:37:08.000Z</time>
      </trkpt>
      <trkpt lat="44.8695" lon="4.80526">
        <ele>380.39999389648</ele>
        <time>2023-12-17T09:37:09.000Z</time>
      </trkpt>
      <trkpt lat="44.86957" lon="4.8053">
        <ele>378.39999389648</ele>
        <time>2023-12-17T09:37:11.000Z</time>
      </trkpt>
      <trkpt lat="44.86958" lon="4.80532">
        <ele>377.79998779297</ele>
        <time>2023-12-17T09:37:12.000Z</time>
      </trkpt>
      <trkpt lat="44.8696" lon="4.80532">
        <ele>377.39999389648</ele>
        <time>2023-12-17T09:37:13.000Z</time>
      </trkpt>
      <trkpt lat="44.86963" lon="4.80532">
        <ele>376.20001220703</ele>
        <time>2023-12-17T09:37:14.000Z</time>
      </trkpt>
      <trkpt lat="44.86966" lon="4.80532">
        <ele>375</ele>
        <time>2023-12-17T09:37:15.000Z</time>
      </trkpt>
      <trkpt lat="44.86973" lon="4.80531">
        <ele>373.60000610352</ele>
        <time>2023-12-17T09:37:16.000Z</time>
      </trkpt>
      <trkpt lat="44.86977" lon="4.80534">
        <ele>372.20001220703</ele>
        <time>2023-12-17T09:37:17.000Z</time>
      </trkpt>
      <trkpt lat="44.86981" lon="4.80536">
        <ele>369.60000610352</ele>
        <time>2023-12-17T09:37:18.000Z</time>
      </trkpt>
      <trkpt lat="44.86983" lon="4.80537">
        <ele>366.79998779297</ele>
        <time>2023-12-17T09:37:19.000Z</time>
      </trkpt>
      <trkpt lat="44.86985" lon="4.80537">
        <ele>365.39999389648</ele>
        <time>2023-12-17T09:37:20.000Z</time>
      </trkpt>
      <trkpt lat="44.86988" lon="4.80537">
        <ele>364.20001220703</ele>
        <time>2023-12-17T09:37:21.000Z</time>
      </trkpt>
      <trkpt lat="44.86992" lon="4.80537">
        <ele>362.79998779297</ele>
        <time>2023-12-17T09:37:23.000Z</time>
      </trkpt>
      <trkpt lat="44.86993" lon="4.80537">
        <ele>361.79998779297</ele>
        <time>2023-12-17T09:37:24.000Z</time>
      </trkpt>
      <trkpt lat="44.87002" lon="4.80535">
        <ele>360</ele>
        <time>2023-12-17T09:37:26.000Z</time>
      </trkpt>
      <trkpt lat="44.87006" lon="4.80533">
        <ele>358.79998779297</ele>
        <time>2023-12-17T09:37:28.000Z</time>
      </trkpt>
      <trkpt lat="44.87008" lon="4.80532">
        <ele>358.20001220703</ele>
        <time>2023-12-17T09:37:29.000Z</time>
      </trkpt>
      <trkpt lat="44.8701" lon="4.80533">
        <ele>357.39999389648</ele>
        <time>2023-12-17T09:37:30.000Z</time>
      </trkpt>
      <trkpt lat="44.87014" lon="4.80534">
        <ele>356.39999389648</ele>
        <time>2023-12-17T09:37:31.000Z</time>
      </trkpt>
      <trkpt lat="44.87018" lon="4.80535">
        <ele>355</ele>
        <time>2023-12-17T09:37:32.000Z</time>
      </trkpt>
      <trkpt lat="44.8702" lon="4.80534">
        <ele>353.60000610352</ele>
        <time>2023-12-17T09:37:33.000Z</time>
      </trkpt>
      <trkpt lat="44.87021" lon="4.80535">
        <ele>353</ele>
        <time>2023-12-17T09:37:34.000Z</time>
      </trkpt>
      <trkpt lat="44.87022" lon="4.80535">
        <ele>352.39999389648</ele>
        <time>2023-12-17T09:37:36.000Z</time>
      </trkpt>
      <trkpt lat="44.87024" lon="4.80536">
        <ele>352.20001220703</ele>
        <time>2023-12-17T09:37:38.000Z</time>
      </trkpt>
      <trkpt lat="44.87027" lon="4.80539">
        <ele>351.79998779297</ele>
        <time>2023-12-17T09:37:40.000Z</time>
      </trkpt>
      <trkpt lat="44.87033" lon="4.80544">
        <ele>350.39999389648</ele>
        <time>2023-12-17T09:37:42.000Z</time>
      </trkpt>
      <trkpt lat="44.87036" lon="4.80545">
        <ele>346.79998779297</ele>
        <time>2023-12-17T09:37:43.000Z</time>
      </trkpt>
      <trkpt lat="44.87038" lon="4.80545">
        <ele>345</ele>
        <time>2023-12-17T09:37:44.000Z</time>
      </trkpt>
      <trkpt lat="44.87042" lon="4.80544">
        <ele>343.60000610352</ele>
        <time>2023-12-17T09:37:45.000Z</time>
      </trkpt>
      <trkpt lat="44.87044" lon="4.80546">
        <ele>342.20001220703</ele>
        <time>2023-12-17T09:37:46.000Z</time>
      </trkpt>
      <trkpt lat="44.87047" lon="4.8055">
        <ele>340</ele>
        <time>2023-12-17T09:37:47.000Z</time>
      </trkpt>
      <trkpt lat="44.8705" lon="4.80555">
        <ele>338.39999389648</ele>
        <time>2023-12-17T09:37:48.000Z</time>
      </trkpt>
      <trkpt lat="44.87057" lon="4.80566">
        <ele>336.39999389648</ele>
        <time>2023-12-17T09:37:50.000Z</time>
      </trkpt>
      <trkpt lat="44.87059" lon="4.80571">
        <ele>333.20001220703</ele>
        <time>2023-12-17T09:37:51.000Z</time>
      </trkpt>
      <trkpt lat="44.87059" lon="4.80575">
        <ele>331.60000610352</ele>
        <time>2023-12-17T09:37:52.000Z</time>
      </trkpt>
      <trkpt lat="44.8706" lon="4.8058">
        <ele>330.60000610352</ele>
        <time>2023-12-17T09:37:53.000Z</time>
      </trkpt>
      <trkpt lat="44.8706" lon="4.80585">
        <ele>328.60000610352</ele>
        <time>2023-12-17T09:37:54.000Z</time>
      </trkpt>
      <trkpt lat="44.87058" lon="4.80591">
        <ele>327.39999389648</ele>
        <time>2023-12-17T09:37:55.000Z</time>
      </trkpt>
      <trkpt lat="44.87054" lon="4.80597">
        <ele>326.20001220703</ele>
        <time>2023-12-17T09:37:56.000Z</time>
      </trkpt>
      <trkpt lat="44.8705" lon="4.80599">
        <ele>325</ele>
        <time>2023-12-17T09:37:57.000Z</time>
      </trkpt>
      <trkpt lat="44.87047" lon="4.80601">
        <ele>324.39999389648</ele>
        <time>2023-12-17T09:37:58.000Z</time>
      </trkpt>
      <trkpt lat="44.87044" lon="4.80605">
        <ele>323.39999389648</ele>
        <time>2023-12-17T09:37:59.000Z</time>
      </trkpt>
      <trkpt lat="44.8704" lon="4.80612">
        <ele>322.39999389648</ele>
        <time>2023-12-17T09:38:00.000Z</time>
      </trkpt>
      <trkpt lat="44.87035" lon="4.80615">
        <ele>319.79998779297</ele>
        <time>2023-12-17T09:38:01.000Z</time>
      </trkpt>
      <trkpt lat="44.87031" lon="4.80622">
        <ele>317.20001220703</ele>
        <time>2023-12-17T09:38:02.000Z</time>
      </trkpt>
      <trkpt lat="44.87029" lon="4.80631">
        <ele>315.79998779297</ele>
        <time>2023-12-17T09:38:03.000Z</time>
      </trkpt>
      <trkpt lat="44.87026" lon="4.80639">
        <ele>314.39999389648</ele>
        <time>2023-12-17T09:38:04.000Z</time>
      </trkpt>
      <trkpt lat="44.87022" lon="4.80645">
        <ele>313.20001220703</ele>
        <time>2023-12-17T09:38:05.000Z</time>
      </trkpt>
      <trkpt lat="44.87015" lon="4.80655">
        <ele>312.20001220703</ele>
        <time>2023-12-17T09:38:07.000Z</time>
      </trkpt>
      <trkpt lat="44.87012" lon="4.80664">
        <ele>312</ele>
        <time>2023-12-17T09:38:08.000Z</time>
      </trkpt>
      <trkpt lat="44.87009" lon="4.80677">
        <ele>311</ele>
        <time>2023-12-17T09:38:10.000Z</time>
      </trkpt>
      <trkpt lat="44.87008" lon="4.80689">
        <ele>311.60000610352</ele>
        <time>2023-12-17T09:38:12.000Z</time>
      </trkpt>
      <trkpt lat="44.87005" lon="4.80712">
        <ele>311.39999389648</ele>
        <time>2023-12-17T09:38:15.000Z</time>
      </trkpt>
      <trkpt lat="44.87004" lon="4.80718">
        <ele>311.20001220703</ele>
        <time>2023-12-17T09:38:16.000Z</time>
      </trkpt>
      <trkpt lat="44.87002" lon="4.80729">
        <ele>311</ele>
        <time>2023-12-17T09:38:18.000Z</time>
      </trkpt>
      <trkpt lat="44.86999" lon="4.80744">
        <ele>311</ele>
        <time>2023-12-17T09:38:20.000Z</time>
      </trkpt>
      <trkpt lat="44.86997" lon="4.80757">
        <ele>308.39999389648</ele>
        <time>2023-12-17T09:38:22.000Z</time>
      </trkpt>
      <trkpt lat="44.86995" lon="4.80764">
        <ele>305.39999389648</ele>
        <time>2023-12-17T09:38:23.000Z</time>
      </trkpt>
      <trkpt lat="44.86993" lon="4.80772">
        <ele>303.39999389648</ele>
        <time>2023-12-17T09:38:24.000Z</time>
      </trkpt>
      <trkpt lat="44.86991" lon="4.8078">
        <ele>302.20001220703</ele>
        <time>2023-12-17T09:38:25.000Z</time>
      </trkpt>
      <trkpt lat="44.86989" lon="4.80788">
        <ele>300.79998779297</ele>
        <time>2023-12-17T09:38:26.000Z</time>
      </trkpt>
      <trkpt lat="44.86988" lon="4.80797">
        <ele>300</ele>
        <time>2023-12-17T09:38:27.000Z</time>
      </trkpt>
      <trkpt lat="44.86987" lon="4.80809">
        <ele>299</ele>
        <time>2023-12-17T09:38:28.000Z</time>
      </trkpt>
      <trkpt lat="44.86989" lon="4.80823">
        <ele>297.79998779297</ele>
        <time>2023-12-17T09:38:30.000Z</time>
      </trkpt>
      <trkpt lat="44.86992" lon="4.80841">
        <ele>297.39999389648</ele>
        <time>2023-12-17T09:38:33.000Z</time>
      </trkpt>
      <trkpt lat="44.86995" lon="4.80854">
        <ele>297.20001220703</ele>
        <time>2023-12-17T09:38:35.000Z</time>
      </trkpt>
      <trkpt lat="44.86995" lon="4.80867">
        <ele>296.79998779297</ele>
        <time>2023-12-17T09:38:37.000Z</time>
      </trkpt>
      <trkpt lat="44.86994" lon="4.80875">
        <ele>296.20001220703</ele>
        <time>2023-12-17T09:38:38.000Z</time>
      </trkpt>
      <trkpt lat="44.86994" lon="4.80883">
        <ele>295.60000610352</ele>
        <time>2023-12-17T09:38:39.000Z</time>
      </trkpt>
      <trkpt lat="44.86997" lon="4.809">
        <ele>294.20001220703</ele>
        <time>2023-12-17T09:38:41.000Z</time>
      </trkpt>
      <trkpt lat="44.86999" lon="4.80908">
        <ele>294</ele>
        <time>2023-12-17T09:38:42.000Z</time>
      </trkpt>
      <trkpt lat="44.87001" lon="4.80934">
        <ele>294</ele>
        <time>2023-12-17T09:38:46.000Z</time>
      </trkpt>
      <trkpt lat="44.87004" lon="4.80947">
        <ele>295.39999389648</ele>
        <time>2023-12-17T09:38:49.000Z</time>
      </trkpt>
      <trkpt lat="44.87006" lon="4.80955">
        <ele>296.39999389648</ele>
        <time>2023-12-17T09:38:51.000Z</time>
      </trkpt>
      <trkpt lat="44.87008" lon="4.80964">
        <ele>296.60000610352</ele>
        <time>2023-12-17T09:38:53.000Z</time>
      </trkpt>
      <trkpt lat="44.87011" lon="4.80983">
        <ele>296.79998779297</ele>
        <time>2023-12-17T09:38:56.000Z</time>
      </trkpt>
      <trkpt lat="44.87015" lon="4.81002">
        <ele>296.39999389648</ele>
        <time>2023-12-17T09:38:58.000Z</time>
      </trkpt>
      <trkpt lat="44.87015" lon="4.81008">
        <ele>296.20001220703</ele>
        <time>2023-12-17T09:38:59.000Z</time>
      </trkpt>
      <trkpt lat="44.87014" lon="4.81014">
        <ele>295.20001220703</ele>
        <time>2023-12-17T09:39:00.000Z</time>
      </trkpt>
      <trkpt lat="44.87013" lon="4.8103">
        <ele>293.20001220703</ele>
        <time>2023-12-17T09:39:02.000Z</time>
      </trkpt>
      <trkpt lat="44.87007" lon="4.81042">
        <ele>292.39999389648</ele>
        <time>2023-12-17T09:39:05.000Z</time>
      </trkpt>
      <trkpt lat="44.87007" lon="4.81047">
        <ele>292.20001220703</ele>
        <time>2023-12-17T09:39:06.000Z</time>
      </trkpt>
      <trkpt lat="44.87005" lon="4.81056">
        <ele>292</ele>
        <time>2023-12-17T09:39:08.000Z</time>
      </trkpt>
      <trkpt lat="44.87004" lon="4.81061">
        <ele>291.60000610352</ele>
        <time>2023-12-17T09:39:09.000Z</time>
      </trkpt>
      <trkpt lat="44.87005" lon="4.81063">
        <ele>291.20001220703</ele>
        <time>2023-12-17T09:39:10.000Z</time>
      </trkpt>
      <trkpt lat="44.87006" lon="4.81069">
        <ele>289.39999389648</ele>
        <time>2023-12-17T09:39:11.000Z</time>
      </trkpt>
      <trkpt lat="44.87008" lon="4.81071">
        <ele>287.79998779297</ele>
        <time>2023-12-17T09:39:12.000Z</time>
      </trkpt>
      <trkpt lat="44.87014" lon="4.81076">
        <ele>285.20001220703</ele>
        <time>2023-12-17T09:39:14.000Z</time>
      </trkpt>
      <trkpt lat="44.87019" lon="4.8108">
        <ele>283.60000610352</ele>
        <time>2023-12-17T09:39:15.000Z</time>
      </trkpt>
      <trkpt lat="44.87021" lon="4.81084">
        <ele>282.60000610352</ele>
        <time>2023-12-17T09:39:16.000Z</time>
      </trkpt>
      <trkpt lat="44.8702" lon="4.81089">
        <ele>281</ele>
        <time>2023-12-17T09:39:17.000Z</time>
      </trkpt>
      <trkpt lat="44.8702" lon="4.81094">
        <ele>280</ele>
        <time>2023-12-17T09:39:18.000Z</time>
      </trkpt>
      <trkpt lat="44.8702" lon="4.81099">
        <ele>278.60000610352</ele>
        <time>2023-12-17T09:39:19.000Z</time>
      </trkpt>
      <trkpt lat="44.87019" lon="4.81104">
        <ele>276.60000610352</ele>
        <time>2023-12-17T09:39:20.000Z</time>
      </trkpt>
      <trkpt lat="44.87018" lon="4.81108">
        <ele>275.20001220703</ele>
        <time>2023-12-17T09:39:21.000Z</time>
      </trkpt>
      <trkpt lat="44.87017" lon="4.81113">
        <ele>274</ele>
        <time>2023-12-17T09:39:22.000Z</time>
      </trkpt>
      <trkpt lat="44.87016" lon="4.81117">
        <ele>272.39999389648</ele>
        <time>2023-12-17T09:39:23.000Z</time>
      </trkpt>
      <trkpt lat="44.87016" lon="4.81119">
        <ele>271.20001220703</ele>
        <time>2023-12-17T09:39:24.000Z</time>
      </trkpt>
      <trkpt lat="44.87016" lon="4.81121">
        <ele>270</ele>
        <time>2023-12-17T09:39:25.000Z</time>
      </trkpt>
      <trkpt lat="44.87016" lon="4.81122">
        <ele>269</ele>
        <time>2023-12-17T09:39:26.000Z</time>
      </trkpt>
      <trkpt lat="44.87017" lon="4.81124">
        <ele>268.39999389648</ele>
        <time>2023-12-17T09:39:27.000Z</time>
      </trkpt>
      <trkpt lat="44.87019" lon="4.81126">
        <ele>267.39999389648</ele>
        <time>2023-12-17T09:39:28.000Z</time>
      </trkpt>
      <trkpt lat="44.87023" lon="4.8113">
        <ele>266.60000610352</ele>
        <time>2023-12-17T09:39:29.000Z</time>
      </trkpt>
      <trkpt lat="44.87026" lon="4.81132">
        <ele>266.20001220703</ele>
        <time>2023-12-17T09:39:30.000Z</time>
      </trkpt>
      <trkpt lat="44.87027" lon="4.81138">
        <ele>264.60000610352</ele>
        <time>2023-12-17T09:39:31.000Z</time>
      </trkpt>
      <trkpt lat="44.87029" lon="4.81144">
        <ele>263.60000610352</ele>
        <time>2023-12-17T09:39:32.000Z</time>
      </trkpt>
      <trkpt lat="44.87031" lon="4.81148">
        <ele>263.20001220703</ele>
        <time>2023-12-17T09:39:33.000Z</time>
      </trkpt>
      <trkpt lat="44.87031" lon="4.81156">
        <ele>261.20001220703</ele>
        <time>2023-12-17T09:39:34.000Z</time>
      </trkpt>
      <trkpt lat="44.87031" lon="4.8116">
        <ele>259.39999389648</ele>
        <time>2023-12-17T09:39:35.000Z</time>
      </trkpt>
      <trkpt lat="44.87032" lon="4.8116">
        <ele>258.39999389648</ele>
        <time>2023-12-17T09:39:36.000Z</time>
      </trkpt>
      <trkpt lat="44.87035" lon="4.8116">
        <ele>256.60000610352</ele>
        <time>2023-12-17T09:39:37.000Z</time>
      </trkpt>
      <trkpt lat="44.87039" lon="4.81162">
        <ele>255.39999389648</ele>
        <time>2023-12-17T09:39:38.000Z</time>
      </trkpt>
      <trkpt lat="44.87042" lon="4.81165">
        <ele>254.39999389648</ele>
        <time>2023-12-17T09:39:39.000Z</time>
      </trkpt>
      <trkpt lat="44.87044" lon="4.81169">
        <ele>253</ele>
        <time>2023-12-17T09:39:40.000Z</time>
      </trkpt>
      <trkpt lat="44.87044" lon="4.81175">
        <ele>251.80000305176</ele>
        <time>2023-12-17T09:39:42.000Z</time>
      </trkpt>
      <trkpt lat="44.87044" lon="4.81181">
        <ele>250.80000305176</ele>
        <time>2023-12-17T09:39:47.000Z</time>
      </trkpt>
      <trkpt lat="44.87044" lon="4.81182">
        <ele>250.80000305176</ele>
        <time>2023-12-17T09:39:49.000Z</time>
      </trkpt>
      <trkpt lat="44.87044" lon="4.81182">
        <ele>250.60000610352</ele>
        <time>2023-12-17T09:39:53.000Z</time>
      </trkpt>
      <trkpt lat="44.87044" lon="4.81183">
        <ele>250.19999694824</ele>
        <time>2023-12-17T09:39:59.000Z</time>
      </trkpt>
      <trkpt lat="44.87044" lon="4.81183">
        <ele>249.80000305176</ele>
        <time>2023-12-17T09:40:03.000Z</time>
      </trkpt>
      <trkpt lat="44.87044" lon="4.81183">
        <ele>249.60000610352</ele>
        <time>2023-12-17T09:40:06.000Z</time>
      </trkpt>
      <trkpt lat="44.87044" lon="4.81183">
        <ele>249.39999389648</ele>
        <time>2023-12-17T09:40:19.000Z</time>
      </trkpt>
      <trkpt lat="44.87045" lon="4.81183">
        <ele>248.60000610352</ele>
        <time>2023-12-17T09:40:30.000Z</time>
      </trkpt>
      <trkpt lat="44.87044" lon="4.81183">
        <ele>248</ele>
        <time>2023-12-17T09:40:38.000Z</time>
      </trkpt>
      <trkpt lat="44.87044" lon="4.81183">
        <ele>248</ele>
        <time>2023-12-17T09:40:41.000Z</time>
      </trkpt>
      <trkpt lat="44.87044" lon="4.81183">
        <ele>247.39999389648</ele>
        <time>2023-12-17T09:40:47.000Z</time>
      </trkpt>
      <trkpt lat="44.87044" lon="4.81183">
        <ele>247</ele>
        <time>2023-12-17T09:40:54.000Z</time>
      </trkpt>
      <trkpt lat="44.87044" lon="4.81183">
        <ele>246.80000305176</ele>
        <time>2023-12-17T09:41:09.000Z</time>
      </trkpt>
      <trkpt lat="44.87045" lon="4.81183">
        <ele>246.60000610352</ele>
        <time>2023-12-17T09:41:17.000Z</time>
      </trkpt>
      <trkpt lat="44.87045" lon="4.81183">
        <ele>246.39999389648</ele>
        <time>2023-12-17T09:41:19.000Z</time>
      </trkpt>
      <trkpt lat="44.87045" lon="4.81183">
        <ele>246.39999389648</ele>
        <time>2023-12-17T09:41:22.000Z</time>
      </trkpt>
      <trkpt lat="44.87046" lon="4.81183">
        <ele>246.39999389648</ele>
        <time>2023-12-17T09:41:28.000Z</time>
      </trkpt>
      <trkpt lat="44.87046" lon="4.81183">
        <ele>246.60000610352</ele>
        <time>2023-12-17T09:41:32.000Z</time>
      </trkpt>
      <trkpt lat="44.87046" lon="4.81184">
        <ele>246.39999389648</ele>
        <time>2023-12-17T09:41:36.000Z</time>
      </trkpt>
      <trkpt lat="44.87046" lon="4.81182">
        <ele>246.39999389648</ele>
        <time>2023-12-17T09:41:43.000Z</time>
      </trkpt>
      <trkpt lat="44.87046" lon="4.81179">
        <ele>246.39999389648</ele>
        <time>2023-12-17T09:41:45.000Z</time>
      </trkpt>
      <trkpt lat="44.87046" lon="4.81178">
        <ele>246.39999389648</ele>
        <time>2023-12-17T09:41:46.000Z</time>
      </trkpt>
      <trkpt lat="44.87047" lon="4.8117">
        <ele>246.60000610352</ele>
        <time>2023-12-17T09:41:51.000Z</time>
      </trkpt>
      <trkpt lat="44.87048" lon="4.8116">
        <ele>247</ele>
        <time>2023-12-17T09:41:56.000Z</time>
      </trkpt>
      <trkpt lat="44.87048" lon="4.81148">
        <ele>247.80000305176</ele>
        <time>2023-12-17T09:42:00.000Z</time>
      </trkpt>
      <trkpt lat="44.87048" lon="4.81144">
        <ele>248</ele>
        <time>2023-12-17T09:42:01.000Z</time>
      </trkpt>
      <trkpt lat="44.87052" lon="4.81131">
        <ele>248.80000305176</ele>
        <time>2023-12-17T09:42:05.000Z</time>
      </trkpt>
      <trkpt lat="44.87054" lon="4.81124">
        <ele>249.39999389648</ele>
        <time>2023-12-17T09:42:07.000Z</time>
      </trkpt>
      <trkpt lat="44.87055" lon="4.81117">
        <ele>250</ele>
        <time>2023-12-17T09:42:09.000Z</time>
      </trkpt>
      <trkpt lat="44.87059" lon="4.81099">
        <ele>251.19999694824</ele>
        <time>2023-12-17T09:42:14.000Z</time>
      </trkpt>
      <trkpt lat="44.8706" lon="4.81088">
        <ele>252.39999389648</ele>
        <time>2023-12-17T09:42:17.000Z</time>
      </trkpt>
      <trkpt lat="44.87064" lon="4.8107">
        <ele>253.60000610352</ele>
        <time>2023-12-17T09:42:22.000Z</time>
      </trkpt>
      <trkpt lat="44.87065" lon="4.81061">
        <ele>254.60000610352</ele>
        <time>2023-12-17T09:42:24.000Z</time>
      </trkpt>
      <trkpt lat="44.87068" lon="4.81044">
        <ele>255.80000305176</ele>
        <time>2023-12-17T09:42:28.000Z</time>
      </trkpt>
      <trkpt lat="44.8707" lon="4.81029">
        <ele>256.79998779297</ele>
        <time>2023-12-17T09:42:32.000Z</time>
      </trkpt>
      <trkpt lat="44.8707" lon="4.81019">
        <ele>257.39999389648</ele>
        <time>2023-12-17T09:42:34.000Z</time>
      </trkpt>
      <trkpt lat="44.87069" lon="4.81009">
        <ele>258.39999389648</ele>
        <time>2023-12-17T09:42:36.000Z</time>
      </trkpt>
      <trkpt lat="44.87068" lon="4.80995">
        <ele>259.60000610352</ele>
        <time>2023-12-17T09:42:39.000Z</time>
      </trkpt>
      <trkpt lat="44.87066" lon="4.80986">
        <ele>260.20001220703</ele>
        <time>2023-12-17T09:42:41.000Z</time>
      </trkpt>
      <trkpt lat="44.87065" lon="4.8098">
        <ele>260.79998779297</ele>
        <time>2023-12-17T09:42:43.000Z</time>
      </trkpt>
      <trkpt lat="44.87061" lon="4.8097">
        <ele>262</ele>
        <time>2023-12-17T09:42:47.000Z</time>
      </trkpt>
      <trkpt lat="44.87054" lon="4.80952">
        <ele>262.39999389648</ele>
        <time>2023-12-17T09:42:52.000Z</time>
      </trkpt>
      <trkpt lat="44.87049" lon="4.8094">
        <ele>263</ele>
        <time>2023-12-17T09:42:55.000Z</time>
      </trkpt>
      <trkpt lat="44.87042" lon="4.80921">
        <ele>263.79998779297</ele>
        <time>2023-12-17T09:42:59.000Z</time>
      </trkpt>
      <trkpt lat="44.87041" lon="4.80917">
        <ele>264.39999389648</ele>
        <time>2023-12-17T09:43:00.000Z</time>
      </trkpt>
      <trkpt lat="44.87036" lon="4.80905">
        <ele>265.39999389648</ele>
        <time>2023-12-17T09:43:03.000Z</time>
      </trkpt>
      <trkpt lat="44.87031" lon="4.80884">
        <ele>266.60000610352</ele>
        <time>2023-12-17T09:43:08.000Z</time>
      </trkpt>
      <trkpt lat="44.8703" lon="4.8088">
        <ele>266.79998779297</ele>
        <time>2023-12-17T09:43:09.000Z</time>
      </trkpt>
      <trkpt lat="44.87029" lon="4.80873">
        <ele>268.39999389648</ele>
        <time>2023-12-17T09:43:11.000Z</time>
      </trkpt>
      <trkpt lat="44.87029" lon="4.80865">
        <ele>269.79998779297</ele>
        <time>2023-12-17T09:43:13.000Z</time>
      </trkpt>
      <trkpt lat="44.87029" lon="4.80862">
        <ele>270.20001220703</ele>
        <time>2023-12-17T09:43:14.000Z</time>
      </trkpt>
      <trkpt lat="44.87029" lon="4.80859">
        <ele>271.20001220703</ele>
        <time>2023-12-17T09:43:15.000Z</time>
      </trkpt>
      <trkpt lat="44.87029" lon="4.80847">
        <ele>272.79998779297</ele>
        <time>2023-12-17T09:43:18.000Z</time>
      </trkpt>
      <trkpt lat="44.87028" lon="4.80834">
        <ele>273.39999389648</ele>
        <time>2023-12-17T09:43:21.000Z</time>
      </trkpt>
      <trkpt lat="44.87029" lon="4.80826">
        <ele>274</ele>
        <time>2023-12-17T09:43:23.000Z</time>
      </trkpt>
      <trkpt lat="44.87032" lon="4.8081">
        <ele>275</ele>
        <time>2023-12-17T09:43:27.000Z</time>
      </trkpt>
      <trkpt lat="44.87039" lon="4.80794">
        <ele>276.20001220703</ele>
        <time>2023-12-17T09:43:31.000Z</time>
      </trkpt>
      <trkpt lat="44.87045" lon="4.80781">
        <ele>277</ele>
        <time>2023-12-17T09:43:34.000Z</time>
      </trkpt>
      <trkpt lat="44.87048" lon="4.80777">
        <ele>277.60000610352</ele>
        <time>2023-12-17T09:43:35.000Z</time>
      </trkpt>
      <trkpt lat="44.87053" lon="4.8076">
        <ele>279</ele>
        <time>2023-12-17T09:43:39.000Z</time>
      </trkpt>
      <trkpt lat="44.87056" lon="4.80748">
        <ele>280.20001220703</ele>
        <time>2023-12-17T09:43:42.000Z</time>
      </trkpt>
      <trkpt lat="44.87056" lon="4.80743">
        <ele>280.60000610352</ele>
        <time>2023-12-17T09:43:43.000Z</time>
      </trkpt>
      <trkpt lat="44.87058" lon="4.80733">
        <ele>281.60000610352</ele>
        <time>2023-12-17T09:43:45.000Z</time>
      </trkpt>
      <trkpt lat="44.87061" lon="4.80724">
        <ele>282.60000610352</ele>
        <time>2023-12-17T09:43:47.000Z</time>
      </trkpt>
      <trkpt lat="44.87063" lon="4.8072">
        <ele>283</ele>
        <time>2023-12-17T09:43:48.000Z</time>
      </trkpt>
      <trkpt lat="44.87066" lon="4.80716">
        <ele>283.60000610352</ele>
        <time>2023-12-17T09:43:49.000Z</time>
      </trkpt>
      <trkpt lat="44.87077" lon="4.807">
        <ele>285.39999389648</ele>
        <time>2023-12-17T09:43:53.000Z</time>
      </trkpt>
      <trkpt lat="44.87082" lon="4.80692">
        <ele>286.20001220703</ele>
        <time>2023-12-17T09:43:55.000Z</time>
      </trkpt>
      <trkpt lat="44.87085" lon="4.80688">
        <ele>286.79998779297</ele>
        <time>2023-12-17T09:43:56.000Z</time>
      </trkpt>
      <trkpt lat="44.87093" lon="4.80676">
        <ele>288</ele>
        <time>2023-12-17T09:43:59.000Z</time>
      </trkpt>
      <trkpt lat="44.87098" lon="4.80667">
        <ele>288.79998779297</ele>
        <time>2023-12-17T09:44:01.000Z</time>
      </trkpt>
      <trkpt lat="44.871" lon="4.80662">
        <ele>289.20001220703</ele>
        <time>2023-12-17T09:44:02.000Z</time>
      </trkpt>
      <trkpt lat="44.87104" lon="4.80651">
        <ele>290.60000610352</ele>
        <time>2023-12-17T09:44:04.000Z</time>
      </trkpt>
      <trkpt lat="44.87108" lon="4.80641">
        <ele>291.60000610352</ele>
        <time>2023-12-17T09:44:06.000Z</time>
      </trkpt>
      <trkpt lat="44.8711" lon="4.80636">
        <ele>291.79998779297</ele>
        <time>2023-12-17T09:44:07.000Z</time>
      </trkpt>
      <trkpt lat="44.87114" lon="4.80626">
        <ele>292.60000610352</ele>
        <time>2023-12-17T09:44:09.000Z</time>
      </trkpt>
      <trkpt lat="44.87122" lon="4.80608">
        <ele>293.79998779297</ele>
        <time>2023-12-17T09:44:13.000Z</time>
      </trkpt>
      <trkpt lat="44.87125" lon="4.80598">
        <ele>294.60000610352</ele>
        <time>2023-12-17T09:44:15.000Z</time>
      </trkpt>
      <trkpt lat="44.87127" lon="4.80593">
        <ele>295.20001220703</ele>
        <time>2023-12-17T09:44:16.000Z</time>
      </trkpt>
      <trkpt lat="44.87131" lon="4.80579">
        <ele>296.20001220703</ele>
        <time>2023-12-17T09:44:19.000Z</time>
      </trkpt>
      <trkpt lat="44.87133" lon="4.8057">
        <ele>297</ele>
        <time>2023-12-17T09:44:21.000Z</time>
      </trkpt>
      <trkpt lat="44.87133" lon="4.80565">
        <ele>297.39999389648</ele>
        <time>2023-12-17T09:44:22.000Z</time>
      </trkpt>
      <trkpt lat="44.87133" lon="4.80556">
        <ele>298.39999389648</ele>
        <time>2023-12-17T09:44:24.000Z</time>
      </trkpt>
      <trkpt lat="44.87135" lon="4.80544">
        <ele>299.39999389648</ele>
        <time>2023-12-17T09:44:27.000Z</time>
      </trkpt>
      <trkpt lat="44.87135" lon="4.80522">
        <ele>300.60000610352</ele>
        <time>2023-12-17T09:44:32.000Z</time>
      </trkpt>
      <trkpt lat="44.87136" lon="4.80518">
        <ele>300.79998779297</ele>
        <time>2023-12-17T09:44:33.000Z</time>
      </trkpt>
      <trkpt lat="44.87141" lon="4.80498">
        <ele>301.60000610352</ele>
        <time>2023-12-17T09:44:37.000Z</time>
      </trkpt>
      <trkpt lat="44.87144" lon="4.80495">
        <ele>301.79998779297</ele>
        <time>2023-12-17T09:44:38.000Z</time>
      </trkpt>
      <trkpt lat="44.87152" lon="4.80485">
        <ele>302.79998779297</ele>
        <time>2023-12-17T09:44:41.000Z</time>
      </trkpt>
      <trkpt lat="44.8716" lon="4.80476">
        <ele>304</ele>
        <time>2023-12-17T09:44:44.000Z</time>
      </trkpt>
      <trkpt lat="44.87162" lon="4.80472">
        <ele>304.39999389648</ele>
        <time>2023-12-17T09:44:45.000Z</time>
      </trkpt>
      <trkpt lat="44.87168" lon="4.80462">
        <ele>305.39999389648</ele>
        <time>2023-12-17T09:44:48.000Z</time>
      </trkpt>
      <trkpt lat="44.87177" lon="4.80447">
        <ele>306.60000610352</ele>
        <time>2023-12-17T09:44:53.000Z</time>
      </trkpt>
      <trkpt lat="44.87182" lon="4.80436">
        <ele>307.60000610352</ele>
        <time>2023-12-17T09:44:56.000Z</time>
      </trkpt>
      <trkpt lat="44.87187" lon="4.80421">
        <ele>308.79998779297</ele>
        <time>2023-12-17T09:45:00.000Z</time>
      </trkpt>
      <trkpt lat="44.87189" lon="4.80417">
        <ele>309</ele>
        <time>2023-12-17T09:45:01.000Z</time>
      </trkpt>
      <trkpt lat="44.87191" lon="4.8041">
        <ele>309.79998779297</ele>
        <time>2023-12-17T09:45:03.000Z</time>
      </trkpt>
      <trkpt lat="44.87196" lon="4.80395">
        <ele>311</ele>
        <time>2023-12-17T09:45:07.000Z</time>
      </trkpt>
      <trkpt lat="44.87199" lon="4.80388">
        <ele>311.79998779297</ele>
        <time>2023-12-17T09:45:09.000Z</time>
      </trkpt>
      <trkpt lat="44.872" lon="4.80385">
        <ele>312.20001220703</ele>
        <time>2023-12-17T09:45:10.000Z</time>
      </trkpt>
      <trkpt lat="44.87203" lon="4.80374">
        <ele>313.39999389648</ele>
        <time>2023-12-17T09:45:13.000Z</time>
      </trkpt>
      <trkpt lat="44.87206" lon="4.80363">
        <ele>314</ele>
        <time>2023-12-17T09:45:16.000Z</time>
      </trkpt>
      <trkpt lat="44.87207" lon="4.80359">
        <ele>314.39999389648</ele>
        <time>2023-12-17T09:45:17.000Z</time>
      </trkpt>
      <trkpt lat="44.87211" lon="4.8035">
        <ele>315.79998779297</ele>
        <time>2023-12-17T09:45:20.000Z</time>
      </trkpt>
      <trkpt lat="44.87213" lon="4.80344">
        <ele>316.39999389648</ele>
        <time>2023-12-17T09:45:22.000Z</time>
      </trkpt>
      <trkpt lat="44.87215" lon="4.80341">
        <ele>316.79998779297</ele>
        <time>2023-12-17T09:45:23.000Z</time>
      </trkpt>
      <trkpt lat="44.87218" lon="4.80327">
        <ele>318</ele>
        <time>2023-12-17T09:45:27.000Z</time>
      </trkpt>
      <trkpt lat="44.8722" lon="4.8032">
        <ele>318.60000610352</ele>
        <time>2023-12-17T09:45:29.000Z</time>
      </trkpt>
      <trkpt lat="44.87223" lon="4.80314">
        <ele>319</ele>
        <time>2023-12-17T09:45:31.000Z</time>
      </trkpt>
      <trkpt lat="44.87228" lon="4.80294">
        <ele>320</ele>
        <time>2023-12-17T09:45:36.000Z</time>
      </trkpt>
      <trkpt lat="44.87229" lon="4.8029">
        <ele>320.20001220703</ele>
        <time>2023-12-17T09:45:37.000Z</time>
      </trkpt>
      <trkpt lat="44.87234" lon="4.80271">
        <ele>321.20001220703</ele>
        <time>2023-12-17T09:45:42.000Z</time>
      </trkpt>
      <trkpt lat="44.87234" lon="4.80267">
        <ele>321.20001220703</ele>
        <time>2023-12-17T09:45:43.000Z</time>
      </trkpt>
      <trkpt lat="44.87239" lon="4.80247">
        <ele>322.20001220703</ele>
        <time>2023-12-17T09:45:48.000Z</time>
      </trkpt>
      <trkpt lat="44.87247" lon="4.80238">
        <ele>323.60000610352</ele>
        <time>2023-12-17T09:45:51.000Z</time>
      </trkpt>
      <trkpt lat="44.8725" lon="4.80236">
        <ele>323.79998779297</ele>
        <time>2023-12-17T09:45:52.000Z</time>
      </trkpt>
      <trkpt lat="44.87257" lon="4.80234">
        <ele>324.79998779297</ele>
        <time>2023-12-17T09:45:55.000Z</time>
      </trkpt>
      <trkpt lat="44.87264" lon="4.80235">
        <ele>325.20001220703</ele>
        <time>2023-12-17T09:45:57.000Z</time>
      </trkpt>
      <trkpt lat="44.8727" lon="4.80236">
        <ele>325.79998779297</ele>
        <time>2023-12-17T09:45:59.000Z</time>
      </trkpt>
      <trkpt lat="44.87279" lon="4.80236">
        <ele>327</ele>
        <time>2023-12-17T09:46:02.000Z</time>
      </trkpt>
      <trkpt lat="44.87286" lon="4.80234">
        <ele>327.79998779297</ele>
        <time>2023-12-17T09:46:04.000Z</time>
      </trkpt>
      <trkpt lat="44.87289" lon="4.80233">
        <ele>328.39999389648</ele>
        <time>2023-12-17T09:46:05.000Z</time>
      </trkpt>
      <trkpt lat="44.87298" lon="4.80227">
        <ele>329.39999389648</ele>
        <time>2023-12-17T09:46:08.000Z</time>
      </trkpt>
      <trkpt lat="44.87311" lon="4.8022">
        <ele>330.60000610352</ele>
        <time>2023-12-17T09:46:12.000Z</time>
      </trkpt>
      <trkpt lat="44.87322" lon="4.80212">
        <ele>332.20001220703</ele>
        <time>2023-12-17T09:46:16.000Z</time>
      </trkpt>
      <trkpt lat="44.87327" lon="4.80208">
        <ele>332.79998779297</ele>
        <time>2023-12-17T09:46:18.000Z</time>
      </trkpt>
      <trkpt lat="44.87333" lon="4.80203">
        <ele>333.39999389648</ele>
        <time>2023-12-17T09:46:20.000Z</time>
      </trkpt>
      <trkpt lat="44.87338" lon="4.80201">
        <ele>334</ele>
        <time>2023-12-17T09:46:23.000Z</time>
      </trkpt>
      <trkpt lat="44.8734" lon="4.802">
        <ele>334.39999389648</ele>
        <time>2023-12-17T09:46:24.000Z</time>
      </trkpt>
      <trkpt lat="44.87347" lon="4.80196">
        <ele>334.79998779297</ele>
        <time>2023-12-17T09:46:28.000Z</time>
      </trkpt>
      <trkpt lat="44.8735" lon="4.80194">
        <ele>335</ele>
        <time>2023-12-17T09:46:29.000Z</time>
      </trkpt>
      <trkpt lat="44.87365" lon="4.80181">
        <ele>335</ele>
        <time>2023-12-17T09:46:34.000Z</time>
      </trkpt>
      <trkpt lat="44.87372" lon="4.80175">
        <ele>335.20001220703</ele>
        <time>2023-12-17T09:46:36.000Z</time>
      </trkpt>
      <trkpt lat="44.87383" lon="4.80168">
        <ele>335.20001220703</ele>
        <time>2023-12-17T09:46:39.000Z</time>
      </trkpt>
      <trkpt lat="44.87399" lon="4.80158">
        <ele>335</ele>
        <time>2023-12-17T09:46:45.000Z</time>
      </trkpt>
      <trkpt lat="44.87421" lon="4.8015">
        <ele>335.60000610352</ele>
        <time>2023-12-17T09:46:51.000Z</time>
      </trkpt>
      <trkpt lat="44.87435" lon="4.80137">
        <ele>335.60000610352</ele>
        <time>2023-12-17T09:46:55.000Z</time>
      </trkpt>
      <trkpt lat="44.8745" lon="4.80127">
        <ele>335</ele>
        <time>2023-12-17T09:46:58.000Z</time>
      </trkpt>
      <trkpt lat="44.87463" lon="4.80121">
        <ele>334.20001220703</ele>
        <time>2023-12-17T09:47:00.000Z</time>
      </trkpt>
      <trkpt lat="44.87469" lon="4.80118">
        <ele>333.79998779297</ele>
        <time>2023-12-17T09:47:01.000Z</time>
      </trkpt>
      <trkpt lat="44.87481" lon="4.80112">
        <ele>333</ele>
        <time>2023-12-17T09:47:03.000Z</time>
      </trkpt>
      <trkpt lat="44.87489" lon="4.80109">
        <ele>332.39999389648</ele>
        <time>2023-12-17T09:47:05.000Z</time>
      </trkpt>
      <trkpt lat="44.875" lon="4.80108">
        <ele>332</ele>
        <time>2023-12-17T09:47:11.000Z</time>
      </trkpt>
      <trkpt lat="44.87501" lon="4.80108">
        <ele>332</ele>
        <time>2023-12-17T09:47:12.000Z</time>
      </trkpt>
      <trkpt lat="44.87506" lon="4.80108">
        <ele>331.79998779297</ele>
        <time>2023-12-17T09:47:18.000Z</time>
      </trkpt>
      <trkpt lat="44.87509" lon="4.80107">
        <ele>331.79998779297</ele>
        <time>2023-12-17T09:47:21.000Z</time>
      </trkpt>
      <trkpt lat="44.87514" lon="4.80105">
        <ele>331.20001220703</ele>
        <time>2023-12-17T09:47:24.000Z</time>
      </trkpt>
      <trkpt lat="44.87518" lon="4.80107">
        <ele>331</ele>
        <time>2023-12-17T09:47:26.000Z</time>
      </trkpt>
      <trkpt lat="44.87518" lon="4.80111">
        <ele>330.79998779297</ele>
        <time>2023-12-17T09:47:27.000Z</time>
      </trkpt>
      <trkpt lat="44.87518" lon="4.80117">
        <ele>330.79998779297</ele>
        <time>2023-12-17T09:47:28.000Z</time>
      </trkpt>
      <trkpt lat="44.87514" lon="4.80128">
        <ele>331</ele>
        <time>2023-12-17T09:47:30.000Z</time>
      </trkpt>
      <trkpt lat="44.87508" lon="4.80138">
        <ele>332</ele>
        <time>2023-12-17T09:47:33.000Z</time>
      </trkpt>
      <trkpt lat="44.87506" lon="4.80141">
        <ele>332.39999389648</ele>
        <time>2023-12-17T09:47:34.000Z</time>
      </trkpt>
      <trkpt lat="44.87504" lon="4.80145">
        <ele>333</ele>
        <time>2023-12-17T09:47:35.000Z</time>
      </trkpt>
      <trkpt lat="44.87497" lon="4.80166">
        <ele>334.20001220703</ele>
        <time>2023-12-17T09:47:39.000Z</time>
      </trkpt>
      <trkpt lat="44.87494" lon="4.80177">
        <ele>335.79998779297</ele>
        <time>2023-12-17T09:47:41.000Z</time>
      </trkpt>
      <trkpt lat="44.87491" lon="4.80188">
        <ele>336.79998779297</ele>
        <time>2023-12-17T09:47:43.000Z</time>
      </trkpt>
      <trkpt lat="44.8749" lon="4.80194">
        <ele>338</ele>
        <time>2023-12-17T09:47:44.000Z</time>
      </trkpt>
      <trkpt lat="44.87488" lon="4.80202">
        <ele>339.39999389648</ele>
        <time>2023-12-17T09:47:46.000Z</time>
      </trkpt>
      <trkpt lat="44.87486" lon="4.80209">
        <ele>340.60000610352</ele>
        <time>2023-12-17T09:47:48.000Z</time>
      </trkpt>
      <trkpt lat="44.87484" lon="4.80216">
        <ele>342</ele>
        <time>2023-12-17T09:47:50.000Z</time>
      </trkpt>
      <trkpt lat="44.87483" lon="4.80222">
        <ele>342.79998779297</ele>
        <time>2023-12-17T09:47:52.000Z</time>
      </trkpt>
      <trkpt lat="44.87481" lon="4.80226">
        <ele>343</ele>
        <time>2023-12-17T09:47:53.000Z</time>
      </trkpt>
      <trkpt lat="44.87478" lon="4.80235">
        <ele>344.60000610352</ele>
        <time>2023-12-17T09:47:56.000Z</time>
      </trkpt>
      <trkpt lat="44.87475" lon="4.80243">
        <ele>346.20001220703</ele>
        <time>2023-12-17T09:47:59.000Z</time>
      </trkpt>
      <trkpt lat="44.87473" lon="4.8025">
        <ele>347.79998779297</ele>
        <time>2023-12-17T09:48:01.000Z</time>
      </trkpt>
      <trkpt lat="44.87471" lon="4.80256">
        <ele>349</ele>
        <time>2023-12-17T09:48:03.000Z</time>
      </trkpt>
      <trkpt lat="44.87469" lon="4.80262">
        <ele>349.39999389648</ele>
        <time>2023-12-17T09:48:05.000Z</time>
      </trkpt>
      <trkpt lat="44.87466" lon="4.80271">
        <ele>350</ele>
        <time>2023-12-17T09:48:08.000Z</time>
      </trkpt>
      <trkpt lat="44.87464" lon="4.80276">
        <ele>351.20001220703</ele>
        <time>2023-12-17T09:48:10.000Z</time>
      </trkpt>
      <trkpt lat="44.87463" lon="4.80279">
        <ele>351.60000610352</ele>
        <time>2023-12-17T09:48:11.000Z</time>
      </trkpt>
      <trkpt lat="44.87461" lon="4.80285">
        <ele>352.39999389648</ele>
        <time>2023-12-17T09:48:13.000Z</time>
      </trkpt>
      <trkpt lat="44.87456" lon="4.80293">
        <ele>353.60000610352</ele>
        <time>2023-12-17T09:48:16.000Z</time>
      </trkpt>
      <trkpt lat="44.87456" lon="4.80295">
        <ele>353.79998779297</ele>
        <time>2023-12-17T09:48:17.000Z</time>
      </trkpt>
      <trkpt lat="44.87452" lon="4.80303">
        <ele>355</ele>
        <time>2023-12-17T09:48:20.000Z</time>
      </trkpt>
      <trkpt lat="44.87449" lon="4.80309">
        <ele>356.39999389648</ele>
        <time>2023-12-17T09:48:22.000Z</time>
      </trkpt>
      <trkpt lat="44.87445" lon="4.80319">
        <ele>357.79998779297</ele>
        <time>2023-12-17T09:48:25.000Z</time>
      </trkpt>
      <trkpt lat="44.87439" lon="4.80333">
        <ele>359</ele>
        <time>2023-12-17T09:48:29.000Z</time>
      </trkpt>
      <trkpt lat="44.87435" lon="4.80343">
        <ele>361</ele>
        <time>2023-12-17T09:48:32.000Z</time>
      </trkpt>
      <trkpt lat="44.87433" lon="4.80347">
        <ele>362</ele>
        <time>2023-12-17T09:48:33.000Z</time>
      </trkpt>
      <trkpt lat="44.87432" lon="4.8035">
        <ele>363</ele>
        <time>2023-12-17T09:48:34.000Z</time>
      </trkpt>
      <trkpt lat="44.8743" lon="4.80353">
        <ele>363.60000610352</ele>
        <time>2023-12-17T09:48:35.000Z</time>
      </trkpt>
      <trkpt lat="44.87425" lon="4.80366">
        <ele>365</ele>
        <time>2023-12-17T09:48:39.000Z</time>
      </trkpt>
      <trkpt lat="44.87423" lon="4.8037">
        <ele>365.20001220703</ele>
        <time>2023-12-17T09:48:40.000Z</time>
      </trkpt>
      <trkpt lat="44.87417" lon="4.80384">
        <ele>366.20001220703</ele>
        <time>2023-12-17T09:48:44.000Z</time>
      </trkpt>
      <trkpt lat="44.87413" lon="4.80394">
        <ele>367</ele>
        <time>2023-12-17T09:48:47.000Z</time>
      </trkpt>
      <trkpt lat="44.87412" lon="4.80398">
        <ele>367.20001220703</ele>
        <time>2023-12-17T09:48:48.000Z</time>
      </trkpt>
      <trkpt lat="44.87407" lon="4.80408">
        <ele>368.39999389648</ele>
        <time>2023-12-17T09:48:51.000Z</time>
      </trkpt>
      <trkpt lat="44.87406" lon="4.80415">
        <ele>370</ele>
        <time>2023-12-17T09:48:53.000Z</time>
      </trkpt>
      <trkpt lat="44.87404" lon="4.80418">
        <ele>370.60000610352</ele>
        <time>2023-12-17T09:48:54.000Z</time>
      </trkpt>
      <trkpt lat="44.87403" lon="4.80421">
        <ele>371.20001220703</ele>
        <time>2023-12-17T09:48:55.000Z</time>
      </trkpt>
      <trkpt lat="44.87399" lon="4.80431">
        <ele>372.39999389648</ele>
        <time>2023-12-17T09:48:58.000Z</time>
      </trkpt>
      <trkpt lat="44.87394" lon="4.8044">
        <ele>373.20001220703</ele>
        <time>2023-12-17T09:49:01.000Z</time>
      </trkpt>
      <trkpt lat="44.87392" lon="4.80443">
        <ele>373.79998779297</ele>
        <time>2023-12-17T09:49:02.000Z</time>
      </trkpt>
      <trkpt lat="44.87392" lon="4.80446">
        <ele>374.39999389648</ele>
        <time>2023-12-17T09:49:03.000Z</time>
      </trkpt>
      <trkpt lat="44.87394" lon="4.80448">
        <ele>374.79998779297</ele>
        <time>2023-12-17T09:49:05.000Z</time>
      </trkpt>
      <trkpt lat="44.87405" lon="4.80438">
        <ele>376.39999389648</ele>
        <time>2023-12-17T09:49:10.000Z</time>
      </trkpt>
      <trkpt lat="44.87408" lon="4.80434">
        <ele>377.60000610352</ele>
        <time>2023-12-17T09:49:12.000Z</time>
      </trkpt>
      <trkpt lat="44.87414" lon="4.80431">
        <ele>378.60000610352</ele>
        <time>2023-12-17T09:49:16.000Z</time>
      </trkpt>
      <trkpt lat="44.87424" lon="4.80424">
        <ele>379.60000610352</ele>
        <time>2023-12-17T09:49:21.000Z</time>
      </trkpt>
      <trkpt lat="44.87426" lon="4.80423">
        <ele>380</ele>
        <time>2023-12-17T09:49:22.000Z</time>
      </trkpt>
      <trkpt lat="44.87428" lon="4.80421">
        <ele>380.79998779297</ele>
        <time>2023-12-17T09:49:23.000Z</time>
      </trkpt>
      <trkpt lat="44.87432" lon="4.80417">
        <ele>382.20001220703</ele>
        <time>2023-12-17T09:49:25.000Z</time>
      </trkpt>
      <trkpt lat="44.87435" lon="4.80415">
        <ele>383.20001220703</ele>
        <time>2023-12-17T09:49:27.000Z</time>
      </trkpt>
      <trkpt lat="44.87437" lon="4.80414">
        <ele>383.60000610352</ele>
        <time>2023-12-17T09:49:28.000Z</time>
      </trkpt>
      <trkpt lat="44.87441" lon="4.80413">
        <ele>384.20001220703</ele>
        <time>2023-12-17T09:49:30.000Z</time>
      </trkpt>
      <trkpt lat="44.87443" lon="4.80414">
        <ele>384.39999389648</ele>
        <time>2023-12-17T09:49:31.000Z</time>
      </trkpt>
      <trkpt lat="44.87446" lon="4.80415">
        <ele>385.39999389648</ele>
        <time>2023-12-17T09:49:33.000Z</time>
      </trkpt>
      <trkpt lat="44.87447" lon="4.80415">
        <ele>385.60000610352</ele>
        <time>2023-12-17T09:49:34.000Z</time>
      </trkpt>
      <trkpt lat="44.87454" lon="4.80413">
        <ele>387.20001220703</ele>
        <time>2023-12-17T09:49:38.000Z</time>
      </trkpt>
      <trkpt lat="44.87456" lon="4.80412">
        <ele>387.60000610352</ele>
        <time>2023-12-17T09:49:39.000Z</time>
      </trkpt>
      <trkpt lat="44.87459" lon="4.80411">
        <ele>388.39999389648</ele>
        <time>2023-12-17T09:49:41.000Z</time>
      </trkpt>
      <trkpt lat="44.87467" lon="4.80405">
        <ele>389.60000610352</ele>
        <time>2023-12-17T09:49:45.000Z</time>
      </trkpt>
      <trkpt lat="44.87473" lon="4.80402">
        <ele>390.79998779297</ele>
        <time>2023-12-17T09:49:48.000Z</time>
      </trkpt>
      <trkpt lat="44.87477" lon="4.80401">
        <ele>391.60000610352</ele>
        <time>2023-12-17T09:49:50.000Z</time>
      </trkpt>
      <trkpt lat="44.87478" lon="4.804">
        <ele>391.79998779297</ele>
        <time>2023-12-17T09:49:51.000Z</time>
      </trkpt>
      <trkpt lat="44.87485" lon="4.80394">
        <ele>393.20001220703</ele>
        <time>2023-12-17T09:49:55.000Z</time>
      </trkpt>
      <trkpt lat="44.87497" lon="4.80388">
        <ele>394.39999389648</ele>
        <time>2023-12-17T09:50:00.000Z</time>
      </trkpt>
      <trkpt lat="44.87504" lon="4.80384">
        <ele>396.39999389648</ele>
        <time>2023-12-17T09:50:03.000Z</time>
      </trkpt>
      <trkpt lat="44.87509" lon="4.80382">
        <ele>397.79998779297</ele>
        <time>2023-12-17T09:50:05.000Z</time>
      </trkpt>
      <trkpt lat="44.87513" lon="4.80381">
        <ele>399</ele>
        <time>2023-12-17T09:50:07.000Z</time>
      </trkpt>
      <trkpt lat="44.8752" lon="4.80379">
        <ele>400</ele>
        <time>2023-12-17T09:50:10.000Z</time>
      </trkpt>
      <trkpt lat="44.87525" lon="4.80377">
        <ele>401.20001220703</ele>
        <time>2023-12-17T09:50:12.000Z</time>
      </trkpt>
      <trkpt lat="44.87529" lon="4.80375">
        <ele>402.20001220703</ele>
        <time>2023-12-17T09:50:14.000Z</time>
      </trkpt>
      <trkpt lat="44.87534" lon="4.80374">
        <ele>403.20001220703</ele>
        <time>2023-12-17T09:50:16.000Z</time>
      </trkpt>
      <trkpt lat="44.87536" lon="4.80373">
        <ele>403.39999389648</ele>
        <time>2023-12-17T09:50:17.000Z</time>
      </trkpt>
      <trkpt lat="44.8754" lon="4.80372">
        <ele>404.20001220703</ele>
        <time>2023-12-17T09:50:20.000Z</time>
      </trkpt>
      <trkpt lat="44.87541" lon="4.80371">
        <ele>404.39999389648</ele>
        <time>2023-12-17T09:50:21.000Z</time>
      </trkpt>
      <trkpt lat="44.87542" lon="4.8037">
        <ele>404.79998779297</ele>
        <time>2023-12-17T09:50:22.000Z</time>
      </trkpt>
      <trkpt lat="44.87544" lon="4.80373">
        <ele>405.79998779297</ele>
        <time>2023-12-17T09:50:25.000Z</time>
      </trkpt>
      <trkpt lat="44.87544" lon="4.80374">
        <ele>406</ele>
        <time>2023-12-17T09:50:26.000Z</time>
      </trkpt>
      <trkpt lat="44.87539" lon="4.80383">
        <ele>406.79998779297</ele>
        <time>2023-12-17T09:50:30.000Z</time>
      </trkpt>
      <trkpt lat="44.87537" lon="4.80391">
        <ele>407</ele>
        <time>2023-12-17T09:50:32.000Z</time>
      </trkpt>
      <trkpt lat="44.87533" lon="4.80404">
        <ele>408.39999389648</ele>
        <time>2023-12-17T09:50:36.000Z</time>
      </trkpt>
      <trkpt lat="44.8753" lon="4.80411">
        <ele>409.79998779297</ele>
        <time>2023-12-17T09:50:38.000Z</time>
      </trkpt>
      <trkpt lat="44.87527" lon="4.80422">
        <ele>411.20001220703</ele>
        <time>2023-12-17T09:50:41.000Z</time>
      </trkpt>
      <trkpt lat="44.87526" lon="4.80426">
        <ele>411.60000610352</ele>
        <time>2023-12-17T09:50:42.000Z</time>
      </trkpt>
      <trkpt lat="44.87526" lon="4.80434">
        <ele>412.60000610352</ele>
        <time>2023-12-17T09:50:44.000Z</time>
      </trkpt>
      <trkpt lat="44.87526" lon="4.80443">
        <ele>413.20001220703</ele>
        <time>2023-12-17T09:50:46.000Z</time>
      </trkpt>
      <trkpt lat="44.87523" lon="4.80451">
        <ele>414</ele>
        <time>2023-12-17T09:50:48.000Z</time>
      </trkpt>
      <trkpt lat="44.87521" lon="4.80465">
        <ele>414.79998779297</ele>
        <time>2023-12-17T09:50:51.000Z</time>
      </trkpt>
      <trkpt lat="44.87521" lon="4.80469">
        <ele>415</ele>
        <time>2023-12-17T09:50:52.000Z</time>
      </trkpt>
      <trkpt lat="44.87518" lon="4.8048">
        <ele>416.60000610352</ele>
        <time>2023-12-17T09:50:55.000Z</time>
      </trkpt>
      <trkpt lat="44.87516" lon="4.80489">
        <ele>417</ele>
        <time>2023-12-17T09:50:57.000Z</time>
      </trkpt>
      <trkpt lat="44.87513" lon="4.80502">
        <ele>417.79998779297</ele>
        <time>2023-12-17T09:51:00.000Z</time>
      </trkpt>
      <trkpt lat="44.87508" lon="4.80512">
        <ele>418.20001220703</ele>
        <time>2023-12-17T09:51:03.000Z</time>
      </trkpt>
      <trkpt lat="44.87506" lon="4.80516">
        <ele>419.20001220703</ele>
        <time>2023-12-17T09:51:04.000Z</time>
      </trkpt>
      <trkpt lat="44.875" lon="4.80531">
        <ele>420.20001220703</ele>
        <time>2023-12-17T09:51:08.000Z</time>
      </trkpt>
      <trkpt lat="44.87491" lon="4.80548">
        <ele>419.60000610352</ele>
        <time>2023-12-17T09:51:13.000Z</time>
      </trkpt>
      <trkpt lat="44.8749" lon="4.80549">
        <ele>419.20001220703</ele>
        <time>2023-12-17T09:51:15.000Z</time>
      </trkpt>
      <trkpt lat="44.87488" lon="4.80552">
        <ele>418.79998779297</ele>
        <time>2023-12-17T09:51:19.000Z</time>
      </trkpt>
      <trkpt lat="44.87489" lon="4.80553">
        <ele>418.60000610352</ele>
        <time>2023-12-17T09:51:30.000Z</time>
      </trkpt>
      <trkpt lat="44.87489" lon="4.80554">
        <ele>418.60000610352</ele>
        <time>2023-12-17T09:51:38.000Z</time>
      </trkpt>
      <trkpt lat="44.8749" lon="4.80556">
        <ele>418.39999389648</ele>
        <time>2023-12-17T09:51:46.000Z</time>
      </trkpt>
      <trkpt lat="44.87489" lon="4.80555">
        <ele>418.39999389648</ele>
        <time>2023-12-17T09:51:54.000Z</time>
      </trkpt>
      <trkpt lat="44.87489" lon="4.80555">
        <ele>418</ele>
        <time>2023-12-17T09:52:06.000Z</time>
      </trkpt>
      <trkpt lat="44.8749" lon="4.80555">
        <ele>417.79998779297</ele>
        <time>2023-12-17T09:52:09.000Z</time>
      </trkpt>
      <trkpt lat="44.87489" lon="4.80554">
        <ele>417.60000610352</ele>
        <time>2023-12-17T09:52:22.000Z</time>
      </trkpt>
      <trkpt lat="44.87489" lon="4.80554">
        <ele>417.79998779297</ele>
        <time>2023-12-17T09:52:24.000Z</time>
      </trkpt>
      <trkpt lat="44.87488" lon="4.80553">
        <ele>418</ele>
        <time>2023-12-17T09:52:28.000Z</time>
      </trkpt>
      <trkpt lat="44.87489" lon="4.80551">
        <ele>418</ele>
        <time>2023-12-17T09:52:30.000Z</time>
      </trkpt>
      <trkpt lat="44.87493" lon="4.80543">
        <ele>418.20001220703</ele>
        <time>2023-12-17T09:52:34.000Z</time>
      </trkpt>
      <trkpt lat="44.87502" lon="4.80524">
        <ele>418.39999389648</ele>
        <time>2023-12-17T09:52:38.000Z</time>
      </trkpt>
      <trkpt lat="44.87507" lon="4.80513">
        <ele>418.39999389648</ele>
        <time>2023-12-17T09:52:40.000Z</time>
      </trkpt>
      <trkpt lat="44.87511" lon="4.80498">
        <ele>418.20001220703</ele>
        <time>2023-12-17T09:52:42.000Z</time>
      </trkpt>
      <trkpt lat="44.87515" lon="4.80484">
        <ele>416.20001220703</ele>
        <time>2023-12-17T09:52:44.000Z</time>
      </trkpt>
      <trkpt lat="44.8752" lon="4.80472">
        <ele>414.79998779297</ele>
        <time>2023-12-17T09:52:46.000Z</time>
      </trkpt>
      <trkpt lat="44.87527" lon="4.80449">
        <ele>413.39999389648</ele>
        <time>2023-12-17T09:52:49.000Z</time>
      </trkpt>
      <trkpt lat="44.87529" lon="4.8044">
        <ele>412.39999389648</ele>
        <time>2023-12-17T09:52:50.000Z</time>
      </trkpt>
      <trkpt lat="44.87531" lon="4.80431">
        <ele>411.79998779297</ele>
        <time>2023-12-17T09:52:51.000Z</time>
      </trkpt>
      <trkpt lat="44.87542" lon="4.80402">
        <ele>409.60000610352</ele>
        <time>2023-12-17T09:52:54.000Z</time>
      </trkpt>
      <trkpt lat="44.87545" lon="4.80393">
        <ele>408.39999389648</ele>
        <time>2023-12-17T09:52:55.000Z</time>
      </trkpt>
      <trkpt lat="44.87548" lon="4.80385">
        <ele>407.20001220703</ele>
        <time>2023-12-17T09:52:57.000Z</time>
      </trkpt>
      <trkpt lat="44.87548" lon="4.80381">
        <ele>406.39999389648</ele>
        <time>2023-12-17T09:53:01.000Z</time>
      </trkpt>
      <trkpt lat="44.87548" lon="4.8038">
        <ele>406.39999389648</ele>
        <time>2023-12-17T09:53:02.000Z</time>
      </trkpt>
      <trkpt lat="44.87548" lon="4.80377">
        <ele>406.20001220703</ele>
        <time>2023-12-17T09:53:05.000Z</time>
      </trkpt>
      <trkpt lat="44.8755" lon="4.80374">
        <ele>406</ele>
        <time>2023-12-17T09:53:07.000Z</time>
      </trkpt>
      <trkpt lat="44.87562" lon="4.80365">
        <ele>407.39999389648</ele>
        <time>2023-12-17T09:53:12.000Z</time>
      </trkpt>
      <trkpt lat="44.87569" lon="4.80361">
        <ele>409</ele>
        <time>2023-12-17T09:53:14.000Z</time>
      </trkpt>
      <trkpt lat="44.87577" lon="4.80355">
        <ele>411.39999389648</ele>
        <time>2023-12-17T09:53:17.000Z</time>
      </trkpt>
      <trkpt lat="44.87581" lon="4.80353">
        <ele>413.39999389648</ele>
        <time>2023-12-17T09:53:19.000Z</time>
      </trkpt>
      <trkpt lat="44.87589" lon="4.8035">
        <ele>414.79998779297</ele>
        <time>2023-12-17T09:53:22.000Z</time>
      </trkpt>
      <trkpt lat="44.87592" lon="4.8035">
        <ele>415.20001220703</ele>
        <time>2023-12-17T09:53:23.000Z</time>
      </trkpt>
      <trkpt lat="44.87605" lon="4.80345">
        <ele>416.39999389648</ele>
        <time>2023-12-17T09:53:27.000Z</time>
      </trkpt>
      <trkpt lat="44.87609" lon="4.80344">
        <ele>417.60000610352</ele>
        <time>2023-12-17T09:53:28.000Z</time>
      </trkpt>
      <trkpt lat="44.87613" lon="4.80341">
        <ele>418.60000610352</ele>
        <time>2023-12-17T09:53:29.000Z</time>
      </trkpt>
      <trkpt lat="44.87623" lon="4.80332">
        <ele>419.79998779297</ele>
        <time>2023-12-17T09:53:32.000Z</time>
      </trkpt>
      <trkpt lat="44.87626" lon="4.8033">
        <ele>421.79998779297</ele>
        <time>2023-12-17T09:53:33.000Z</time>
      </trkpt>
      <trkpt lat="44.87629" lon="4.80328">
        <ele>422.79998779297</ele>
        <time>2023-12-17T09:53:34.000Z</time>
      </trkpt>
      <trkpt lat="44.87633" lon="4.80328">
        <ele>423.39999389648</ele>
        <time>2023-12-17T09:53:35.000Z</time>
      </trkpt>
      <trkpt lat="44.87642" lon="4.80325">
        <ele>424</ele>
        <time>2023-12-17T09:53:37.000Z</time>
      </trkpt>
      <trkpt lat="44.87653" lon="4.80319">
        <ele>425.20001220703</ele>
        <time>2023-12-17T09:53:40.000Z</time>
      </trkpt>
      <trkpt lat="44.8766" lon="4.80313">
        <ele>426.39999389648</ele>
        <time>2023-12-17T09:53:42.000Z</time>
      </trkpt>
      <trkpt lat="44.87671" lon="4.80305">
        <ele>427.79998779297</ele>
        <time>2023-12-17T09:53:45.000Z</time>
      </trkpt>
      <trkpt lat="44.87677" lon="4.80302">
        <ele>429</ele>
        <time>2023-12-17T09:53:47.000Z</time>
      </trkpt>
      <trkpt lat="44.87678" lon="4.80302">
        <ele>429.60000610352</ele>
        <time>2023-12-17T09:53:48.000Z</time>
      </trkpt>
      <trkpt lat="44.87678" lon="4.80302">
        <ele>430</ele>
        <time>2023-12-17T09:53:49.000Z</time>
      </trkpt>
      <trkpt lat="44.87678" lon="4.80301">
        <ele>430.60000610352</ele>
        <time>2023-12-17T09:53:58.000Z</time>
      </trkpt>
      <trkpt lat="44.87678" lon="4.80302">
        <ele>430.39999389648</ele>
        <time>2023-12-17T09:53:59.000Z</time>
      </trkpt>
      <trkpt lat="44.87672" lon="4.80308">
        <ele>429.79998779297</ele>
        <time>2023-12-17T09:54:03.000Z</time>
      </trkpt>
      <trkpt lat="44.87659" lon="4.80317">
        <ele>429</ele>
        <time>2023-12-17T09:54:07.000Z</time>
      </trkpt>
      <trkpt lat="44.8765" lon="4.80324">
        <ele>428.20001220703</ele>
        <time>2023-12-17T09:54:09.000Z</time>
      </trkpt>
      <trkpt lat="44.87644" lon="4.80326">
        <ele>427.79998779297</ele>
        <time>2023-12-17T09:54:10.000Z</time>
      </trkpt>
      <trkpt lat="44.87637" lon="4.80327">
        <ele>427.79998779297</ele>
        <time>2023-12-17T09:54:11.000Z</time>
      </trkpt>
      <trkpt lat="44.87623" lon="4.8033">
        <ele>427.20001220703</ele>
        <time>2023-12-17T09:54:13.000Z</time>
      </trkpt>
      <trkpt lat="44.87617" lon="4.80334">
        <ele>426</ele>
        <time>2023-12-17T09:54:14.000Z</time>
      </trkpt>
      <trkpt lat="44.87611" lon="4.80338">
        <ele>423.79998779297</ele>
        <time>2023-12-17T09:54:15.000Z</time>
      </trkpt>
      <trkpt lat="44.87605" lon="4.80343">
        <ele>422.20001220703</ele>
        <time>2023-12-17T09:54:16.000Z</time>
      </trkpt>
      <trkpt lat="44.87599" lon="4.80345">
        <ele>419.39999389648</ele>
        <time>2023-12-17T09:54:17.000Z</time>
      </trkpt>
      <trkpt lat="44.87592" lon="4.80347">
        <ele>417</ele>
        <time>2023-12-17T09:54:18.000Z</time>
      </trkpt>
      <trkpt lat="44.87587" lon="4.8035">
        <ele>416</ele>
        <time>2023-12-17T09:54:19.000Z</time>
      </trkpt>
      <trkpt lat="44.87581" lon="4.80352">
        <ele>414.79998779297</ele>
        <time>2023-12-17T09:54:20.000Z</time>
      </trkpt>
      <trkpt lat="44.87576" lon="4.80355">
        <ele>414.20001220703</ele>
        <time>2023-12-17T09:54:21.000Z</time>
      </trkpt>
      <trkpt lat="44.87572" lon="4.80357">
        <ele>413.39999389648</ele>
        <time>2023-12-17T09:54:22.000Z</time>
      </trkpt>
      <trkpt lat="44.87569" lon="4.80358">
        <ele>412.60000610352</ele>
        <time>2023-12-17T09:54:23.000Z</time>
      </trkpt>
      <trkpt lat="44.87567" lon="4.80359">
        <ele>412.20001220703</ele>
        <time>2023-12-17T09:54:24.000Z</time>
      </trkpt>
      <trkpt lat="44.87565" lon="4.80361">
        <ele>410.39999389648</ele>
        <time>2023-12-17T09:54:26.000Z</time>
      </trkpt>
      <trkpt lat="44.87564" lon="4.80362">
        <ele>409.79998779297</ele>
        <time>2023-12-17T09:54:27.000Z</time>
      </trkpt>
      <trkpt lat="44.87563" lon="4.80365">
        <ele>409</ele>
        <time>2023-12-17T09:54:29.000Z</time>
      </trkpt>
      <trkpt lat="44.87556" lon="4.80372">
        <ele>408.60000610352</ele>
        <time>2023-12-17T09:54:33.000Z</time>
      </trkpt>
      <trkpt lat="44.87544" lon="4.80383">
        <ele>410.20001220703</ele>
        <time>2023-12-17T09:54:39.000Z</time>
      </trkpt>
      <trkpt lat="44.87542" lon="4.80389">
        <ele>411.39999389648</ele>
        <time>2023-12-17T09:54:41.000Z</time>
      </trkpt>
      <trkpt lat="44.87537" lon="4.80398">
        <ele>412.39999389648</ele>
        <time>2023-12-17T09:54:44.000Z</time>
      </trkpt>
      <trkpt lat="44.87533" lon="4.80405">
        <ele>413</ele>
        <time>2023-12-17T09:54:46.000Z</time>
      </trkpt>
      <trkpt lat="44.87529" lon="4.80413">
        <ele>413.79998779297</ele>
        <time>2023-12-17T09:54:48.000Z</time>
      </trkpt>
      <trkpt lat="44.87527" lon="4.80427">
        <ele>414.79998779297</ele>
        <time>2023-12-17T09:54:52.000Z</time>
      </trkpt>
      <trkpt lat="44.87525" lon="4.80447">
        <ele>415.79998779297</ele>
        <time>2023-12-17T09:54:57.000Z</time>
      </trkpt>
      <trkpt lat="44.87523" lon="4.80459">
        <ele>416.20001220703</ele>
        <time>2023-12-17T09:54:59.000Z</time>
      </trkpt>
      <trkpt lat="44.87519" lon="4.80473">
        <ele>417.20001220703</ele>
        <time>2023-12-17T09:55:02.000Z</time>
      </trkpt>
      <trkpt lat="44.87518" lon="4.80478">
        <ele>417.60000610352</ele>
        <time>2023-12-17T09:55:03.000Z</time>
      </trkpt>
      <trkpt lat="44.87515" lon="4.80488">
        <ele>418.39999389648</ele>
        <time>2023-12-17T09:55:05.000Z</time>
      </trkpt>
      <trkpt lat="44.87511" lon="4.80504">
        <ele>418.79998779297</ele>
        <time>2023-12-17T09:55:08.000Z</time>
      </trkpt>
      <trkpt lat="44.87505" lon="4.80519">
        <ele>419.79998779297</ele>
        <time>2023-12-17T09:55:11.000Z</time>
      </trkpt>
      <trkpt lat="44.87499" lon="4.80534">
        <ele>420.79998779297</ele>
        <time>2023-12-17T09:55:14.000Z</time>
      </trkpt>
      <trkpt lat="44.87493" lon="4.80546">
        <ele>420.79998779297</ele>
        <time>2023-12-17T09:55:18.000Z</time>
      </trkpt>
      <trkpt lat="44.87491" lon="4.80549">
        <ele>420</ele>
        <time>2023-12-17T09:55:24.000Z</time>
      </trkpt>
      <trkpt lat="44.87489" lon="4.80549">
        <ele>420</ele>
        <time>2023-12-17T09:55:31.000Z</time>
      </trkpt>
      <trkpt lat="44.87489" lon="4.80549">
        <ele>419.79998779297</ele>
        <time>2023-12-17T09:55:37.000Z</time>
      </trkpt>
      <trkpt lat="44.87489" lon="4.8055">
        <ele>419.79998779297</ele>
        <time>2023-12-17T09:55:42.000Z</time>
      </trkpt>
      <trkpt lat="44.87489" lon="4.80551">
        <ele>418.79998779297</ele>
        <time>2023-12-17T09:55:51.000Z</time>
      </trkpt>
      <trkpt lat="44.87489" lon="4.80552">
        <ele>418.79998779297</ele>
        <time>2023-12-17T09:55:52.000Z</time>
      </trkpt>
      <trkpt lat="44.87489" lon="4.80553">
        <ele>418.79998779297</ele>
        <time>2023-12-17T09:55:55.000Z</time>
      </trkpt>
      <trkpt lat="44.87489" lon="4.80554">
        <ele>418.60000610352</ele>
        <time>2023-12-17T09:55:58.000Z</time>
      </trkpt>
      <trkpt lat="44.87489" lon="4.80554">
        <ele>418.20001220703</ele>
        <time>2023-12-17T09:56:07.000Z</time>
      </trkpt>
      <trkpt lat="44.87489" lon="4.80555">
        <ele>418.20001220703</ele>
        <time>2023-12-17T09:56:16.000Z</time>
      </trkpt>
      <trkpt lat="44.87489" lon="4.80556">
        <ele>418.20001220703</ele>
        <time>2023-12-17T09:56:17.000Z</time>
      </trkpt>
      <trkpt lat="44.87488" lon="4.80566">
        <ele>418.20001220703</ele>
        <time>2023-12-17T09:56:21.000Z</time>
      </trkpt>
      <trkpt lat="44.87486" lon="4.80581">
        <ele>418.20001220703</ele>
        <time>2023-12-17T09:56:27.000Z</time>
      </trkpt>
      <trkpt lat="44.87488" lon="4.80587">
        <ele>417.20001220703</ele>
        <time>2023-12-17T09:56:29.000Z</time>
      </trkpt>
      <trkpt lat="44.87489" lon="4.80599">
        <ele>416.79998779297</ele>
        <time>2023-12-17T09:56:32.000Z</time>
      </trkpt>
      <trkpt lat="44.87488" lon="4.80611">
        <ele>416</ele>
        <time>2023-12-17T09:56:34.000Z</time>
      </trkpt>
      <trkpt lat="44.87488" lon="4.80618">
        <ele>415.79998779297</ele>
        <time>2023-12-17T09:56:35.000Z</time>
      </trkpt>
      <trkpt lat="44.8749" lon="4.80625">
        <ele>415.60000610352</ele>
        <time>2023-12-17T09:56:36.000Z</time>
      </trkpt>
      <trkpt lat="44.87491" lon="4.8063">
        <ele>414.60000610352</ele>
        <time>2023-12-17T09:56:37.000Z</time>
      </trkpt>
      <trkpt lat="44.87491" lon="4.80637">
        <ele>412.79998779297</ele>
        <time>2023-12-17T09:56:39.000Z</time>
      </trkpt>
      <trkpt lat="44.87492" lon="4.80639">
        <ele>411.60000610352</ele>
        <time>2023-12-17T09:56:42.000Z</time>
      </trkpt>
      <trkpt lat="44.87493" lon="4.80641">
        <ele>411.60000610352</ele>
        <time>2023-12-17T09:56:44.000Z</time>
      </trkpt>
      <trkpt lat="44.87494" lon="4.80644">
        <ele>411.39999389648</ele>
        <time>2023-12-17T09:56:46.000Z</time>
      </trkpt>
      <trkpt lat="44.87497" lon="4.8065">
        <ele>411.20001220703</ele>
        <time>2023-12-17T09:56:49.000Z</time>
      </trkpt>
      <trkpt lat="44.87511" lon="4.80667">
        <ele>410.60000610352</ele>
        <time>2023-12-17T09:56:54.000Z</time>
      </trkpt>
      <trkpt lat="44.87514" lon="4.80673">
        <ele>410.60000610352</ele>
        <time>2023-12-17T09:56:55.000Z</time>
      </trkpt>
      <trkpt lat="44.87525" lon="4.80688">
        <ele>410.60000610352</ele>
        <time>2023-12-17T09:56:59.000Z</time>
      </trkpt>
      <trkpt lat="44.87546" lon="4.80702">
        <ele>410.39999389648</ele>
        <time>2023-12-17T09:57:04.000Z</time>
      </trkpt>
      <trkpt lat="44.87549" lon="4.80706">
        <ele>410.20001220703</ele>
        <time>2023-12-17T09:57:05.000Z</time>
      </trkpt>
      <trkpt lat="44.8756" lon="4.80724">
        <ele>409.39999389648</ele>
        <time>2023-12-17T09:57:09.000Z</time>
      </trkpt>
      <trkpt lat="44.87564" lon="4.80727">
        <ele>409</ele>
        <time>2023-12-17T09:57:10.000Z</time>
      </trkpt>
      <trkpt lat="44.87567" lon="4.80732">
        <ele>408.60000610352</ele>
        <time>2023-12-17T09:57:11.000Z</time>
      </trkpt>
      <trkpt lat="44.87574" lon="4.80742">
        <ele>407.79998779297</ele>
        <time>2023-12-17T09:57:13.000Z</time>
      </trkpt>
      <trkpt lat="44.87579" lon="4.80745">
        <ele>407.20001220703</ele>
        <time>2023-12-17T09:57:14.000Z</time>
      </trkpt>
      <trkpt lat="44.87582" lon="4.80748">
        <ele>406</ele>
        <time>2023-12-17T09:57:15.000Z</time>
      </trkpt>
      <trkpt lat="44.87586" lon="4.80752">
        <ele>404.20001220703</ele>
        <time>2023-12-17T09:57:16.000Z</time>
      </trkpt>
      <trkpt lat="44.87592" lon="4.80762">
        <ele>402.79998779297</ele>
        <time>2023-12-17T09:57:18.000Z</time>
      </trkpt>
      <trkpt lat="44.87597" lon="4.8077">
        <ele>401.20001220703</ele>
        <time>2023-12-17T09:57:20.000Z</time>
      </trkpt>
      <trkpt lat="44.87599" lon="4.80776">
        <ele>400</ele>
        <time>2023-12-17T09:57:21.000Z</time>
      </trkpt>
      <trkpt lat="44.876" lon="4.80785">
        <ele>398.20001220703</ele>
        <time>2023-12-17T09:57:22.000Z</time>
      </trkpt>
      <trkpt lat="44.87601" lon="4.80792">
        <ele>396</ele>
        <time>2023-12-17T09:57:23.000Z</time>
      </trkpt>
      <trkpt lat="44.876" lon="4.80799">
        <ele>394.20001220703</ele>
        <time>2023-12-17T09:57:24.000Z</time>
      </trkpt>
      <trkpt lat="44.87599" lon="4.80804">
        <ele>392.60000610352</ele>
        <time>2023-12-17T09:57:25.000Z</time>
      </trkpt>
      <trkpt lat="44.87597" lon="4.80808">
        <ele>391.39999389648</ele>
        <time>2023-12-17T09:57:26.000Z</time>
      </trkpt>
      <trkpt lat="44.87595" lon="4.80813">
        <ele>390</ele>
        <time>2023-12-17T09:57:27.000Z</time>
      </trkpt>
      <trkpt lat="44.87591" lon="4.80821">
        <ele>388</ele>
        <time>2023-12-17T09:57:29.000Z</time>
      </trkpt>
      <trkpt lat="44.8759" lon="4.80829">
        <ele>386.39999389648</ele>
        <time>2023-12-17T09:57:31.000Z</time>
      </trkpt>
      <trkpt lat="44.87591" lon="4.80837">
        <ele>385.79998779297</ele>
        <time>2023-12-17T09:57:33.000Z</time>
      </trkpt>
      <trkpt lat="44.87591" lon="4.80842">
        <ele>384.79998779297</ele>
        <time>2023-12-17T09:57:34.000Z</time>
      </trkpt>
      <trkpt lat="44.87594" lon="4.80855">
        <ele>382</ele>
        <time>2023-12-17T09:57:36.000Z</time>
      </trkpt>
      <trkpt lat="44.87595" lon="4.80861">
        <ele>379.20001220703</ele>
        <time>2023-12-17T09:57:37.000Z</time>
      </trkpt>
      <trkpt lat="44.87595" lon="4.80867">
        <ele>377</ele>
        <time>2023-12-17T09:57:38.000Z</time>
      </trkpt>
      <trkpt lat="44.87594" lon="4.80873">
        <ele>374.79998779297</ele>
        <time>2023-12-17T09:57:39.000Z</time>
      </trkpt>
      <trkpt lat="44.87592" lon="4.80879">
        <ele>373</ele>
        <time>2023-12-17T09:57:40.000Z</time>
      </trkpt>
      <trkpt lat="44.8759" lon="4.80884">
        <ele>371</ele>
        <time>2023-12-17T09:57:41.000Z</time>
      </trkpt>
      <trkpt lat="44.87588" lon="4.80887">
        <ele>369.60000610352</ele>
        <time>2023-12-17T09:57:42.000Z</time>
      </trkpt>
      <trkpt lat="44.87584" lon="4.80894">
        <ele>368.39999389648</ele>
        <time>2023-12-17T09:57:44.000Z</time>
      </trkpt>
      <trkpt lat="44.87581" lon="4.80899">
        <ele>367.20001220703</ele>
        <time>2023-12-17T09:57:46.000Z</time>
      </trkpt>
      <trkpt lat="44.87578" lon="4.80903">
        <ele>366</ele>
        <time>2023-12-17T09:57:47.000Z</time>
      </trkpt>
      <trkpt lat="44.87574" lon="4.80909">
        <ele>364.60000610352</ele>
        <time>2023-12-17T09:57:48.000Z</time>
      </trkpt>
      <trkpt lat="44.87571" lon="4.80913">
        <ele>363.20001220703</ele>
        <time>2023-12-17T09:57:49.000Z</time>
      </trkpt>
      <trkpt lat="44.87569" lon="4.80917">
        <ele>362</ele>
        <time>2023-12-17T09:57:50.000Z</time>
      </trkpt>
      <trkpt lat="44.87568" lon="4.80921">
        <ele>361.20001220703</ele>
        <time>2023-12-17T09:57:51.000Z</time>
      </trkpt>
      <trkpt lat="44.87569" lon="4.80923">
        <ele>359.39999389648</ele>
        <time>2023-12-17T09:57:52.000Z</time>
      </trkpt>
      <trkpt lat="44.87569" lon="4.80925">
        <ele>358.20001220703</ele>
        <time>2023-12-17T09:57:53.000Z</time>
      </trkpt>
      <trkpt lat="44.8757" lon="4.80926">
        <ele>356.60000610352</ele>
        <time>2023-12-17T09:57:54.000Z</time>
      </trkpt>
      <trkpt lat="44.87571" lon="4.80927">
        <ele>355.60000610352</ele>
        <time>2023-12-17T09:57:55.000Z</time>
      </trkpt>
      <trkpt lat="44.87571" lon="4.80928">
        <ele>354.79998779297</ele>
        <time>2023-12-17T09:57:56.000Z</time>
      </trkpt>
      <trkpt lat="44.87575" lon="4.80933">
        <ele>354.39999389648</ele>
        <time>2023-12-17T09:57:58.000Z</time>
      </trkpt>
      <trkpt lat="44.87579" lon="4.80937">
        <ele>354.20001220703</ele>
        <time>2023-12-17T09:57:59.000Z</time>
      </trkpt>
      <trkpt lat="44.87587" lon="4.80942">
        <ele>352</ele>
        <time>2023-12-17T09:58:01.000Z</time>
      </trkpt>
      <trkpt lat="44.87591" lon="4.80944">
        <ele>351</ele>
        <time>2023-12-17T09:58:02.000Z</time>
      </trkpt>
      <trkpt lat="44.87595" lon="4.80946">
        <ele>349.20001220703</ele>
        <time>2023-12-17T09:58:03.000Z</time>
      </trkpt>
      <trkpt lat="44.87599" lon="4.80948">
        <ele>347.20001220703</ele>
        <time>2023-12-17T09:58:04.000Z</time>
      </trkpt>
      <trkpt lat="44.87602" lon="4.80949">
        <ele>345.39999389648</ele>
        <time>2023-12-17T09:58:05.000Z</time>
      </trkpt>
      <trkpt lat="44.87607" lon="4.80949">
        <ele>344.39999389648</ele>
        <time>2023-12-17T09:58:06.000Z</time>
      </trkpt>
      <trkpt lat="44.87611" lon="4.80949">
        <ele>343.79998779297</ele>
        <time>2023-12-17T09:58:07.000Z</time>
      </trkpt>
      <trkpt lat="44.87615" lon="4.80951">
        <ele>343</ele>
        <time>2023-12-17T09:58:09.000Z</time>
      </trkpt>
      <trkpt lat="44.87616" lon="4.80951">
        <ele>342.60000610352</ele>
        <time>2023-12-17T09:58:10.000Z</time>
      </trkpt>
      <trkpt lat="44.87618" lon="4.80953">
        <ele>341.20001220703</ele>
        <time>2023-12-17T09:58:12.000Z</time>
      </trkpt>
      <trkpt lat="44.87621" lon="4.80955">
        <ele>340.20001220703</ele>
        <time>2023-12-17T09:58:14.000Z</time>
      </trkpt>
      <trkpt lat="44.87623" lon="4.80956">
        <ele>340</ele>
        <time>2023-12-17T09:58:15.000Z</time>
      </trkpt>
      <trkpt lat="44.87638" lon="4.80962">
        <ele>336.79998779297</ele>
        <time>2023-12-17T09:58:19.000Z</time>
      </trkpt>
      <trkpt lat="44.87642" lon="4.80964">
        <ele>335.39999389648</ele>
        <time>2023-12-17T09:58:20.000Z</time>
      </trkpt>
      <trkpt lat="44.8765" lon="4.8097">
        <ele>334.39999389648</ele>
        <time>2023-12-17T09:58:22.000Z</time>
      </trkpt>
      <trkpt lat="44.87657" lon="4.80974">
        <ele>333</ele>
        <time>2023-12-17T09:58:24.000Z</time>
      </trkpt>
      <trkpt lat="44.87659" lon="4.80975">
        <ele>332</ele>
        <time>2023-12-17T09:58:25.000Z</time>
      </trkpt>
      <trkpt lat="44.8766" lon="4.80975">
        <ele>330.79998779297</ele>
        <time>2023-12-17T09:58:26.000Z</time>
      </trkpt>
      <trkpt lat="44.87662" lon="4.80976">
        <ele>329</ele>
        <time>2023-12-17T09:58:27.000Z</time>
      </trkpt>
      <trkpt lat="44.87663" lon="4.80977">
        <ele>327.79998779297</ele>
        <time>2023-12-17T09:58:28.000Z</time>
      </trkpt>
      <trkpt lat="44.87664" lon="4.80979">
        <ele>326.39999389648</ele>
        <time>2023-12-17T09:58:30.000Z</time>
      </trkpt>
      <trkpt lat="44.87662" lon="4.8098">
        <ele>325.79998779297</ele>
        <time>2023-12-17T09:58:32.000Z</time>
      </trkpt>
      <trkpt lat="44.87662" lon="4.8098">
        <ele>325.60000610352</ele>
        <time>2023-12-17T09:58:33.000Z</time>
      </trkpt>
      <trkpt lat="44.87662" lon="4.8098">
        <ele>325.39999389648</ele>
        <time>2023-12-17T09:58:34.000Z</time>
      </trkpt>
      <trkpt lat="44.87664" lon="4.80979">
        <ele>325.20001220703</ele>
        <time>2023-12-17T09:58:38.000Z</time>
      </trkpt>
      <trkpt lat="44.87667" lon="4.8098">
        <ele>325.20001220703</ele>
        <time>2023-12-17T09:58:45.000Z</time>
      </trkpt>
      <trkpt lat="44.87667" lon="4.80981">
        <ele>325.39999389648</ele>
        <time>2023-12-17T09:58:53.000Z</time>
      </trkpt>
      <trkpt lat="44.87665" lon="4.80981">
        <ele>324.79998779297</ele>
        <time>2023-12-17T09:59:04.000Z</time>
      </trkpt>
      <trkpt lat="44.87664" lon="4.80981">
        <ele>324.39999389648</ele>
        <time>2023-12-17T09:59:09.000Z</time>
      </trkpt>
      <trkpt lat="44.87664" lon="4.80984">
        <ele>323.39999389648</ele>
        <time>2023-12-17T09:59:17.000Z</time>
      </trkpt>
      <trkpt lat="44.87664" lon="4.80985">
        <ele>323</ele>
        <time>2023-12-17T09:59:23.000Z</time>
      </trkpt>
      <trkpt lat="44.87663" lon="4.80989">
        <ele>322.20001220703</ele>
        <time>2023-12-17T09:59:28.000Z</time>
      </trkpt>
      <trkpt lat="44.87662" lon="4.80989">
        <ele>322</ele>
        <time>2023-12-17T09:59:29.000Z</time>
      </trkpt>
      <trkpt lat="44.87661" lon="4.80991">
        <ele>321.39999389648</ele>
        <time>2023-12-17T09:59:31.000Z</time>
      </trkpt>
      <trkpt lat="44.87659" lon="4.80992">
        <ele>321</ele>
        <time>2023-12-17T09:59:32.000Z</time>
      </trkpt>
      <trkpt lat="44.87654" lon="4.80997">
        <ele>320</ele>
        <time>2023-12-17T09:59:34.000Z</time>
      </trkpt>
      <trkpt lat="44.87648" lon="4.81005">
        <ele>318.79998779297</ele>
        <time>2023-12-17T09:59:36.000Z</time>
      </trkpt>
      <trkpt lat="44.87644" lon="4.8101">
        <ele>316.60000610352</ele>
        <time>2023-12-17T09:59:37.000Z</time>
      </trkpt>
      <trkpt lat="44.8764" lon="4.81017">
        <ele>315.20001220703</ele>
        <time>2023-12-17T09:59:38.000Z</time>
      </trkpt>
      <trkpt lat="44.87635" lon="4.81023">
        <ele>312</ele>
        <time>2023-12-17T09:59:39.000Z</time>
      </trkpt>
      <trkpt lat="44.8763" lon="4.81028">
        <ele>309.39999389648</ele>
        <time>2023-12-17T09:59:40.000Z</time>
      </trkpt>
      <trkpt lat="44.87626" lon="4.81032">
        <ele>308</ele>
        <time>2023-12-17T09:59:41.000Z</time>
      </trkpt>
      <trkpt lat="44.87624" lon="4.81038">
        <ele>306.60000610352</ele>
        <time>2023-12-17T09:59:43.000Z</time>
      </trkpt>
      <trkpt lat="44.87624" lon="4.81042">
        <ele>304.79998779297</ele>
        <time>2023-12-17T09:59:44.000Z</time>
      </trkpt>
      <trkpt lat="44.87624" lon="4.81045">
        <ele>303.39999389648</ele>
        <time>2023-12-17T09:59:45.000Z</time>
      </trkpt>
      <trkpt lat="44.87626" lon="4.81049">
        <ele>302.20001220703</ele>
        <time>2023-12-17T09:59:46.000Z</time>
      </trkpt>
      <trkpt lat="44.87628" lon="4.81053">
        <ele>300.20001220703</ele>
        <time>2023-12-17T09:59:47.000Z</time>
      </trkpt>
      <trkpt lat="44.87631" lon="4.81056">
        <ele>298.79998779297</ele>
        <time>2023-12-17T09:59:48.000Z</time>
      </trkpt>
      <trkpt lat="44.87636" lon="4.8106">
        <ele>296.60000610352</ele>
        <time>2023-12-17T09:59:50.000Z</time>
      </trkpt>
      <trkpt lat="44.87638" lon="4.81062">
        <ele>295.20001220703</ele>
        <time>2023-12-17T09:59:51.000Z</time>
      </trkpt>
      <trkpt lat="44.87641" lon="4.81064">
        <ele>293.79998779297</ele>
        <time>2023-12-17T09:59:52.000Z</time>
      </trkpt>
      <trkpt lat="44.87648" lon="4.81066">
        <ele>292.60000610352</ele>
        <time>2023-12-17T09:59:54.000Z</time>
      </trkpt>
      <trkpt lat="44.87656" lon="4.81072">
        <ele>290.60000610352</ele>
        <time>2023-12-17T09:59:56.000Z</time>
      </trkpt>
      <trkpt lat="44.87668" lon="4.81078">
        <ele>289.60000610352</ele>
        <time>2023-12-17T09:59:59.000Z</time>
      </trkpt>
      <trkpt lat="44.87673" lon="4.81079">
        <ele>289.39999389648</ele>
        <time>2023-12-17T10:00:00.000Z</time>
      </trkpt>
      <trkpt lat="44.87678" lon="4.81081">
        <ele>288</ele>
        <time>2023-12-17T10:00:01.000Z</time>
      </trkpt>
      <trkpt lat="44.87685" lon="4.81087">
        <ele>285.60000610352</ele>
        <time>2023-12-17T10:00:03.000Z</time>
      </trkpt>
      <trkpt lat="44.87687" lon="4.81089">
        <ele>284.79998779297</ele>
        <time>2023-12-17T10:00:04.000Z</time>
      </trkpt>
      <trkpt lat="44.87691" lon="4.81089">
        <ele>284.39999389648</ele>
        <time>2023-12-17T10:00:05.000Z</time>
      </trkpt>
      <trkpt lat="44.87698" lon="4.81092">
        <ele>282.60000610352</ele>
        <time>2023-12-17T10:00:07.000Z</time>
      </trkpt>
      <trkpt lat="44.87703" lon="4.81095">
        <ele>281.39999389648</ele>
        <time>2023-12-17T10:00:08.000Z</time>
      </trkpt>
      <trkpt lat="44.8771" lon="4.81098">
        <ele>278.79998779297</ele>
        <time>2023-12-17T10:00:10.000Z</time>
      </trkpt>
      <trkpt lat="44.87715" lon="4.811">
        <ele>277.39999389648</ele>
        <time>2023-12-17T10:00:12.000Z</time>
      </trkpt>
      <trkpt lat="44.87728" lon="4.81104">
        <ele>277.20001220703</ele>
        <time>2023-12-17T10:00:17.000Z</time>
      </trkpt>
      <trkpt lat="44.87739" lon="4.81113">
        <ele>277.20001220703</ele>
        <time>2023-12-17T10:00:22.000Z</time>
      </trkpt>
      <trkpt lat="44.87755" lon="4.81122">
        <ele>276.60000610352</ele>
        <time>2023-12-17T10:00:27.000Z</time>
      </trkpt>
      <trkpt lat="44.87763" lon="4.81137">
        <ele>276.20001220703</ele>
        <time>2023-12-17T10:00:30.000Z</time>
      </trkpt>
      <trkpt lat="44.87766" lon="4.81141">
        <ele>276</ele>
        <time>2023-12-17T10:00:31.000Z</time>
      </trkpt>
      <trkpt lat="44.87776" lon="4.8115">
        <ele>274.20001220703</ele>
        <time>2023-12-17T10:00:34.000Z</time>
      </trkpt>
      <trkpt lat="44.8778" lon="4.8115">
        <ele>273.60000610352</ele>
        <time>2023-12-17T10:00:35.000Z</time>
      </trkpt>
      <trkpt lat="44.87784" lon="4.8115">
        <ele>273</ele>
        <time>2023-12-17T10:00:36.000Z</time>
      </trkpt>
      <trkpt lat="44.87787" lon="4.81149">
        <ele>272.39999389648</ele>
        <time>2023-12-17T10:00:38.000Z</time>
      </trkpt>
      <trkpt lat="44.87791" lon="4.81147">
        <ele>272</ele>
        <time>2023-12-17T10:00:44.000Z</time>
      </trkpt>
      <trkpt lat="44.87791" lon="4.81147">
        <ele>272</ele>
        <time>2023-12-17T10:00:45.000Z</time>
      </trkpt>
      <trkpt lat="44.8779" lon="4.81145">
        <ele>271.79998779297</ele>
        <time>2023-12-17T10:00:54.000Z</time>
      </trkpt>
      <trkpt lat="44.87792" lon="4.81147">
        <ele>271.39999389648</ele>
        <time>2023-12-17T10:01:00.000Z</time>
      </trkpt>
      <trkpt lat="44.87794" lon="4.81148">
        <ele>271.39999389648</ele>
        <time>2023-12-17T10:01:07.000Z</time>
      </trkpt>
      <trkpt lat="44.87794" lon="4.81149">
        <ele>271</ele>
        <time>2023-12-17T10:01:15.000Z</time>
      </trkpt>
      <trkpt lat="44.87794" lon="4.81148">
        <ele>270.79998779297</ele>
        <time>2023-12-17T10:01:26.000Z</time>
      </trkpt>
      <trkpt lat="44.87794" lon="4.81149">
        <ele>270</ele>
        <time>2023-12-17T10:01:33.000Z</time>
      </trkpt>
      <trkpt lat="44.87794" lon="4.81149">
        <ele>270.20001220703</ele>
        <time>2023-12-17T10:01:34.000Z</time>
      </trkpt>
      <trkpt lat="44.87794" lon="4.81149">
        <ele>270.39999389648</ele>
        <time>2023-12-17T10:01:45.000Z</time>
      </trkpt>
      <trkpt lat="44.87797" lon="4.81153">
        <ele>269.79998779297</ele>
        <time>2023-12-17T10:01:48.000Z</time>
      </trkpt>
      <trkpt lat="44.87798" lon="4.81157">
        <ele>269</ele>
        <time>2023-12-17T10:01:50.000Z</time>
      </trkpt>
      <trkpt lat="44.87799" lon="4.8116">
        <ele>268</ele>
        <time>2023-12-17T10:01:51.000Z</time>
      </trkpt>
      <trkpt lat="44.87803" lon="4.81171">
        <ele>266.60000610352</ele>
        <time>2023-12-17T10:01:53.000Z</time>
      </trkpt>
      <trkpt lat="44.87807" lon="4.81179">
        <ele>265.20001220703</ele>
        <time>2023-12-17T10:01:54.000Z</time>
      </trkpt>
      <trkpt lat="44.8781" lon="4.81187">
        <ele>264.20001220703</ele>
        <time>2023-12-17T10:01:55.000Z</time>
      </trkpt>
      <trkpt lat="44.8781" lon="4.81195">
        <ele>262.60000610352</ele>
        <time>2023-12-17T10:01:56.000Z</time>
      </trkpt>
      <trkpt lat="44.87808" lon="4.81204">
        <ele>260.79998779297</ele>
        <time>2023-12-17T10:01:58.000Z</time>
      </trkpt>
      <trkpt lat="44.87807" lon="4.81207">
        <ele>260.60000610352</ele>
        <time>2023-12-17T10:01:59.000Z</time>
      </trkpt>
      <trkpt lat="44.87806" lon="4.81208">
        <ele>258.60000610352</ele>
        <time>2023-12-17T10:02:00.000Z</time>
      </trkpt>
      <trkpt lat="44.87806" lon="4.81209">
        <ele>257.60000610352</ele>
        <time>2023-12-17T10:02:01.000Z</time>
      </trkpt>
      <trkpt lat="44.87806" lon="4.8121">
        <ele>256.39999389648</ele>
        <time>2023-12-17T10:02:03.000Z</time>
      </trkpt>
      <trkpt lat="44.87805" lon="4.8121">
        <ele>256</ele>
        <time>2023-12-17T10:02:04.000Z</time>
      </trkpt>
      <trkpt lat="44.87805" lon="4.8121">
        <ele>255.80000305176</ele>
        <time>2023-12-17T10:02:05.000Z</time>
      </trkpt>
      <trkpt lat="44.87803" lon="4.81212">
        <ele>255</ele>
        <time>2023-12-17T10:02:07.000Z</time>
      </trkpt>
      <trkpt lat="44.87802" lon="4.81215">
        <ele>254.60000610352</ele>
        <time>2023-12-17T10:02:08.000Z</time>
      </trkpt>
      <trkpt lat="44.87799" lon="4.81219">
        <ele>254.39999389648</ele>
        <time>2023-12-17T10:02:09.000Z</time>
      </trkpt>
      <trkpt lat="44.87795" lon="4.81222">
        <ele>253.80000305176</ele>
        <time>2023-12-17T10:02:10.000Z</time>
      </trkpt>
      <trkpt lat="44.87791" lon="4.81224">
        <ele>253.60000610352</ele>
        <time>2023-12-17T10:02:11.000Z</time>
      </trkpt>
      <trkpt lat="44.87788" lon="4.81226">
        <ele>252.19999694824</ele>
        <time>2023-12-17T10:02:12.000Z</time>
      </trkpt>
      <trkpt lat="44.87785" lon="4.81228">
        <ele>251</ele>
        <time>2023-12-17T10:02:13.000Z</time>
      </trkpt>
      <trkpt lat="44.8778" lon="4.81226">
        <ele>248.80000305176</ele>
        <time>2023-12-17T10:02:15.000Z</time>
      </trkpt>
      <trkpt lat="44.87778" lon="4.81227">
        <ele>247.60000610352</ele>
        <time>2023-12-17T10:02:16.000Z</time>
      </trkpt>
      <trkpt lat="44.87777" lon="4.81232">
        <ele>245.60000610352</ele>
        <time>2023-12-17T10:02:17.000Z</time>
      </trkpt>
      <trkpt lat="44.87777" lon="4.8124">
        <ele>244.60000610352</ele>
        <time>2023-12-17T10:02:18.000Z</time>
      </trkpt>
      <trkpt lat="44.87776" lon="4.81245">
        <ele>243.80000305176</ele>
        <time>2023-12-17T10:02:19.000Z</time>
      </trkpt>
      <trkpt lat="44.87773" lon="4.81249">
        <ele>243</ele>
        <time>2023-12-17T10:02:20.000Z</time>
      </trkpt>
      <trkpt lat="44.87771" lon="4.81254">
        <ele>242.60000610352</ele>
        <time>2023-12-17T10:02:21.000Z</time>
      </trkpt>
      <trkpt lat="44.87766" lon="4.81261">
        <ele>240</ele>
        <time>2023-12-17T10:02:23.000Z</time>
      </trkpt>
      <trkpt lat="44.87763" lon="4.81261">
        <ele>237.80000305176</ele>
        <time>2023-12-17T10:02:24.000Z</time>
      </trkpt>
      <trkpt lat="44.8776" lon="4.81262">
        <ele>236.19999694824</ele>
        <time>2023-12-17T10:02:25.000Z</time>
      </trkpt>
      <trkpt lat="44.87757" lon="4.81263">
        <ele>235</ele>
        <time>2023-12-17T10:02:26.000Z</time>
      </trkpt>
      <trkpt lat="44.87753" lon="4.81264">
        <ele>233.60000610352</ele>
        <time>2023-12-17T10:02:27.000Z</time>
      </trkpt>
      <trkpt lat="44.87748" lon="4.81267">
        <ele>232.60000610352</ele>
        <time>2023-12-17T10:02:28.000Z</time>
      </trkpt>
      <trkpt lat="44.87743" lon="4.81271">
        <ele>232</ele>
        <time>2023-12-17T10:02:29.000Z</time>
      </trkpt>
      <trkpt lat="44.87739" lon="4.81275">
        <ele>231.60000610352</ele>
        <time>2023-12-17T10:02:30.000Z</time>
      </trkpt>
      <trkpt lat="44.87732" lon="4.81283">
        <ele>231.60000610352</ele>
        <time>2023-12-17T10:02:32.000Z</time>
      </trkpt>
      <trkpt lat="44.87711" lon="4.81309">
        <ele>231.39999389648</ele>
        <time>2023-12-17T10:02:37.000Z</time>
      </trkpt>
      <trkpt lat="44.877" lon="4.81319">
        <ele>230.60000610352</ele>
        <time>2023-12-17T10:02:40.000Z</time>
      </trkpt>
      <trkpt lat="44.87695" lon="4.81322">
        <ele>229.80000305176</ele>
        <time>2023-12-17T10:02:44.000Z</time>
      </trkpt>
      <trkpt lat="44.87686" lon="4.81324">
        <ele>229.80000305176</ele>
        <time>2023-12-17T10:02:49.000Z</time>
      </trkpt>
      <trkpt lat="44.8767" lon="4.81329">
        <ele>229.80000305176</ele>
        <time>2023-12-17T10:02:53.000Z</time>
      </trkpt>
      <trkpt lat="44.87658" lon="4.81319">
        <ele>230.39999389648</ele>
        <time>2023-12-17T10:02:57.000Z</time>
      </trkpt>
      <trkpt lat="44.87651" lon="4.81313">
        <ele>230.80000305176</ele>
        <time>2023-12-17T10:02:59.000Z</time>
      </trkpt>
      <trkpt lat="44.87642" lon="4.81314">
        <ele>231.39999389648</ele>
        <time>2023-12-17T10:03:01.000Z</time>
      </trkpt>
      <trkpt lat="44.87631" lon="4.8132">
        <ele>231.39999389648</ele>
        <time>2023-12-17T10:03:03.000Z</time>
      </trkpt>
      <trkpt lat="44.87622" lon="4.81323">
        <ele>231</ele>
        <time>2023-12-17T10:03:05.000Z</time>
      </trkpt>
      <trkpt lat="44.87611" lon="4.81327">
        <ele>229.39999389648</ele>
        <time>2023-12-17T10:03:08.000Z</time>
      </trkpt>
      <trkpt lat="44.87607" lon="4.81329">
        <ele>227.60000610352</ele>
        <time>2023-12-17T10:03:09.000Z</time>
      </trkpt>
      <trkpt lat="44.87606" lon="4.81331">
        <ele>225.60000610352</ele>
        <time>2023-12-17T10:03:10.000Z</time>
      </trkpt>
      <trkpt lat="44.87606" lon="4.81334">
        <ele>224.39999389648</ele>
        <time>2023-12-17T10:03:11.000Z</time>
      </trkpt>
      <trkpt lat="44.87607" lon="4.81338">
        <ele>223.60000610352</ele>
        <time>2023-12-17T10:03:12.000Z</time>
      </trkpt>
      <trkpt lat="44.87607" lon="4.81344">
        <ele>222.60000610352</ele>
        <time>2023-12-17T10:03:13.000Z</time>
      </trkpt>
      <trkpt lat="44.87602" lon="4.81358">
        <ele>221.19999694824</ele>
        <time>2023-12-17T10:03:15.000Z</time>
      </trkpt>
      <trkpt lat="44.87599" lon="4.81367">
        <ele>220.60000610352</ele>
        <time>2023-12-17T10:03:16.000Z</time>
      </trkpt>
      <trkpt lat="44.87594" lon="4.81375">
        <ele>220.19999694824</ele>
        <time>2023-12-17T10:03:17.000Z</time>
      </trkpt>
      <trkpt lat="44.87591" lon="4.8138">
        <ele>219.39999389648</ele>
        <time>2023-12-17T10:03:18.000Z</time>
      </trkpt>
      <trkpt lat="44.87589" lon="4.81384">
        <ele>219</ele>
        <time>2023-12-17T10:03:19.000Z</time>
      </trkpt>
      <trkpt lat="44.87589" lon="4.81389">
        <ele>217.80000305176</ele>
        <time>2023-12-17T10:03:20.000Z</time>
      </trkpt>
      <trkpt lat="44.8759" lon="4.81394">
        <ele>216.19999694824</ele>
        <time>2023-12-17T10:03:21.000Z</time>
      </trkpt>
      <trkpt lat="44.8759" lon="4.81401">
        <ele>214.60000610352</ele>
        <time>2023-12-17T10:03:22.000Z</time>
      </trkpt>
      <trkpt lat="44.87589" lon="4.81407">
        <ele>213.19999694824</ele>
        <time>2023-12-17T10:03:23.000Z</time>
      </trkpt>
      <trkpt lat="44.87587" lon="4.81419">
        <ele>210.80000305176</ele>
        <time>2023-12-17T10:03:25.000Z</time>
      </trkpt>
      <trkpt lat="44.87585" lon="4.81431">
        <ele>209.19999694824</ele>
        <time>2023-12-17T10:03:27.000Z</time>
      </trkpt>
      <trkpt lat="44.87584" lon="4.81439">
        <ele>208.80000305176</ele>
        <time>2023-12-17T10:03:28.000Z</time>
      </trkpt>
      <trkpt lat="44.87584" lon="4.81447">
        <ele>208.39999389648</ele>
        <time>2023-12-17T10:03:29.000Z</time>
      </trkpt>
      <trkpt lat="44.87583" lon="4.81457">
        <ele>206.80000305176</ele>
        <time>2023-12-17T10:03:30.000Z</time>
      </trkpt>
      <trkpt lat="44.8758" lon="4.81466">
        <ele>205</ele>
        <time>2023-12-17T10:03:31.000Z</time>
      </trkpt>
      <trkpt lat="44.87578" lon="4.81473">
        <ele>202.60000610352</ele>
        <time>2023-12-17T10:03:32.000Z</time>
      </trkpt>
      <trkpt lat="44.87575" lon="4.81478">
        <ele>201.60000610352</ele>
        <time>2023-12-17T10:03:33.000Z</time>
      </trkpt>
      <trkpt lat="44.8757" lon="4.8149">
        <ele>200.60000610352</ele>
        <time>2023-12-17T10:03:35.000Z</time>
      </trkpt>
      <trkpt lat="44.87565" lon="4.81506">
        <ele>200.39999389648</ele>
        <time>2023-12-17T10:03:37.000Z</time>
      </trkpt>
      <trkpt lat="44.87563" lon="4.81514">
        <ele>199.80000305176</ele>
        <time>2023-12-17T10:03:38.000Z</time>
      </trkpt>
      <trkpt lat="44.87559" lon="4.81521">
        <ele>199.39999389648</ele>
        <time>2023-12-17T10:03:39.000Z</time>
      </trkpt>
      <trkpt lat="44.87552" lon="4.81536">
        <ele>197.39999389648</ele>
        <time>2023-12-17T10:03:41.000Z</time>
      </trkpt>
      <trkpt lat="44.87543" lon="4.81545">
        <ele>195.60000610352</ele>
        <time>2023-12-17T10:03:43.000Z</time>
      </trkpt>
      <trkpt lat="44.87539" lon="4.8155">
        <ele>194.60000610352</ele>
        <time>2023-12-17T10:03:44.000Z</time>
      </trkpt>
      <trkpt lat="44.87537" lon="4.81558">
        <ele>194</ele>
        <time>2023-12-17T10:03:45.000Z</time>
      </trkpt>
      <trkpt lat="44.87535" lon="4.81566">
        <ele>193.39999389648</ele>
        <time>2023-12-17T10:03:46.000Z</time>
      </trkpt>
      <trkpt lat="44.87534" lon="4.81575">
        <ele>193</ele>
        <time>2023-12-17T10:03:47.000Z</time>
      </trkpt>
      <trkpt lat="44.87534" lon="4.81587">
        <ele>191.60000610352</ele>
        <time>2023-12-17T10:03:49.000Z</time>
      </trkpt>
      <trkpt lat="44.87535" lon="4.81593">
        <ele>190.60000610352</ele>
        <time>2023-12-17T10:03:50.000Z</time>
      </trkpt>
      <trkpt lat="44.87535" lon="4.81599">
        <ele>190.19999694824</ele>
        <time>2023-12-17T10:03:51.000Z</time>
      </trkpt>
      <trkpt lat="44.87537" lon="4.81613">
        <ele>188.19999694824</ele>
        <time>2023-12-17T10:03:53.000Z</time>
      </trkpt>
      <trkpt lat="44.87539" lon="4.81621">
        <ele>187.39999389648</ele>
        <time>2023-12-17T10:03:54.000Z</time>
      </trkpt>
      <trkpt lat="44.87539" lon="4.81629">
        <ele>186.80000305176</ele>
        <time>2023-12-17T10:03:55.000Z</time>
      </trkpt>
      <trkpt lat="44.87537" lon="4.81649">
        <ele>184.19999694824</ele>
        <time>2023-12-17T10:03:57.000Z</time>
      </trkpt>
      <trkpt lat="44.87536" lon="4.81658">
        <ele>182.80000305176</ele>
        <time>2023-12-17T10:03:58.000Z</time>
      </trkpt>
      <trkpt lat="44.87534" lon="4.8167">
        <ele>181.19999694824</ele>
        <time>2023-12-17T10:04:00.000Z</time>
      </trkpt>
      <trkpt lat="44.87533" lon="4.81678">
        <ele>179.19999694824</ele>
        <time>2023-12-17T10:04:02.000Z</time>
      </trkpt>
      <trkpt lat="44.87533" lon="4.81683">
        <ele>177.80000305176</ele>
        <time>2023-12-17T10:04:03.000Z</time>
      </trkpt>
      <trkpt lat="44.87531" lon="4.817">
        <ele>176.39999389648</ele>
        <time>2023-12-17T10:04:05.000Z</time>
      </trkpt>
      <trkpt lat="44.87532" lon="4.81713">
        <ele>174.19999694824</ele>
        <time>2023-12-17T10:04:07.000Z</time>
      </trkpt>
      <trkpt lat="44.87534" lon="4.81716">
        <ele>173.39999389648</ele>
        <time>2023-12-17T10:04:08.000Z</time>
      </trkpt>
      <trkpt lat="44.87537" lon="4.81717">
        <ele>172.60000610352</ele>
        <time>2023-12-17T10:04:09.000Z</time>
      </trkpt>
      <trkpt lat="44.87538" lon="4.81721">
        <ele>171.39999389648</ele>
        <time>2023-12-17T10:04:12.000Z</time>
      </trkpt>
      <trkpt lat="44.87538" lon="4.81721">
        <ele>170.80000305176</ele>
        <time>2023-12-17T10:04:20.000Z</time>
      </trkpt>
      <trkpt lat="44.87539" lon="4.81723">
        <ele>170.39999389648</ele>
        <time>2023-12-17T10:04:25.000Z</time>
      </trkpt>
      <trkpt lat="44.87539" lon="4.81724">
        <ele>170.19999694824</ele>
        <time>2023-12-17T10:04:30.000Z</time>
      </trkpt>
      <trkpt lat="44.87541" lon="4.81727">
        <ele>170</ele>
        <time>2023-12-17T10:04:38.000Z</time>
      </trkpt>
      <trkpt lat="44.87542" lon="4.81728">
        <ele>169.60000610352</ele>
        <time>2023-12-17T10:04:42.000Z</time>
      </trkpt>
      <trkpt lat="44.87544" lon="4.81731">
        <ele>169.39999389648</ele>
        <time>2023-12-17T10:04:44.000Z</time>
      </trkpt>
      <trkpt lat="44.87545" lon="4.81738">
        <ele>169.39999389648</ele>
        <time>2023-12-17T10:04:46.000Z</time>
      </trkpt>
      <trkpt lat="44.87543" lon="4.81745">
        <ele>169.39999389648</ele>
        <time>2023-12-17T10:04:48.000Z</time>
      </trkpt>
      <trkpt lat="44.87532" lon="4.81758">
        <ele>170.60000610352</ele>
        <time>2023-12-17T10:04:53.000Z</time>
      </trkpt>
      <trkpt lat="44.87526" lon="4.81765">
        <ele>171.80000305176</ele>
        <time>2023-12-17T10:04:56.000Z</time>
      </trkpt>
      <trkpt lat="44.87522" lon="4.81771">
        <ele>173</ele>
        <time>2023-12-17T10:04:58.000Z</time>
      </trkpt>
      <trkpt lat="44.87514" lon="4.81781">
        <ele>173.60000610352</ele>
        <time>2023-12-17T10:05:01.000Z</time>
      </trkpt>
      <trkpt lat="44.87509" lon="4.81787">
        <ele>174.39999389648</ele>
        <time>2023-12-17T10:05:03.000Z</time>
      </trkpt>
      <trkpt lat="44.87498" lon="4.81798">
        <ele>175</ele>
        <time>2023-12-17T10:05:07.000Z</time>
      </trkpt>
      <trkpt lat="44.87491" lon="4.81804">
        <ele>175.39999389648</ele>
        <time>2023-12-17T10:05:09.000Z</time>
      </trkpt>
      <trkpt lat="44.87487" lon="4.81807">
        <ele>175.60000610352</ele>
        <time>2023-12-17T10:05:10.000Z</time>
      </trkpt>
      <trkpt lat="44.8748" lon="4.81808">
        <ele>175.80000305176</ele>
        <time>2023-12-17T10:05:12.000Z</time>
      </trkpt>
      <trkpt lat="44.87463" lon="4.81804">
        <ele>176.19999694824</ele>
        <time>2023-12-17T10:05:16.000Z</time>
      </trkpt>
      <trkpt lat="44.8746" lon="4.81801">
        <ele>176.39999389648</ele>
        <time>2023-12-17T10:05:17.000Z</time>
      </trkpt>
      <trkpt lat="44.87456" lon="4.81797">
        <ele>176.80000305176</ele>
        <time>2023-12-17T10:05:18.000Z</time>
      </trkpt>
      <trkpt lat="44.87452" lon="4.81789">
        <ele>177.19999694824</ele>
        <time>2023-12-17T10:05:20.000Z</time>
      </trkpt>
      <trkpt lat="44.87449" lon="4.81785">
        <ele>177.39999389648</ele>
        <time>2023-12-17T10:05:21.000Z</time>
      </trkpt>
      <trkpt lat="44.87444" lon="4.81775">
        <ele>178.39999389648</ele>
        <time>2023-12-17T10:05:24.000Z</time>
      </trkpt>
      <trkpt lat="44.87442" lon="4.81771">
        <ele>178.80000305176</ele>
        <time>2023-12-17T10:05:25.000Z</time>
      </trkpt>
      <trkpt lat="44.8743" lon="4.81754">
        <ele>179.80000305176</ele>
        <time>2023-12-17T10:05:30.000Z</time>
      </trkpt>
      <trkpt lat="44.87428" lon="4.81751">
        <ele>179.80000305176</ele>
        <time>2023-12-17T10:05:31.000Z</time>
      </trkpt>
      <trkpt lat="44.87423" lon="4.81743">
        <ele>181</ele>
        <time>2023-12-17T10:05:33.000Z</time>
      </trkpt>
      <trkpt lat="44.87416" lon="4.81732">
        <ele>182</ele>
        <time>2023-12-17T10:05:36.000Z</time>
      </trkpt>
      <trkpt lat="44.87407" lon="4.81717">
        <ele>183</ele>
        <time>2023-12-17T10:05:40.000Z</time>
      </trkpt>
      <trkpt lat="44.87397" lon="4.81699">
        <ele>184</ele>
        <time>2023-12-17T10:05:44.000Z</time>
      </trkpt>
      <trkpt lat="44.87394" lon="4.81695">
        <ele>184.19999694824</ele>
        <time>2023-12-17T10:05:45.000Z</time>
      </trkpt>
      <trkpt lat="44.87387" lon="4.81684">
        <ele>185.39999389648</ele>
        <time>2023-12-17T10:05:48.000Z</time>
      </trkpt>
      <trkpt lat="44.87382" lon="4.81679">
        <ele>186.39999389648</ele>
        <time>2023-12-17T10:05:50.000Z</time>
      </trkpt>
      <trkpt lat="44.87379" lon="4.81678">
        <ele>186.60000610352</ele>
        <time>2023-12-17T10:05:51.000Z</time>
      </trkpt>
      <trkpt lat="44.87373" lon="4.81679">
        <ele>187.39999389648</ele>
        <time>2023-12-17T10:05:53.000Z</time>
      </trkpt>
      <trkpt lat="44.87367" lon="4.81683">
        <ele>188</ele>
        <time>2023-12-17T10:05:55.000Z</time>
      </trkpt>
      <trkpt lat="44.87361" lon="4.81689">
        <ele>188.60000610352</ele>
        <time>2023-12-17T10:05:57.000Z</time>
      </trkpt>
      <trkpt lat="44.87357" lon="4.81691">
        <ele>189</ele>
        <time>2023-12-17T10:05:58.000Z</time>
      </trkpt>
      <trkpt lat="44.87349" lon="4.81696">
        <ele>189.60000610352</ele>
        <time>2023-12-17T10:06:00.000Z</time>
      </trkpt>
      <trkpt lat="44.87345" lon="4.81697">
        <ele>189.60000610352</ele>
        <time>2023-12-17T10:06:01.000Z</time>
      </trkpt>
      <trkpt lat="44.87341" lon="4.81697">
        <ele>189.80000305176</ele>
        <time>2023-12-17T10:06:02.000Z</time>
      </trkpt>
      <trkpt lat="44.87326" lon="4.81696">
        <ele>189.60000610352</ele>
        <time>2023-12-17T10:06:06.000Z</time>
      </trkpt>
      <trkpt lat="44.87316" lon="4.81694">
        <ele>188.60000610352</ele>
        <time>2023-12-17T10:06:10.000Z</time>
      </trkpt>
      <trkpt lat="44.87314" lon="4.81693">
        <ele>188.39999389648</ele>
        <time>2023-12-17T10:06:11.000Z</time>
      </trkpt>
      <trkpt lat="44.87302" lon="4.81688">
        <ele>187.80000305176</ele>
        <time>2023-12-17T10:06:16.000Z</time>
      </trkpt>
      <trkpt lat="44.87293" lon="4.81682">
        <ele>187.39999389648</ele>
        <time>2023-12-17T10:06:18.000Z</time>
      </trkpt>
      <trkpt lat="44.87287" lon="4.81677">
        <ele>186.19999694824</ele>
        <time>2023-12-17T10:06:19.000Z</time>
      </trkpt>
      <trkpt lat="44.87275" lon="4.81665">
        <ele>185</ele>
        <time>2023-12-17T10:06:21.000Z</time>
      </trkpt>
      <trkpt lat="44.87262" lon="4.81651">
        <ele>182.80000305176</ele>
        <time>2023-12-17T10:06:23.000Z</time>
      </trkpt>
      <trkpt lat="44.87254" lon="4.81645">
        <ele>181.80000305176</ele>
        <time>2023-12-17T10:06:24.000Z</time>
      </trkpt>
      <trkpt lat="44.8724" lon="4.81631">
        <ele>180.60000610352</ele>
        <time>2023-12-17T10:06:26.000Z</time>
      </trkpt>
      <trkpt lat="44.87237" lon="4.81623">
        <ele>180</ele>
        <time>2023-12-17T10:06:27.000Z</time>
      </trkpt>
      <trkpt lat="44.87229" lon="4.816">
        <ele>179.80000305176</ele>
        <time>2023-12-17T10:06:31.000Z</time>
      </trkpt>
      <trkpt lat="44.87228" lon="4.81592">
        <ele>181.60000610352</ele>
        <time>2023-12-17T10:06:33.000Z</time>
      </trkpt>
      <trkpt lat="44.87226" lon="4.81588">
        <ele>182.80000305176</ele>
        <time>2023-12-17T10:06:34.000Z</time>
      </trkpt>
      <trkpt lat="44.87222" lon="4.81584">
        <ele>184.39999389648</ele>
        <time>2023-12-17T10:06:36.000Z</time>
      </trkpt>
      <trkpt lat="44.87219" lon="4.81583">
        <ele>185.39999389648</ele>
        <time>2023-12-17T10:06:37.000Z</time>
      </trkpt>
      <trkpt lat="44.87213" lon="4.81583">
        <ele>187</ele>
        <time>2023-12-17T10:06:39.000Z</time>
      </trkpt>
      <trkpt lat="44.8721" lon="4.81583">
        <ele>188.19999694824</ele>
        <time>2023-12-17T10:06:40.000Z</time>
      </trkpt>
      <trkpt lat="44.87207" lon="4.81584">
        <ele>189</ele>
        <time>2023-12-17T10:06:41.000Z</time>
      </trkpt>
      <trkpt lat="44.87204" lon="4.81585">
        <ele>189.80000305176</ele>
        <time>2023-12-17T10:06:42.000Z</time>
      </trkpt>
      <trkpt lat="44.87196" lon="4.81586">
        <ele>191.19999694824</ele>
        <time>2023-12-17T10:06:45.000Z</time>
      </trkpt>
      <trkpt lat="44.87188" lon="4.81585">
        <ele>192.39999389648</ele>
        <time>2023-12-17T10:06:48.000Z</time>
      </trkpt>
      <trkpt lat="44.87183" lon="4.81585">
        <ele>193.80000305176</ele>
        <time>2023-12-17T10:06:50.000Z</time>
      </trkpt>
      <trkpt lat="44.87178" lon="4.81584">
        <ele>195</ele>
        <time>2023-12-17T10:06:52.000Z</time>
      </trkpt>
      <trkpt lat="44.87175" lon="4.81582">
        <ele>195.80000305176</ele>
        <time>2023-12-17T10:06:53.000Z</time>
      </trkpt>
      <trkpt lat="44.87173" lon="4.8158">
        <ele>196.19999694824</ele>
        <time>2023-12-17T10:06:54.000Z</time>
      </trkpt>
      <trkpt lat="44.87169" lon="4.81574">
        <ele>197.39999389648</ele>
        <time>2023-12-17T10:06:56.000Z</time>
      </trkpt>
      <trkpt lat="44.87163" lon="4.81565">
        <ele>198.60000610352</ele>
        <time>2023-12-17T10:06:59.000Z</time>
      </trkpt>
      <trkpt lat="44.87151" lon="4.81551">
        <ele>199.60000610352</ele>
        <time>2023-12-17T10:07:05.000Z</time>
      </trkpt>
      <trkpt lat="44.87147" lon="4.81545">
        <ele>199.80000305176</ele>
        <time>2023-12-17T10:07:07.000Z</time>
      </trkpt>
      <trkpt lat="44.87133" lon="4.81528">
        <ele>200.80000305176</ele>
        <time>2023-12-17T10:07:13.000Z</time>
      </trkpt>
      <trkpt lat="44.87119" lon="4.81509">
        <ele>202</ele>
        <time>2023-12-17T10:07:19.000Z</time>
      </trkpt>
      <trkpt lat="44.87114" lon="4.81503">
        <ele>202.39999389648</ele>
        <time>2023-12-17T10:07:21.000Z</time>
      </trkpt>
      <trkpt lat="44.87109" lon="4.81496">
        <ele>203.19999694824</ele>
        <time>2023-12-17T10:07:23.000Z</time>
      </trkpt>
      <trkpt lat="44.87095" lon="4.81478">
        <ele>204.39999389648</ele>
        <time>2023-12-17T10:07:29.000Z</time>
      </trkpt>
      <trkpt lat="44.87092" lon="4.81475">
        <ele>204.80000305176</ele>
        <time>2023-12-17T10:07:30.000Z</time>
      </trkpt>
      <trkpt lat="44.87088" lon="4.8147">
        <ele>205.60000610352</ele>
        <time>2023-12-17T10:07:32.000Z</time>
      </trkpt>
      <trkpt lat="44.87083" lon="4.81463">
        <ele>206.60000610352</ele>
        <time>2023-12-17T10:07:35.000Z</time>
      </trkpt>
      <trkpt lat="44.8708" lon="4.81459">
        <ele>207.39999389648</ele>
        <time>2023-12-17T10:07:40.000Z</time>
      </trkpt>
      <trkpt lat="44.87081" lon="4.81459">
        <ele>207.39999389648</ele>
        <time>2023-12-17T10:07:47.000Z</time>
      </trkpt>
      <trkpt lat="44.87081" lon="4.81459">
        <ele>207</ele>
        <time>2023-12-17T10:07:58.000Z</time>
      </trkpt>
      <trkpt lat="44.87081" lon="4.81459">
        <ele>207</ele>
        <time>2023-12-17T10:08:09.000Z</time>
      </trkpt>
      <trkpt lat="44.87081" lon="4.81459">
        <ele>206.80000305176</ele>
        <time>2023-12-17T10:08:21.000Z</time>
      </trkpt>
      <trkpt lat="44.87081" lon="4.81459">
        <ele>206.80000305176</ele>
        <time>2023-12-17T10:08:23.000Z</time>
      </trkpt>
      <trkpt lat="44.87081" lon="4.81459">
        <ele>206.39999389648</ele>
        <time>2023-12-17T10:08:37.000Z</time>
      </trkpt>
      <trkpt lat="44.87081" lon="4.81459">
        <ele>206.19999694824</ele>
        <time>2023-12-17T10:09:16.000Z</time>
      </trkpt>
      <trkpt lat="44.87081" lon="4.81459">
        <ele>206.39999389648</ele>
        <time>2023-12-17T10:09:18.000Z</time>
      </trkpt>
      <trkpt lat="44.87081" lon="4.81459">
        <ele>206.39999389648</ele>
        <time>2023-12-17T10:09:31.000Z</time>
      </trkpt>
      <trkpt lat="44.8708" lon="4.81458">
        <ele>206.60000610352</ele>
        <time>2023-12-17T10:09:38.000Z</time>
      </trkpt>
      <trkpt lat="44.87079" lon="4.81456">
        <ele>206.39999389648</ele>
        <time>2023-12-17T10:09:40.000Z</time>
      </trkpt>
      <trkpt lat="44.87076" lon="4.81453">
        <ele>206.19999694824</ele>
        <time>2023-12-17T10:09:43.000Z</time>
      </trkpt>
      <trkpt lat="44.87076" lon="4.81449">
        <ele>206.19999694824</ele>
        <time>2023-12-17T10:09:45.000Z</time>
      </trkpt>
      <trkpt lat="44.87081" lon="4.81435">
        <ele>207.39999389648</ele>
        <time>2023-12-17T10:09:51.000Z</time>
      </trkpt>
      <trkpt lat="44.87081" lon="4.81432">
        <ele>207.80000305176</ele>
        <time>2023-12-17T10:09:52.000Z</time>
      </trkpt>
      <trkpt lat="44.87084" lon="4.81412">
        <ele>208.80000305176</ele>
        <time>2023-12-17T10:09:58.000Z</time>
      </trkpt>
      <trkpt lat="44.87084" lon="4.81409">
        <ele>209.19999694824</ele>
        <time>2023-12-17T10:09:59.000Z</time>
      </trkpt>
      <trkpt lat="44.87085" lon="4.81402">
        <ele>210</ele>
        <time>2023-12-17T10:10:01.000Z</time>
      </trkpt>
      <trkpt lat="44.87087" lon="4.81389">
        <ele>211</ele>
        <time>2023-12-17T10:10:05.000Z</time>
      </trkpt>
      <trkpt lat="44.87088" lon="4.81386">
        <ele>211.39999389648</ele>
        <time>2023-12-17T10:10:06.000Z</time>
      </trkpt>
      <trkpt lat="44.8709" lon="4.81375">
        <ele>212.19999694824</ele>
        <time>2023-12-17T10:10:09.000Z</time>
      </trkpt>
      <trkpt lat="44.87092" lon="4.81364">
        <ele>213</ele>
        <time>2023-12-17T10:10:12.000Z</time>
      </trkpt>
      <trkpt lat="44.87093" lon="4.81357">
        <ele>213.39999389648</ele>
        <time>2023-12-17T10:10:14.000Z</time>
      </trkpt>
      <trkpt lat="44.87094" lon="4.81351">
        <ele>214</ele>
        <time>2023-12-17T10:10:16.000Z</time>
      </trkpt>
      <trkpt lat="44.87095" lon="4.81348">
        <ele>214.80000305176</ele>
        <time>2023-12-17T10:10:17.000Z</time>
      </trkpt>
      <trkpt lat="44.87095" lon="4.81339">
        <ele>215.60000610352</ele>
        <time>2023-12-17T10:10:20.000Z</time>
      </trkpt>
      <trkpt lat="44.87095" lon="4.81336">
        <ele>216</ele>
        <time>2023-12-17T10:10:21.000Z</time>
      </trkpt>
      <trkpt lat="44.87094" lon="4.81327">
        <ele>217.19999694824</ele>
        <time>2023-12-17T10:10:24.000Z</time>
      </trkpt>
      <trkpt lat="44.87093" lon="4.81318">
        <ele>218.39999389648</ele>
        <time>2023-12-17T10:10:27.000Z</time>
      </trkpt>
      <trkpt lat="44.87093" lon="4.81309">
        <ele>219.80000305176</ele>
        <time>2023-12-17T10:10:30.000Z</time>
      </trkpt>
      <trkpt lat="44.87093" lon="4.81297">
        <ele>221.19999694824</ele>
        <time>2023-12-17T10:10:34.000Z</time>
      </trkpt>
      <trkpt lat="44.87089" lon="4.81279">
        <ele>222.19999694824</ele>
        <time>2023-12-17T10:10:40.000Z</time>
      </trkpt>
      <trkpt lat="44.87086" lon="4.81267">
        <ele>223.39999389648</ele>
        <time>2023-12-17T10:10:44.000Z</time>
      </trkpt>
      <trkpt lat="44.87083" lon="4.81258">
        <ele>224.80000305176</ele>
        <time>2023-12-17T10:10:47.000Z</time>
      </trkpt>
      <trkpt lat="44.87082" lon="4.81255">
        <ele>225</ele>
        <time>2023-12-17T10:10:48.000Z</time>
      </trkpt>
      <trkpt lat="44.87079" lon="4.81242">
        <ele>226.19999694824</ele>
        <time>2023-12-17T10:10:52.000Z</time>
      </trkpt>
      <trkpt lat="44.87077" lon="4.81233">
        <ele>227</ele>
        <time>2023-12-17T10:10:55.000Z</time>
      </trkpt>
      <trkpt lat="44.87076" lon="4.81229">
        <ele>227.19999694824</ele>
        <time>2023-12-17T10:10:56.000Z</time>
      </trkpt>
      <trkpt lat="44.87075" lon="4.81223">
        <ele>228.19999694824</ele>
        <time>2023-12-17T10:10:58.000Z</time>
      </trkpt>
      <trkpt lat="44.87073" lon="4.81214">
        <ele>229.60000610352</ele>
        <time>2023-12-17T10:11:01.000Z</time>
      </trkpt>
      <trkpt lat="44.87071" lon="4.81209">
        <ele>230.80000305176</ele>
        <time>2023-12-17T10:11:03.000Z</time>
      </trkpt>
      <trkpt lat="44.87067" lon="4.81207">
        <ele>231.80000305176</ele>
        <time>2023-12-17T10:11:05.000Z</time>
      </trkpt>
      <trkpt lat="44.87065" lon="4.81207">
        <ele>232.19999694824</ele>
        <time>2023-12-17T10:11:06.000Z</time>
      </trkpt>
      <trkpt lat="44.87062" lon="4.81207">
        <ele>232.80000305176</ele>
        <time>2023-12-17T10:11:08.000Z</time>
      </trkpt>
      <trkpt lat="44.87058" lon="4.81208">
        <ele>234</ele>
        <time>2023-12-17T10:11:10.000Z</time>
      </trkpt>
      <trkpt lat="44.87054" lon="4.81209">
        <ele>235</ele>
        <time>2023-12-17T10:11:12.000Z</time>
      </trkpt>
      <trkpt lat="44.87051" lon="4.8121">
        <ele>235.39999389648</ele>
        <time>2023-12-17T10:11:14.000Z</time>
      </trkpt>
      <trkpt lat="44.87047" lon="4.81211">
        <ele>236.19999694824</ele>
        <time>2023-12-17T10:11:16.000Z</time>
      </trkpt>
      <trkpt lat="44.87038" lon="4.81212">
        <ele>237.19999694824</ele>
        <time>2023-12-17T10:11:20.000Z</time>
      </trkpt>
      <trkpt lat="44.87034" lon="4.81211">
        <ele>237.39999389648</ele>
        <time>2023-12-17T10:11:22.000Z</time>
      </trkpt>
      <trkpt lat="44.87022" lon="4.81206">
        <ele>237.80000305176</ele>
        <time>2023-12-17T10:11:26.000Z</time>
      </trkpt>
      <trkpt lat="44.87018" lon="4.81203">
        <ele>238.39999389648</ele>
        <time>2023-12-17T10:11:28.000Z</time>
      </trkpt>
      <trkpt lat="44.87016" lon="4.81203">
        <ele>238.60000610352</ele>
        <time>2023-12-17T10:11:29.000Z</time>
      </trkpt>
      <trkpt lat="44.87013" lon="4.81205">
        <ele>239</ele>
        <time>2023-12-17T10:11:30.000Z</time>
      </trkpt>
      <trkpt lat="44.87007" lon="4.81208">
        <ele>239.60000610352</ele>
        <time>2023-12-17T10:11:33.000Z</time>
      </trkpt>
      <trkpt lat="44.87002" lon="4.81211">
        <ele>240</ele>
        <time>2023-12-17T10:11:36.000Z</time>
      </trkpt>
      <trkpt lat="44.86997" lon="4.81212">
        <ele>240.60000610352</ele>
        <time>2023-12-17T10:11:39.000Z</time>
      </trkpt>
      <trkpt lat="44.8699" lon="4.81213">
        <ele>241.39999389648</ele>
        <time>2023-12-17T10:11:43.000Z</time>
      </trkpt>
      <trkpt lat="44.86987" lon="4.81212">
        <ele>241.80000305176</ele>
        <time>2023-12-17T10:11:45.000Z</time>
      </trkpt>
      <trkpt lat="44.86985" lon="4.81211">
        <ele>242</ele>
        <time>2023-12-17T10:11:46.000Z</time>
      </trkpt>
      <trkpt lat="44.86984" lon="4.81207">
        <ele>242.19999694824</ele>
        <time>2023-12-17T10:11:48.000Z</time>
      </trkpt>
      <trkpt lat="44.86984" lon="4.81205">
        <ele>242.19999694824</ele>
        <time>2023-12-17T10:11:49.000Z</time>
      </trkpt>
      <trkpt lat="44.86985" lon="4.81203">
        <ele>242.19999694824</ele>
        <time>2023-12-17T10:11:50.000Z</time>
      </trkpt>
      <trkpt lat="44.86991" lon="4.81199">
        <ele>242.19999694824</ele>
        <time>2023-12-17T10:11:54.000Z</time>
      </trkpt>
      <trkpt lat="44.86997" lon="4.81196">
        <ele>242.80000305176</ele>
        <time>2023-12-17T10:11:57.000Z</time>
      </trkpt>
      <trkpt lat="44.87003" lon="4.81192">
        <ele>244.19999694824</ele>
        <time>2023-12-17T10:12:00.000Z</time>
      </trkpt>
      <trkpt lat="44.87005" lon="4.81191">
        <ele>244.39999389648</ele>
        <time>2023-12-17T10:12:01.000Z</time>
      </trkpt>
      <trkpt lat="44.8702" lon="4.81187">
        <ele>245.39999389648</ele>
        <time>2023-12-17T10:12:07.000Z</time>
      </trkpt>
      <trkpt lat="44.87026" lon="4.81187">
        <ele>246</ele>
        <time>2023-12-17T10:12:09.000Z</time>
      </trkpt>
      <trkpt lat="44.87031" lon="4.81186">
        <ele>246.60000610352</ele>
        <time>2023-12-17T10:12:11.000Z</time>
      </trkpt>
      <trkpt lat="44.8704" lon="4.81182">
        <ele>247.60000610352</ele>
        <time>2023-12-17T10:12:14.000Z</time>
      </trkpt>
      <trkpt lat="44.87047" lon="4.81175">
        <ele>255</ele>
        <time>2023-12-17T10:12:17.000Z</time>
      </trkpt>
      <trkpt lat="44.87048" lon="4.81172">
        <ele>255</ele>
        <time>2023-12-17T10:12:18.000Z</time>
      </trkpt>
      <trkpt lat="44.87048" lon="4.8116">
        <ele>252.60000610352</ele>
        <time>2023-12-17T10:12:21.000Z</time>
      </trkpt>
      <trkpt lat="44.87048" lon="4.81155">
        <ele>251.39999389648</ele>
        <time>2023-12-17T10:12:22.000Z</time>
      </trkpt>
      <trkpt lat="44.87049" lon="4.81147">
        <ele>250.60000610352</ele>
        <time>2023-12-17T10:12:24.000Z</time>
      </trkpt>
      <trkpt lat="44.87053" lon="4.81121">
        <ele>252.39999389648</ele>
        <time>2023-12-17T10:12:31.000Z</time>
      </trkpt>
      <trkpt lat="44.87054" lon="4.81117">
        <ele>252.60000610352</ele>
        <time>2023-12-17T10:12:32.000Z</time>
      </trkpt>
      <trkpt lat="44.87056" lon="4.81106">
        <ele>253.60000610352</ele>
        <time>2023-12-17T10:12:35.000Z</time>
      </trkpt>
      <trkpt lat="44.87058" lon="4.81095">
        <ele>255</ele>
        <time>2023-12-17T10:12:38.000Z</time>
      </trkpt>
      <trkpt lat="44.87059" lon="4.81082">
        <ele>256</ele>
        <time>2023-12-17T10:12:42.000Z</time>
      </trkpt>
      <trkpt lat="44.8706" lon="4.81078">
        <ele>256.20001220703</ele>
        <time>2023-12-17T10:12:43.000Z</time>
      </trkpt>
      <trkpt lat="44.87061" lon="4.81067">
        <ele>257.20001220703</ele>
        <time>2023-12-17T10:12:46.000Z</time>
      </trkpt>
      <trkpt lat="44.87064" lon="4.8105">
        <ele>258.20001220703</ele>
        <time>2023-12-17T10:12:51.000Z</time>
      </trkpt>
      <trkpt lat="44.87065" lon="4.81047">
        <ele>258.20001220703</ele>
        <time>2023-12-17T10:12:52.000Z</time>
      </trkpt>
      <trkpt lat="44.87066" lon="4.81027">
        <ele>259</ele>
        <time>2023-12-17T10:12:57.000Z</time>
      </trkpt>
      <trkpt lat="44.87065" lon="4.81019">
        <ele>259.39999389648</ele>
        <time>2023-12-17T10:12:59.000Z</time>
      </trkpt>
      <trkpt lat="44.87065" lon="4.81004">
        <ele>260.39999389648</ele>
        <time>2023-12-17T10:13:03.000Z</time>
      </trkpt>
      <trkpt lat="44.87065" lon="4.80996">
        <ele>260.79998779297</ele>
        <time>2023-12-17T10:13:05.000Z</time>
      </trkpt>
      <trkpt lat="44.87064" lon="4.80988">
        <ele>261.79998779297</ele>
        <time>2023-12-17T10:13:07.000Z</time>
      </trkpt>
      <trkpt lat="44.87061" lon="4.80977">
        <ele>262.79998779297</ele>
        <time>2023-12-17T10:13:10.000Z</time>
      </trkpt>
      <trkpt lat="44.87056" lon="4.80966">
        <ele>263.39999389648</ele>
        <time>2023-12-17T10:13:13.000Z</time>
      </trkpt>
      <trkpt lat="44.87054" lon="4.80958">
        <ele>264</ele>
        <time>2023-12-17T10:13:15.000Z</time>
      </trkpt>
      <trkpt lat="44.87049" lon="4.80946">
        <ele>265.20001220703</ele>
        <time>2023-12-17T10:13:18.000Z</time>
      </trkpt>
      <trkpt lat="44.87045" lon="4.80934">
        <ele>265.79998779297</ele>
        <time>2023-12-17T10:13:21.000Z</time>
      </trkpt>
      <trkpt lat="44.87042" lon="4.80926">
        <ele>266.39999389648</ele>
        <time>2023-12-17T10:13:23.000Z</time>
      </trkpt>
      <trkpt lat="44.87038" lon="4.80914">
        <ele>267.39999389648</ele>
        <time>2023-12-17T10:13:26.000Z</time>
      </trkpt>
      <trkpt lat="44.87034" lon="4.80903">
        <ele>267.79998779297</ele>
        <time>2023-12-17T10:13:29.000Z</time>
      </trkpt>
      <trkpt lat="44.87032" lon="4.80896">
        <ele>268.79998779297</ele>
        <time>2023-12-17T10:13:31.000Z</time>
      </trkpt>
      <trkpt lat="44.8703" lon="4.80889">
        <ele>270.20001220703</ele>
        <time>2023-12-17T10:13:33.000Z</time>
      </trkpt>
      <trkpt lat="44.87027" lon="4.80875">
        <ele>271.39999389648</ele>
        <time>2023-12-17T10:13:37.000Z</time>
      </trkpt>
      <trkpt lat="44.87027" lon="4.8087">
        <ele>272.79998779297</ele>
        <time>2023-12-17T10:13:39.000Z</time>
      </trkpt>
      <trkpt lat="44.87026" lon="4.8086">
        <ele>273.20001220703</ele>
        <time>2023-12-17T10:13:42.000Z</time>
      </trkpt>
      <trkpt lat="44.87026" lon="4.80842">
        <ele>273.79998779297</ele>
        <time>2023-12-17T10:13:47.000Z</time>
      </trkpt>
      <trkpt lat="44.87026" lon="4.80834">
        <ele>274.20001220703</ele>
        <time>2023-12-17T10:13:49.000Z</time>
      </trkpt>
      <trkpt lat="44.87026" lon="4.8083">
        <ele>274.39999389648</ele>
        <time>2023-12-17T10:13:50.000Z</time>
      </trkpt>
      <trkpt lat="44.87026" lon="4.80826">
        <ele>275</ele>
        <time>2023-12-17T10:13:51.000Z</time>
      </trkpt>
      <trkpt lat="44.87026" lon="4.80813">
        <ele>276.20001220703</ele>
        <time>2023-12-17T10:13:54.000Z</time>
      </trkpt>
      <trkpt lat="44.87029" lon="4.80801">
        <ele>276.79998779297</ele>
        <time>2023-12-17T10:13:57.000Z</time>
      </trkpt>
      <trkpt lat="44.8703" lon="4.80797">
        <ele>277.39999389648</ele>
        <time>2023-12-17T10:13:58.000Z</time>
      </trkpt>
      <trkpt lat="44.87037" lon="4.80782">
        <ele>278.60000610352</ele>
        <time>2023-12-17T10:14:02.000Z</time>
      </trkpt>
      <trkpt lat="44.87042" lon="4.80771">
        <ele>279.39999389648</ele>
        <time>2023-12-17T10:14:05.000Z</time>
      </trkpt>
      <trkpt lat="44.87045" lon="4.80763">
        <ele>279.79998779297</ele>
        <time>2023-12-17T10:14:07.000Z</time>
      </trkpt>
      <trkpt lat="44.87048" lon="4.80752">
        <ele>281</ele>
        <time>2023-12-17T10:14:10.000Z</time>
      </trkpt>
      <trkpt lat="44.87049" lon="4.80745">
        <ele>282</ele>
        <time>2023-12-17T10:14:12.000Z</time>
      </trkpt>
      <trkpt lat="44.8705" lon="4.80742">
        <ele>282.20001220703</ele>
        <time>2023-12-17T10:14:13.000Z</time>
      </trkpt>
      <trkpt lat="44.87051" lon="4.8073">
        <ele>283.60000610352</ele>
        <time>2023-12-17T10:14:16.000Z</time>
      </trkpt>
      <trkpt lat="44.87055" lon="4.80716">
        <ele>284.79998779297</ele>
        <time>2023-12-17T10:14:20.000Z</time>
      </trkpt>
      <trkpt lat="44.8706" lon="4.80706">
        <ele>286</ele>
        <time>2023-12-17T10:14:23.000Z</time>
      </trkpt>
      <trkpt lat="44.87068" lon="4.80694">
        <ele>287.20001220703</ele>
        <time>2023-12-17T10:14:27.000Z</time>
      </trkpt>
      <trkpt lat="44.87074" lon="4.80686">
        <ele>288.60000610352</ele>
        <time>2023-12-17T10:14:30.000Z</time>
      </trkpt>
      <trkpt lat="44.8708" lon="4.80678">
        <ele>289.79998779297</ele>
        <time>2023-12-17T10:14:33.000Z</time>
      </trkpt>
      <trkpt lat="44.87084" lon="4.80673">
        <ele>290.79998779297</ele>
        <time>2023-12-17T10:14:35.000Z</time>
      </trkpt>
      <trkpt lat="44.87091" lon="4.80661">
        <ele>292.20001220703</ele>
        <time>2023-12-17T10:14:39.000Z</time>
      </trkpt>
      <trkpt lat="44.87097" lon="4.80648">
        <ele>293.20001220703</ele>
        <time>2023-12-17T10:14:43.000Z</time>
      </trkpt>
      <trkpt lat="44.87098" lon="4.80644">
        <ele>293.60000610352</ele>
        <time>2023-12-17T10:14:44.000Z</time>
      </trkpt>
      <trkpt lat="44.87103" lon="4.80633">
        <ele>294.79998779297</ele>
        <time>2023-12-17T10:14:47.000Z</time>
      </trkpt>
      <trkpt lat="44.87111" lon="4.80611">
        <ele>295.79998779297</ele>
        <time>2023-12-17T10:14:53.000Z</time>
      </trkpt>
      <trkpt lat="44.87113" lon="4.80608">
        <ele>295.79998779297</ele>
        <time>2023-12-17T10:14:54.000Z</time>
      </trkpt>
      <trkpt lat="44.87118" lon="4.80598">
        <ele>297.20001220703</ele>
        <time>2023-12-17T10:14:57.000Z</time>
      </trkpt>
      <trkpt lat="44.87123" lon="4.80584">
        <ele>298.20001220703</ele>
        <time>2023-12-17T10:15:01.000Z</time>
      </trkpt>
      <trkpt lat="44.87127" lon="4.80569">
        <ele>299.39999389648</ele>
        <time>2023-12-17T10:15:05.000Z</time>
      </trkpt>
      <trkpt lat="44.87128" lon="4.80561">
        <ele>300</ele>
        <time>2023-12-17T10:15:07.000Z</time>
      </trkpt>
      <trkpt lat="44.87129" lon="4.80553">
        <ele>300.79998779297</ele>
        <time>2023-12-17T10:15:09.000Z</time>
      </trkpt>
      <trkpt lat="44.8713" lon="4.80531">
        <ele>301.79998779297</ele>
        <time>2023-12-17T10:15:14.000Z</time>
      </trkpt>
      <trkpt lat="44.8713" lon="4.80527">
        <ele>302</ele>
        <time>2023-12-17T10:15:15.000Z</time>
      </trkpt>
      <trkpt lat="44.87133" lon="4.80506">
        <ele>303</ele>
        <time>2023-12-17T10:15:20.000Z</time>
      </trkpt>
      <trkpt lat="44.87136" lon="4.80498">
        <ele>304</ele>
        <time>2023-12-17T10:15:22.000Z</time>
      </trkpt>
      <trkpt lat="44.87138" lon="4.80494">
        <ele>304.20001220703</ele>
        <time>2023-12-17T10:15:23.000Z</time>
      </trkpt>
      <trkpt lat="44.87152" lon="4.80486">
        <ele>304.79998779297</ele>
        <time>2023-12-17T10:15:27.000Z</time>
      </trkpt>
      <trkpt lat="44.87156" lon="4.8048">
        <ele>305.20001220703</ele>
        <time>2023-12-17T10:15:29.000Z</time>
      </trkpt>
      <trkpt lat="44.87165" lon="4.80468">
        <ele>306</ele>
        <time>2023-12-17T10:15:33.000Z</time>
      </trkpt>
      <trkpt lat="44.87169" lon="4.80462">
        <ele>306.79998779297</ele>
        <time>2023-12-17T10:15:35.000Z</time>
      </trkpt>
      <trkpt lat="44.87178" lon="4.80451">
        <ele>308</ele>
        <time>2023-12-17T10:15:39.000Z</time>
      </trkpt>
      <trkpt lat="44.8718" lon="4.80447">
        <ele>308.60000610352</ele>
        <time>2023-12-17T10:15:40.000Z</time>
      </trkpt>
      <trkpt lat="44.87182" lon="4.80444">
        <ele>309.20001220703</ele>
        <time>2023-12-17T10:15:41.000Z</time>
      </trkpt>
      <trkpt lat="44.87187" lon="4.80433">
        <ele>310.39999389648</ele>
        <time>2023-12-17T10:15:44.000Z</time>
      </trkpt>
      <trkpt lat="44.87188" lon="4.8043">
        <ele>311</ele>
        <time>2023-12-17T10:15:45.000Z</time>
      </trkpt>
      <trkpt lat="44.87189" lon="4.80425">
        <ele>311.39999389648</ele>
        <time>2023-12-17T10:15:46.000Z</time>
      </trkpt>
      <trkpt lat="44.8719" lon="4.80421">
        <ele>313.79998779297</ele>
        <time>2023-12-17T10:15:47.000Z</time>
      </trkpt>
      <trkpt lat="44.87195" lon="4.80408">
        <ele>314.20001220703</ele>
        <time>2023-12-17T10:15:51.000Z</time>
      </trkpt>
      <trkpt lat="44.872" lon="4.80398">
        <ele>315</ele>
        <time>2023-12-17T10:15:54.000Z</time>
      </trkpt>
      <trkpt lat="44.87202" lon="4.8039">
        <ele>315.39999389648</ele>
        <time>2023-12-17T10:15:56.000Z</time>
      </trkpt>
      <trkpt lat="44.87203" lon="4.80377">
        <ele>316.20001220703</ele>
        <time>2023-12-17T10:15:59.000Z</time>
      </trkpt>
      <trkpt lat="44.87206" lon="4.80364">
        <ele>317.39999389648</ele>
        <time>2023-12-17T10:16:02.000Z</time>
      </trkpt>
      <trkpt lat="44.87208" lon="4.80353">
        <ele>318.79998779297</ele>
        <time>2023-12-17T10:16:05.000Z</time>
      </trkpt>
      <trkpt lat="44.87211" lon="4.80342">
        <ele>320</ele>
        <time>2023-12-17T10:16:08.000Z</time>
      </trkpt>
      <trkpt lat="44.87215" lon="4.80326">
        <ele>321</ele>
        <time>2023-12-17T10:16:12.000Z</time>
      </trkpt>
      <trkpt lat="44.87217" lon="4.80318">
        <ele>321.79998779297</ele>
        <time>2023-12-17T10:16:14.000Z</time>
      </trkpt>
      <trkpt lat="44.87218" lon="4.80314">
        <ele>322.20001220703</ele>
        <time>2023-12-17T10:16:15.000Z</time>
      </trkpt>
      <trkpt lat="44.87225" lon="4.80293">
        <ele>323.39999389648</ele>
        <time>2023-12-17T10:16:20.000Z</time>
      </trkpt>
      <trkpt lat="44.87227" lon="4.80285">
        <ele>323.79998779297</ele>
        <time>2023-12-17T10:16:22.000Z</time>
      </trkpt>
      <trkpt lat="44.87228" lon="4.80272">
        <ele>324.60000610352</ele>
        <time>2023-12-17T10:16:25.000Z</time>
      </trkpt>
      <trkpt lat="44.8723" lon="4.8026">
        <ele>325.20001220703</ele>
        <time>2023-12-17T10:16:28.000Z</time>
      </trkpt>
      <trkpt lat="44.87235" lon="4.80244">
        <ele>325.79998779297</ele>
        <time>2023-12-17T10:16:32.000Z</time>
      </trkpt>
      <trkpt lat="44.87238" lon="4.8024">
        <ele>326</ele>
        <time>2023-12-17T10:16:33.000Z</time>
      </trkpt>
      <trkpt lat="44.87249" lon="4.8023">
        <ele>327.20001220703</ele>
        <time>2023-12-17T10:16:37.000Z</time>
      </trkpt>
      <trkpt lat="44.87252" lon="4.80229">
        <ele>327.60000610352</ele>
        <time>2023-12-17T10:16:38.000Z</time>
      </trkpt>
      <trkpt lat="44.87258" lon="4.80228">
        <ele>328.39999389648</ele>
        <time>2023-12-17T10:16:40.000Z</time>
      </trkpt>
      <trkpt lat="44.87271" lon="4.8023">
        <ele>329.20001220703</ele>
        <time>2023-12-17T10:16:44.000Z</time>
      </trkpt>
      <trkpt lat="44.87277" lon="4.8023">
        <ele>329.60000610352</ele>
        <time>2023-12-17T10:16:46.000Z</time>
      </trkpt>
      <trkpt lat="44.87284" lon="4.80231">
        <ele>330.60000610352</ele>
        <time>2023-12-17T10:16:48.000Z</time>
      </trkpt>
      <trkpt lat="44.87293" lon="4.8023">
        <ele>331.20001220703</ele>
        <time>2023-12-17T10:16:51.000Z</time>
      </trkpt>
      <trkpt lat="44.87299" lon="4.80229">
        <ele>331.79998779297</ele>
        <time>2023-12-17T10:16:53.000Z</time>
      </trkpt>
      <trkpt lat="44.87308" lon="4.80224">
        <ele>333.39999389648</ele>
        <time>2023-12-17T10:16:56.000Z</time>
      </trkpt>
      <trkpt lat="44.87311" lon="4.80223">
        <ele>334</ele>
        <time>2023-12-17T10:16:57.000Z</time>
      </trkpt>
      <trkpt lat="44.87316" lon="4.80219">
        <ele>334.39999389648</ele>
        <time>2023-12-17T10:16:59.000Z</time>
      </trkpt>
      <trkpt lat="44.87326" lon="4.80211">
        <ele>335.60000610352</ele>
        <time>2023-12-17T10:17:03.000Z</time>
      </trkpt>
      <trkpt lat="44.87328" lon="4.80209">
        <ele>336</ele>
        <time>2023-12-17T10:17:04.000Z</time>
      </trkpt>
      <trkpt lat="44.87335" lon="4.80204">
        <ele>336.79998779297</ele>
        <time>2023-12-17T10:17:07.000Z</time>
      </trkpt>
      <trkpt lat="44.87337" lon="4.80201">
        <ele>337.60000610352</ele>
        <time>2023-12-17T10:17:09.000Z</time>
      </trkpt>
      <trkpt lat="44.87339" lon="4.802">
        <ele>337.79998779297</ele>
        <time>2023-12-17T10:17:11.000Z</time>
      </trkpt>
      <trkpt lat="44.8734" lon="4.802">
        <ele>338.20001220703</ele>
        <time>2023-12-17T10:17:14.000Z</time>
      </trkpt>
      <trkpt lat="44.87342" lon="4.80198">
        <ele>338.79998779297</ele>
        <time>2023-12-17T10:17:20.000Z</time>
      </trkpt>
      <trkpt lat="44.87341" lon="4.80198">
        <ele>338.79998779297</ele>
        <time>2023-12-17T10:17:26.000Z</time>
      </trkpt>
      <trkpt lat="44.87339" lon="4.80198">
        <ele>338.60000610352</ele>
        <time>2023-12-17T10:17:35.000Z</time>
      </trkpt>
      <trkpt lat="44.8734" lon="4.80198">
        <ele>338.60000610352</ele>
        <time>2023-12-17T10:17:43.000Z</time>
      </trkpt>
      <trkpt lat="44.87341" lon="4.802">
        <ele>338.20001220703</ele>
        <time>2023-12-17T10:17:48.000Z</time>
      </trkpt>
      <trkpt lat="44.8734" lon="4.802">
        <ele>338</ele>
        <time>2023-12-17T10:17:54.000Z</time>
      </trkpt>
      <trkpt lat="44.8734" lon="4.802">
        <ele>337.60000610352</ele>
        <time>2023-12-17T10:18:12.000Z</time>
      </trkpt>
      <trkpt lat="44.8734" lon="4.802">
        <ele>337.60000610352</ele>
        <time>2023-12-17T10:18:17.000Z</time>
      </trkpt>
      <trkpt lat="44.87341" lon="4.802">
        <ele>338</ele>
        <time>2023-12-17T10:18:26.000Z</time>
      </trkpt>
      <trkpt lat="44.87342" lon="4.802">
        <ele>337.60000610352</ele>
        <time>2023-12-17T10:18:34.000Z</time>
      </trkpt>
      <trkpt lat="44.87343" lon="4.802">
        <ele>337.79998779297</ele>
        <time>2023-12-17T10:18:35.000Z</time>
      </trkpt>
      <trkpt lat="44.8735" lon="4.80198">
        <ele>337.60000610352</ele>
        <time>2023-12-17T10:18:40.000Z</time>
      </trkpt>
      <trkpt lat="44.87363" lon="4.8019">
        <ele>336.79998779297</ele>
        <time>2023-12-17T10:18:45.000Z</time>
      </trkpt>
      <trkpt lat="44.87371" lon="4.80183">
        <ele>335.20001220703</ele>
        <time>2023-12-17T10:18:47.000Z</time>
      </trkpt>
      <trkpt lat="44.87384" lon="4.80174">
        <ele>335.20001220703</ele>
        <time>2023-12-17T10:18:50.000Z</time>
      </trkpt>
      <trkpt lat="44.87411" lon="4.80158">
        <ele>336.39999389648</ele>
        <time>2023-12-17T10:18:55.000Z</time>
      </trkpt>
      <trkpt lat="44.87416" lon="4.80155">
        <ele>336.60000610352</ele>
        <time>2023-12-17T10:18:56.000Z</time>
      </trkpt>
      <trkpt lat="44.87428" lon="4.80148">
        <ele>337.60000610352</ele>
        <time>2023-12-17T10:18:59.000Z</time>
      </trkpt>
      <trkpt lat="44.87433" lon="4.80146">
        <ele>337.39999389648</ele>
        <time>2023-12-17T10:19:00.000Z</time>
      </trkpt>
      <trkpt lat="44.87437" lon="4.80144">
        <ele>337.39999389648</ele>
        <time>2023-12-17T10:19:01.000Z</time>
      </trkpt>
      <trkpt lat="44.8745" lon="4.80136">
        <ele>336.79998779297</ele>
        <time>2023-12-17T10:19:04.000Z</time>
      </trkpt>
      <trkpt lat="44.87454" lon="4.80134">
        <ele>336.60000610352</ele>
        <time>2023-12-17T10:19:05.000Z</time>
      </trkpt>
      <trkpt lat="44.87464" lon="4.80129">
        <ele>336.39999389648</ele>
        <time>2023-12-17T10:19:07.000Z</time>
      </trkpt>
      <trkpt lat="44.87484" lon="4.80123">
        <ele>336</ele>
        <time>2023-12-17T10:19:11.000Z</time>
      </trkpt>
      <trkpt lat="44.87491" lon="4.80118">
        <ele>335.20001220703</ele>
        <time>2023-12-17T10:19:13.000Z</time>
      </trkpt>
      <trkpt lat="44.87496" lon="4.80114">
        <ele>334.60000610352</ele>
        <time>2023-12-17T10:19:15.000Z</time>
      </trkpt>
      <trkpt lat="44.87512" lon="4.80108">
        <ele>334.20001220703</ele>
        <time>2023-12-17T10:19:21.000Z</time>
      </trkpt>
      <trkpt lat="44.87515" lon="4.80107">
        <ele>334</ele>
        <time>2023-12-17T10:19:22.000Z</time>
      </trkpt>
      <trkpt lat="44.87516" lon="4.80106">
        <ele>333.79998779297</ele>
        <time>2023-12-17T10:19:23.000Z</time>
      </trkpt>
      <trkpt lat="44.87518" lon="4.80109">
        <ele>333.60000610352</ele>
        <time>2023-12-17T10:19:25.000Z</time>
      </trkpt>
      <trkpt lat="44.87515" lon="4.80127">
        <ele>333.60000610352</ele>
        <time>2023-12-17T10:19:29.000Z</time>
      </trkpt>
      <trkpt lat="44.87504" lon="4.80145">
        <ele>335.39999389648</ele>
        <time>2023-12-17T10:19:35.000Z</time>
      </trkpt>
      <trkpt lat="44.875" lon="4.80157">
        <ele>336.39999389648</ele>
        <time>2023-12-17T10:19:38.000Z</time>
      </trkpt>
      <trkpt lat="44.87496" lon="4.8017">
        <ele>338</ele>
        <time>2023-12-17T10:19:41.000Z</time>
      </trkpt>
      <trkpt lat="44.87494" lon="4.8018">
        <ele>339.20001220703</ele>
        <time>2023-12-17T10:19:43.000Z</time>
      </trkpt>
      <trkpt lat="44.8749" lon="4.80193">
        <ele>340.39999389648</ele>
        <time>2023-12-17T10:19:46.000Z</time>
      </trkpt>
      <trkpt lat="44.87489" lon="4.80198">
        <ele>340.60000610352</ele>
        <time>2023-12-17T10:19:47.000Z</time>
      </trkpt>
      <trkpt lat="44.87487" lon="4.8021">
        <ele>341.39999389648</ele>
        <time>2023-12-17T10:19:50.000Z</time>
      </trkpt>
      <trkpt lat="44.87484" lon="4.80218">
        <ele>343</ele>
        <time>2023-12-17T10:19:52.000Z</time>
      </trkpt>
      <trkpt lat="44.87483" lon="4.80222">
        <ele>344</ele>
        <time>2023-12-17T10:19:53.000Z</time>
      </trkpt>
      <trkpt lat="44.87482" lon="4.80226">
        <ele>344.60000610352</ele>
        <time>2023-12-17T10:19:54.000Z</time>
      </trkpt>
      <trkpt lat="44.87481" lon="4.80229">
        <ele>345.20001220703</ele>
        <time>2023-12-17T10:19:55.000Z</time>
      </trkpt>
      <trkpt lat="44.87476" lon="4.80238">
        <ele>346.39999389648</ele>
        <time>2023-12-17T10:19:58.000Z</time>
      </trkpt>
      <trkpt lat="44.87473" lon="4.80244">
        <ele>347.60000610352</ele>
        <time>2023-12-17T10:20:00.000Z</time>
      </trkpt>
      <trkpt lat="44.87472" lon="4.80251">
        <ele>349</ele>
        <time>2023-12-17T10:20:02.000Z</time>
      </trkpt>
      <trkpt lat="44.87469" lon="4.8026">
        <ele>350.20001220703</ele>
        <time>2023-12-17T10:20:05.000Z</time>
      </trkpt>
      <trkpt lat="44.87467" lon="4.80262">
        <ele>350.79998779297</ele>
        <time>2023-12-17T10:20:06.000Z</time>
      </trkpt>
      <trkpt lat="44.87466" lon="4.80265">
        <ele>351.39999389648</ele>
        <time>2023-12-17T10:20:07.000Z</time>
      </trkpt>
      <trkpt lat="44.87465" lon="4.80272">
        <ele>352.39999389648</ele>
        <time>2023-12-17T10:20:10.000Z</time>
      </trkpt>
      <trkpt lat="44.87463" lon="4.80277">
        <ele>352.60000610352</ele>
        <time>2023-12-17T10:20:12.000Z</time>
      </trkpt>
      <trkpt lat="44.87461" lon="4.80282">
        <ele>353.79998779297</ele>
        <time>2023-12-17T10:20:14.000Z</time>
      </trkpt>
      <trkpt lat="44.87459" lon="4.80287">
        <ele>354.79998779297</ele>
        <time>2023-12-17T10:20:16.000Z</time>
      </trkpt>
      <trkpt lat="44.87457" lon="4.80293">
        <ele>356.20001220703</ele>
        <time>2023-12-17T10:20:19.000Z</time>
      </trkpt>
      <trkpt lat="44.87455" lon="4.80294">
        <ele>357</ele>
        <time>2023-12-17T10:20:24.000Z</time>
      </trkpt>
      <trkpt lat="44.87454" lon="4.80294">
        <ele>356.79998779297</ele>
        <time>2023-12-17T10:20:32.000Z</time>
      </trkpt>
      <trkpt lat="44.87454" lon="4.80294">
        <ele>356.60000610352</ele>
        <time>2023-12-17T10:20:41.000Z</time>
      </trkpt>
      <trkpt lat="44.87454" lon="4.80295">
        <ele>356.60000610352</ele>
        <time>2023-12-17T10:20:44.000Z</time>
      </trkpt>
      <trkpt lat="44.87452" lon="4.80297">
        <ele>356.60000610352</ele>
        <time>2023-12-17T10:20:47.000Z</time>
      </trkpt>
      <trkpt lat="44.87451" lon="4.803">
        <ele>357.20001220703</ele>
        <time>2023-12-17T10:20:55.000Z</time>
      </trkpt>
      <trkpt lat="44.87451" lon="4.803">
        <ele>357.20001220703</ele>
        <time>2023-12-17T10:20:58.000Z</time>
      </trkpt>
      <trkpt lat="44.87448" lon="4.80303">
        <ele>357.20001220703</ele>
        <time>2023-12-17T10:21:05.000Z</time>
      </trkpt>
      <trkpt lat="44.87445" lon="4.80312">
        <ele>358.20001220703</ele>
        <time>2023-12-17T10:21:13.000Z</time>
      </trkpt>
      <trkpt lat="44.87443" lon="4.80318">
        <ele>359</ele>
        <time>2023-12-17T10:21:18.000Z</time>
      </trkpt>
      <trkpt lat="44.87443" lon="4.8032">
        <ele>359</ele>
        <time>2023-12-17T10:21:21.000Z</time>
      </trkpt>
      <trkpt lat="44.87443" lon="4.80321">
        <ele>359.39999389648</ele>
        <time>2023-12-17T10:21:25.000Z</time>
      </trkpt>
      <trkpt lat="44.87443" lon="4.8032">
        <ele>359.39999389648</ele>
        <time>2023-12-17T10:21:33.000Z</time>
      </trkpt>
      <trkpt lat="44.87443" lon="4.8032">
        <ele>359</ele>
        <time>2023-12-17T10:21:56.000Z</time>
      </trkpt>
      <trkpt lat="44.87443" lon="4.8032">
        <ele>358.79998779297</ele>
        <time>2023-12-17T10:22:00.000Z</time>
      </trkpt>
      <trkpt lat="44.87443" lon="4.8032">
        <ele>358.79998779297</ele>
        <time>2023-12-17T10:22:08.000Z</time>
      </trkpt>
      <trkpt lat="44.87443" lon="4.80322">
        <ele>358.60000610352</ele>
        <time>2023-12-17T10:22:16.000Z</time>
      </trkpt>
      <trkpt lat="44.87443" lon="4.80322">
        <ele>358.20001220703</ele>
        <time>2023-12-17T10:22:20.000Z</time>
      </trkpt>
      <trkpt lat="44.87443" lon="4.80323">
        <ele>358.39999389648</ele>
        <time>2023-12-17T10:22:26.000Z</time>
      </trkpt>
      <trkpt lat="44.87438" lon="4.8032">
        <ele>358</ele>
        <time>2023-12-17T10:22:34.000Z</time>
      </trkpt>
      <trkpt lat="44.87437" lon="4.80323">
        <ele>358.20001220703</ele>
        <time>2023-12-17T10:22:36.000Z</time>
      </trkpt>
      <trkpt lat="44.87435" lon="4.80327">
        <ele>358.39999389648</ele>
        <time>2023-12-17T10:22:42.000Z</time>
      </trkpt>
      <trkpt lat="44.87431" lon="4.80327">
        <ele>358</ele>
        <time>2023-12-17T10:22:55.000Z</time>
      </trkpt>
      <trkpt lat="44.87436" lon="4.80315">
        <ele>357.79998779297</ele>
        <time>2023-12-17T10:23:01.000Z</time>
      </trkpt>
      <trkpt lat="44.87439" lon="4.8031">
        <ele>357.79998779297</ele>
        <time>2023-12-17T10:23:03.000Z</time>
      </trkpt>
      <trkpt lat="44.87451" lon="4.80298">
        <ele>357.60000610352</ele>
        <time>2023-12-17T10:23:11.000Z</time>
      </trkpt>
      <trkpt lat="44.87443" lon="4.80309">
        <ele>357.60000610352</ele>
        <time>2023-12-17T10:23:18.000Z</time>
      </trkpt>
      <trkpt lat="44.87443" lon="4.80314">
        <ele>357.60000610352</ele>
        <time>2023-12-17T10:23:25.000Z</time>
      </trkpt>
      <trkpt lat="44.87443" lon="4.80314">
        <ele>357.20001220703</ele>
        <time>2023-12-17T10:23:28.000Z</time>
      </trkpt>
      <trkpt lat="44.87443" lon="4.80314">
        <ele>357.20001220703</ele>
        <time>2023-12-17T10:23:30.000Z</time>
      </trkpt>
      <trkpt lat="44.87443" lon="4.80315">
        <ele>357.20001220703</ele>
        <time>2023-12-17T10:23:45.000Z</time>
      </trkpt>
      <trkpt lat="44.87443" lon="4.80315">
        <ele>357.20001220703</ele>
        <time>2023-12-17T10:23:57.000Z</time>
      </trkpt>
      <trkpt lat="44.87442" lon="4.80316">
        <ele>357.20001220703</ele>
        <time>2023-12-17T10:24:28.000Z</time>
      </trkpt>
      <trkpt lat="44.87441" lon="4.80314">
        <ele>357.20001220703</ele>
        <time>2023-12-17T10:24:59.000Z</time>
      </trkpt>
      <trkpt lat="44.87441" lon="4.80314">
        <ele>357.20001220703</ele>
        <time>2023-12-17T10:25:11.000Z</time>
      </trkpt>
      <trkpt lat="44.87441" lon="4.80313">
        <ele>357.20001220703</ele>
        <time>2023-12-17T10:25:24.000Z</time>
      </trkpt>
      <trkpt lat="44.87441" lon="4.80314">
        <ele>357.20001220703</ele>
        <time>2023-12-17T10:25:37.000Z</time>
      </trkpt>
      <trkpt lat="44.87441" lon="4.80313">
        <ele>357.20001220703</ele>
        <time>2023-12-17T10:26:02.000Z</time>
      </trkpt>
      <trkpt lat="44.8744" lon="4.80312">
        <ele>357.20001220703</ele>
        <time>2023-12-17T10:26:23.000Z</time>
      </trkpt>
      <trkpt lat="44.87436" lon="4.80319">
        <ele>357.20001220703</ele>
        <time>2023-12-17T10:26:34.000Z</time>
      </trkpt>
      <trkpt lat="44.87434" lon="4.80329">
        <ele>358.39999389648</ele>
        <time>2023-12-17T10:26:39.000Z</time>
      </trkpt>
      <trkpt lat="44.87433" lon="4.80334">
        <ele>359.39999389648</ele>
        <time>2023-12-17T10:26:41.000Z</time>
      </trkpt>
      <trkpt lat="44.87432" lon="4.80337">
        <ele>359.60000610352</ele>
        <time>2023-12-17T10:26:42.000Z</time>
      </trkpt>
      <trkpt lat="44.8743" lon="4.80344">
        <ele>360.60000610352</ele>
        <time>2023-12-17T10:26:45.000Z</time>
      </trkpt>
      <trkpt lat="44.87428" lon="4.80353">
        <ele>362</ele>
        <time>2023-12-17T10:26:48.000Z</time>
      </trkpt>
      <trkpt lat="44.87427" lon="4.80356">
        <ele>362.39999389648</ele>
        <time>2023-12-17T10:26:49.000Z</time>
      </trkpt>
      <trkpt lat="44.87426" lon="4.80361">
        <ele>363</ele>
        <time>2023-12-17T10:26:51.000Z</time>
      </trkpt>
      <trkpt lat="44.87421" lon="4.80374">
        <ele>364.39999389648</ele>
        <time>2023-12-17T10:26:56.000Z</time>
      </trkpt>
      <trkpt lat="44.8742" lon="4.80377">
        <ele>364.79998779297</ele>
        <time>2023-12-17T10:26:57.000Z</time>
      </trkpt>
      <trkpt lat="44.87419" lon="4.8038">
        <ele>365.79998779297</ele>
        <time>2023-12-17T10:26:58.000Z</time>
      </trkpt>
      <trkpt lat="44.87412" lon="4.804">
        <ele>366.79998779297</ele>
        <time>2023-12-17T10:27:05.000Z</time>
      </trkpt>
      <trkpt lat="44.8741" lon="4.80405">
        <ele>367.79998779297</ele>
        <time>2023-12-17T10:27:07.000Z</time>
      </trkpt>
      <trkpt lat="44.87407" lon="4.80414">
        <ele>369.20001220703</ele>
        <time>2023-12-17T10:27:10.000Z</time>
      </trkpt>
      <trkpt lat="44.87403" lon="4.80423">
        <ele>370.20001220703</ele>
        <time>2023-12-17T10:27:13.000Z</time>
      </trkpt>
      <trkpt lat="44.87402" lon="4.80426">
        <ele>370.60000610352</ele>
        <time>2023-12-17T10:27:14.000Z</time>
      </trkpt>
      <trkpt lat="44.87396" lon="4.80439">
        <ele>372</ele>
        <time>2023-12-17T10:27:18.000Z</time>
      </trkpt>
      <trkpt lat="44.87394" lon="4.80442">
        <ele>372.20001220703</ele>
        <time>2023-12-17T10:27:19.000Z</time>
      </trkpt>
      <trkpt lat="44.87391" lon="4.80447">
        <ele>372.60000610352</ele>
        <time>2023-12-17T10:27:21.000Z</time>
      </trkpt>
      <trkpt lat="44.87392" lon="4.8045">
        <ele>373.20001220703</ele>
        <time>2023-12-17T10:27:22.000Z</time>
      </trkpt>
      <trkpt lat="44.87394" lon="4.80451">
        <ele>373.79998779297</ele>
        <time>2023-12-17T10:27:23.000Z</time>
      </trkpt>
      <trkpt lat="44.87396" lon="4.8045">
        <ele>374.39999389648</ele>
        <time>2023-12-17T10:27:24.000Z</time>
      </trkpt>
      <trkpt lat="44.87399" lon="4.80446">
        <ele>374.79998779297</ele>
        <time>2023-12-17T10:27:25.000Z</time>
      </trkpt>
      <trkpt lat="44.87402" lon="4.80443">
        <ele>375.39999389648</ele>
        <time>2023-12-17T10:27:26.000Z</time>
      </trkpt>
      <trkpt lat="44.87405" lon="4.8044">
        <ele>375.60000610352</ele>
        <time>2023-12-17T10:27:27.000Z</time>
      </trkpt>
      <trkpt lat="44.87415" lon="4.80434">
        <ele>377.39999389648</ele>
        <time>2023-12-17T10:27:30.000Z</time>
      </trkpt>
      <trkpt lat="44.87418" lon="4.80432">
        <ele>378.60000610352</ele>
        <time>2023-12-17T10:27:31.000Z</time>
      </trkpt>
      <trkpt lat="44.87421" lon="4.8043">
        <ele>379.20001220703</ele>
        <time>2023-12-17T10:27:32.000Z</time>
      </trkpt>
      <trkpt lat="44.87431" lon="4.80422">
        <ele>380.60000610352</ele>
        <time>2023-12-17T10:27:35.000Z</time>
      </trkpt>
      <trkpt lat="44.87445" lon="4.80418">
        <ele>382</ele>
        <time>2023-12-17T10:27:39.000Z</time>
      </trkpt>
      <trkpt lat="44.87451" lon="4.80417">
        <ele>383.60000610352</ele>
        <time>2023-12-17T10:27:41.000Z</time>
      </trkpt>
      <trkpt lat="44.87457" lon="4.80415">
        <ele>384.79998779297</ele>
        <time>2023-12-17T10:27:43.000Z</time>
      </trkpt>
      <trkpt lat="44.87463" lon="4.80412">
        <ele>387.39999389648</ele>
        <time>2023-12-17T10:27:45.000Z</time>
      </trkpt>
      <trkpt lat="44.87465" lon="4.8041">
        <ele>388.60000610352</ele>
        <time>2023-12-17T10:27:46.000Z</time>
      </trkpt>
      <trkpt lat="44.87471" lon="4.80407">
        <ele>389.60000610352</ele>
        <time>2023-12-17T10:27:48.000Z</time>
      </trkpt>
      <trkpt lat="44.87482" lon="4.804">
        <ele>390.79998779297</ele>
        <time>2023-12-17T10:27:52.000Z</time>
      </trkpt>
      <trkpt lat="44.87488" lon="4.80397">
        <ele>392.79998779297</ele>
        <time>2023-12-17T10:27:54.000Z</time>
      </trkpt>
      <trkpt lat="44.87491" lon="4.80395">
        <ele>394</ele>
        <time>2023-12-17T10:27:55.000Z</time>
      </trkpt>
      <trkpt lat="44.87498" lon="4.80391">
        <ele>395.20001220703</ele>
        <time>2023-12-17T10:27:57.000Z</time>
      </trkpt>
      <trkpt lat="44.87512" lon="4.80386">
        <ele>397</ele>
        <time>2023-12-17T10:28:01.000Z</time>
      </trkpt>
      <trkpt lat="44.87515" lon="4.80384">
        <ele>398</ele>
        <time>2023-12-17T10:28:02.000Z</time>
      </trkpt>
      <trkpt lat="44.87518" lon="4.80383">
        <ele>399</ele>
        <time>2023-12-17T10:28:03.000Z</time>
      </trkpt>
      <trkpt lat="44.87524" lon="4.80381">
        <ele>400</ele>
        <time>2023-12-17T10:28:05.000Z</time>
      </trkpt>
      <trkpt lat="44.87527" lon="4.8038">
        <ele>400.60000610352</ele>
        <time>2023-12-17T10:28:06.000Z</time>
      </trkpt>
      <trkpt lat="44.87536" lon="4.80376">
        <ele>402</ele>
        <time>2023-12-17T10:28:09.000Z</time>
      </trkpt>
      <trkpt lat="44.8754" lon="4.80374">
        <ele>403.39999389648</ele>
        <time>2023-12-17T10:28:11.000Z</time>
      </trkpt>
      <trkpt lat="44.87542" lon="4.80374">
        <ele>403.79998779297</ele>
        <time>2023-12-17T10:28:12.000Z</time>
      </trkpt>
      <trkpt lat="44.87544" lon="4.80377">
        <ele>404.79998779297</ele>
        <time>2023-12-17T10:28:14.000Z</time>
      </trkpt>
      <trkpt lat="44.87543" lon="4.80379">
        <ele>406</ele>
        <time>2023-12-17T10:28:15.000Z</time>
      </trkpt>
      <trkpt lat="44.87542" lon="4.80381">
        <ele>407.39999389648</ele>
        <time>2023-12-17T10:28:17.000Z</time>
      </trkpt>
      <trkpt lat="44.8754" lon="4.80387">
        <ele>408.39999389648</ele>
        <time>2023-12-17T10:28:22.000Z</time>
      </trkpt>
      <trkpt lat="44.87539" lon="4.80393">
        <ele>409</ele>
        <time>2023-12-17T10:28:27.000Z</time>
      </trkpt>
      <trkpt lat="44.87537" lon="4.80395">
        <ele>409.39999389648</ele>
        <time>2023-12-17T10:28:29.000Z</time>
      </trkpt>
      <trkpt lat="44.87537" lon="4.80395">
        <ele>409.79998779297</ele>
        <time>2023-12-17T10:28:30.000Z</time>
      </trkpt>
      <trkpt lat="44.87537" lon="4.80396">
        <ele>409.79998779297</ele>
        <time>2023-12-17T10:28:31.000Z</time>
      </trkpt>
      <trkpt lat="44.87535" lon="4.80402">
        <ele>410.20001220703</ele>
        <time>2023-12-17T10:28:34.000Z</time>
      </trkpt>
      <trkpt lat="44.8753" lon="4.80414">
        <ele>411.20001220703</ele>
        <time>2023-12-17T10:28:39.000Z</time>
      </trkpt>
      <trkpt lat="44.87527" lon="4.80422">
        <ele>412.60000610352</ele>
        <time>2023-12-17T10:28:42.000Z</time>
      </trkpt>
      <trkpt lat="44.87525" lon="4.80433">
        <ele>413.60000610352</ele>
        <time>2023-12-17T10:28:46.000Z</time>
      </trkpt>
      <trkpt lat="44.87526" lon="4.80442">
        <ele>414.60000610352</ele>
        <time>2023-12-17T10:28:49.000Z</time>
      </trkpt>
      <trkpt lat="44.87525" lon="4.80445">
        <ele>415</ele>
        <time>2023-12-17T10:28:50.000Z</time>
      </trkpt>
      <trkpt lat="44.87523" lon="4.80461">
        <ele>415.79998779297</ele>
        <time>2023-12-17T10:28:55.000Z</time>
      </trkpt>
      <trkpt lat="44.87523" lon="4.80465">
        <ele>416.39999389648</ele>
        <time>2023-12-17T10:28:56.000Z</time>
      </trkpt>
      <trkpt lat="44.87521" lon="4.80472">
        <ele>416.60000610352</ele>
        <time>2023-12-17T10:28:58.000Z</time>
      </trkpt>
      <trkpt lat="44.87518" lon="4.80484">
        <ele>417.60000610352</ele>
        <time>2023-12-17T10:29:01.000Z</time>
      </trkpt>
      <trkpt lat="44.87516" lon="4.80494">
        <ele>418.79998779297</ele>
        <time>2023-12-17T10:29:04.000Z</time>
      </trkpt>
      <trkpt lat="44.87515" lon="4.80499">
        <ele>419</ele>
        <time>2023-12-17T10:29:05.000Z</time>
      </trkpt>
      <trkpt lat="44.87512" lon="4.80512">
        <ele>419.79998779297</ele>
        <time>2023-12-17T10:29:08.000Z</time>
      </trkpt>
      <trkpt lat="44.87509" lon="4.80519">
        <ele>420.79998779297</ele>
        <time>2023-12-17T10:29:10.000Z</time>
      </trkpt>
      <trkpt lat="44.87506" lon="4.80525">
        <ele>422</ele>
        <time>2023-12-17T10:29:15.000Z</time>
      </trkpt>
      <trkpt lat="44.87505" lon="4.80526">
        <ele>422.20001220703</ele>
        <time>2023-12-17T10:29:21.000Z</time>
      </trkpt>
      <trkpt lat="44.87505" lon="4.80526">
        <ele>421.20001220703</ele>
        <time>2023-12-17T10:29:32.000Z</time>
      </trkpt>
      <trkpt lat="44.87504" lon="4.80528">
        <ele>421</ele>
        <time>2023-12-17T10:29:36.000Z</time>
      </trkpt>
      <trkpt lat="44.87503" lon="4.80529">
        <ele>420.79998779297</ele>
        <time>2023-12-17T10:29:40.000Z</time>
      </trkpt>
      <trkpt lat="44.875" lon="4.80534">
        <ele>420.60000610352</ele>
        <time>2023-12-17T10:29:50.000Z</time>
      </trkpt>
      <trkpt lat="44.87499" lon="4.80536">
        <ele>420.60000610352</ele>
        <time>2023-12-17T10:30:00.000Z</time>
      </trkpt>
      <trkpt lat="44.87498" lon="4.80536">
        <ele>420.39999389648</ele>
        <time>2023-12-17T10:30:13.000Z</time>
      </trkpt>
      <trkpt lat="44.87497" lon="4.80535">
        <ele>420.20001220703</ele>
        <time>2023-12-17T10:30:23.000Z</time>
      </trkpt>
      <trkpt lat="44.87497" lon="4.80535">
        <ele>420.20001220703</ele>
        <time>2023-12-17T10:30:24.000Z</time>
      </trkpt>
      <trkpt lat="44.87493" lon="4.80542">
        <ele>420.20001220703</ele>
        <time>2023-12-17T10:30:27.000Z</time>
      </trkpt>
      <trkpt lat="44.87489" lon="4.80552">
        <ele>420</ele>
        <time>2023-12-17T10:30:29.000Z</time>
      </trkpt>
      <trkpt lat="44.87487" lon="4.80565">
        <ele>419.20001220703</ele>
        <time>2023-12-17T10:30:31.000Z</time>
      </trkpt>
      <trkpt lat="44.87486" lon="4.80571">
        <ele>418.79998779297</ele>
        <time>2023-12-17T10:30:32.000Z</time>
      </trkpt>
      <trkpt lat="44.87486" lon="4.8058">
        <ele>418.39999389648</ele>
        <time>2023-12-17T10:30:34.000Z</time>
      </trkpt>
      <trkpt lat="44.87487" lon="4.80583">
        <ele>418.20001220703</ele>
        <time>2023-12-17T10:30:35.000Z</time>
      </trkpt>
      <trkpt lat="44.87488" lon="4.80586">
        <ele>417.60000610352</ele>
        <time>2023-12-17T10:30:36.000Z</time>
      </trkpt>
      <trkpt lat="44.87487" lon="4.80602">
        <ele>416.60000610352</ele>
        <time>2023-12-17T10:30:40.000Z</time>
      </trkpt>
      <trkpt lat="44.87487" lon="4.80615">
        <ele>415.39999389648</ele>
        <time>2023-12-17T10:30:43.000Z</time>
      </trkpt>
      <trkpt lat="44.87487" lon="4.80618">
        <ele>415.39999389648</ele>
        <time>2023-12-17T10:30:44.000Z</time>
      </trkpt>
      <trkpt lat="44.8749" lon="4.80632">
        <ele>414.79998779297</ele>
        <time>2023-12-17T10:30:48.000Z</time>
      </trkpt>
      <trkpt lat="44.8749" lon="4.80635">
        <ele>414.20001220703</ele>
        <time>2023-12-17T10:30:49.000Z</time>
      </trkpt>
      <trkpt lat="44.87491" lon="4.80639">
        <ele>413.60000610352</ele>
        <time>2023-12-17T10:30:50.000Z</time>
      </trkpt>
      <trkpt lat="44.87492" lon="4.80642">
        <ele>413</ele>
        <time>2023-12-17T10:30:51.000Z</time>
      </trkpt>
      <trkpt lat="44.87494" lon="4.80646">
        <ele>411.79998779297</ele>
        <time>2023-12-17T10:30:52.000Z</time>
      </trkpt>
      <trkpt lat="44.87495" lon="4.80649">
        <ele>411.20001220703</ele>
        <time>2023-12-17T10:30:53.000Z</time>
      </trkpt>
      <trkpt lat="44.87493" lon="4.80658">
        <ele>410.79998779297</ele>
        <time>2023-12-17T10:30:55.000Z</time>
      </trkpt>
      <trkpt lat="44.8749" lon="4.80659">
        <ele>409.79998779297</ele>
        <time>2023-12-17T10:30:57.000Z</time>
      </trkpt>
      <trkpt lat="44.87486" lon="4.80661">
        <ele>409.60000610352</ele>
        <time>2023-12-17T10:30:59.000Z</time>
      </trkpt>
      <trkpt lat="44.87484" lon="4.80666">
        <ele>409</ele>
        <time>2023-12-17T10:31:01.000Z</time>
      </trkpt>
      <trkpt lat="44.87485" lon="4.8067">
        <ele>408.60000610352</ele>
        <time>2023-12-17T10:31:02.000Z</time>
      </trkpt>
      <trkpt lat="44.87484" lon="4.80679">
        <ele>407.60000610352</ele>
        <time>2023-12-17T10:31:04.000Z</time>
      </trkpt>
      <trkpt lat="44.87484" lon="4.80683">
        <ele>407.20001220703</ele>
        <time>2023-12-17T10:31:05.000Z</time>
      </trkpt>
      <trkpt lat="44.87484" lon="4.80688">
        <ele>406.60000610352</ele>
        <time>2023-12-17T10:31:06.000Z</time>
      </trkpt>
      <trkpt lat="44.87484" lon="4.80694">
        <ele>404.20001220703</ele>
        <time>2023-12-17T10:31:07.000Z</time>
      </trkpt>
      <trkpt lat="44.87485" lon="4.807">
        <ele>402.20001220703</ele>
        <time>2023-12-17T10:31:08.000Z</time>
      </trkpt>
      <trkpt lat="44.87488" lon="4.80705">
        <ele>401</ele>
        <time>2023-12-17T10:31:09.000Z</time>
      </trkpt>
      <trkpt lat="44.87494" lon="4.80714">
        <ele>399.79998779297</ele>
        <time>2023-12-17T10:31:11.000Z</time>
      </trkpt>
      <trkpt lat="44.87499" lon="4.8072">
        <ele>398.60000610352</ele>
        <time>2023-12-17T10:31:13.000Z</time>
      </trkpt>
      <trkpt lat="44.87504" lon="4.80727">
        <ele>397.39999389648</ele>
        <time>2023-12-17T10:31:15.000Z</time>
      </trkpt>
      <trkpt lat="44.87508" lon="4.80737">
        <ele>396.79998779297</ele>
        <time>2023-12-17T10:31:17.000Z</time>
      </trkpt>
      <trkpt lat="44.87514" lon="4.80749">
        <ele>396</ele>
        <time>2023-12-17T10:31:19.000Z</time>
      </trkpt>
      <trkpt lat="44.8752" lon="4.80758">
        <ele>395</ele>
        <time>2023-12-17T10:31:21.000Z</time>
      </trkpt>
      <trkpt lat="44.87521" lon="4.80761">
        <ele>394.39999389648</ele>
        <time>2023-12-17T10:31:22.000Z</time>
      </trkpt>
      <trkpt lat="44.87525" lon="4.80772">
        <ele>393.20001220703</ele>
        <time>2023-12-17T10:31:24.000Z</time>
      </trkpt>
      <trkpt lat="44.87526" lon="4.80777">
        <ele>391.79998779297</ele>
        <time>2023-12-17T10:31:26.000Z</time>
      </trkpt>
      <trkpt lat="44.87526" lon="4.80781">
        <ele>391.20001220703</ele>
        <time>2023-12-17T10:31:27.000Z</time>
      </trkpt>
      <trkpt lat="44.87526" lon="4.80785">
        <ele>390.39999389648</ele>
        <time>2023-12-17T10:31:28.000Z</time>
      </trkpt>
      <trkpt lat="44.87529" lon="4.80794">
        <ele>389</ele>
        <time>2023-12-17T10:31:30.000Z</time>
      </trkpt>
      <trkpt lat="44.87532" lon="4.80804">
        <ele>388</ele>
        <time>2023-12-17T10:31:32.000Z</time>
      </trkpt>
      <trkpt lat="44.87534" lon="4.80819">
        <ele>385.39999389648</ele>
        <time>2023-12-17T10:31:34.000Z</time>
      </trkpt>
      <trkpt lat="44.87535" lon="4.80831">
        <ele>383.79998779297</ele>
        <time>2023-12-17T10:31:36.000Z</time>
      </trkpt>
      <trkpt lat="44.87538" lon="4.80838">
        <ele>381.79998779297</ele>
        <time>2023-12-17T10:31:37.000Z</time>
      </trkpt>
      <trkpt lat="44.87538" lon="4.80844">
        <ele>380.79998779297</ele>
        <time>2023-12-17T10:31:38.000Z</time>
      </trkpt>
      <trkpt lat="44.87533" lon="4.80854">
        <ele>379.39999389648</ele>
        <time>2023-12-17T10:31:41.000Z</time>
      </trkpt>
      <trkpt lat="44.87531" lon="4.80857">
        <ele>379</ele>
        <time>2023-12-17T10:31:42.000Z</time>
      </trkpt>
      <trkpt lat="44.87531" lon="4.8086">
        <ele>377</ele>
        <time>2023-12-17T10:31:43.000Z</time>
      </trkpt>
      <trkpt lat="44.87532" lon="4.80863">
        <ele>375.79998779297</ele>
        <time>2023-12-17T10:31:44.000Z</time>
      </trkpt>
      <trkpt lat="44.87535" lon="4.80866">
        <ele>375</ele>
        <time>2023-12-17T10:31:45.000Z</time>
      </trkpt>
      <trkpt lat="44.87538" lon="4.80869">
        <ele>374.79998779297</ele>
        <time>2023-12-17T10:31:46.000Z</time>
      </trkpt>
      <trkpt lat="44.87542" lon="4.80876">
        <ele>374.20001220703</ele>
        <time>2023-12-17T10:31:48.000Z</time>
      </trkpt>
      <trkpt lat="44.87543" lon="4.80878">
        <ele>374</ele>
        <time>2023-12-17T10:31:49.000Z</time>
      </trkpt>
      <trkpt lat="44.87542" lon="4.80879">
        <ele>373.39999389648</ele>
        <time>2023-12-17T10:31:50.000Z</time>
      </trkpt>
      <trkpt lat="44.87541" lon="4.80881">
        <ele>373</ele>
        <time>2023-12-17T10:31:51.000Z</time>
      </trkpt>
      <trkpt lat="44.87541" lon="4.80884">
        <ele>372.20001220703</ele>
        <time>2023-12-17T10:31:52.000Z</time>
      </trkpt>
      <trkpt lat="44.87541" lon="4.80888">
        <ele>371.20001220703</ele>
        <time>2023-12-17T10:31:53.000Z</time>
      </trkpt>
      <trkpt lat="44.87537" lon="4.80894">
        <ele>369.79998779297</ele>
        <time>2023-12-17T10:31:55.000Z</time>
      </trkpt>
      <trkpt lat="44.87535" lon="4.80897">
        <ele>368.60000610352</ele>
        <time>2023-12-17T10:31:56.000Z</time>
      </trkpt>
      <trkpt lat="44.87533" lon="4.80897">
        <ele>366.79998779297</ele>
        <time>2023-12-17T10:31:57.000Z</time>
      </trkpt>
      <trkpt lat="44.87528" lon="4.80896">
        <ele>364.79998779297</ele>
        <time>2023-12-17T10:31:59.000Z</time>
      </trkpt>
      <trkpt lat="44.87524" lon="4.809">
        <ele>363.39999389648</ele>
        <time>2023-12-17T10:32:01.000Z</time>
      </trkpt>
      <trkpt lat="44.87522" lon="4.80904">
        <ele>362.20001220703</ele>
        <time>2023-12-17T10:32:02.000Z</time>
      </trkpt>
      <trkpt lat="44.87521" lon="4.80907">
        <ele>360.79998779297</ele>
        <time>2023-12-17T10:32:03.000Z</time>
      </trkpt>
      <trkpt lat="44.87522" lon="4.80911">
        <ele>359</ele>
        <time>2023-12-17T10:32:04.000Z</time>
      </trkpt>
      <trkpt lat="44.87523" lon="4.80914">
        <ele>358</ele>
        <time>2023-12-17T10:32:05.000Z</time>
      </trkpt>
      <trkpt lat="44.87524" lon="4.80917">
        <ele>357.20001220703</ele>
        <time>2023-12-17T10:32:06.000Z</time>
      </trkpt>
      <trkpt lat="44.87526" lon="4.80922">
        <ele>355.79998779297</ele>
        <time>2023-12-17T10:32:08.000Z</time>
      </trkpt>
      <trkpt lat="44.87527" lon="4.80925">
        <ele>354.20001220703</ele>
        <time>2023-12-17T10:32:09.000Z</time>
      </trkpt>
      <trkpt lat="44.87528" lon="4.80928">
        <ele>353.39999389648</ele>
        <time>2023-12-17T10:32:10.000Z</time>
      </trkpt>
      <trkpt lat="44.8753" lon="4.80931">
        <ele>352.79998779297</ele>
        <time>2023-12-17T10:32:11.000Z</time>
      </trkpt>
      <trkpt lat="44.87535" lon="4.80937">
        <ele>351.20001220703</ele>
        <time>2023-12-17T10:32:13.000Z</time>
      </trkpt>
      <trkpt lat="44.8754" lon="4.80942">
        <ele>350.39999389648</ele>
        <time>2023-12-17T10:32:15.000Z</time>
      </trkpt>
      <trkpt lat="44.87542" lon="4.80942">
        <ele>350</ele>
        <time>2023-12-17T10:32:16.000Z</time>
      </trkpt>
      <trkpt lat="44.8755" lon="4.80944">
        <ele>350</ele>
        <time>2023-12-17T10:32:20.000Z</time>
      </trkpt>
      <trkpt lat="44.87564" lon="4.80946">
        <ele>350.79998779297</ele>
        <time>2023-12-17T10:32:25.000Z</time>
      </trkpt>
      <trkpt lat="44.87567" lon="4.80945">
        <ele>350.79998779297</ele>
        <time>2023-12-17T10:32:26.000Z</time>
      </trkpt>
      <trkpt lat="44.87569" lon="4.80947">
        <ele>350.79998779297</ele>
        <time>2023-12-17T10:32:28.000Z</time>
      </trkpt>
      <trkpt lat="44.87564" lon="4.80952">
        <ele>350</ele>
        <time>2023-12-17T10:32:31.000Z</time>
      </trkpt>
      <trkpt lat="44.87563" lon="4.80954">
        <ele>349.20001220703</ele>
        <time>2023-12-17T10:32:32.000Z</time>
      </trkpt>
      <trkpt lat="44.87563" lon="4.80957">
        <ele>347.60000610352</ele>
        <time>2023-12-17T10:32:33.000Z</time>
      </trkpt>
      <trkpt lat="44.87564" lon="4.8096">
        <ele>345.79998779297</ele>
        <time>2023-12-17T10:32:34.000Z</time>
      </trkpt>
      <trkpt lat="44.87566" lon="4.80962">
        <ele>344.79998779297</ele>
        <time>2023-12-17T10:32:35.000Z</time>
      </trkpt>
      <trkpt lat="44.87567" lon="4.80964">
        <ele>344.20001220703</ele>
        <time>2023-12-17T10:32:36.000Z</time>
      </trkpt>
      <trkpt lat="44.87567" lon="4.80966">
        <ele>343.60000610352</ele>
        <time>2023-12-17T10:32:37.000Z</time>
      </trkpt>
      <trkpt lat="44.87566" lon="4.80967">
        <ele>343</ele>
        <time>2023-12-17T10:32:38.000Z</time>
      </trkpt>
      <trkpt lat="44.87561" lon="4.80971">
        <ele>342.20001220703</ele>
        <time>2023-12-17T10:32:40.000Z</time>
      </trkpt>
      <trkpt lat="44.87558" lon="4.80973">
        <ele>341.20001220703</ele>
        <time>2023-12-17T10:32:41.000Z</time>
      </trkpt>
      <trkpt lat="44.87556" lon="4.80973">
        <ele>340.60000610352</ele>
        <time>2023-12-17T10:32:42.000Z</time>
      </trkpt>
      <trkpt lat="44.87556" lon="4.80974">
        <ele>339.39999389648</ele>
        <time>2023-12-17T10:32:44.000Z</time>
      </trkpt>
      <trkpt lat="44.87556" lon="4.80975">
        <ele>339</ele>
        <time>2023-12-17T10:32:45.000Z</time>
      </trkpt>
      <trkpt lat="44.87558" lon="4.80978">
        <ele>337.79998779297</ele>
        <time>2023-12-17T10:32:47.000Z</time>
      </trkpt>
      <trkpt lat="44.8756" lon="4.8098">
        <ele>336.20001220703</ele>
        <time>2023-12-17T10:32:48.000Z</time>
      </trkpt>
      <trkpt lat="44.87562" lon="4.80983">
        <ele>335.20001220703</ele>
        <time>2023-12-17T10:32:49.000Z</time>
      </trkpt>
      <trkpt lat="44.87563" lon="4.80987">
        <ele>334.60000610352</ele>
        <time>2023-12-17T10:32:50.000Z</time>
      </trkpt>
      <trkpt lat="44.87564" lon="4.80992">
        <ele>333</ele>
        <time>2023-12-17T10:32:51.000Z</time>
      </trkpt>
      <trkpt lat="44.87563" lon="4.80996">
        <ele>332</ele>
        <time>2023-12-17T10:32:52.000Z</time>
      </trkpt>
      <trkpt lat="44.87563" lon="4.80999">
        <ele>331.20001220703</ele>
        <time>2023-12-17T10:32:53.000Z</time>
      </trkpt>
      <trkpt lat="44.87565" lon="4.81002">
        <ele>329.60000610352</ele>
        <time>2023-12-17T10:32:54.000Z</time>
      </trkpt>
      <trkpt lat="44.87567" lon="4.81005">
        <ele>329</ele>
        <time>2023-12-17T10:32:55.000Z</time>
      </trkpt>
      <trkpt lat="44.8757" lon="4.81008">
        <ele>327.39999389648</ele>
        <time>2023-12-17T10:32:56.000Z</time>
      </trkpt>
      <trkpt lat="44.87571" lon="4.81011">
        <ele>326.20001220703</ele>
        <time>2023-12-17T10:32:57.000Z</time>
      </trkpt>
      <trkpt lat="44.87572" lon="4.81015">
        <ele>325.20001220703</ele>
        <time>2023-12-17T10:32:58.000Z</time>
      </trkpt>
      <trkpt lat="44.87572" lon="4.81018">
        <ele>324.39999389648</ele>
        <time>2023-12-17T10:32:59.000Z</time>
      </trkpt>
      <trkpt lat="44.87573" lon="4.8102">
        <ele>323</ele>
        <time>2023-12-17T10:33:00.000Z</time>
      </trkpt>
      <trkpt lat="44.87575" lon="4.81024">
        <ele>321.60000610352</ele>
        <time>2023-12-17T10:33:01.000Z</time>
      </trkpt>
      <trkpt lat="44.87576" lon="4.81026">
        <ele>320.60000610352</ele>
        <time>2023-12-17T10:33:02.000Z</time>
      </trkpt>
      <trkpt lat="44.87577" lon="4.81027">
        <ele>319.79998779297</ele>
        <time>2023-12-17T10:33:03.000Z</time>
      </trkpt>
      <trkpt lat="44.87579" lon="4.81029">
        <ele>318.60000610352</ele>
        <time>2023-12-17T10:33:04.000Z</time>
      </trkpt>
      <trkpt lat="44.87579" lon="4.81031">
        <ele>317.20001220703</ele>
        <time>2023-12-17T10:33:05.000Z</time>
      </trkpt>
      <trkpt lat="44.87577" lon="4.81038">
        <ele>315.39999389648</ele>
        <time>2023-12-17T10:33:07.000Z</time>
      </trkpt>
      <trkpt lat="44.87575" lon="4.81041">
        <ele>314.20001220703</ele>
        <time>2023-12-17T10:33:08.000Z</time>
      </trkpt>
      <trkpt lat="44.87573" lon="4.81043">
        <ele>312.79998779297</ele>
        <time>2023-12-17T10:33:09.000Z</time>
      </trkpt>
      <trkpt lat="44.87575" lon="4.81047">
        <ele>311</ele>
        <time>2023-12-17T10:33:11.000Z</time>
      </trkpt>
      <trkpt lat="44.87577" lon="4.8105">
        <ele>309.60000610352</ele>
        <time>2023-12-17T10:33:12.000Z</time>
      </trkpt>
      <trkpt lat="44.87583" lon="4.81052">
        <ele>306.60000610352</ele>
        <time>2023-12-17T10:33:14.000Z</time>
      </trkpt>
      <trkpt lat="44.87584" lon="4.81054">
        <ele>305.20001220703</ele>
        <time>2023-12-17T10:33:15.000Z</time>
      </trkpt>
      <trkpt lat="44.87584" lon="4.81062">
        <ele>303.20001220703</ele>
        <time>2023-12-17T10:33:17.000Z</time>
      </trkpt>
      <trkpt lat="44.87583" lon="4.81066">
        <ele>302.20001220703</ele>
        <time>2023-12-17T10:33:18.000Z</time>
      </trkpt>
      <trkpt lat="44.87581" lon="4.8107">
        <ele>300.20001220703</ele>
        <time>2023-12-17T10:33:19.000Z</time>
      </trkpt>
      <trkpt lat="44.87579" lon="4.81072">
        <ele>298.79998779297</ele>
        <time>2023-12-17T10:33:20.000Z</time>
      </trkpt>
      <trkpt lat="44.87576" lon="4.81075">
        <ele>297</ele>
        <time>2023-12-17T10:33:21.000Z</time>
      </trkpt>
      <trkpt lat="44.87574" lon="4.81077">
        <ele>296</ele>
        <time>2023-12-17T10:33:22.000Z</time>
      </trkpt>
      <trkpt lat="44.87572" lon="4.81082">
        <ele>294.39999389648</ele>
        <time>2023-12-17T10:33:24.000Z</time>
      </trkpt>
      <trkpt lat="44.87569" lon="4.81086">
        <ele>293.20001220703</ele>
        <time>2023-12-17T10:33:26.000Z</time>
      </trkpt>
      <trkpt lat="44.87569" lon="4.81087">
        <ele>292.39999389648</ele>
        <time>2023-12-17T10:33:27.000Z</time>
      </trkpt>
      <trkpt lat="44.8757" lon="4.8109">
        <ele>291.79998779297</ele>
        <time>2023-12-17T10:33:28.000Z</time>
      </trkpt>
      <trkpt lat="44.87575" lon="4.81094">
        <ele>289.79998779297</ele>
        <time>2023-12-17T10:33:30.000Z</time>
      </trkpt>
      <trkpt lat="44.87578" lon="4.81095">
        <ele>289</ele>
        <time>2023-12-17T10:33:31.000Z</time>
      </trkpt>
      <trkpt lat="44.87582" lon="4.81096">
        <ele>287.20001220703</ele>
        <time>2023-12-17T10:33:32.000Z</time>
      </trkpt>
      <trkpt lat="44.87586" lon="4.81098">
        <ele>285.60000610352</ele>
        <time>2023-12-17T10:33:34.000Z</time>
      </trkpt>
      <trkpt lat="44.87588" lon="4.81103">
        <ele>284.79998779297</ele>
        <time>2023-12-17T10:33:35.000Z</time>
      </trkpt>
      <trkpt lat="44.87588" lon="4.81106">
        <ele>284.20001220703</ele>
        <time>2023-12-17T10:33:36.000Z</time>
      </trkpt>
      <trkpt lat="44.87588" lon="4.81109">
        <ele>283.39999389648</ele>
        <time>2023-12-17T10:33:37.000Z</time>
      </trkpt>
      <trkpt lat="44.87588" lon="4.81112">
        <ele>282</ele>
        <time>2023-12-17T10:33:38.000Z</time>
      </trkpt>
      <trkpt lat="44.8759" lon="4.81113">
        <ele>280.60000610352</ele>
        <time>2023-12-17T10:33:39.000Z</time>
      </trkpt>
      <trkpt lat="44.87598" lon="4.81116">
        <ele>279.39999389648</ele>
        <time>2023-12-17T10:33:42.000Z</time>
      </trkpt>
      <trkpt lat="44.87601" lon="4.81117">
        <ele>279</ele>
        <time>2023-12-17T10:33:43.000Z</time>
      </trkpt>
      <trkpt lat="44.87603" lon="4.81118">
        <ele>278</ele>
        <time>2023-12-17T10:33:44.000Z</time>
      </trkpt>
      <trkpt lat="44.87605" lon="4.81118">
        <ele>276.79998779297</ele>
        <time>2023-12-17T10:33:45.000Z</time>
      </trkpt>
      <trkpt lat="44.87607" lon="4.81125">
        <ele>275.20001220703</ele>
        <time>2023-12-17T10:33:47.000Z</time>
      </trkpt>
      <trkpt lat="44.87605" lon="4.81128">
        <ele>274</ele>
        <time>2023-12-17T10:33:48.000Z</time>
      </trkpt>
      <trkpt lat="44.87603" lon="4.81131">
        <ele>272.60000610352</ele>
        <time>2023-12-17T10:33:50.000Z</time>
      </trkpt>
      <trkpt lat="44.87602" lon="4.81136">
        <ele>270.79998779297</ele>
        <time>2023-12-17T10:33:52.000Z</time>
      </trkpt>
      <trkpt lat="44.87601" lon="4.81137">
        <ele>269.60000610352</ele>
        <time>2023-12-17T10:33:53.000Z</time>
      </trkpt>
      <trkpt lat="44.87601" lon="4.81139">
        <ele>269</ele>
        <time>2023-12-17T10:33:54.000Z</time>
      </trkpt>
      <trkpt lat="44.87601" lon="4.81142">
        <ele>268.20001220703</ele>
        <time>2023-12-17T10:33:55.000Z</time>
      </trkpt>
      <trkpt lat="44.87601" lon="4.81145">
        <ele>267</ele>
        <time>2023-12-17T10:33:56.000Z</time>
      </trkpt>
      <trkpt lat="44.87597" lon="4.81155">
        <ele>265.39999389648</ele>
        <time>2023-12-17T10:33:58.000Z</time>
      </trkpt>
      <trkpt lat="44.8759" lon="4.81161">
        <ele>263.39999389648</ele>
        <time>2023-12-17T10:34:00.000Z</time>
      </trkpt>
      <trkpt lat="44.87586" lon="4.81163">
        <ele>261.39999389648</ele>
        <time>2023-12-17T10:34:02.000Z</time>
      </trkpt>
      <trkpt lat="44.87584" lon="4.81164">
        <ele>260.79998779297</ele>
        <time>2023-12-17T10:34:03.000Z</time>
      </trkpt>
      <trkpt lat="44.87582" lon="4.81169">
        <ele>260.39999389648</ele>
        <time>2023-12-17T10:34:04.000Z</time>
      </trkpt>
      <trkpt lat="44.87577" lon="4.81176">
        <ele>259.60000610352</ele>
        <time>2023-12-17T10:34:06.000Z</time>
      </trkpt>
      <trkpt lat="44.87574" lon="4.81179">
        <ele>258.79998779297</ele>
        <time>2023-12-17T10:34:07.000Z</time>
      </trkpt>
      <trkpt lat="44.87571" lon="4.81181">
        <ele>257.20001220703</ele>
        <time>2023-12-17T10:34:09.000Z</time>
      </trkpt>
      <trkpt lat="44.87575" lon="4.81189">
        <ele>255.39999389648</ele>
        <time>2023-12-17T10:34:12.000Z</time>
      </trkpt>
      <trkpt lat="44.87574" lon="4.8119">
        <ele>254</ele>
        <time>2023-12-17T10:34:13.000Z</time>
      </trkpt>
      <trkpt lat="44.87573" lon="4.81191">
        <ele>252.80000305176</ele>
        <time>2023-12-17T10:34:14.000Z</time>
      </trkpt>
      <trkpt lat="44.87571" lon="4.81195">
        <ele>252</ele>
        <time>2023-12-17T10:34:15.000Z</time>
      </trkpt>
      <trkpt lat="44.8757" lon="4.812">
        <ele>250.80000305176</ele>
        <time>2023-12-17T10:34:16.000Z</time>
      </trkpt>
      <trkpt lat="44.87571" lon="4.81206">
        <ele>249.60000610352</ele>
        <time>2023-12-17T10:34:17.000Z</time>
      </trkpt>
      <trkpt lat="44.87571" lon="4.81212">
        <ele>248.39999389648</ele>
        <time>2023-12-17T10:34:18.000Z</time>
      </trkpt>
      <trkpt lat="44.87574" lon="4.81219">
        <ele>245.80000305176</ele>
        <time>2023-12-17T10:34:20.000Z</time>
      </trkpt>
      <trkpt lat="44.87574" lon="4.81223">
        <ele>244.80000305176</ele>
        <time>2023-12-17T10:34:21.000Z</time>
      </trkpt>
      <trkpt lat="44.87576" lon="4.81226">
        <ele>244.19999694824</ele>
        <time>2023-12-17T10:34:22.000Z</time>
      </trkpt>
      <trkpt lat="44.87576" lon="4.81228">
        <ele>244</ele>
        <time>2023-12-17T10:34:23.000Z</time>
      </trkpt>
      <trkpt lat="44.87575" lon="4.81231">
        <ele>243.39999389648</ele>
        <time>2023-12-17T10:34:24.000Z</time>
      </trkpt>
      <trkpt lat="44.87573" lon="4.81233">
        <ele>242.39999389648</ele>
        <time>2023-12-17T10:34:25.000Z</time>
      </trkpt>
      <trkpt lat="44.87574" lon="4.81243">
        <ele>240.80000305176</ele>
        <time>2023-12-17T10:34:27.000Z</time>
      </trkpt>
      <trkpt lat="44.87574" lon="4.81247">
        <ele>240.19999694824</ele>
        <time>2023-12-17T10:34:28.000Z</time>
      </trkpt>
      <trkpt lat="44.87573" lon="4.81253">
        <ele>238.80000305176</ele>
        <time>2023-12-17T10:34:29.000Z</time>
      </trkpt>
      <trkpt lat="44.87571" lon="4.81256">
        <ele>237.80000305176</ele>
        <time>2023-12-17T10:34:30.000Z</time>
      </trkpt>
      <trkpt lat="44.87569" lon="4.81259">
        <ele>237</ele>
        <time>2023-12-17T10:34:31.000Z</time>
      </trkpt>
      <trkpt lat="44.87568" lon="4.81265">
        <ele>235.80000305176</ele>
        <time>2023-12-17T10:34:32.000Z</time>
      </trkpt>
      <trkpt lat="44.87567" lon="4.81276">
        <ele>234.80000305176</ele>
        <time>2023-12-17T10:34:34.000Z</time>
      </trkpt>
      <trkpt lat="44.87568" lon="4.8128">
        <ele>233.60000610352</ele>
        <time>2023-12-17T10:34:35.000Z</time>
      </trkpt>
      <trkpt lat="44.87569" lon="4.81282">
        <ele>232.39999389648</ele>
        <time>2023-12-17T10:34:36.000Z</time>
      </trkpt>
      <trkpt lat="44.87567" lon="4.81286">
        <ele>231.19999694824</ele>
        <time>2023-12-17T10:34:41.000Z</time>
      </trkpt>
      <trkpt lat="44.8757" lon="4.81293">
        <ele>231</ele>
        <time>2023-12-17T10:34:47.000Z</time>
      </trkpt>
      <trkpt lat="44.87572" lon="4.81296">
        <ele>231</ele>
        <time>2023-12-17T10:34:48.000Z</time>
      </trkpt>
      <trkpt lat="44.87579" lon="4.81305">
        <ele>230.60000610352</ele>
        <time>2023-12-17T10:34:51.000Z</time>
      </trkpt>
      <trkpt lat="44.87582" lon="4.81305">
        <ele>230.39999389648</ele>
        <time>2023-12-17T10:34:52.000Z</time>
      </trkpt>
      <trkpt lat="44.87594" lon="4.81314">
        <ele>230</ele>
        <time>2023-12-17T10:34:56.000Z</time>
      </trkpt>
      <trkpt lat="44.87596" lon="4.81319">
        <ele>229.80000305176</ele>
        <time>2023-12-17T10:34:57.000Z</time>
      </trkpt>
      <trkpt lat="44.87599" lon="4.81328">
        <ele>228.80000305176</ele>
        <time>2023-12-17T10:34:59.000Z</time>
      </trkpt>
      <trkpt lat="44.87599" lon="4.8133">
        <ele>227.80000305176</ele>
        <time>2023-12-17T10:35:00.000Z</time>
      </trkpt>
      <trkpt lat="44.876" lon="4.81333">
        <ele>226.80000305176</ele>
        <time>2023-12-17T10:35:02.000Z</time>
      </trkpt>
      <trkpt lat="44.87601" lon="4.81335">
        <ele>226.60000610352</ele>
        <time>2023-12-17T10:35:03.000Z</time>
      </trkpt>
      <trkpt lat="44.876" lon="4.81337">
        <ele>225.60000610352</ele>
        <time>2023-12-17T10:35:07.000Z</time>
      </trkpt>
      <trkpt lat="44.876" lon="4.81337">
        <ele>225.39999389648</ele>
        <time>2023-12-17T10:35:08.000Z</time>
      </trkpt>
      <trkpt lat="44.87601" lon="4.81336">
        <ele>225.39999389648</ele>
        <time>2023-12-17T10:35:14.000Z</time>
      </trkpt>
      <trkpt lat="44.87601" lon="4.81337">
        <ele>225.19999694824</ele>
        <time>2023-12-17T10:35:23.000Z</time>
      </trkpt>
      <trkpt lat="44.87601" lon="4.81337">
        <ele>224.60000610352</ele>
        <time>2023-12-17T10:35:43.000Z</time>
      </trkpt>
      <trkpt lat="44.87601" lon="4.81337">
        <ele>224.19999694824</ele>
        <time>2023-12-17T10:35:47.000Z</time>
      </trkpt>
      <trkpt lat="44.87601" lon="4.81338">
        <ele>223.60000610352</ele>
        <time>2023-12-17T10:36:09.000Z</time>
      </trkpt>
      <trkpt lat="44.876" lon="4.81338">
        <ele>223.60000610352</ele>
        <time>2023-12-17T10:36:10.000Z</time>
      </trkpt>
      <trkpt lat="44.87601" lon="4.81339">
        <ele>223.60000610352</ele>
        <time>2023-12-17T10:36:31.000Z</time>
      </trkpt>
      <trkpt lat="44.87601" lon="4.81339">
        <ele>223.60000610352</ele>
        <time>2023-12-17T10:36:32.000Z</time>
      </trkpt>
      <trkpt lat="44.87601" lon="4.81342">
        <ele>223</ele>
        <time>2023-12-17T10:36:55.000Z</time>
      </trkpt>
      <trkpt lat="44.87602" lon="4.81346">
        <ele>223</ele>
        <time>2023-12-17T10:36:56.000Z</time>
      </trkpt>
      <trkpt lat="44.87601" lon="4.81352">
        <ele>222.80000305176</ele>
        <time>2023-12-17T10:36:57.000Z</time>
      </trkpt>
      <trkpt lat="44.87598" lon="4.81359">
        <ele>221.80000305176</ele>
        <time>2023-12-17T10:36:58.000Z</time>
      </trkpt>
      <trkpt lat="44.87595" lon="4.81367">
        <ele>220.39999389648</ele>
        <time>2023-12-17T10:36:59.000Z</time>
      </trkpt>
      <trkpt lat="44.87588" lon="4.81381">
        <ele>218.60000610352</ele>
        <time>2023-12-17T10:37:01.000Z</time>
      </trkpt>
      <trkpt lat="44.87586" lon="4.81393">
        <ele>216.60000610352</ele>
        <time>2023-12-17T10:37:03.000Z</time>
      </trkpt>
      <trkpt lat="44.87586" lon="4.81404">
        <ele>215</ele>
        <time>2023-12-17T10:37:05.000Z</time>
      </trkpt>
      <trkpt lat="44.87586" lon="4.81418">
        <ele>214</ele>
        <time>2023-12-17T10:37:07.000Z</time>
      </trkpt>
      <trkpt lat="44.87583" lon="4.8143">
        <ele>212.60000610352</ele>
        <time>2023-12-17T10:37:09.000Z</time>
      </trkpt>
      <trkpt lat="44.87582" lon="4.81439">
        <ele>210.39999389648</ele>
        <time>2023-12-17T10:37:10.000Z</time>
      </trkpt>
      <trkpt lat="44.87581" lon="4.81449">
        <ele>207.60000610352</ele>
        <time>2023-12-17T10:37:11.000Z</time>
      </trkpt>
      <trkpt lat="44.87579" lon="4.8146">
        <ele>205.80000305176</ele>
        <time>2023-12-17T10:37:12.000Z</time>
      </trkpt>
      <trkpt lat="44.87571" lon="4.81478">
        <ele>204</ele>
        <time>2023-12-17T10:37:14.000Z</time>
      </trkpt>
      <trkpt lat="44.87568" lon="4.81488">
        <ele>202.19999694824</ele>
        <time>2023-12-17T10:37:15.000Z</time>
      </trkpt>
      <trkpt lat="44.87561" lon="4.81505">
        <ele>200.80000305176</ele>
        <time>2023-12-17T10:37:17.000Z</time>
      </trkpt>
      <trkpt lat="44.87555" lon="4.81521">
        <ele>199.60000610352</ele>
        <time>2023-12-17T10:37:19.000Z</time>
      </trkpt>
      <trkpt lat="44.87552" lon="4.81526">
        <ele>198.19999694824</ele>
        <time>2023-12-17T10:37:20.000Z</time>
      </trkpt>
      <trkpt lat="44.87545" lon="4.81537">
        <ele>196.39999389648</ele>
        <time>2023-12-17T10:37:22.000Z</time>
      </trkpt>
      <trkpt lat="44.87541" lon="4.81542">
        <ele>196</ele>
        <time>2023-12-17T10:37:23.000Z</time>
      </trkpt>
      <trkpt lat="44.87537" lon="4.81548">
        <ele>195.80000305176</ele>
        <time>2023-12-17T10:37:24.000Z</time>
      </trkpt>
      <trkpt lat="44.87535" lon="4.81555">
        <ele>195</ele>
        <time>2023-12-17T10:37:25.000Z</time>
      </trkpt>
      <trkpt lat="44.87533" lon="4.81564">
        <ele>194.19999694824</ele>
        <time>2023-12-17T10:37:26.000Z</time>
      </trkpt>
      <trkpt lat="44.87531" lon="4.81574">
        <ele>193.60000610352</ele>
        <time>2023-12-17T10:37:27.000Z</time>
      </trkpt>
      <trkpt lat="44.87531" lon="4.81583">
        <ele>193</ele>
        <time>2023-12-17T10:37:28.000Z</time>
      </trkpt>
      <trkpt lat="44.87531" lon="4.81592">
        <ele>191</ele>
        <time>2023-12-17T10:37:29.000Z</time>
      </trkpt>
      <trkpt lat="44.87531" lon="4.816">
        <ele>189</ele>
        <time>2023-12-17T10:37:30.000Z</time>
      </trkpt>
      <trkpt lat="44.87532" lon="4.81611">
        <ele>187.80000305176</ele>
        <time>2023-12-17T10:37:31.000Z</time>
      </trkpt>
      <trkpt lat="44.87534" lon="4.8162">
        <ele>187.19999694824</ele>
        <time>2023-12-17T10:37:32.000Z</time>
      </trkpt>
      <trkpt lat="44.87535" lon="4.81629">
        <ele>186.19999694824</ele>
        <time>2023-12-17T10:37:33.000Z</time>
      </trkpt>
      <trkpt lat="44.87535" lon="4.81638">
        <ele>185.80000305176</ele>
        <time>2023-12-17T10:37:34.000Z</time>
      </trkpt>
      <trkpt lat="44.87534" lon="4.81647">
        <ele>184.19999694824</ele>
        <time>2023-12-17T10:37:35.000Z</time>
      </trkpt>
      <trkpt lat="44.87533" lon="4.81657">
        <ele>183.19999694824</ele>
        <time>2023-12-17T10:37:36.000Z</time>
      </trkpt>
      <trkpt lat="44.8753" lon="4.81671">
        <ele>182.19999694824</ele>
        <time>2023-12-17T10:37:38.000Z</time>
      </trkpt>
      <trkpt lat="44.87529" lon="4.81678">
        <ele>181.60000610352</ele>
        <time>2023-12-17T10:37:39.000Z</time>
      </trkpt>
      <trkpt lat="44.87528" lon="4.81686">
        <ele>180.80000305176</ele>
        <time>2023-12-17T10:37:40.000Z</time>
      </trkpt>
      <trkpt lat="44.87527" lon="4.81696">
        <ele>180.19999694824</ele>
        <time>2023-12-17T10:37:41.000Z</time>
      </trkpt>
      <trkpt lat="44.87527" lon="4.81706">
        <ele>179.80000305176</ele>
        <time>2023-12-17T10:37:42.000Z</time>
      </trkpt>
      <trkpt lat="44.87529" lon="4.81714">
        <ele>176.60000610352</ele>
        <time>2023-12-17T10:37:43.000Z</time>
      </trkpt>
      <trkpt lat="44.87531" lon="4.8172">
        <ele>175</ele>
        <time>2023-12-17T10:37:44.000Z</time>
      </trkpt>
      <trkpt lat="44.87533" lon="4.81723">
        <ele>173.80000305176</ele>
        <time>2023-12-17T10:37:45.000Z</time>
      </trkpt>
      <trkpt lat="44.87535" lon="4.81726">
        <ele>173</ele>
        <time>2023-12-17T10:37:46.000Z</time>
      </trkpt>
      <trkpt lat="44.87537" lon="4.81727">
        <ele>172.39999389648</ele>
        <time>2023-12-17T10:37:47.000Z</time>
      </trkpt>
      <trkpt lat="44.87538" lon="4.81729">
        <ele>172</ele>
        <time>2023-12-17T10:37:50.000Z</time>
      </trkpt>
      <trkpt lat="44.87539" lon="4.81729">
        <ele>172.39999389648</ele>
        <time>2023-12-17T10:37:57.000Z</time>
      </trkpt>
      <trkpt lat="44.8754" lon="4.81731">
        <ele>172.19999694824</ele>
        <time>2023-12-17T10:38:07.000Z</time>
      </trkpt>
      <trkpt lat="44.87538" lon="4.81744">
        <ele>172</ele>
        <time>2023-12-17T10:38:12.000Z</time>
      </trkpt>
      <trkpt lat="44.87528" lon="4.8176">
        <ele>173.39999389648</ele>
        <time>2023-12-17T10:38:18.000Z</time>
      </trkpt>
      <trkpt lat="44.87526" lon="4.81763">
        <ele>174</ele>
        <time>2023-12-17T10:38:19.000Z</time>
      </trkpt>
      <trkpt lat="44.87522" lon="4.8177">
        <ele>175.19999694824</ele>
        <time>2023-12-17T10:38:22.000Z</time>
      </trkpt>
      <trkpt lat="44.87518" lon="4.81776">
        <ele>176.19999694824</ele>
        <time>2023-12-17T10:38:24.000Z</time>
      </trkpt>
      <trkpt lat="44.87516" lon="4.8178">
        <ele>176.39999389648</ele>
        <time>2023-12-17T10:38:25.000Z</time>
      </trkpt>
      <trkpt lat="44.87503" lon="4.81794">
        <ele>177.39999389648</ele>
        <time>2023-12-17T10:38:29.000Z</time>
      </trkpt>
      <trkpt lat="44.87488" lon="4.81809">
        <ele>178.39999389648</ele>
        <time>2023-12-17T10:38:34.000Z</time>
      </trkpt>
      <trkpt lat="44.87483" lon="4.8181">
        <ele>178.39999389648</ele>
        <time>2023-12-17T10:38:35.000Z</time>
      </trkpt>
      <trkpt lat="44.8747" lon="4.8181">
        <ele>178.39999389648</ele>
        <time>2023-12-17T10:38:38.000Z</time>
      </trkpt>
      <trkpt lat="44.87466" lon="4.8181">
        <ele>178.39999389648</ele>
        <time>2023-12-17T10:38:39.000Z</time>
      </trkpt>
      <trkpt lat="44.87454" lon="4.81796">
        <ele>178.80000305176</ele>
        <time>2023-12-17T10:38:43.000Z</time>
      </trkpt>
      <trkpt lat="44.87447" lon="4.81786">
        <ele>179.60000610352</ele>
        <time>2023-12-17T10:38:46.000Z</time>
      </trkpt>
      <trkpt lat="44.87445" lon="4.81783">
        <ele>180</ele>
        <time>2023-12-17T10:38:47.000Z</time>
      </trkpt>
      <trkpt lat="44.87442" lon="4.81775">
        <ele>181</ele>
        <time>2023-12-17T10:38:49.000Z</time>
      </trkpt>
      <trkpt lat="44.87431" lon="4.81754">
        <ele>182</ele>
        <time>2023-12-17T10:38:54.000Z</time>
      </trkpt>
      <trkpt lat="44.87429" lon="4.8175">
        <ele>182.39999389648</ele>
        <time>2023-12-17T10:38:55.000Z</time>
      </trkpt>
      <trkpt lat="44.87422" lon="4.8174">
        <ele>183.60000610352</ele>
        <time>2023-12-17T10:38:58.000Z</time>
      </trkpt>
      <trkpt lat="44.87415" lon="4.81729">
        <ele>184.19999694824</ele>
        <time>2023-12-17T10:39:01.000Z</time>
      </trkpt>
      <trkpt lat="44.87411" lon="4.81722">
        <ele>184.80000305176</ele>
        <time>2023-12-17T10:39:03.000Z</time>
      </trkpt>
      <trkpt lat="44.87401" lon="4.81707">
        <ele>186</ele>
        <time>2023-12-17T10:39:07.000Z</time>
      </trkpt>
      <trkpt lat="44.87392" lon="4.81691">
        <ele>187.19999694824</ele>
        <time>2023-12-17T10:39:11.000Z</time>
      </trkpt>
      <trkpt lat="44.87384" lon="4.8168">
        <ele>188.39999389648</ele>
        <time>2023-12-17T10:39:14.000Z</time>
      </trkpt>
      <trkpt lat="44.87377" lon="4.81677">
        <ele>189.19999694824</ele>
        <time>2023-12-17T10:39:16.000Z</time>
      </trkpt>
      <trkpt lat="44.87374" lon="4.81677">
        <ele>190</ele>
        <time>2023-12-17T10:39:17.000Z</time>
      </trkpt>
      <trkpt lat="44.87363" lon="4.81683">
        <ele>191</ele>
        <time>2023-12-17T10:39:20.000Z</time>
      </trkpt>
      <trkpt lat="44.87357" lon="4.81687">
        <ele>191.19999694824</ele>
        <time>2023-12-17T10:39:22.000Z</time>
      </trkpt>
      <trkpt lat="44.87344" lon="4.81695">
        <ele>191.80000305176</ele>
        <time>2023-12-17T10:39:26.000Z</time>
      </trkpt>
      <trkpt lat="44.87317" lon="4.81692">
        <ele>192</ele>
        <time>2023-12-17T10:39:33.000Z</time>
      </trkpt>
      <trkpt lat="44.87313" lon="4.81691">
        <ele>192</ele>
        <time>2023-12-17T10:39:34.000Z</time>
      </trkpt>
      <trkpt lat="44.87303" lon="4.81689">
        <ele>191.39999389648</ele>
        <time>2023-12-17T10:39:36.000Z</time>
      </trkpt>
      <trkpt lat="44.87297" lon="4.81687">
        <ele>191</ele>
        <time>2023-12-17T10:39:37.000Z</time>
      </trkpt>
      <trkpt lat="44.87292" lon="4.81683">
        <ele>191</ele>
        <time>2023-12-17T10:39:38.000Z</time>
      </trkpt>
      <trkpt lat="44.87286" lon="4.81678">
        <ele>189.19999694824</ele>
        <time>2023-12-17T10:39:39.000Z</time>
      </trkpt>
      <trkpt lat="44.8728" lon="4.81673">
        <ele>187.60000610352</ele>
        <time>2023-12-17T10:39:40.000Z</time>
      </trkpt>
      <trkpt lat="44.87274" lon="4.81667">
        <ele>186.80000305176</ele>
        <time>2023-12-17T10:39:41.000Z</time>
      </trkpt>
      <trkpt lat="44.87268" lon="4.8166">
        <ele>186</ele>
        <time>2023-12-17T10:39:42.000Z</time>
      </trkpt>
      <trkpt lat="44.87253" lon="4.81646">
        <ele>184</ele>
        <time>2023-12-17T10:39:44.000Z</time>
      </trkpt>
      <trkpt lat="44.87239" lon="4.81632">
        <ele>182.80000305176</ele>
        <time>2023-12-17T10:39:46.000Z</time>
      </trkpt>
      <trkpt lat="44.87232" lon="4.81617">
        <ele>182.39999389648</ele>
        <time>2023-12-17T10:39:48.000Z</time>
      </trkpt>
      <trkpt lat="44.87231" lon="4.81611">
        <ele>182.39999389648</ele>
        <time>2023-12-17T10:39:49.000Z</time>
      </trkpt>
      <trkpt lat="44.87229" lon="4.81599">
        <ele>184.19999694824</ele>
        <time>2023-12-17T10:39:52.000Z</time>
      </trkpt>
      <trkpt lat="44.87226" lon="4.81593">
        <ele>185</ele>
        <time>2023-12-17T10:39:54.000Z</time>
      </trkpt>
      <trkpt lat="44.87226" lon="4.81589">
        <ele>185.39999389648</ele>
        <time>2023-12-17T10:39:55.000Z</time>
      </trkpt>
      <trkpt lat="44.87219" lon="4.81584">
        <ele>187</ele>
        <time>2023-12-17T10:39:58.000Z</time>
      </trkpt>
      <trkpt lat="44.87217" lon="4.81584">
        <ele>188.19999694824</ele>
        <time>2023-12-17T10:39:59.000Z</time>
      </trkpt>
      <trkpt lat="44.87214" lon="4.81584">
        <ele>189.60000610352</ele>
        <time>2023-12-17T10:40:00.000Z</time>
      </trkpt>
      <trkpt lat="44.8721" lon="4.81584">
        <ele>190.80000305176</ele>
        <time>2023-12-17T10:40:02.000Z</time>
      </trkpt>
      <trkpt lat="44.87206" lon="4.81584">
        <ele>191.80000305176</ele>
        <time>2023-12-17T10:40:04.000Z</time>
      </trkpt>
      <trkpt lat="44.87204" lon="4.81584">
        <ele>192.60000610352</ele>
        <time>2023-12-17T10:40:05.000Z</time>
      </trkpt>
      <trkpt lat="44.87202" lon="4.81584">
        <ele>192.80000305176</ele>
        <time>2023-12-17T10:40:06.000Z</time>
      </trkpt>
      <trkpt lat="44.87196" lon="4.81584">
        <ele>194.19999694824</ele>
        <time>2023-12-17T10:40:09.000Z</time>
      </trkpt>
      <trkpt lat="44.87191" lon="4.81585">
        <ele>195.39999389648</ele>
        <time>2023-12-17T10:40:11.000Z</time>
      </trkpt>
      <trkpt lat="44.8719" lon="4.81585">
        <ele>196</ele>
        <time>2023-12-17T10:40:12.000Z</time>
      </trkpt>
      <trkpt lat="44.87188" lon="4.81585">
        <ele>196.39999389648</ele>
        <time>2023-12-17T10:40:13.000Z</time>
      </trkpt>
      <trkpt lat="44.8718" lon="4.81586">
        <ele>197.60000610352</ele>
        <time>2023-12-17T10:40:17.000Z</time>
      </trkpt>
      <trkpt lat="44.87176" lon="4.81583">
        <ele>198</ele>
        <time>2023-12-17T10:40:19.000Z</time>
      </trkpt>
      <trkpt lat="44.87173" lon="4.81579">
        <ele>198.60000610352</ele>
        <time>2023-12-17T10:40:21.000Z</time>
      </trkpt>
      <trkpt lat="44.87166" lon="4.81569">
        <ele>199.19999694824</ele>
        <time>2023-12-17T10:40:25.000Z</time>
      </trkpt>
      <trkpt lat="44.87163" lon="4.81564">
        <ele>199.80000305176</ele>
        <time>2023-12-17T10:40:27.000Z</time>
      </trkpt>
      <trkpt lat="44.87153" lon="4.81552">
        <ele>200.80000305176</ele>
        <time>2023-12-17T10:40:32.000Z</time>
      </trkpt>
      <trkpt lat="44.87151" lon="4.81549">
        <ele>200.80000305176</ele>
        <time>2023-12-17T10:40:33.000Z</time>
      </trkpt>
      <trkpt lat="44.87141" lon="4.81536">
        <ele>201.39999389648</ele>
        <time>2023-12-17T10:40:38.000Z</time>
      </trkpt>
      <trkpt lat="44.87128" lon="4.8152">
        <ele>202</ele>
        <time>2023-12-17T10:40:44.000Z</time>
      </trkpt>
      <trkpt lat="44.87119" lon="4.81509">
        <ele>202.60000610352</ele>
        <time>2023-12-17T10:40:48.000Z</time>
      </trkpt>
      <trkpt lat="44.87117" lon="4.81506">
        <ele>203</ele>
        <time>2023-12-17T10:40:49.000Z</time>
      </trkpt>
      <trkpt lat="44.87107" lon="4.81491">
        <ele>204</ele>
        <time>2023-12-17T10:40:54.000Z</time>
      </trkpt>
      <trkpt lat="44.87103" lon="4.81486">
        <ele>204.60000610352</ele>
        <time>2023-12-17T10:40:56.000Z</time>
      </trkpt>
      <trkpt lat="44.87097" lon="4.81479">
        <ele>205.39999389648</ele>
        <time>2023-12-17T10:40:59.000Z</time>
      </trkpt>
      <trkpt lat="44.87095" lon="4.81477">
        <ele>205.60000610352</ele>
        <time>2023-12-17T10:41:00.000Z</time>
      </trkpt>
      <trkpt lat="44.87088" lon="4.81467">
        <ele>206.39999389648</ele>
        <time>2023-12-17T10:41:04.000Z</time>
      </trkpt>
      <trkpt lat="44.87082" lon="4.81461">
        <ele>207.19999694824</ele>
        <time>2023-12-17T10:41:08.000Z</time>
      </trkpt>
      <trkpt lat="44.87081" lon="4.8146">
        <ele>207.80000305176</ele>
        <time>2023-12-17T10:41:10.000Z</time>
      </trkpt>
      <trkpt lat="44.87081" lon="4.8146">
        <ele>208.60000610352</ele>
        <time>2023-12-17T10:41:13.000Z</time>
      </trkpt>
      <trkpt lat="44.87082" lon="4.8146">
        <ele>208.80000305176</ele>
        <time>2023-12-17T10:41:16.000Z</time>
      </trkpt>
      <trkpt lat="44.87082" lon="4.8146">
        <ele>208</ele>
        <time>2023-12-17T10:41:26.000Z</time>
      </trkpt>
      <trkpt lat="44.87082" lon="4.8146">
        <ele>207.60000610352</ele>
        <time>2023-12-17T10:41:28.000Z</time>
      </trkpt>
      <trkpt lat="44.87082" lon="4.8146">
        <ele>207.19999694824</ele>
        <time>2023-12-17T10:41:47.000Z</time>
      </trkpt>
      <trkpt lat="44.87081" lon="4.81459">
        <ele>207.19999694824</ele>
        <time>2023-12-17T10:41:51.000Z</time>
      </trkpt>
      <trkpt lat="44.87078" lon="4.81456">
        <ele>207.19999694824</ele>
        <time>2023-12-17T10:41:53.000Z</time>
      </trkpt>
      <trkpt lat="44.87069" lon="4.81447">
        <ele>207.39999389648</ele>
        <time>2023-12-17T10:41:57.000Z</time>
      </trkpt>
      <trkpt lat="44.87064" lon="4.81441">
        <ele>207.60000610352</ele>
        <time>2023-12-17T10:41:59.000Z</time>
      </trkpt>
      <trkpt lat="44.87045" lon="4.81421">
        <ele>208.80000305176</ele>
        <time>2023-12-17T10:42:06.000Z</time>
      </trkpt>
      <trkpt lat="44.87036" lon="4.81412">
        <ele>209.60000610352</ele>
        <time>2023-12-17T10:42:09.000Z</time>
      </trkpt>
      <trkpt lat="44.87033" lon="4.81409">
        <ele>209.80000305176</ele>
        <time>2023-12-17T10:42:10.000Z</time>
      </trkpt>
      <trkpt lat="44.87015" lon="4.81398">
        <ele>210.80000305176</ele>
        <time>2023-12-17T10:42:15.000Z</time>
      </trkpt>
      <trkpt lat="44.87008" lon="4.81394">
        <ele>211.60000610352</ele>
        <time>2023-12-17T10:42:17.000Z</time>
      </trkpt>
      <trkpt lat="44.87004" lon="4.81393">
        <ele>212</ele>
        <time>2023-12-17T10:42:18.000Z</time>
      </trkpt>
      <trkpt lat="44.86979" lon="4.81387">
        <ele>212.80000305176</ele>
        <time>2023-12-17T10:42:24.000Z</time>
      </trkpt>
      <trkpt lat="44.86951" lon="4.81389">
        <ele>213</ele>
        <time>2023-12-17T10:42:30.000Z</time>
      </trkpt>
      <trkpt lat="44.86946" lon="4.81391">
        <ele>213.19999694824</ele>
        <time>2023-12-17T10:42:31.000Z</time>
      </trkpt>
      <trkpt lat="44.86916" lon="4.81401">
        <ele>213.60000610352</ele>
        <time>2023-12-17T10:42:37.000Z</time>
      </trkpt>
      <trkpt lat="44.86901" lon="4.81405">
        <ele>213.80000305176</ele>
        <time>2023-12-17T10:42:40.000Z</time>
      </trkpt>
      <trkpt lat="44.86891" lon="4.81404">
        <ele>213.80000305176</ele>
        <time>2023-12-17T10:42:42.000Z</time>
      </trkpt>
      <trkpt lat="44.86881" lon="4.81401">
        <ele>214.39999389648</ele>
        <time>2023-12-17T10:42:44.000Z</time>
      </trkpt>
      <trkpt lat="44.86866" lon="4.81396">
        <ele>215</ele>
        <time>2023-12-17T10:42:47.000Z</time>
      </trkpt>
      <trkpt lat="44.86857" lon="4.81394">
        <ele>215.60000610352</ele>
        <time>2023-12-17T10:42:49.000Z</time>
      </trkpt>
      <trkpt lat="44.86833" lon="4.81394">
        <ele>215.39999389648</ele>
        <time>2023-12-17T10:42:54.000Z</time>
      </trkpt>
      <trkpt lat="44.86828" lon="4.81395">
        <ele>214.80000305176</ele>
        <time>2023-12-17T10:42:55.000Z</time>
      </trkpt>
      <trkpt lat="44.86805" lon="4.81397">
        <ele>214.80000305176</ele>
        <time>2023-12-17T10:43:00.000Z</time>
      </trkpt>
      <trkpt lat="44.8679" lon="4.81402">
        <ele>215.19999694824</ele>
        <time>2023-12-17T10:43:03.000Z</time>
      </trkpt>
      <trkpt lat="44.8678" lon="4.81409">
        <ele>215.19999694824</ele>
        <time>2023-12-17T10:43:05.000Z</time>
      </trkpt>
      <trkpt lat="44.86765" lon="4.81419">
        <ele>214.39999389648</ele>
        <time>2023-12-17T10:43:08.000Z</time>
      </trkpt>
      <trkpt lat="44.86755" lon="4.81421">
        <ele>214</ele>
        <time>2023-12-17T10:43:10.000Z</time>
      </trkpt>
      <trkpt lat="44.86743" lon="4.81422">
        <ele>213.39999389648</ele>
        <time>2023-12-17T10:43:12.000Z</time>
      </trkpt>
      <trkpt lat="44.86708" lon="4.81424">
        <ele>213.19999694824</ele>
        <time>2023-12-17T10:43:18.000Z</time>
      </trkpt>
      <trkpt lat="44.86655" lon="4.81422">
        <ele>212.80000305176</ele>
        <time>2023-12-17T10:43:27.000Z</time>
      </trkpt>
      <trkpt lat="44.86644" lon="4.81419">
        <ele>212.60000610352</ele>
        <time>2023-12-17T10:43:29.000Z</time>
      </trkpt>
      <trkpt lat="44.86627" lon="4.81411">
        <ele>212.60000610352</ele>
        <time>2023-12-17T10:43:32.000Z</time>
      </trkpt>
      <trkpt lat="44.86586" lon="4.81382">
        <ele>213.60000610352</ele>
        <time>2023-12-17T10:43:40.000Z</time>
      </trkpt>
      <trkpt lat="44.86548" lon="4.81346">
        <ele>213</ele>
        <time>2023-12-17T10:43:48.000Z</time>
      </trkpt>
      <trkpt lat="44.86519" lon="4.81323">
        <ele>214.39999389648</ele>
        <time>2023-12-17T10:43:54.000Z</time>
      </trkpt>
      <trkpt lat="44.86509" lon="4.81317">
        <ele>214.80000305176</ele>
        <time>2023-12-17T10:43:56.000Z</time>
      </trkpt>
      <trkpt lat="44.86463" lon="4.81287">
        <ele>214.80000305176</ele>
        <time>2023-12-17T10:44:05.000Z</time>
      </trkpt>
      <trkpt lat="44.86438" lon="4.81271">
        <ele>214.19999694824</ele>
        <time>2023-12-17T10:44:10.000Z</time>
      </trkpt>
      <trkpt lat="44.86432" lon="4.81269">
        <ele>214.19999694824</ele>
        <time>2023-12-17T10:44:11.000Z</time>
      </trkpt>
      <trkpt lat="44.86387" lon="4.81249">
        <ele>215</ele>
        <time>2023-12-17T10:44:19.000Z</time>
      </trkpt>
      <trkpt lat="44.86348" lon="4.81221">
        <ele>215.39999389648</ele>
        <time>2023-12-17T10:44:27.000Z</time>
      </trkpt>
      <trkpt lat="44.86335" lon="4.81211">
        <ele>215.60000610352</ele>
        <time>2023-12-17T10:44:30.000Z</time>
      </trkpt>
      <trkpt lat="44.86312" lon="4.81192">
        <ele>216.19999694824</ele>
        <time>2023-12-17T10:44:35.000Z</time>
      </trkpt>
      <trkpt lat="44.86301" lon="4.81183">
        <ele>216.80000305176</ele>
        <time>2023-12-17T10:44:38.000Z</time>
      </trkpt>
      <trkpt lat="44.86294" lon="4.81179">
        <ele>217.80000305176</ele>
        <time>2023-12-17T10:44:40.000Z</time>
      </trkpt>
      <trkpt lat="44.86287" lon="4.81175">
        <ele>218.80000305176</ele>
        <time>2023-12-17T10:44:42.000Z</time>
      </trkpt>
      <trkpt lat="44.86273" lon="4.81165">
        <ele>220</ele>
        <time>2023-12-17T10:44:46.000Z</time>
      </trkpt>
      <trkpt lat="44.8627" lon="4.81162">
        <ele>220.39999389648</ele>
        <time>2023-12-17T10:44:47.000Z</time>
      </trkpt>
      <trkpt lat="44.86263" lon="4.81156">
        <ele>220.60000610352</ele>
        <time>2023-12-17T10:44:49.000Z</time>
      </trkpt>
      <trkpt lat="44.86256" lon="4.81147">
        <ele>220.60000610352</ele>
        <time>2023-12-17T10:44:51.000Z</time>
      </trkpt>
      <trkpt lat="44.86253" lon="4.81141">
        <ele>220.60000610352</ele>
        <time>2023-12-17T10:44:52.000Z</time>
      </trkpt>
      <trkpt lat="44.86235" lon="4.81103">
        <ele>220.80000305176</ele>
        <time>2023-12-17T10:44:59.000Z</time>
      </trkpt>
      <trkpt lat="44.86232" lon="4.81098">
        <ele>221</ele>
        <time>2023-12-17T10:45:00.000Z</time>
      </trkpt>
      <trkpt lat="44.86219" lon="4.8108">
        <ele>222.39999389648</ele>
        <time>2023-12-17T10:45:04.000Z</time>
      </trkpt>
      <trkpt lat="44.86212" lon="4.81073">
        <ele>223.19999694824</ele>
        <time>2023-12-17T10:45:06.000Z</time>
      </trkpt>
      <trkpt lat="44.86209" lon="4.8107">
        <ele>223.39999389648</ele>
        <time>2023-12-17T10:45:07.000Z</time>
      </trkpt>
      <trkpt lat="44.86205" lon="4.81068">
        <ele>223.39999389648</ele>
        <time>2023-12-17T10:45:08.000Z</time>
      </trkpt>
      <trkpt lat="44.86189" lon="4.8106">
        <ele>224.80000305176</ele>
        <time>2023-12-17T10:45:13.000Z</time>
      </trkpt>
      <trkpt lat="44.86186" lon="4.81058">
        <ele>225.19999694824</ele>
        <time>2023-12-17T10:45:14.000Z</time>
      </trkpt>
      <trkpt lat="44.8618" lon="4.81054">
        <ele>225.80000305176</ele>
        <time>2023-12-17T10:45:16.000Z</time>
      </trkpt>
      <trkpt lat="44.86169" lon="4.81042">
        <ele>227</ele>
        <time>2023-12-17T10:45:20.000Z</time>
      </trkpt>
      <trkpt lat="44.86163" lon="4.81035">
        <ele>227.60000610352</ele>
        <time>2023-12-17T10:45:22.000Z</time>
      </trkpt>
      <trkpt lat="44.86158" lon="4.81029">
        <ele>228.19999694824</ele>
        <time>2023-12-17T10:45:24.000Z</time>
      </trkpt>
      <trkpt lat="44.86149" lon="4.81021">
        <ele>229.39999389648</ele>
        <time>2023-12-17T10:45:27.000Z</time>
      </trkpt>
      <trkpt lat="44.8614" lon="4.81013">
        <ele>230.60000610352</ele>
        <time>2023-12-17T10:45:30.000Z</time>
      </trkpt>
      <trkpt lat="44.86122" lon="4.80997">
        <ele>231.60000610352</ele>
        <time>2023-12-17T10:45:36.000Z</time>
      </trkpt>
      <trkpt lat="44.86116" lon="4.80992">
        <ele>232.39999389648</ele>
        <time>2023-12-17T10:45:38.000Z</time>
      </trkpt>
      <trkpt lat="44.86109" lon="4.80986">
        <ele>232.80000305176</ele>
        <time>2023-12-17T10:45:40.000Z</time>
      </trkpt>
      <trkpt lat="44.86089" lon="4.80962">
        <ele>233.19999694824</ele>
        <time>2023-12-17T10:45:47.000Z</time>
      </trkpt>
      <trkpt lat="44.86083" lon="4.80955">
        <ele>233.80000305176</ele>
        <time>2023-12-17T10:45:49.000Z</time>
      </trkpt>
      <trkpt lat="44.86071" lon="4.80937">
        <ele>234.80000305176</ele>
        <time>2023-12-17T10:45:54.000Z</time>
      </trkpt>
      <trkpt lat="44.86068" lon="4.80934">
        <ele>235</ele>
        <time>2023-12-17T10:45:55.000Z</time>
      </trkpt>
      <trkpt lat="44.86051" lon="4.80925">
        <ele>235.39999389648</ele>
        <time>2023-12-17T10:45:59.000Z</time>
      </trkpt>
      <trkpt lat="44.86034" lon="4.80908">
        <ele>234.19999694824</ele>
        <time>2023-12-17T10:46:04.000Z</time>
      </trkpt>
      <trkpt lat="44.86006" lon="4.80883">
        <ele>235.39999389648</ele>
        <time>2023-12-17T10:46:12.000Z</time>
      </trkpt>
      <trkpt lat="44.86002" lon="4.80879">
        <ele>235.60000610352</ele>
        <time>2023-12-17T10:46:13.000Z</time>
      </trkpt>
      <trkpt lat="44.85995" lon="4.80872">
        <ele>235.80000305176</ele>
        <time>2023-12-17T10:46:15.000Z</time>
      </trkpt>
      <trkpt lat="44.8599" lon="4.80862">
        <ele>236</ele>
        <time>2023-12-17T10:46:17.000Z</time>
      </trkpt>
      <trkpt lat="44.85988" lon="4.80857">
        <ele>236</ele>
        <time>2023-12-17T10:46:18.000Z</time>
      </trkpt>
      <trkpt lat="44.85983" lon="4.8084">
        <ele>236.39999389648</ele>
        <time>2023-12-17T10:46:21.000Z</time>
      </trkpt>
      <trkpt lat="44.85981" lon="4.80828">
        <ele>236.80000305176</ele>
        <time>2023-12-17T10:46:23.000Z</time>
      </trkpt>
      <trkpt lat="44.85981" lon="4.80821">
        <ele>236.80000305176</ele>
        <time>2023-12-17T10:46:24.000Z</time>
      </trkpt>
      <trkpt lat="44.85983" lon="4.80786">
        <ele>236.19999694824</ele>
        <time>2023-12-17T10:46:29.000Z</time>
      </trkpt>
      <trkpt lat="44.85986" lon="4.80734">
        <ele>235.39999389648</ele>
        <time>2023-12-17T10:46:36.000Z</time>
      </trkpt>
      <trkpt lat="44.8599" lon="4.80713">
        <ele>235.39999389648</ele>
        <time>2023-12-17T10:46:41.000Z</time>
      </trkpt>
      <trkpt lat="44.85996" lon="4.80705">
        <ele>235.60000610352</ele>
        <time>2023-12-17T10:46:46.000Z</time>
      </trkpt>
      <trkpt lat="44.85997" lon="4.80705">
        <ele>235.60000610352</ele>
        <time>2023-12-17T10:46:52.000Z</time>
      </trkpt>
      <trkpt lat="44.85997" lon="4.80704">
        <ele>235.39999389648</ele>
        <time>2023-12-17T10:46:59.000Z</time>
      </trkpt>
      <trkpt lat="44.85999" lon="4.80705">
        <ele>235.80000305176</ele>
        <time>2023-12-17T10:47:04.000Z</time>
      </trkpt>
      <trkpt lat="44.86001" lon="4.80706">
        <ele>235.39999389648</ele>
        <time>2023-12-17T10:47:10.000Z</time>
      </trkpt>
      <trkpt lat="44.86002" lon="4.80708">
        <ele>235.60000610352</ele>
        <time>2023-12-17T10:47:15.000Z</time>
      </trkpt>
      <trkpt lat="44.86002" lon="4.80708">
        <ele>235.80000305176</ele>
        <time>2023-12-17T10:47:21.000Z</time>
      </trkpt>
      <trkpt lat="44.86001" lon="4.80708">
        <ele>235.80000305176</ele>
        <time>2023-12-17T10:47:30.000Z</time>
      </trkpt>
      <trkpt lat="44.86001" lon="4.80709">
        <ele>235.39999389648</ele>
        <time>2023-12-17T10:47:39.000Z</time>
      </trkpt>
      <trkpt lat="44.85999" lon="4.80708">
        <ele>235.39999389648</ele>
        <time>2023-12-17T10:47:50.000Z</time>
      </trkpt>
      <trkpt lat="44.85998" lon="4.80708">
        <ele>235.80000305176</ele>
        <time>2023-12-17T10:47:57.000Z</time>
      </trkpt>
      <trkpt lat="44.86" lon="4.80708">
        <ele>235.60000610352</ele>
        <time>2023-12-17T10:48:03.000Z</time>
      </trkpt>
      <trkpt lat="44.86001" lon="4.80709">
        <ele>236</ele>
        <time>2023-12-17T10:48:07.000Z</time>
      </trkpt>
      <trkpt lat="44.85997" lon="4.80707">
        <ele>235.80000305176</ele>
        <time>2023-12-17T10:48:13.000Z</time>
      </trkpt>
      <trkpt lat="44.85996" lon="4.80705">
        <ele>235.80000305176</ele>
        <time>2023-12-17T10:48:18.000Z</time>
      </trkpt>
      <trkpt lat="44.85997" lon="4.80705">
        <ele>235.39999389648</ele>
        <time>2023-12-17T10:48:23.000Z</time>
      </trkpt>
      <trkpt lat="44.85997" lon="4.80704">
        <ele>235.39999389648</ele>
        <time>2023-12-17T10:48:26.000Z</time>
      </trkpt>
      <trkpt lat="44.85996" lon="4.80705">
        <ele>235</ele>
        <time>2023-12-17T10:48:32.000Z</time>
      </trkpt>
      <trkpt lat="44.85996" lon="4.80704">
        <ele>235.19999694824</ele>
        <time>2023-12-17T10:48:35.000Z</time>
      </trkpt>
      <trkpt lat="44.85996" lon="4.80704">
        <ele>235</ele>
        <time>2023-12-17T10:48:44.000Z</time>
      </trkpt>
      <trkpt lat="44.85996" lon="4.80706">
        <ele>235</ele>
        <time>2023-12-17T10:48:51.000Z</time>
      </trkpt>
      <trkpt lat="44.85995" lon="4.80705">
        <ele>235.19999694824</ele>
        <time>2023-12-17T10:48:57.000Z</time>
      </trkpt>
      <trkpt lat="44.85994" lon="4.80706">
        <ele>235.19999694824</ele>
        <time>2023-12-17T10:49:05.000Z</time>
      </trkpt>
      <trkpt lat="44.85988" lon="4.80719">
        <ele>234.80000305176</ele>
        <time>2023-12-17T10:49:11.000Z</time>
      </trkpt>
      <trkpt lat="44.85986" lon="4.80741">
        <ele>234</ele>
        <time>2023-12-17T10:49:17.000Z</time>
      </trkpt>
      <trkpt lat="44.85984" lon="4.80769">
        <ele>234.19999694824</ele>
        <time>2023-12-17T10:49:23.000Z</time>
      </trkpt>
      <trkpt lat="44.85983" lon="4.80782">
        <ele>235.19999694824</ele>
        <time>2023-12-17T10:49:26.000Z</time>
      </trkpt>
      <trkpt lat="44.85981" lon="4.808">
        <ele>235.80000305176</ele>
        <time>2023-12-17T10:49:30.000Z</time>
      </trkpt>
      <trkpt lat="44.8598" lon="4.80815">
        <ele>236.39999389648</ele>
        <time>2023-12-17T10:49:33.000Z</time>
      </trkpt>
      <trkpt lat="44.85981" lon="4.80836">
        <ele>237</ele>
        <time>2023-12-17T10:49:37.000Z</time>
      </trkpt>
      <trkpt lat="44.8599" lon="4.80858">
        <ele>237.39999389648</ele>
        <time>2023-12-17T10:49:42.000Z</time>
      </trkpt>
      <trkpt lat="44.85993" lon="4.80863">
        <ele>237.39999389648</ele>
        <time>2023-12-17T10:49:43.000Z</time>
      </trkpt>
      <trkpt lat="44.86" lon="4.80866">
        <ele>237.39999389648</ele>
        <time>2023-12-17T10:49:45.000Z</time>
      </trkpt>
      <trkpt lat="44.86014" lon="4.80872">
        <ele>237.39999389648</ele>
        <time>2023-12-17T10:49:49.000Z</time>
      </trkpt>
      <trkpt lat="44.86016" lon="4.80874">
        <ele>237.60000610352</ele>
        <time>2023-12-17T10:49:50.000Z</time>
      </trkpt>
      <trkpt lat="44.86021" lon="4.80876">
        <ele>238.60000610352</ele>
        <time>2023-12-17T10:49:52.000Z</time>
      </trkpt>
      <trkpt lat="44.86023" lon="4.80876">
        <ele>239</ele>
        <time>2023-12-17T10:49:53.000Z</time>
      </trkpt>
      <trkpt lat="44.86026" lon="4.80874">
        <ele>239.39999389648</ele>
        <time>2023-12-17T10:49:54.000Z</time>
      </trkpt>
      <trkpt lat="44.86028" lon="4.80871">
        <ele>239.60000610352</ele>
        <time>2023-12-17T10:49:55.000Z</time>
      </trkpt>
      <trkpt lat="44.86034" lon="4.80859">
        <ele>240.60000610352</ele>
        <time>2023-12-17T10:49:59.000Z</time>
      </trkpt>
      <trkpt lat="44.86036" lon="4.80856">
        <ele>240.80000305176</ele>
        <time>2023-12-17T10:50:00.000Z</time>
      </trkpt>
      <trkpt lat="44.86043" lon="4.80849">
        <ele>242</ele>
        <time>2023-12-17T10:50:03.000Z</time>
      </trkpt>
      <trkpt lat="44.86047" lon="4.80841">
        <ele>243</ele>
        <time>2023-12-17T10:50:06.000Z</time>
      </trkpt>
      <trkpt lat="44.86049" lon="4.80839">
        <ele>243.60000610352</ele>
        <time>2023-12-17T10:50:07.000Z</time>
      </trkpt>
      <trkpt lat="44.86057" lon="4.80824">
        <ele>244.80000305176</ele>
        <time>2023-12-17T10:50:12.000Z</time>
      </trkpt>
      <trkpt lat="44.86067" lon="4.80815">
        <ele>245.80000305176</ele>
        <time>2023-12-17T10:50:17.000Z</time>
      </trkpt>
      <trkpt lat="44.86072" lon="4.80812">
        <ele>246.39999389648</ele>
        <time>2023-12-17T10:50:19.000Z</time>
      </trkpt>
      <trkpt lat="44.86074" lon="4.80811">
        <ele>246.80000305176</ele>
        <time>2023-12-17T10:50:20.000Z</time>
      </trkpt>
      <trkpt lat="44.8608" lon="4.80811">
        <ele>247.80000305176</ele>
        <time>2023-12-17T10:50:23.000Z</time>
      </trkpt>
      <trkpt lat="44.86085" lon="4.80813">
        <ele>248.19999694824</ele>
        <time>2023-12-17T10:50:25.000Z</time>
      </trkpt>
      <trkpt lat="44.86086" lon="4.80814">
        <ele>248.80000305176</ele>
        <time>2023-12-17T10:50:26.000Z</time>
      </trkpt>
      <trkpt lat="44.86094" lon="4.80818">
        <ele>249.80000305176</ele>
        <time>2023-12-17T10:50:30.000Z</time>
      </trkpt>
      <trkpt lat="44.86101" lon="4.80819">
        <ele>250.60000610352</ele>
        <time>2023-12-17T10:50:33.000Z</time>
      </trkpt>
      <trkpt lat="44.86104" lon="4.80819">
        <ele>251</ele>
        <time>2023-12-17T10:50:34.000Z</time>
      </trkpt>
      <trkpt lat="44.86113" lon="4.80819">
        <ele>252.60000610352</ele>
        <time>2023-12-17T10:50:38.000Z</time>
      </trkpt>
      <trkpt lat="44.8612" lon="4.80818">
        <ele>253.60000610352</ele>
        <time>2023-12-17T10:50:41.000Z</time>
      </trkpt>
      <trkpt lat="44.86127" lon="4.80818">
        <ele>254.80000305176</ele>
        <time>2023-12-17T10:50:44.000Z</time>
      </trkpt>
      <trkpt lat="44.86132" lon="4.80817">
        <ele>255.80000305176</ele>
        <time>2023-12-17T10:50:46.000Z</time>
      </trkpt>
      <trkpt lat="44.86138" lon="4.80818">
        <ele>257.60000610352</ele>
        <time>2023-12-17T10:50:49.000Z</time>
      </trkpt>
      <trkpt lat="44.8614" lon="4.80818">
        <ele>258.20001220703</ele>
        <time>2023-12-17T10:50:50.000Z</time>
      </trkpt>
      <trkpt lat="44.86143" lon="4.8082">
        <ele>259.39999389648</ele>
        <time>2023-12-17T10:50:52.000Z</time>
      </trkpt>
      <trkpt lat="44.86149" lon="4.80823">
        <ele>260.60000610352</ele>
        <time>2023-12-17T10:50:55.000Z</time>
      </trkpt>
      <trkpt lat="44.86154" lon="4.80826">
        <ele>261.39999389648</ele>
        <time>2023-12-17T10:50:57.000Z</time>
      </trkpt>
      <trkpt lat="44.86155" lon="4.80827">
        <ele>261.79998779297</ele>
        <time>2023-12-17T10:50:58.000Z</time>
      </trkpt>
      <trkpt lat="44.86159" lon="4.80829">
        <ele>262.79998779297</ele>
        <time>2023-12-17T10:51:00.000Z</time>
      </trkpt>
      <trkpt lat="44.86166" lon="4.80831">
        <ele>264.39999389648</ele>
        <time>2023-12-17T10:51:03.000Z</time>
      </trkpt>
      <trkpt lat="44.86175" lon="4.8083">
        <ele>265.60000610352</ele>
        <time>2023-12-17T10:51:07.000Z</time>
      </trkpt>
      <trkpt lat="44.86182" lon="4.80828">
        <ele>266.20001220703</ele>
        <time>2023-12-17T10:51:10.000Z</time>
      </trkpt>
      <trkpt lat="44.86186" lon="4.80827">
        <ele>267</ele>
        <time>2023-12-17T10:51:12.000Z</time>
      </trkpt>
      <trkpt lat="44.86192" lon="4.80825">
        <ele>268</ele>
        <time>2023-12-17T10:51:15.000Z</time>
      </trkpt>
      <trkpt lat="44.86195" lon="4.80825">
        <ele>268.39999389648</ele>
        <time>2023-12-17T10:51:16.000Z</time>
      </trkpt>
      <trkpt lat="44.86202" lon="4.80826">
        <ele>269.39999389648</ele>
        <time>2023-12-17T10:51:19.000Z</time>
      </trkpt>
      <trkpt lat="44.86206" lon="4.80824">
        <ele>270.60000610352</ele>
        <time>2023-12-17T10:51:21.000Z</time>
      </trkpt>
      <trkpt lat="44.8621" lon="4.80822">
        <ele>271.20001220703</ele>
        <time>2023-12-17T10:51:23.000Z</time>
      </trkpt>
      <trkpt lat="44.86214" lon="4.80818">
        <ele>271.79998779297</ele>
        <time>2023-12-17T10:51:25.000Z</time>
      </trkpt>
      <trkpt lat="44.86222" lon="4.8081">
        <ele>272.79998779297</ele>
        <time>2023-12-17T10:51:29.000Z</time>
      </trkpt>
      <trkpt lat="44.86225" lon="4.80808">
        <ele>273.20001220703</ele>
        <time>2023-12-17T10:51:30.000Z</time>
      </trkpt>
      <trkpt lat="44.86235" lon="4.80803">
        <ele>274.20001220703</ele>
        <time>2023-12-17T10:51:34.000Z</time>
      </trkpt>
      <trkpt lat="44.8624" lon="4.80798">
        <ele>275.20001220703</ele>
        <time>2023-12-17T10:51:37.000Z</time>
      </trkpt>
      <trkpt lat="44.86242" lon="4.80797">
        <ele>276</ele>
        <time>2023-12-17T10:51:38.000Z</time>
      </trkpt>
      <trkpt lat="44.86244" lon="4.80796">
        <ele>276.39999389648</ele>
        <time>2023-12-17T10:51:39.000Z</time>
      </trkpt>
      <trkpt lat="44.86248" lon="4.80794">
        <ele>277.60000610352</ele>
        <time>2023-12-17T10:51:41.000Z</time>
      </trkpt>
      <trkpt lat="44.86254" lon="4.8079">
        <ele>278.79998779297</ele>
        <time>2023-12-17T10:51:44.000Z</time>
      </trkpt>
      <trkpt lat="44.86257" lon="4.80788">
        <ele>280</ele>
        <time>2023-12-17T10:51:46.000Z</time>
      </trkpt>
      <trkpt lat="44.86261" lon="4.80786">
        <ele>281.39999389648</ele>
        <time>2023-12-17T10:51:48.000Z</time>
      </trkpt>
      <trkpt lat="44.86264" lon="4.80783">
        <ele>282.39999389648</ele>
        <time>2023-12-17T10:51:50.000Z</time>
      </trkpt>
      <trkpt lat="44.8627" lon="4.8078">
        <ele>283.79998779297</ele>
        <time>2023-12-17T10:51:53.000Z</time>
      </trkpt>
      <trkpt lat="44.86274" lon="4.80778">
        <ele>284.60000610352</ele>
        <time>2023-12-17T10:51:55.000Z</time>
      </trkpt>
      <trkpt lat="44.86278" lon="4.80775">
        <ele>285.20001220703</ele>
        <time>2023-12-17T10:51:57.000Z</time>
      </trkpt>
      <trkpt lat="44.86284" lon="4.80772">
        <ele>286.60000610352</ele>
        <time>2023-12-17T10:52:00.000Z</time>
      </trkpt>
      <trkpt lat="44.86287" lon="4.8077">
        <ele>287.39999389648</ele>
        <time>2023-12-17T10:52:02.000Z</time>
      </trkpt>
      <trkpt lat="44.86289" lon="4.80769">
        <ele>287.79998779297</ele>
        <time>2023-12-17T10:52:03.000Z</time>
      </trkpt>
      <trkpt lat="44.86294" lon="4.80765">
        <ele>288.79998779297</ele>
        <time>2023-12-17T10:52:06.000Z</time>
      </trkpt>
      <trkpt lat="44.86299" lon="4.8076">
        <ele>289.60000610352</ele>
        <time>2023-12-17T10:52:09.000Z</time>
      </trkpt>
      <trkpt lat="44.86303" lon="4.80757">
        <ele>290.20001220703</ele>
        <time>2023-12-17T10:52:11.000Z</time>
      </trkpt>
      <trkpt lat="44.86309" lon="4.80751">
        <ele>291.60000610352</ele>
        <time>2023-12-17T10:52:15.000Z</time>
      </trkpt>
      <trkpt lat="44.8631" lon="4.80749">
        <ele>292</ele>
        <time>2023-12-17T10:52:16.000Z</time>
      </trkpt>
      <trkpt lat="44.86315" lon="4.80744">
        <ele>293</ele>
        <time>2023-12-17T10:52:19.000Z</time>
      </trkpt>
      <trkpt lat="44.86322" lon="4.80737">
        <ele>294.39999389648</ele>
        <time>2023-12-17T10:52:23.000Z</time>
      </trkpt>
      <trkpt lat="44.86329" lon="4.80729">
        <ele>295.60000610352</ele>
        <time>2023-12-17T10:52:28.000Z</time>
      </trkpt>
      <trkpt lat="44.8633" lon="4.80728">
        <ele>295.60000610352</ele>
        <time>2023-12-17T10:52:29.000Z</time>
      </trkpt>
      <trkpt lat="44.86333" lon="4.80724">
        <ele>297</ele>
        <time>2023-12-17T10:52:31.000Z</time>
      </trkpt>
      <trkpt lat="44.86339" lon="4.80718">
        <ele>298</ele>
        <time>2023-12-17T10:52:35.000Z</time>
      </trkpt>
      <trkpt lat="44.86341" lon="4.80716">
        <ele>298.79998779297</ele>
        <time>2023-12-17T10:52:36.000Z</time>
      </trkpt>
      <trkpt lat="44.86342" lon="4.80715">
        <ele>299.20001220703</ele>
        <time>2023-12-17T10:52:37.000Z</time>
      </trkpt>
      <trkpt lat="44.86348" lon="4.80704">
        <ele>300.39999389648</ele>
        <time>2023-12-17T10:52:42.000Z</time>
      </trkpt>
      <trkpt lat="44.8635" lon="4.80696">
        <ele>301.60000610352</ele>
        <time>2023-12-17T10:52:45.000Z</time>
      </trkpt>
      <trkpt lat="44.86351" lon="4.80687">
        <ele>302.60000610352</ele>
        <time>2023-12-17T10:52:48.000Z</time>
      </trkpt>
      <trkpt lat="44.86352" lon="4.80679">
        <ele>303.60000610352</ele>
        <time>2023-12-17T10:52:51.000Z</time>
      </trkpt>
      <trkpt lat="44.86352" lon="4.80671">
        <ele>304.79998779297</ele>
        <time>2023-12-17T10:52:54.000Z</time>
      </trkpt>
      <trkpt lat="44.86351" lon="4.80654">
        <ele>306.20001220703</ele>
        <time>2023-12-17T10:53:00.000Z</time>
      </trkpt>
      <trkpt lat="44.8635" lon="4.80646">
        <ele>307.60000610352</ele>
        <time>2023-12-17T10:53:03.000Z</time>
      </trkpt>
      <trkpt lat="44.8635" lon="4.80643">
        <ele>308.20001220703</ele>
        <time>2023-12-17T10:53:04.000Z</time>
      </trkpt>
      <trkpt lat="44.8635" lon="4.80638">
        <ele>308.79998779297</ele>
        <time>2023-12-17T10:53:06.000Z</time>
      </trkpt>
      <trkpt lat="44.86351" lon="4.8063">
        <ele>309.79998779297</ele>
        <time>2023-12-17T10:53:09.000Z</time>
      </trkpt>
      <trkpt lat="44.86351" lon="4.80627">
        <ele>310.20001220703</ele>
        <time>2023-12-17T10:53:10.000Z</time>
      </trkpt>
      <trkpt lat="44.86351" lon="4.80625">
        <ele>310.60000610352</ele>
        <time>2023-12-17T10:53:11.000Z</time>
      </trkpt>
      <trkpt lat="44.86352" lon="4.80622">
        <ele>311</ele>
        <time>2023-12-17T10:53:12.000Z</time>
      </trkpt>
      <trkpt lat="44.86353" lon="4.80617">
        <ele>312.60000610352</ele>
        <time>2023-12-17T10:53:14.000Z</time>
      </trkpt>
      <trkpt lat="44.86356" lon="4.8061">
        <ele>314</ele>
        <time>2023-12-17T10:53:17.000Z</time>
      </trkpt>
      <trkpt lat="44.86364" lon="4.80596">
        <ele>315.20001220703</ele>
        <time>2023-12-17T10:53:23.000Z</time>
      </trkpt>
      <trkpt lat="44.86368" lon="4.80591">
        <ele>316.20001220703</ele>
        <time>2023-12-17T10:53:25.000Z</time>
      </trkpt>
      <trkpt lat="44.86375" lon="4.80584">
        <ele>317.20001220703</ele>
        <time>2023-12-17T10:53:29.000Z</time>
      </trkpt>
      <trkpt lat="44.86382" lon="4.80577">
        <ele>318.60000610352</ele>
        <time>2023-12-17T10:53:33.000Z</time>
      </trkpt>
      <trkpt lat="44.86394" lon="4.80562">
        <ele>319.60000610352</ele>
        <time>2023-12-17T10:53:39.000Z</time>
      </trkpt>
      <trkpt lat="44.86407" lon="4.80542">
        <ele>320.79998779297</ele>
        <time>2023-12-17T10:53:46.000Z</time>
      </trkpt>
      <trkpt lat="44.86421" lon="4.8053">
        <ele>321.60000610352</ele>
        <time>2023-12-17T10:53:52.000Z</time>
      </trkpt>
      <trkpt lat="44.8643" lon="4.80526">
        <ele>322.20001220703</ele>
        <time>2023-12-17T10:53:55.000Z</time>
      </trkpt>
      <trkpt lat="44.86437" lon="4.80522">
        <ele>323.39999389648</ele>
        <time>2023-12-17T10:53:58.000Z</time>
      </trkpt>
      <trkpt lat="44.86439" lon="4.8052">
        <ele>323.79998779297</ele>
        <time>2023-12-17T10:53:59.000Z</time>
      </trkpt>
      <trkpt lat="44.86446" lon="4.80511">
        <ele>324.60000610352</ele>
        <time>2023-12-17T10:54:03.000Z</time>
      </trkpt>
      <trkpt lat="44.86451" lon="4.80506">
        <ele>325.60000610352</ele>
        <time>2023-12-17T10:54:06.000Z</time>
      </trkpt>
      <trkpt lat="44.86459" lon="4.80497">
        <ele>327.20001220703</ele>
        <time>2023-12-17T10:54:10.000Z</time>
      </trkpt>
      <trkpt lat="44.86463" lon="4.80491">
        <ele>328.39999389648</ele>
        <time>2023-12-17T10:54:13.000Z</time>
      </trkpt>
      <trkpt lat="44.86465" lon="4.80487">
        <ele>328.79998779297</ele>
        <time>2023-12-17T10:54:15.000Z</time>
      </trkpt>
      <trkpt lat="44.86469" lon="4.8048">
        <ele>329.79998779297</ele>
        <time>2023-12-17T10:54:18.000Z</time>
      </trkpt>
      <trkpt lat="44.86471" lon="4.80475">
        <ele>331.20001220703</ele>
        <time>2023-12-17T10:54:20.000Z</time>
      </trkpt>
      <trkpt lat="44.86473" lon="4.80469">
        <ele>332</ele>
        <time>2023-12-17T10:54:22.000Z</time>
      </trkpt>
      <trkpt lat="44.86475" lon="4.80464">
        <ele>332.79998779297</ele>
        <time>2023-12-17T10:54:24.000Z</time>
      </trkpt>
      <trkpt lat="44.8648" lon="4.80454">
        <ele>333.79998779297</ele>
        <time>2023-12-17T10:54:28.000Z</time>
      </trkpt>
      <trkpt lat="44.86483" lon="4.80449">
        <ele>334.39999389648</ele>
        <time>2023-12-17T10:54:30.000Z</time>
      </trkpt>
      <trkpt lat="44.86486" lon="4.80442">
        <ele>335</ele>
        <time>2023-12-17T10:54:33.000Z</time>
      </trkpt>
      <trkpt lat="44.86487" lon="4.80439">
        <ele>335.20001220703</ele>
        <time>2023-12-17T10:54:34.000Z</time>
      </trkpt>
      <trkpt lat="44.86488" lon="4.80434">
        <ele>335.79998779297</ele>
        <time>2023-12-17T10:54:36.000Z</time>
      </trkpt>
      <trkpt lat="44.86489" lon="4.80429">
        <ele>336.20001220703</ele>
        <time>2023-12-17T10:54:38.000Z</time>
      </trkpt>
      <trkpt lat="44.86491" lon="4.8042">
        <ele>337.79998779297</ele>
        <time>2023-12-17T10:54:41.000Z</time>
      </trkpt>
      <trkpt lat="44.86494" lon="4.80415">
        <ele>338.60000610352</ele>
        <time>2023-12-17T10:54:43.000Z</time>
      </trkpt>
      <trkpt lat="44.86494" lon="4.80413">
        <ele>339</ele>
        <time>2023-12-17T10:54:44.000Z</time>
      </trkpt>
      <trkpt lat="44.86497" lon="4.80405">
        <ele>340.20001220703</ele>
        <time>2023-12-17T10:54:47.000Z</time>
      </trkpt>
      <trkpt lat="44.865" lon="4.80398">
        <ele>341</ele>
        <time>2023-12-17T10:54:50.000Z</time>
      </trkpt>
      <trkpt lat="44.86501" lon="4.80396">
        <ele>341.39999389648</ele>
        <time>2023-12-17T10:54:51.000Z</time>
      </trkpt>
      <trkpt lat="44.86504" lon="4.80389">
        <ele>342.79998779297</ele>
        <time>2023-12-17T10:54:54.000Z</time>
      </trkpt>
      <trkpt lat="44.86507" lon="4.80382">
        <ele>344</ele>
        <time>2023-12-17T10:54:57.000Z</time>
      </trkpt>
      <trkpt lat="44.86512" lon="4.80375">
        <ele>345.20001220703</ele>
        <time>2023-12-17T10:55:00.000Z</time>
      </trkpt>
      <trkpt lat="44.86515" lon="4.80369">
        <ele>345.79998779297</ele>
        <time>2023-12-17T10:55:03.000Z</time>
      </trkpt>
      <trkpt lat="44.86516" lon="4.80367">
        <ele>346.39999389648</ele>
        <time>2023-12-17T10:55:04.000Z</time>
      </trkpt>
      <trkpt lat="44.8652" lon="4.80361">
        <ele>348</ele>
        <time>2023-12-17T10:55:07.000Z</time>
      </trkpt>
      <trkpt lat="44.86524" lon="4.80353">
        <ele>349.20001220703</ele>
        <time>2023-12-17T10:55:10.000Z</time>
      </trkpt>
      <trkpt lat="44.8653" lon="4.80339">
        <ele>350.39999389648</ele>
        <time>2023-12-17T10:55:15.000Z</time>
      </trkpt>
      <trkpt lat="44.86532" lon="4.80333">
        <ele>350.79998779297</ele>
        <time>2023-12-17T10:55:17.000Z</time>
      </trkpt>
      <trkpt lat="44.86537" lon="4.80325">
        <ele>352</ele>
        <time>2023-12-17T10:55:20.000Z</time>
      </trkpt>
      <trkpt lat="44.86542" lon="4.80317">
        <ele>353.20001220703</ele>
        <time>2023-12-17T10:55:23.000Z</time>
      </trkpt>
      <trkpt lat="44.86543" lon="4.80315">
        <ele>353.60000610352</ele>
        <time>2023-12-17T10:55:24.000Z</time>
      </trkpt>
      <trkpt lat="44.86552" lon="4.80302">
        <ele>354.60000610352</ele>
        <time>2023-12-17T10:55:30.000Z</time>
      </trkpt>
      <trkpt lat="44.86561" lon="4.80288">
        <ele>355.79998779297</ele>
        <time>2023-12-17T10:55:35.000Z</time>
      </trkpt>
      <trkpt lat="44.86565" lon="4.80281">
        <ele>356.39999389648</ele>
        <time>2023-12-17T10:55:37.000Z</time>
      </trkpt>
      <trkpt lat="44.8657" lon="4.80271">
        <ele>356.79998779297</ele>
        <time>2023-12-17T10:55:40.000Z</time>
      </trkpt>
      <trkpt lat="44.86575" lon="4.80258">
        <ele>357.79998779297</ele>
        <time>2023-12-17T10:55:44.000Z</time>
      </trkpt>
      <trkpt lat="44.86576" lon="4.80255">
        <ele>358.20001220703</ele>
        <time>2023-12-17T10:55:45.000Z</time>
      </trkpt>
      <trkpt lat="44.86582" lon="4.80241">
        <ele>359.39999389648</ele>
        <time>2023-12-17T10:55:49.000Z</time>
      </trkpt>
      <trkpt lat="44.86585" lon="4.80235">
        <ele>359.79998779297</ele>
        <time>2023-12-17T10:55:51.000Z</time>
      </trkpt>
      <trkpt lat="44.86589" lon="4.80226">
        <ele>360.60000610352</ele>
        <time>2023-12-17T10:55:54.000Z</time>
      </trkpt>
      <trkpt lat="44.8659" lon="4.80223">
        <ele>360.79998779297</ele>
        <time>2023-12-17T10:55:55.000Z</time>
      </trkpt>
      <trkpt lat="44.86593" lon="4.80213">
        <ele>361.79998779297</ele>
        <time>2023-12-17T10:55:58.000Z</time>
      </trkpt>
      <trkpt lat="44.86596" lon="4.80207">
        <ele>362.39999389648</ele>
        <time>2023-12-17T10:56:00.000Z</time>
      </trkpt>
      <trkpt lat="44.86599" lon="4.802">
        <ele>363</ele>
        <time>2023-12-17T10:56:02.000Z</time>
      </trkpt>
      <trkpt lat="44.86602" lon="4.8019">
        <ele>364.20001220703</ele>
        <time>2023-12-17T10:56:05.000Z</time>
      </trkpt>
      <trkpt lat="44.86602" lon="4.80186">
        <ele>364.39999389648</ele>
        <time>2023-12-17T10:56:06.000Z</time>
      </trkpt>
      <trkpt lat="44.86604" lon="4.80175">
        <ele>365.39999389648</ele>
        <time>2023-12-17T10:56:09.000Z</time>
      </trkpt>
      <trkpt lat="44.86608" lon="4.80162">
        <ele>366.79998779297</ele>
        <time>2023-12-17T10:56:13.000Z</time>
      </trkpt>
      <trkpt lat="44.86609" lon="4.80156">
        <ele>367.79998779297</ele>
        <time>2023-12-17T10:56:15.000Z</time>
      </trkpt>
      <trkpt lat="44.86608" lon="4.8014">
        <ele>368.60000610352</ele>
        <time>2023-12-17T10:56:19.000Z</time>
      </trkpt>
      <trkpt lat="44.86608" lon="4.80137">
        <ele>368.79998779297</ele>
        <time>2023-12-17T10:56:20.000Z</time>
      </trkpt>
      <trkpt lat="44.86608" lon="4.80124">
        <ele>369.20001220703</ele>
        <time>2023-12-17T10:56:24.000Z</time>
      </trkpt>
      <trkpt lat="44.86606" lon="4.80114">
        <ele>370.20001220703</ele>
        <time>2023-12-17T10:56:27.000Z</time>
      </trkpt>
      <trkpt lat="44.86607" lon="4.80104">
        <ele>371.20001220703</ele>
        <time>2023-12-17T10:56:30.000Z</time>
      </trkpt>
      <trkpt lat="44.86608" lon="4.80096">
        <ele>372.39999389648</ele>
        <time>2023-12-17T10:56:33.000Z</time>
      </trkpt>
      <trkpt lat="44.86608" lon="4.8009">
        <ele>373.60000610352</ele>
        <time>2023-12-17T10:56:35.000Z</time>
      </trkpt>
      <trkpt lat="44.86609" lon="4.80088">
        <ele>373.79998779297</ele>
        <time>2023-12-17T10:56:36.000Z</time>
      </trkpt>
      <trkpt lat="44.8661" lon="4.8008">
        <ele>374.79998779297</ele>
        <time>2023-12-17T10:56:39.000Z</time>
      </trkpt>
      <trkpt lat="44.8661" lon="4.80077">
        <ele>375.60000610352</ele>
        <time>2023-12-17T10:56:40.000Z</time>
      </trkpt>
      <trkpt lat="44.86611" lon="4.8007">
        <ele>376.20001220703</ele>
        <time>2023-12-17T10:56:42.000Z</time>
      </trkpt>
      <trkpt lat="44.86611" lon="4.80057">
        <ele>377.79998779297</ele>
        <time>2023-12-17T10:56:46.000Z</time>
      </trkpt>
      <trkpt lat="44.86612" lon="4.80047">
        <ele>379</ele>
        <time>2023-12-17T10:56:49.000Z</time>
      </trkpt>
      <trkpt lat="44.86613" lon="4.80039">
        <ele>380</ele>
        <time>2023-12-17T10:56:52.000Z</time>
      </trkpt>
      <trkpt lat="44.86613" lon="4.80032">
        <ele>381.39999389648</ele>
        <time>2023-12-17T10:56:54.000Z</time>
      </trkpt>
      <trkpt lat="44.86611" lon="4.80018">
        <ele>382.20001220703</ele>
        <time>2023-12-17T10:56:58.000Z</time>
      </trkpt>
      <trkpt lat="44.86611" lon="4.80014">
        <ele>382.60000610352</ele>
        <time>2023-12-17T10:56:59.000Z</time>
      </trkpt>
      <trkpt lat="44.8661" lon="4.80002">
        <ele>384.20001220703</ele>
        <time>2023-12-17T10:57:03.000Z</time>
      </trkpt>
      <trkpt lat="44.8661" lon="4.79997">
        <ele>384.79998779297</ele>
        <time>2023-12-17T10:57:05.000Z</time>
      </trkpt>
      <trkpt lat="44.86611" lon="4.79992">
        <ele>385.20001220703</ele>
        <time>2023-12-17T10:57:07.000Z</time>
      </trkpt>
      <trkpt lat="44.86613" lon="4.79983">
        <ele>385.60000610352</ele>
        <time>2023-12-17T10:57:10.000Z</time>
      </trkpt>
      <trkpt lat="44.86612" lon="4.79975">
        <ele>386</ele>
        <time>2023-12-17T10:57:12.000Z</time>
      </trkpt>
      <trkpt lat="44.86612" lon="4.79972">
        <ele>386.60000610352</ele>
        <time>2023-12-17T10:57:13.000Z</time>
      </trkpt>
      <trkpt lat="44.86612" lon="4.79963">
        <ele>387.60000610352</ele>
        <time>2023-12-17T10:57:16.000Z</time>
      </trkpt>
      <trkpt lat="44.86614" lon="4.79956">
        <ele>388.79998779297</ele>
        <time>2023-12-17T10:57:19.000Z</time>
      </trkpt>
      <trkpt lat="44.86616" lon="4.79943">
        <ele>390.20001220703</ele>
        <time>2023-12-17T10:57:23.000Z</time>
      </trkpt>
      <trkpt lat="44.86616" lon="4.79932">
        <ele>391.39999389648</ele>
        <time>2023-12-17T10:57:26.000Z</time>
      </trkpt>
      <trkpt lat="44.86617" lon="4.7993">
        <ele>391.39999389648</ele>
        <time>2023-12-17T10:57:27.000Z</time>
      </trkpt>
      <trkpt lat="44.8662" lon="4.79919">
        <ele>392.39999389648</ele>
        <time>2023-12-17T10:57:31.000Z</time>
      </trkpt>
      <trkpt lat="44.86622" lon="4.79912">
        <ele>393.79998779297</ele>
        <time>2023-12-17T10:57:34.000Z</time>
      </trkpt>
      <trkpt lat="44.86623" lon="4.79909">
        <ele>394.60000610352</ele>
        <time>2023-12-17T10:57:35.000Z</time>
      </trkpt>
      <trkpt lat="44.86625" lon="4.79907">
        <ele>395.20001220703</ele>
        <time>2023-12-17T10:57:36.000Z</time>
      </trkpt>
      <trkpt lat="44.86626" lon="4.79901">
        <ele>396.20001220703</ele>
        <time>2023-12-17T10:57:38.000Z</time>
      </trkpt>
      <trkpt lat="44.86629" lon="4.7989">
        <ele>397</ele>
        <time>2023-12-17T10:57:42.000Z</time>
      </trkpt>
      <trkpt lat="44.8663" lon="4.79887">
        <ele>397.39999389648</ele>
        <time>2023-12-17T10:57:43.000Z</time>
      </trkpt>
      <trkpt lat="44.86632" lon="4.79882">
        <ele>398.60000610352</ele>
        <time>2023-12-17T10:57:45.000Z</time>
      </trkpt>
      <trkpt lat="44.86634" lon="4.79873">
        <ele>399.39999389648</ele>
        <time>2023-12-17T10:57:48.000Z</time>
      </trkpt>
      <trkpt lat="44.86635" lon="4.79866">
        <ele>400.20001220703</ele>
        <time>2023-12-17T10:57:50.000Z</time>
      </trkpt>
      <trkpt lat="44.86637" lon="4.79857">
        <ele>401.39999389648</ele>
        <time>2023-12-17T10:57:53.000Z</time>
      </trkpt>
      <trkpt lat="44.86637" lon="4.79853">
        <ele>401.60000610352</ele>
        <time>2023-12-17T10:57:54.000Z</time>
      </trkpt>
      <trkpt lat="44.86638" lon="4.79851">
        <ele>402.39999389648</ele>
        <time>2023-12-17T10:57:55.000Z</time>
      </trkpt>
      <trkpt lat="44.86643" lon="4.79839">
        <ele>403.79998779297</ele>
        <time>2023-12-17T10:57:59.000Z</time>
      </trkpt>
      <trkpt lat="44.86644" lon="4.79832">
        <ele>404.39999389648</ele>
        <time>2023-12-17T10:58:01.000Z</time>
      </trkpt>
      <trkpt lat="44.86645" lon="4.79825">
        <ele>404.79998779297</ele>
        <time>2023-12-17T10:58:03.000Z</time>
      </trkpt>
      <trkpt lat="44.86647" lon="4.79815">
        <ele>406.20001220703</ele>
        <time>2023-12-17T10:58:06.000Z</time>
      </trkpt>
      <trkpt lat="44.86649" lon="4.79806">
        <ele>407.79998779297</ele>
        <time>2023-12-17T10:58:09.000Z</time>
      </trkpt>
      <trkpt lat="44.8665" lon="4.798">
        <ele>408.60000610352</ele>
        <time>2023-12-17T10:58:11.000Z</time>
      </trkpt>
      <trkpt lat="44.86651" lon="4.79797">
        <ele>408.79998779297</ele>
        <time>2023-12-17T10:58:12.000Z</time>
      </trkpt>
      <trkpt lat="44.86652" lon="4.79788">
        <ele>410.20001220703</ele>
        <time>2023-12-17T10:58:15.000Z</time>
      </trkpt>
      <trkpt lat="44.86652" lon="4.79777">
        <ele>410.60000610352</ele>
        <time>2023-12-17T10:58:18.000Z</time>
      </trkpt>
      <trkpt lat="44.86653" lon="4.79771">
        <ele>411.20001220703</ele>
        <time>2023-12-17T10:58:20.000Z</time>
      </trkpt>
      <trkpt lat="44.86658" lon="4.79757">
        <ele>412.60000610352</ele>
        <time>2023-12-17T10:58:25.000Z</time>
      </trkpt>
      <trkpt lat="44.86662" lon="4.79745">
        <ele>413.60000610352</ele>
        <time>2023-12-17T10:58:29.000Z</time>
      </trkpt>
      <trkpt lat="44.86664" lon="4.7974">
        <ele>414.60000610352</ele>
        <time>2023-12-17T10:58:31.000Z</time>
      </trkpt>
      <trkpt lat="44.86665" lon="4.79737">
        <ele>415</ele>
        <time>2023-12-17T10:58:32.000Z</time>
      </trkpt>
      <trkpt lat="44.86668" lon="4.79732">
        <ele>415.39999389648</ele>
        <time>2023-12-17T10:58:34.000Z</time>
      </trkpt>
      <trkpt lat="44.86669" lon="4.79729">
        <ele>415.79998779297</ele>
        <time>2023-12-17T10:58:35.000Z</time>
      </trkpt>
      <trkpt lat="44.8667" lon="4.79723">
        <ele>417.20001220703</ele>
        <time>2023-12-17T10:58:37.000Z</time>
      </trkpt>
      <trkpt lat="44.86667" lon="4.79708">
        <ele>418.79998779297</ele>
        <time>2023-12-17T10:58:41.000Z</time>
      </trkpt>
      <trkpt lat="44.86666" lon="4.79702">
        <ele>419.60000610352</ele>
        <time>2023-12-17T10:58:43.000Z</time>
      </trkpt>
      <trkpt lat="44.86666" lon="4.79699">
        <ele>420</ele>
        <time>2023-12-17T10:58:44.000Z</time>
      </trkpt>
      <trkpt lat="44.86666" lon="4.79688">
        <ele>421</ele>
        <time>2023-12-17T10:58:48.000Z</time>
      </trkpt>
      <trkpt lat="44.86668" lon="4.79678">
        <ele>422</ele>
        <time>2023-12-17T10:58:51.000Z</time>
      </trkpt>
      <trkpt lat="44.86669" lon="4.7967">
        <ele>422.39999389648</ele>
        <time>2023-12-17T10:58:54.000Z</time>
      </trkpt>
      <trkpt lat="44.8667" lon="4.79668">
        <ele>422.79998779297</ele>
        <time>2023-12-17T10:58:55.000Z</time>
      </trkpt>
      <trkpt lat="44.8667" lon="4.79663">
        <ele>423.20001220703</ele>
        <time>2023-12-17T10:58:57.000Z</time>
      </trkpt>
      <trkpt lat="44.86669" lon="4.7966">
        <ele>423.39999389648</ele>
        <time>2023-12-17T10:58:58.000Z</time>
      </trkpt>
      <trkpt lat="44.86668" lon="4.79659">
        <ele>423.60000610352</ele>
        <time>2023-12-17T10:58:59.000Z</time>
      </trkpt>
      <trkpt lat="44.86667" lon="4.79656">
        <ele>423.79998779297</ele>
        <time>2023-12-17T10:59:01.000Z</time>
      </trkpt>
      <trkpt lat="44.86667" lon="4.79652">
        <ele>424.39999389648</ele>
        <time>2023-12-17T10:59:06.000Z</time>
      </trkpt>
      <trkpt lat="44.86665" lon="4.79652">
        <ele>424.39999389648</ele>
        <time>2023-12-17T10:59:08.000Z</time>
      </trkpt>
      <trkpt lat="44.86661" lon="4.79657">
        <ele>424.79998779297</ele>
        <time>2023-12-17T10:59:11.000Z</time>
      </trkpt>
      <trkpt lat="44.86653" lon="4.79673">
        <ele>425.20001220703</ele>
        <time>2023-12-17T10:59:16.000Z</time>
      </trkpt>
      <trkpt lat="44.86648" lon="4.7968">
        <ele>425.60000610352</ele>
        <time>2023-12-17T10:59:18.000Z</time>
      </trkpt>
      <trkpt lat="44.86638" lon="4.79698">
        <ele>426</ele>
        <time>2023-12-17T10:59:23.000Z</time>
      </trkpt>
      <trkpt lat="44.86622" lon="4.79724">
        <ele>426</ele>
        <time>2023-12-17T10:59:30.000Z</time>
      </trkpt>
      <trkpt lat="44.86617" lon="4.79731">
        <ele>427</ele>
        <time>2023-12-17T10:59:32.000Z</time>
      </trkpt>
      <trkpt lat="44.86609" lon="4.79741">
        <ele>427.79998779297</ele>
        <time>2023-12-17T10:59:35.000Z</time>
      </trkpt>
      <trkpt lat="44.86601" lon="4.79757">
        <ele>428</ele>
        <time>2023-12-17T10:59:39.000Z</time>
      </trkpt>
      <trkpt lat="44.86597" lon="4.79762">
        <ele>429.20001220703</ele>
        <time>2023-12-17T10:59:41.000Z</time>
      </trkpt>
      <trkpt lat="44.8659" lon="4.7977">
        <ele>430.60000610352</ele>
        <time>2023-12-17T10:59:44.000Z</time>
      </trkpt>
      <trkpt lat="44.86581" lon="4.79778">
        <ele>431.60000610352</ele>
        <time>2023-12-17T10:59:48.000Z</time>
      </trkpt>
      <trkpt lat="44.86579" lon="4.7978">
        <ele>431.79998779297</ele>
        <time>2023-12-17T10:59:49.000Z</time>
      </trkpt>
      <trkpt lat="44.86569" lon="4.79786">
        <ele>433.39999389648</ele>
        <time>2023-12-17T10:59:53.000Z</time>
      </trkpt>
      <trkpt lat="44.86559" lon="4.7979">
        <ele>434.39999389648</ele>
        <time>2023-12-17T10:59:57.000Z</time>
      </trkpt>
      <trkpt lat="44.86555" lon="4.79792">
        <ele>435</ele>
        <time>2023-12-17T10:59:59.000Z</time>
      </trkpt>
      <trkpt lat="44.86549" lon="4.79794">
        <ele>435.60000610352</ele>
        <time>2023-12-17T11:00:01.000Z</time>
      </trkpt>
      <trkpt lat="44.86542" lon="4.79794">
        <ele>436</ele>
        <time>2023-12-17T11:00:04.000Z</time>
      </trkpt>
      <trkpt lat="44.86534" lon="4.79795">
        <ele>436.60000610352</ele>
        <time>2023-12-17T11:00:07.000Z</time>
      </trkpt>
      <trkpt lat="44.86526" lon="4.79796">
        <ele>437.60000610352</ele>
        <time>2023-12-17T11:00:10.000Z</time>
      </trkpt>
      <trkpt lat="44.86523" lon="4.79797">
        <ele>438</ele>
        <time>2023-12-17T11:00:11.000Z</time>
      </trkpt>
      <trkpt lat="44.86507" lon="4.79801">
        <ele>438.79998779297</ele>
        <time>2023-12-17T11:00:17.000Z</time>
      </trkpt>
      <trkpt lat="44.86501" lon="4.79801">
        <ele>439.20001220703</ele>
        <time>2023-12-17T11:00:19.000Z</time>
      </trkpt>
      <trkpt lat="44.8649" lon="4.79803">
        <ele>440.20001220703</ele>
        <time>2023-12-17T11:00:23.000Z</time>
      </trkpt>
      <trkpt lat="44.86487" lon="4.79804">
        <ele>440.79998779297</ele>
        <time>2023-12-17T11:00:24.000Z</time>
      </trkpt>
      <trkpt lat="44.86478" lon="4.79809">
        <ele>441.20001220703</ele>
        <time>2023-12-17T11:00:27.000Z</time>
      </trkpt>
      <trkpt lat="44.86468" lon="4.79813">
        <ele>442.39999389648</ele>
        <time>2023-12-17T11:00:31.000Z</time>
      </trkpt>
      <trkpt lat="44.86455" lon="4.79818">
        <ele>443.20001220703</ele>
        <time>2023-12-17T11:00:36.000Z</time>
      </trkpt>
      <trkpt lat="44.86448" lon="4.79819">
        <ele>443.60000610352</ele>
        <time>2023-12-17T11:00:39.000Z</time>
      </trkpt>
      <trkpt lat="44.86444" lon="4.7982">
        <ele>444.79998779297</ele>
        <time>2023-12-17T11:00:41.000Z</time>
      </trkpt>
      <trkpt lat="44.86436" lon="4.7982">
        <ele>446</ele>
        <time>2023-12-17T11:00:44.000Z</time>
      </trkpt>
      <trkpt lat="44.86425" lon="4.79821">
        <ele>447</ele>
        <time>2023-12-17T11:00:48.000Z</time>
      </trkpt>
      <trkpt lat="44.86422" lon="4.79821">
        <ele>447.20001220703</ele>
        <time>2023-12-17T11:00:49.000Z</time>
      </trkpt>
      <trkpt lat="44.86408" lon="4.7982">
        <ele>448</ele>
        <time>2023-12-17T11:00:55.000Z</time>
      </trkpt>
      <trkpt lat="44.86403" lon="4.7982">
        <ele>448.20001220703</ele>
        <time>2023-12-17T11:00:57.000Z</time>
      </trkpt>
      <trkpt lat="44.86394" lon="4.7982">
        <ele>449</ele>
        <time>2023-12-17T11:01:01.000Z</time>
      </trkpt>
      <trkpt lat="44.86391" lon="4.7982">
        <ele>449.39999389648</ele>
        <time>2023-12-17T11:01:02.000Z</time>
      </trkpt>
      <trkpt lat="44.86384" lon="4.79819">
        <ele>450.39999389648</ele>
        <time>2023-12-17T11:01:04.000Z</time>
      </trkpt>
      <trkpt lat="44.8638" lon="4.79817">
        <ele>450.60000610352</ele>
        <time>2023-12-17T11:01:06.000Z</time>
      </trkpt>
      <trkpt lat="44.86376" lon="4.79813">
        <ele>450.79998779297</ele>
        <time>2023-12-17T11:01:09.000Z</time>
      </trkpt>
      <trkpt lat="44.86374" lon="4.79813">
        <ele>451</ele>
        <time>2023-12-17T11:01:12.000Z</time>
      </trkpt>
      <trkpt lat="44.86372" lon="4.79813">
        <ele>451</ele>
        <time>2023-12-17T11:01:20.000Z</time>
      </trkpt>
      <trkpt lat="44.86373" lon="4.79813">
        <ele>450.39999389648</ele>
        <time>2023-12-17T11:01:32.000Z</time>
      </trkpt>
      <trkpt lat="44.86373" lon="4.79812">
        <ele>450.79998779297</ele>
        <time>2023-12-17T11:01:39.000Z</time>
      </trkpt>
      <trkpt lat="44.86373" lon="4.79812">
        <ele>450.60000610352</ele>
        <time>2023-12-17T11:01:48.000Z</time>
      </trkpt>
      <trkpt lat="44.86371" lon="4.79813">
        <ele>450.39999389648</ele>
        <time>2023-12-17T11:01:52.000Z</time>
      </trkpt>
      <trkpt lat="44.86368" lon="4.79815">
        <ele>450.39999389648</ele>
        <time>2023-12-17T11:01:54.000Z</time>
      </trkpt>
      <trkpt lat="44.86355" lon="4.79817">
        <ele>449.79998779297</ele>
        <time>2023-12-17T11:01:59.000Z</time>
      </trkpt>
      <trkpt lat="44.86352" lon="4.79815">
        <ele>449.39999389648</ele>
        <time>2023-12-17T11:02:03.000Z</time>
      </trkpt>
      <trkpt lat="44.86352" lon="4.79816">
        <ele>449.39999389648</ele>
        <time>2023-12-17T11:02:14.000Z</time>
      </trkpt>
      <trkpt lat="44.86352" lon="4.79816">
        <ele>449.20001220703</ele>
        <time>2023-12-17T11:02:19.000Z</time>
      </trkpt>
      <trkpt lat="44.86351" lon="4.79816">
        <ele>449</ele>
        <time>2023-12-17T11:02:22.000Z</time>
      </trkpt>
      <trkpt lat="44.86346" lon="4.79813">
        <ele>448.79998779297</ele>
        <time>2023-12-17T11:02:25.000Z</time>
      </trkpt>
      <trkpt lat="44.86341" lon="4.79813">
        <ele>448.60000610352</ele>
        <time>2023-12-17T11:02:27.000Z</time>
      </trkpt>
      <trkpt lat="44.86338" lon="4.79818">
        <ele>448.60000610352</ele>
        <time>2023-12-17T11:02:29.000Z</time>
      </trkpt>
      <trkpt lat="44.86334" lon="4.79837">
        <ele>447.60000610352</ele>
        <time>2023-12-17T11:02:33.000Z</time>
      </trkpt>
      <trkpt lat="44.86332" lon="4.79847">
        <ele>446.39999389648</ele>
        <time>2023-12-17T11:02:35.000Z</time>
      </trkpt>
      <trkpt lat="44.86331" lon="4.79853">
        <ele>446</ele>
        <time>2023-12-17T11:02:36.000Z</time>
      </trkpt>
      <trkpt lat="44.86329" lon="4.79866">
        <ele>445.39999389648</ele>
        <time>2023-12-17T11:02:38.000Z</time>
      </trkpt>
      <trkpt lat="44.86328" lon="4.79873">
        <ele>445</ele>
        <time>2023-12-17T11:02:39.000Z</time>
      </trkpt>
      <trkpt lat="44.86326" lon="4.79916">
        <ele>444.60000610352</ele>
        <time>2023-12-17T11:02:45.000Z</time>
      </trkpt>
      <trkpt lat="44.86323" lon="4.79931">
        <ele>444.39999389648</ele>
        <time>2023-12-17T11:02:47.000Z</time>
      </trkpt>
      <trkpt lat="44.86319" lon="4.79947">
        <ele>443.60000610352</ele>
        <time>2023-12-17T11:02:49.000Z</time>
      </trkpt>
      <trkpt lat="44.86317" lon="4.79957">
        <ele>443</ele>
        <time>2023-12-17T11:02:50.000Z</time>
      </trkpt>
      <trkpt lat="44.86312" lon="4.79977">
        <ele>442</ele>
        <time>2023-12-17T11:02:52.000Z</time>
      </trkpt>
      <trkpt lat="44.86307" lon="4.79997">
        <ele>441.60000610352</ele>
        <time>2023-12-17T11:02:54.000Z</time>
      </trkpt>
      <trkpt lat="44.86305" lon="4.80007">
        <ele>440.60000610352</ele>
        <time>2023-12-17T11:02:55.000Z</time>
      </trkpt>
      <trkpt lat="44.86302" lon="4.80017">
        <ele>440.39999389648</ele>
        <time>2023-12-17T11:02:56.000Z</time>
      </trkpt>
      <trkpt lat="44.86295" lon="4.80033">
        <ele>440.20001220703</ele>
        <time>2023-12-17T11:02:58.000Z</time>
      </trkpt>
      <trkpt lat="44.86282" lon="4.80054">
        <ele>440.60000610352</ele>
        <time>2023-12-17T11:03:01.000Z</time>
      </trkpt>
      <trkpt lat="44.86276" lon="4.8007">
        <ele>440.60000610352</ele>
        <time>2023-12-17T11:03:03.000Z</time>
      </trkpt>
      <trkpt lat="44.8627" lon="4.80089">
        <ele>440.79998779297</ele>
        <time>2023-12-17T11:03:05.000Z</time>
      </trkpt>
      <trkpt lat="44.86262" lon="4.80108">
        <ele>439.79998779297</ele>
        <time>2023-12-17T11:03:07.000Z</time>
      </trkpt>
      <trkpt lat="44.86258" lon="4.80116">
        <ele>439.20001220703</ele>
        <time>2023-12-17T11:03:08.000Z</time>
      </trkpt>
      <trkpt lat="44.86254" lon="4.80125">
        <ele>437.20001220703</ele>
        <time>2023-12-17T11:03:09.000Z</time>
      </trkpt>
      <trkpt lat="44.8625" lon="4.80133">
        <ele>435.60000610352</ele>
        <time>2023-12-17T11:03:10.000Z</time>
      </trkpt>
      <trkpt lat="44.86244" lon="4.80148">
        <ele>434.20001220703</ele>
        <time>2023-12-17T11:03:12.000Z</time>
      </trkpt>
      <trkpt lat="44.86232" lon="4.80156">
        <ele>433.20001220703</ele>
        <time>2023-12-17T11:03:15.000Z</time>
      </trkpt>
      <trkpt lat="44.86227" lon="4.8015">
        <ele>432.39999389648</ele>
        <time>2023-12-17T11:03:17.000Z</time>
      </trkpt>
      <trkpt lat="44.86226" lon="4.80141">
        <ele>432</ele>
        <time>2023-12-17T11:03:19.000Z</time>
      </trkpt>
      <trkpt lat="44.86227" lon="4.80135">
        <ele>431.79998779297</ele>
        <time>2023-12-17T11:03:20.000Z</time>
      </trkpt>
      <trkpt lat="44.86234" lon="4.80114">
        <ele>429.60000610352</ele>
        <time>2023-12-17T11:03:23.000Z</time>
      </trkpt>
      <trkpt lat="44.86235" lon="4.80108">
        <ele>428</ele>
        <time>2023-12-17T11:03:24.000Z</time>
      </trkpt>
      <trkpt lat="44.86235" lon="4.80104">
        <ele>426.60000610352</ele>
        <time>2023-12-17T11:03:25.000Z</time>
      </trkpt>
      <trkpt lat="44.86234" lon="4.80102">
        <ele>425.79998779297</ele>
        <time>2023-12-17T11:03:26.000Z</time>
      </trkpt>
      <trkpt lat="44.86232" lon="4.80101">
        <ele>425.20001220703</ele>
        <time>2023-12-17T11:03:27.000Z</time>
      </trkpt>
      <trkpt lat="44.86226" lon="4.80099">
        <ele>423.60000610352</ele>
        <time>2023-12-17T11:03:29.000Z</time>
      </trkpt>
      <trkpt lat="44.86223" lon="4.801">
        <ele>421</ele>
        <time>2023-12-17T11:03:30.000Z</time>
      </trkpt>
      <trkpt lat="44.8622" lon="4.80103">
        <ele>419.20001220703</ele>
        <time>2023-12-17T11:03:31.000Z</time>
      </trkpt>
      <trkpt lat="44.86217" lon="4.80105">
        <ele>418.20001220703</ele>
        <time>2023-12-17T11:03:32.000Z</time>
      </trkpt>
      <trkpt lat="44.86211" lon="4.80109">
        <ele>417.39999389648</ele>
        <time>2023-12-17T11:03:33.000Z</time>
      </trkpt>
      <trkpt lat="44.86205" lon="4.80112">
        <ele>416</ele>
        <time>2023-12-17T11:03:34.000Z</time>
      </trkpt>
      <trkpt lat="44.86199" lon="4.80113">
        <ele>415</ele>
        <time>2023-12-17T11:03:35.000Z</time>
      </trkpt>
      <trkpt lat="44.86194" lon="4.80115">
        <ele>413.60000610352</ele>
        <time>2023-12-17T11:03:36.000Z</time>
      </trkpt>
      <trkpt lat="44.86182" lon="4.80124">
        <ele>411</ele>
        <time>2023-12-17T11:03:38.000Z</time>
      </trkpt>
      <trkpt lat="44.86176" lon="4.80128">
        <ele>409.39999389648</ele>
        <time>2023-12-17T11:03:39.000Z</time>
      </trkpt>
      <trkpt lat="44.86168" lon="4.80135">
        <ele>408.60000610352</ele>
        <time>2023-12-17T11:03:40.000Z</time>
      </trkpt>
      <trkpt lat="44.86161" lon="4.80141">
        <ele>407.60000610352</ele>
        <time>2023-12-17T11:03:41.000Z</time>
      </trkpt>
      <trkpt lat="44.86147" lon="4.80155">
        <ele>406.60000610352</ele>
        <time>2023-12-17T11:03:43.000Z</time>
      </trkpt>
      <trkpt lat="44.86141" lon="4.80161">
        <ele>406</ele>
        <time>2023-12-17T11:03:44.000Z</time>
      </trkpt>
      <trkpt lat="44.86129" lon="4.80174">
        <ele>405</ele>
        <time>2023-12-17T11:03:46.000Z</time>
      </trkpt>
      <trkpt lat="44.86119" lon="4.80187">
        <ele>404.20001220703</ele>
        <time>2023-12-17T11:03:48.000Z</time>
      </trkpt>
      <trkpt lat="44.86115" lon="4.80194">
        <ele>404.20001220703</ele>
        <time>2023-12-17T11:03:49.000Z</time>
      </trkpt>
      <trkpt lat="44.86111" lon="4.80201">
        <ele>401.20001220703</ele>
        <time>2023-12-17T11:03:50.000Z</time>
      </trkpt>
      <trkpt lat="44.86107" lon="4.80209">
        <ele>399</ele>
        <time>2023-12-17T11:03:51.000Z</time>
      </trkpt>
      <trkpt lat="44.86102" lon="4.80217">
        <ele>397.39999389648</ele>
        <time>2023-12-17T11:03:52.000Z</time>
      </trkpt>
      <trkpt lat="44.86096" lon="4.80226">
        <ele>396.60000610352</ele>
        <time>2023-12-17T11:03:53.000Z</time>
      </trkpt>
      <trkpt lat="44.86091" lon="4.80235">
        <ele>396</ele>
        <time>2023-12-17T11:03:54.000Z</time>
      </trkpt>
      <trkpt lat="44.86084" lon="4.80254">
        <ele>394.39999389648</ele>
        <time>2023-12-17T11:03:56.000Z</time>
      </trkpt>
      <trkpt lat="44.86079" lon="4.80263">
        <ele>393.79998779297</ele>
        <time>2023-12-17T11:03:57.000Z</time>
      </trkpt>
      <trkpt lat="44.86076" lon="4.8027">
        <ele>393.60000610352</ele>
        <time>2023-12-17T11:03:58.000Z</time>
      </trkpt>
      <trkpt lat="44.86074" lon="4.80277">
        <ele>392.60000610352</ele>
        <time>2023-12-17T11:03:59.000Z</time>
      </trkpt>
      <trkpt lat="44.86074" lon="4.80282">
        <ele>392.20001220703</ele>
        <time>2023-12-17T11:04:00.000Z</time>
      </trkpt>
      <trkpt lat="44.86075" lon="4.80286">
        <ele>392.20001220703</ele>
        <time>2023-12-17T11:04:01.000Z</time>
      </trkpt>
      <trkpt lat="44.86079" lon="4.80295">
        <ele>392</ele>
        <time>2023-12-17T11:04:03.000Z</time>
      </trkpt>
      <trkpt lat="44.86083" lon="4.80306">
        <ele>392</ele>
        <time>2023-12-17T11:04:05.000Z</time>
      </trkpt>
      <trkpt lat="44.86085" lon="4.80308">
        <ele>391.20001220703</ele>
        <time>2023-12-17T11:04:07.000Z</time>
      </trkpt>
      <trkpt lat="44.86087" lon="4.80308">
        <ele>389.79998779297</ele>
        <time>2023-12-17T11:04:09.000Z</time>
      </trkpt>
      <trkpt lat="44.86087" lon="4.80309">
        <ele>389.39999389648</ele>
        <time>2023-12-17T11:04:10.000Z</time>
      </trkpt>
      <trkpt lat="44.86086" lon="4.80313">
        <ele>389.20001220703</ele>
        <time>2023-12-17T11:04:12.000Z</time>
      </trkpt>
      <trkpt lat="44.86085" lon="4.80316">
        <ele>388.60000610352</ele>
        <time>2023-12-17T11:04:13.000Z</time>
      </trkpt>
      <trkpt lat="44.86084" lon="4.80318">
        <ele>388</ele>
        <time>2023-12-17T11:04:14.000Z</time>
      </trkpt>
      <trkpt lat="44.86081" lon="4.8032">
        <ele>386.60000610352</ele>
        <time>2023-12-17T11:04:15.000Z</time>
      </trkpt>
      <trkpt lat="44.86078" lon="4.8032">
        <ele>385</ele>
        <time>2023-12-17T11:04:16.000Z</time>
      </trkpt>
      <trkpt lat="44.86075" lon="4.8032">
        <ele>383.60000610352</ele>
        <time>2023-12-17T11:04:17.000Z</time>
      </trkpt>
      <trkpt lat="44.86071" lon="4.80322">
        <ele>382</ele>
        <time>2023-12-17T11:04:19.000Z</time>
      </trkpt>
      <trkpt lat="44.86064" lon="4.80323">
        <ele>380.60000610352</ele>
        <time>2023-12-17T11:04:21.000Z</time>
      </trkpt>
      <trkpt lat="44.8606" lon="4.80322">
        <ele>379</ele>
        <time>2023-12-17T11:04:22.000Z</time>
      </trkpt>
      <trkpt lat="44.86053" lon="4.80318">
        <ele>377.60000610352</ele>
        <time>2023-12-17T11:04:24.000Z</time>
      </trkpt>
      <trkpt lat="44.8605" lon="4.80315">
        <ele>377.39999389648</ele>
        <time>2023-12-17T11:04:25.000Z</time>
      </trkpt>
      <trkpt lat="44.86045" lon="4.80312">
        <ele>376.79998779297</ele>
        <time>2023-12-17T11:04:27.000Z</time>
      </trkpt>
      <trkpt lat="44.86043" lon="4.80314">
        <ele>377</ele>
        <time>2023-12-17T11:04:28.000Z</time>
      </trkpt>
      <trkpt lat="44.86035" lon="4.80323">
        <ele>377</ele>
        <time>2023-12-17T11:04:31.000Z</time>
      </trkpt>
      <trkpt lat="44.86031" lon="4.80324">
        <ele>376.39999389648</ele>
        <time>2023-12-17T11:04:32.000Z</time>
      </trkpt>
      <trkpt lat="44.86026" lon="4.80322">
        <ele>376.20001220703</ele>
        <time>2023-12-17T11:04:34.000Z</time>
      </trkpt>
      <trkpt lat="44.86027" lon="4.80323">
        <ele>376.20001220703</ele>
        <time>2023-12-17T11:04:39.000Z</time>
      </trkpt>
      <trkpt lat="44.86026" lon="4.80323">
        <ele>375.79998779297</ele>
        <time>2023-12-17T11:04:51.000Z</time>
      </trkpt>
      <trkpt lat="44.86027" lon="4.80323">
        <ele>375.60000610352</ele>
        <time>2023-12-17T11:05:01.000Z</time>
      </trkpt>
      <trkpt lat="44.86027" lon="4.80323">
        <ele>375.39999389648</ele>
        <time>2023-12-17T11:05:07.000Z</time>
      </trkpt>
      <trkpt lat="44.86027" lon="4.80323">
        <ele>374.79998779297</ele>
        <time>2023-12-17T11:05:11.000Z</time>
      </trkpt>
      <trkpt lat="44.86027" lon="4.80323">
        <ele>374.60000610352</ele>
        <time>2023-12-17T11:05:15.000Z</time>
      </trkpt>
      <trkpt lat="44.86028" lon="4.80323">
        <ele>374.39999389648</ele>
        <time>2023-12-17T11:05:21.000Z</time>
      </trkpt>
      <trkpt lat="44.86028" lon="4.80323">
        <ele>374.20001220703</ele>
        <time>2023-12-17T11:05:23.000Z</time>
      </trkpt>
      <trkpt lat="44.86027" lon="4.80322">
        <ele>373.79998779297</ele>
        <time>2023-12-17T11:05:28.000Z</time>
      </trkpt>
      <trkpt lat="44.86024" lon="4.80322">
        <ele>373.60000610352</ele>
        <time>2023-12-17T11:05:30.000Z</time>
      </trkpt>
      <trkpt lat="44.86016" lon="4.80322">
        <ele>373.39999389648</ele>
        <time>2023-12-17T11:05:33.000Z</time>
      </trkpt>
      <trkpt lat="44.86012" lon="4.80321">
        <ele>373.20001220703</ele>
        <time>2023-12-17T11:05:34.000Z</time>
      </trkpt>
      <trkpt lat="44.86008" lon="4.80322">
        <ele>371.79998779297</ele>
        <time>2023-12-17T11:05:35.000Z</time>
      </trkpt>
      <trkpt lat="44.86004" lon="4.80324">
        <ele>371</ele>
        <time>2023-12-17T11:05:36.000Z</time>
      </trkpt>
      <trkpt lat="44.86" lon="4.80327">
        <ele>369.60000610352</ele>
        <time>2023-12-17T11:05:37.000Z</time>
      </trkpt>
      <trkpt lat="44.85995" lon="4.8033">
        <ele>366.79998779297</ele>
        <time>2023-12-17T11:05:38.000Z</time>
      </trkpt>
      <trkpt lat="44.85989" lon="4.80332">
        <ele>365.39999389648</ele>
        <time>2023-12-17T11:05:39.000Z</time>
      </trkpt>
      <trkpt lat="44.85982" lon="4.80333">
        <ele>362</ele>
        <time>2023-12-17T11:05:40.000Z</time>
      </trkpt>
      <trkpt lat="44.85975" lon="4.80334">
        <ele>360.39999389648</ele>
        <time>2023-12-17T11:05:41.000Z</time>
      </trkpt>
      <trkpt lat="44.85963" lon="4.8034">
        <ele>359.20001220703</ele>
        <time>2023-12-17T11:05:43.000Z</time>
      </trkpt>
      <trkpt lat="44.85956" lon="4.80342">
        <ele>358.79998779297</ele>
        <time>2023-12-17T11:05:44.000Z</time>
      </trkpt>
      <trkpt lat="44.85943" lon="4.80347">
        <ele>357.60000610352</ele>
        <time>2023-12-17T11:05:46.000Z</time>
      </trkpt>
      <trkpt lat="44.85938" lon="4.80346">
        <ele>355.79998779297</ele>
        <time>2023-12-17T11:05:47.000Z</time>
      </trkpt>
      <trkpt lat="44.85931" lon="4.80344">
        <ele>353.60000610352</ele>
        <time>2023-12-17T11:05:48.000Z</time>
      </trkpt>
      <trkpt lat="44.85925" lon="4.80342">
        <ele>351.79998779297</ele>
        <time>2023-12-17T11:05:49.000Z</time>
      </trkpt>
      <trkpt lat="44.85913" lon="4.80337">
        <ele>349.39999389648</ele>
        <time>2023-12-17T11:05:51.000Z</time>
      </trkpt>
      <trkpt lat="44.85908" lon="4.80334">
        <ele>348.20001220703</ele>
        <time>2023-12-17T11:05:52.000Z</time>
      </trkpt>
      <trkpt lat="44.85898" lon="4.80331">
        <ele>345.20001220703</ele>
        <time>2023-12-17T11:05:54.000Z</time>
      </trkpt>
      <trkpt lat="44.85894" lon="4.80333">
        <ele>343.60000610352</ele>
        <time>2023-12-17T11:05:55.000Z</time>
      </trkpt>
      <trkpt lat="44.85889" lon="4.80336">
        <ele>341.60000610352</ele>
        <time>2023-12-17T11:05:56.000Z</time>
      </trkpt>
      <trkpt lat="44.85882" lon="4.80339">
        <ele>339.20001220703</ele>
        <time>2023-12-17T11:05:57.000Z</time>
      </trkpt>
      <trkpt lat="44.85876" lon="4.80341">
        <ele>338</ele>
        <time>2023-12-17T11:05:58.000Z</time>
      </trkpt>
      <trkpt lat="44.85871" lon="4.80345">
        <ele>337.39999389648</ele>
        <time>2023-12-17T11:05:59.000Z</time>
      </trkpt>
      <trkpt lat="44.85866" lon="4.8035">
        <ele>337</ele>
        <time>2023-12-17T11:06:00.000Z</time>
      </trkpt>
      <trkpt lat="44.8586" lon="4.80355">
        <ele>336.60000610352</ele>
        <time>2023-12-17T11:06:01.000Z</time>
      </trkpt>
      <trkpt lat="44.85854" lon="4.80361">
        <ele>333.79998779297</ele>
        <time>2023-12-17T11:06:02.000Z</time>
      </trkpt>
      <trkpt lat="44.8585" lon="4.80366">
        <ele>331.20001220703</ele>
        <time>2023-12-17T11:06:03.000Z</time>
      </trkpt>
      <trkpt lat="44.85844" lon="4.80371">
        <ele>329.79998779297</ele>
        <time>2023-12-17T11:06:04.000Z</time>
      </trkpt>
      <trkpt lat="44.85838" lon="4.80375">
        <ele>327.79998779297</ele>
        <time>2023-12-17T11:06:05.000Z</time>
      </trkpt>
      <trkpt lat="44.85832" lon="4.80379">
        <ele>326.60000610352</ele>
        <time>2023-12-17T11:06:06.000Z</time>
      </trkpt>
      <trkpt lat="44.85826" lon="4.80382">
        <ele>324.79998779297</ele>
        <time>2023-12-17T11:06:07.000Z</time>
      </trkpt>
      <trkpt lat="44.8582" lon="4.80382">
        <ele>322.39999389648</ele>
        <time>2023-12-17T11:06:08.000Z</time>
      </trkpt>
      <trkpt lat="44.85816" lon="4.80382">
        <ele>320.60000610352</ele>
        <time>2023-12-17T11:06:09.000Z</time>
      </trkpt>
      <trkpt lat="44.85813" lon="4.8038">
        <ele>318.20001220703</ele>
        <time>2023-12-17T11:06:10.000Z</time>
      </trkpt>
      <trkpt lat="44.85812" lon="4.80378">
        <ele>316.20001220703</ele>
        <time>2023-12-17T11:06:11.000Z</time>
      </trkpt>
      <trkpt lat="44.85812" lon="4.80376">
        <ele>315</ele>
        <time>2023-12-17T11:06:12.000Z</time>
      </trkpt>
      <trkpt lat="44.85811" lon="4.80376">
        <ele>313.79998779297</ele>
        <time>2023-12-17T11:06:14.000Z</time>
      </trkpt>
      <trkpt lat="44.8581" lon="4.80375">
        <ele>313.79998779297</ele>
        <time>2023-12-17T11:06:15.000Z</time>
      </trkpt>
      <trkpt lat="44.85809" lon="4.80373">
        <ele>313.60000610352</ele>
        <time>2023-12-17T11:06:16.000Z</time>
      </trkpt>
      <trkpt lat="44.85806" lon="4.80372">
        <ele>313.20001220703</ele>
        <time>2023-12-17T11:06:17.000Z</time>
      </trkpt>
      <trkpt lat="44.85798" lon="4.80376">
        <ele>311.60000610352</ele>
        <time>2023-12-17T11:06:19.000Z</time>
      </trkpt>
      <trkpt lat="44.85795" lon="4.80379">
        <ele>309.20001220703</ele>
        <time>2023-12-17T11:06:20.000Z</time>
      </trkpt>
      <trkpt lat="44.85791" lon="4.80382">
        <ele>307.79998779297</ele>
        <time>2023-12-17T11:06:21.000Z</time>
      </trkpt>
      <trkpt lat="44.85787" lon="4.80384">
        <ele>306.39999389648</ele>
        <time>2023-12-17T11:06:22.000Z</time>
      </trkpt>
      <trkpt lat="44.85782" lon="4.80384">
        <ele>305.60000610352</ele>
        <time>2023-12-17T11:06:23.000Z</time>
      </trkpt>
      <trkpt lat="44.85777" lon="4.80385">
        <ele>304.79998779297</ele>
        <time>2023-12-17T11:06:24.000Z</time>
      </trkpt>
      <trkpt lat="44.85771" lon="4.80385">
        <ele>303.60000610352</ele>
        <time>2023-12-17T11:06:25.000Z</time>
      </trkpt>
      <trkpt lat="44.85766" lon="4.80385">
        <ele>301</ele>
        <time>2023-12-17T11:06:26.000Z</time>
      </trkpt>
      <trkpt lat="44.8576" lon="4.80385">
        <ele>298</ele>
        <time>2023-12-17T11:06:27.000Z</time>
      </trkpt>
      <trkpt lat="44.85756" lon="4.80384">
        <ele>296.20001220703</ele>
        <time>2023-12-17T11:06:28.000Z</time>
      </trkpt>
      <trkpt lat="44.85752" lon="4.80383">
        <ele>294</ele>
        <time>2023-12-17T11:06:29.000Z</time>
      </trkpt>
      <trkpt lat="44.85747" lon="4.80381">
        <ele>292.39999389648</ele>
        <time>2023-12-17T11:06:30.000Z</time>
      </trkpt>
      <trkpt lat="44.85742" lon="4.80382">
        <ele>290.20001220703</ele>
        <time>2023-12-17T11:06:31.000Z</time>
      </trkpt>
      <trkpt lat="44.85737" lon="4.80385">
        <ele>288.20001220703</ele>
        <time>2023-12-17T11:06:32.000Z</time>
      </trkpt>
      <trkpt lat="44.85732" lon="4.80388">
        <ele>287</ele>
        <time>2023-12-17T11:06:33.000Z</time>
      </trkpt>
      <trkpt lat="44.85727" lon="4.80392">
        <ele>285.39999389648</ele>
        <time>2023-12-17T11:06:34.000Z</time>
      </trkpt>
      <trkpt lat="44.85723" lon="4.80392">
        <ele>284.20001220703</ele>
        <time>2023-12-17T11:06:35.000Z</time>
      </trkpt>
      <trkpt lat="44.85719" lon="4.80391">
        <ele>282.39999389648</ele>
        <time>2023-12-17T11:06:36.000Z</time>
      </trkpt>
      <trkpt lat="44.85717" lon="4.80388">
        <ele>281.20001220703</ele>
        <time>2023-12-17T11:06:37.000Z</time>
      </trkpt>
      <trkpt lat="44.85711" lon="4.80385">
        <ele>279.79998779297</ele>
        <time>2023-12-17T11:06:39.000Z</time>
      </trkpt>
      <trkpt lat="44.85709" lon="4.80384">
        <ele>279.39999389648</ele>
        <time>2023-12-17T11:06:40.000Z</time>
      </trkpt>
      <trkpt lat="44.85703" lon="4.80383">
        <ele>277.39999389648</ele>
        <time>2023-12-17T11:06:42.000Z</time>
      </trkpt>
      <trkpt lat="44.85701" lon="4.80382">
        <ele>276.60000610352</ele>
        <time>2023-12-17T11:06:43.000Z</time>
      </trkpt>
      <trkpt lat="44.85701" lon="4.8038">
        <ele>276</ele>
        <time>2023-12-17T11:06:44.000Z</time>
      </trkpt>
      <trkpt lat="44.857" lon="4.80379">
        <ele>275</ele>
        <time>2023-12-17T11:06:47.000Z</time>
      </trkpt>
      <trkpt lat="44.85699" lon="4.80379">
        <ele>274.79998779297</ele>
        <time>2023-12-17T11:06:49.000Z</time>
      </trkpt>
      <trkpt lat="44.85699" lon="4.8038">
        <ele>274.39999389648</ele>
        <time>2023-12-17T11:06:56.000Z</time>
      </trkpt>
      <trkpt lat="44.857" lon="4.8038">
        <ele>273.79998779297</ele>
        <time>2023-12-17T11:07:00.000Z</time>
      </trkpt>
      <trkpt lat="44.85699" lon="4.80379">
        <ele>273.60000610352</ele>
        <time>2023-12-17T11:07:06.000Z</time>
      </trkpt>
      <trkpt lat="44.857" lon="4.80378">
        <ele>273.79998779297</ele>
        <time>2023-12-17T11:07:10.000Z</time>
      </trkpt>
      <trkpt lat="44.85702" lon="4.80375">
        <ele>274</ele>
        <time>2023-12-17T11:07:12.000Z</time>
      </trkpt>
      <trkpt lat="44.85703" lon="4.80371">
        <ele>273.79998779297</ele>
        <time>2023-12-17T11:07:14.000Z</time>
      </trkpt>
      <trkpt lat="44.85703" lon="4.80369">
        <ele>273.20001220703</ele>
        <time>2023-12-17T11:07:16.000Z</time>
      </trkpt>
      <trkpt lat="44.85701" lon="4.80369">
        <ele>272.39999389648</ele>
        <time>2023-12-17T11:07:18.000Z</time>
      </trkpt>
      <trkpt lat="44.85698" lon="4.80372">
        <ele>272.20001220703</ele>
        <time>2023-12-17T11:07:21.000Z</time>
      </trkpt>
      <trkpt lat="44.85697" lon="4.80373">
        <ele>272.20001220703</ele>
        <time>2023-12-17T11:07:22.000Z</time>
      </trkpt>
      <trkpt lat="44.85696" lon="4.80373">
        <ele>272</ele>
        <time>2023-12-17T11:07:23.000Z</time>
      </trkpt>
      <trkpt lat="44.85691" lon="4.80377">
        <ele>271.39999389648</ele>
        <time>2023-12-17T11:07:27.000Z</time>
      </trkpt>
      <trkpt lat="44.8569" lon="4.80377">
        <ele>271.39999389648</ele>
        <time>2023-12-17T11:07:28.000Z</time>
      </trkpt>
      <trkpt lat="44.85682" lon="4.80378">
        <ele>271.60000610352</ele>
        <time>2023-12-17T11:07:33.000Z</time>
      </trkpt>
      <trkpt lat="44.85667" lon="4.80371">
        <ele>270.60000610352</ele>
        <time>2023-12-17T11:07:39.000Z</time>
      </trkpt>
      <trkpt lat="44.85662" lon="4.80367">
        <ele>270.20001220703</ele>
        <time>2023-12-17T11:07:41.000Z</time>
      </trkpt>
      <trkpt lat="44.8565" lon="4.80356">
        <ele>269.60000610352</ele>
        <time>2023-12-17T11:07:45.000Z</time>
      </trkpt>
      <trkpt lat="44.8564" lon="4.80345">
        <ele>269.20001220703</ele>
        <time>2023-12-17T11:07:48.000Z</time>
      </trkpt>
      <trkpt lat="44.85629" lon="4.80337">
        <ele>269.20001220703</ele>
        <time>2023-12-17T11:07:51.000Z</time>
      </trkpt>
      <trkpt lat="44.8562" lon="4.80336">
        <ele>268.79998779297</ele>
        <time>2023-12-17T11:07:53.000Z</time>
      </trkpt>
      <trkpt lat="44.8561" lon="4.80337">
        <ele>268.20001220703</ele>
        <time>2023-12-17T11:07:55.000Z</time>
      </trkpt>
      <trkpt lat="44.85605" lon="4.80339">
        <ele>268</ele>
        <time>2023-12-17T11:07:56.000Z</time>
      </trkpt>
      <trkpt lat="44.856" lon="4.80341">
        <ele>267.79998779297</ele>
        <time>2023-12-17T11:07:57.000Z</time>
      </trkpt>
      <trkpt lat="44.85592" lon="4.8035">
        <ele>267.60000610352</ele>
        <time>2023-12-17T11:07:59.000Z</time>
      </trkpt>
      <trkpt lat="44.85588" lon="4.80355">
        <ele>267.39999389648</ele>
        <time>2023-12-17T11:08:00.000Z</time>
      </trkpt>
      <trkpt lat="44.85582" lon="4.8037">
        <ele>267.20001220703</ele>
        <time>2023-12-17T11:08:02.000Z</time>
      </trkpt>
      <trkpt lat="44.85583" lon="4.80385">
        <ele>266</ele>
        <time>2023-12-17T11:08:04.000Z</time>
      </trkpt>
      <trkpt lat="44.85585" lon="4.80393">
        <ele>265.39999389648</ele>
        <time>2023-12-17T11:08:05.000Z</time>
      </trkpt>
      <trkpt lat="44.85587" lon="4.80401">
        <ele>265</ele>
        <time>2023-12-17T11:08:06.000Z</time>
      </trkpt>
      <trkpt lat="44.8559" lon="4.80409">
        <ele>264.79998779297</ele>
        <time>2023-12-17T11:08:07.000Z</time>
      </trkpt>
      <trkpt lat="44.85597" lon="4.80422">
        <ele>263.60000610352</ele>
        <time>2023-12-17T11:08:09.000Z</time>
      </trkpt>
      <trkpt lat="44.85601" lon="4.80429">
        <ele>263.20001220703</ele>
        <time>2023-12-17T11:08:10.000Z</time>
      </trkpt>
      <trkpt lat="44.85613" lon="4.80448">
        <ele>262.79998779297</ele>
        <time>2023-12-17T11:08:13.000Z</time>
      </trkpt>
      <trkpt lat="44.85621" lon="4.80456">
        <ele>262.60000610352</ele>
        <time>2023-12-17T11:08:15.000Z</time>
      </trkpt>
      <trkpt lat="44.85624" lon="4.80462">
        <ele>262.60000610352</ele>
        <time>2023-12-17T11:08:17.000Z</time>
      </trkpt>
      <trkpt lat="44.85623" lon="4.80464">
        <ele>262.60000610352</ele>
        <time>2023-12-17T11:08:18.000Z</time>
      </trkpt>
      <trkpt lat="44.85622" lon="4.80465">
        <ele>262.39999389648</ele>
        <time>2023-12-17T11:08:19.000Z</time>
      </trkpt>
      <trkpt lat="44.85619" lon="4.80465">
        <ele>262.20001220703</ele>
        <time>2023-12-17T11:08:20.000Z</time>
      </trkpt>
      <trkpt lat="44.85608" lon="4.80453">
        <ele>261.79998779297</ele>
        <time>2023-12-17T11:08:24.000Z</time>
      </trkpt>
      <trkpt lat="44.85603" lon="4.80447">
        <ele>260.79998779297</ele>
        <time>2023-12-17T11:08:25.000Z</time>
      </trkpt>
      <trkpt lat="44.85598" lon="4.80441">
        <ele>259.60000610352</ele>
        <time>2023-12-17T11:08:26.000Z</time>
      </trkpt>
      <trkpt lat="44.85585" lon="4.80427">
        <ele>257.60000610352</ele>
        <time>2023-12-17T11:08:28.000Z</time>
      </trkpt>
      <trkpt lat="44.85579" lon="4.80419">
        <ele>256.20001220703</ele>
        <time>2023-12-17T11:08:29.000Z</time>
      </trkpt>
      <trkpt lat="44.85573" lon="4.8041">
        <ele>253.39999389648</ele>
        <time>2023-12-17T11:08:30.000Z</time>
      </trkpt>
      <trkpt lat="44.85567" lon="4.80401">
        <ele>252</ele>
        <time>2023-12-17T11:08:31.000Z</time>
      </trkpt>
      <trkpt lat="44.85561" lon="4.80391">
        <ele>251.19999694824</ele>
        <time>2023-12-17T11:08:32.000Z</time>
      </trkpt>
      <trkpt lat="44.85556" lon="4.80381">
        <ele>251</ele>
        <time>2023-12-17T11:08:33.000Z</time>
      </trkpt>
      <trkpt lat="44.85553" lon="4.8037">
        <ele>249.39999389648</ele>
        <time>2023-12-17T11:08:34.000Z</time>
      </trkpt>
      <trkpt lat="44.85551" lon="4.80359">
        <ele>248.60000610352</ele>
        <time>2023-12-17T11:08:35.000Z</time>
      </trkpt>
      <trkpt lat="44.85551" lon="4.80347">
        <ele>248.19999694824</ele>
        <time>2023-12-17T11:08:36.000Z</time>
      </trkpt>
      <trkpt lat="44.85554" lon="4.80337">
        <ele>248</ele>
        <time>2023-12-17T11:08:37.000Z</time>
      </trkpt>
      <trkpt lat="44.85557" lon="4.80329">
        <ele>247.39999389648</ele>
        <time>2023-12-17T11:08:38.000Z</time>
      </trkpt>
      <trkpt lat="44.85561" lon="4.80323">
        <ele>247.19999694824</ele>
        <time>2023-12-17T11:08:39.000Z</time>
      </trkpt>
      <trkpt lat="44.85571" lon="4.80312">
        <ele>246.60000610352</ele>
        <time>2023-12-17T11:08:41.000Z</time>
      </trkpt>
      <trkpt lat="44.85596" lon="4.80289">
        <ele>246.39999389648</ele>
        <time>2023-12-17T11:08:46.000Z</time>
      </trkpt>
      <trkpt lat="44.85606" lon="4.80275">
        <ele>246</ele>
        <time>2023-12-17T11:08:48.000Z</time>
      </trkpt>
      <trkpt lat="44.8562" lon="4.80255">
        <ele>245.39999389648</ele>
        <time>2023-12-17T11:08:51.000Z</time>
      </trkpt>
      <trkpt lat="44.85626" lon="4.80249">
        <ele>245.19999694824</ele>
        <time>2023-12-17T11:08:52.000Z</time>
      </trkpt>
      <trkpt lat="44.85632" lon="4.80242">
        <ele>244.19999694824</ele>
        <time>2023-12-17T11:08:53.000Z</time>
      </trkpt>
      <trkpt lat="44.85643" lon="4.80233">
        <ele>242.80000305176</ele>
        <time>2023-12-17T11:08:55.000Z</time>
      </trkpt>
      <trkpt lat="44.85655" lon="4.80222">
        <ele>241.80000305176</ele>
        <time>2023-12-17T11:08:58.000Z</time>
      </trkpt>
      <trkpt lat="44.85659" lon="4.80218">
        <ele>241.60000610352</ele>
        <time>2023-12-17T11:08:59.000Z</time>
      </trkpt>
      <trkpt lat="44.85662" lon="4.80213">
        <ele>241.39999389648</ele>
        <time>2023-12-17T11:09:00.000Z</time>
      </trkpt>
      <trkpt lat="44.85665" lon="4.80206">
        <ele>240.60000610352</ele>
        <time>2023-12-17T11:09:01.000Z</time>
      </trkpt>
      <trkpt lat="44.85668" lon="4.80199">
        <ele>239.19999694824</ele>
        <time>2023-12-17T11:09:02.000Z</time>
      </trkpt>
      <trkpt lat="44.85673" lon="4.80182">
        <ele>238</ele>
        <time>2023-12-17T11:09:04.000Z</time>
      </trkpt>
      <trkpt lat="44.85677" lon="4.80172">
        <ele>236.19999694824</ele>
        <time>2023-12-17T11:09:05.000Z</time>
      </trkpt>
      <trkpt lat="44.85681" lon="4.80162">
        <ele>234.60000610352</ele>
        <time>2023-12-17T11:09:06.000Z</time>
      </trkpt>
      <trkpt lat="44.85692" lon="4.8014">
        <ele>232</ele>
        <time>2023-12-17T11:09:08.000Z</time>
      </trkpt>
      <trkpt lat="44.857" lon="4.80127">
        <ele>230.19999694824</ele>
        <time>2023-12-17T11:09:10.000Z</time>
      </trkpt>
      <trkpt lat="44.85703" lon="4.80122">
        <ele>229.19999694824</ele>
        <time>2023-12-17T11:09:11.000Z</time>
      </trkpt>
      <trkpt lat="44.85702" lon="4.80119">
        <ele>228.60000610352</ele>
        <time>2023-12-17T11:09:12.000Z</time>
      </trkpt>
      <trkpt lat="44.857" lon="4.80119">
        <ele>228.39999389648</ele>
        <time>2023-12-17T11:09:13.000Z</time>
      </trkpt>
      <trkpt lat="44.85698" lon="4.80118">
        <ele>228.19999694824</ele>
        <time>2023-12-17T11:09:14.000Z</time>
      </trkpt>
      <trkpt lat="44.85689" lon="4.80123">
        <ele>226.60000610352</ele>
        <time>2023-12-17T11:09:17.000Z</time>
      </trkpt>
      <trkpt lat="44.8568" lon="4.80131">
        <ele>223.80000305176</ele>
        <time>2023-12-17T11:09:19.000Z</time>
      </trkpt>
      <trkpt lat="44.85677" lon="4.80133">
        <ele>222.60000610352</ele>
        <time>2023-12-17T11:09:20.000Z</time>
      </trkpt>
      <trkpt lat="44.85676" lon="4.80132">
        <ele>222</ele>
        <time>2023-12-17T11:09:21.000Z</time>
      </trkpt>
      <trkpt lat="44.85676" lon="4.80131">
        <ele>221.39999389648</ele>
        <time>2023-12-17T11:09:22.000Z</time>
      </trkpt>
      <trkpt lat="44.85675" lon="4.80126">
        <ele>221.19999694824</ele>
        <time>2023-12-17T11:09:23.000Z</time>
      </trkpt>
      <trkpt lat="44.85679" lon="4.80116">
        <ele>219</ele>
        <time>2023-12-17T11:09:25.000Z</time>
      </trkpt>
      <trkpt lat="44.85681" lon="4.80109">
        <ele>217</ele>
        <time>2023-12-17T11:09:26.000Z</time>
      </trkpt>
      <trkpt lat="44.85683" lon="4.80102">
        <ele>215.80000305176</ele>
        <time>2023-12-17T11:09:27.000Z</time>
      </trkpt>
      <trkpt lat="44.85685" lon="4.80097">
        <ele>214.39999389648</ele>
        <time>2023-12-17T11:09:28.000Z</time>
      </trkpt>
      <trkpt lat="44.85685" lon="4.80093">
        <ele>213.19999694824</ele>
        <time>2023-12-17T11:09:29.000Z</time>
      </trkpt>
      <trkpt lat="44.85685" lon="4.80092">
        <ele>212.39999389648</ele>
        <time>2023-12-17T11:09:30.000Z</time>
      </trkpt>
      <trkpt lat="44.85682" lon="4.80092">
        <ele>211.80000305176</ele>
        <time>2023-12-17T11:09:31.000Z</time>
      </trkpt>
      <trkpt lat="44.85673" lon="4.80096">
        <ele>211.19999694824</ele>
        <time>2023-12-17T11:09:33.000Z</time>
      </trkpt>
      <trkpt lat="44.85667" lon="4.80099">
        <ele>210.60000610352</ele>
        <time>2023-12-17T11:09:34.000Z</time>
      </trkpt>
      <trkpt lat="44.85651" lon="4.80107">
        <ele>208.19999694824</ele>
        <time>2023-12-17T11:09:36.000Z</time>
      </trkpt>
      <trkpt lat="44.85644" lon="4.80114">
        <ele>205.39999389648</ele>
        <time>2023-12-17T11:09:37.000Z</time>
      </trkpt>
      <trkpt lat="44.85637" lon="4.8012">
        <ele>203.39999389648</ele>
        <time>2023-12-17T11:09:38.000Z</time>
      </trkpt>
      <trkpt lat="44.8563" lon="4.80125">
        <ele>201.80000305176</ele>
        <time>2023-12-17T11:09:39.000Z</time>
      </trkpt>
      <trkpt lat="44.85617" lon="4.80131">
        <ele>200.60000610352</ele>
        <time>2023-12-17T11:09:41.000Z</time>
      </trkpt>
      <trkpt lat="44.85606" lon="4.80133">
        <ele>201.80000305176</ele>
        <time>2023-12-17T11:09:43.000Z</time>
      </trkpt>
      <trkpt lat="44.85602" lon="4.80133">
        <ele>202.60000610352</ele>
        <time>2023-12-17T11:09:44.000Z</time>
      </trkpt>
      <trkpt lat="44.85598" lon="4.80134">
        <ele>203</ele>
        <time>2023-12-17T11:09:45.000Z</time>
      </trkpt>
      <trkpt lat="44.85585" lon="4.80139">
        <ele>204.60000610352</ele>
        <time>2023-12-17T11:09:48.000Z</time>
      </trkpt>
      <trkpt lat="44.85579" lon="4.80143">
        <ele>205.60000610352</ele>
        <time>2023-12-17T11:09:52.000Z</time>
      </trkpt>
      <trkpt lat="44.85573" lon="4.80145">
        <ele>206.19999694824</ele>
        <time>2023-12-17T11:09:55.000Z</time>
      </trkpt>
      <trkpt lat="44.85567" lon="4.80147">
        <ele>206.80000305176</ele>
        <time>2023-12-17T11:09:58.000Z</time>
      </trkpt>
      <trkpt lat="44.85561" lon="4.8015">
        <ele>207.19999694824</ele>
        <time>2023-12-17T11:10:01.000Z</time>
      </trkpt>
      <trkpt lat="44.85559" lon="4.80157">
        <ele>207.60000610352</ele>
        <time>2023-12-17T11:10:06.000Z</time>
      </trkpt>
      <trkpt lat="44.85559" lon="4.80157">
        <ele>207.80000305176</ele>
        <time>2023-12-17T11:10:07.000Z</time>
      </trkpt>
      <trkpt lat="44.85559" lon="4.80156">
        <ele>207.60000610352</ele>
        <time>2023-12-17T11:10:13.000Z</time>
      </trkpt>
      <trkpt lat="44.85558" lon="4.80156">
        <ele>207.60000610352</ele>
        <time>2023-12-17T11:10:22.000Z</time>
      </trkpt>
      <trkpt lat="44.85558" lon="4.80157">
        <ele>207.39999389648</ele>
        <time>2023-12-17T11:10:28.000Z</time>
      </trkpt>
      <trkpt lat="44.85559" lon="4.8016">
        <ele>207.39999389648</ele>
        <time>2023-12-17T11:10:30.000Z</time>
      </trkpt>
      <trkpt lat="44.85562" lon="4.80169">
        <ele>207.19999694824</ele>
        <time>2023-12-17T11:10:34.000Z</time>
      </trkpt>
      <trkpt lat="44.85565" lon="4.80183">
        <ele>207.60000610352</ele>
        <time>2023-12-17T11:10:40.000Z</time>
      </trkpt>
      <trkpt lat="44.85567" lon="4.80204">
        <ele>208.39999389648</ele>
        <time>2023-12-17T11:10:47.000Z</time>
      </trkpt>
      <trkpt lat="44.85567" lon="4.80208">
        <ele>208.60000610352</ele>
        <time>2023-12-17T11:10:48.000Z</time>
      </trkpt>
      <trkpt lat="44.85567" lon="4.80211">
        <ele>209</ele>
        <time>2023-12-17T11:10:49.000Z</time>
      </trkpt>
      <trkpt lat="44.85564" lon="4.80225">
        <ele>210.39999389648</ele>
        <time>2023-12-17T11:10:53.000Z</time>
      </trkpt>
      <trkpt lat="44.85563" lon="4.80229">
        <ele>210.60000610352</ele>
        <time>2023-12-17T11:10:54.000Z</time>
      </trkpt>
      <trkpt lat="44.85558" lon="4.80246">
        <ele>211.60000610352</ele>
        <time>2023-12-17T11:10:59.000Z</time>
      </trkpt>
      <trkpt lat="44.85555" lon="4.80249">
        <ele>212</ele>
        <time>2023-12-17T11:11:00.000Z</time>
      </trkpt>
      <trkpt lat="44.85547" lon="4.80255">
        <ele>212.80000305176</ele>
        <time>2023-12-17T11:11:03.000Z</time>
      </trkpt>
      <trkpt lat="44.85535" lon="4.80268">
        <ele>213.80000305176</ele>
        <time>2023-12-17T11:11:08.000Z</time>
      </trkpt>
      <trkpt lat="44.85529" lon="4.80277">
        <ele>214.19999694824</ele>
        <time>2023-12-17T11:11:11.000Z</time>
      </trkpt>
      <trkpt lat="44.85525" lon="4.80283">
        <ele>214.80000305176</ele>
        <time>2023-12-17T11:11:13.000Z</time>
      </trkpt>
      <trkpt lat="44.85516" lon="4.80296">
        <ele>215.60000610352</ele>
        <time>2023-12-17T11:11:17.000Z</time>
      </trkpt>
      <trkpt lat="44.85513" lon="4.80298">
        <ele>215.80000305176</ele>
        <time>2023-12-17T11:11:18.000Z</time>
      </trkpt>
      <trkpt lat="44.85496" lon="4.80313">
        <ele>217</ele>
        <time>2023-12-17T11:11:24.000Z</time>
      </trkpt>
      <trkpt lat="44.85493" lon="4.80316">
        <ele>217.19999694824</ele>
        <time>2023-12-17T11:11:25.000Z</time>
      </trkpt>
      <trkpt lat="44.85488" lon="4.80334">
        <ele>218</ele>
        <time>2023-12-17T11:11:29.000Z</time>
      </trkpt>
      <trkpt lat="44.85493" lon="4.8035">
        <ele>218.80000305176</ele>
        <time>2023-12-17T11:11:33.000Z</time>
      </trkpt>
      <trkpt lat="44.85495" lon="4.80354">
        <ele>219.39999389648</ele>
        <time>2023-12-17T11:11:34.000Z</time>
      </trkpt>
      <trkpt lat="44.85506" lon="4.80365">
        <ele>220.39999389648</ele>
        <time>2023-12-17T11:11:38.000Z</time>
      </trkpt>
      <trkpt lat="44.8552" lon="4.80386">
        <ele>221.19999694824</ele>
        <time>2023-12-17T11:11:44.000Z</time>
      </trkpt>
      <trkpt lat="44.85528" lon="4.80403">
        <ele>221.60000610352</ele>
        <time>2023-12-17T11:11:48.000Z</time>
      </trkpt>
      <trkpt lat="44.85532" lon="4.80412">
        <ele>222.39999389648</ele>
        <time>2023-12-17T11:11:50.000Z</time>
      </trkpt>
      <trkpt lat="44.85534" lon="4.80416">
        <ele>222.80000305176</ele>
        <time>2023-12-17T11:11:51.000Z</time>
      </trkpt>
      <trkpt lat="44.85541" lon="4.8044">
        <ele>224</ele>
        <time>2023-12-17T11:11:56.000Z</time>
      </trkpt>
      <trkpt lat="44.85546" lon="4.80458">
        <ele>225.19999694824</ele>
        <time>2023-12-17T11:12:00.000Z</time>
      </trkpt>
      <trkpt lat="44.8555" lon="4.80464">
        <ele>226</ele>
        <time>2023-12-17T11:12:02.000Z</time>
      </trkpt>
      <trkpt lat="44.85553" lon="4.80467">
        <ele>226.39999389648</ele>
        <time>2023-12-17T11:12:03.000Z</time>
      </trkpt>
      <trkpt lat="44.85564" lon="4.80484">
        <ele>227.39999389648</ele>
        <time>2023-12-17T11:12:08.000Z</time>
      </trkpt>
      <trkpt lat="44.85572" lon="4.80512">
        <ele>228.39999389648</ele>
        <time>2023-12-17T11:12:14.000Z</time>
      </trkpt>
      <trkpt lat="44.85585" lon="4.80531">
        <ele>229.39999389648</ele>
        <time>2023-12-17T11:12:19.000Z</time>
      </trkpt>
      <trkpt lat="44.85587" lon="4.80536">
        <ele>229.60000610352</ele>
        <time>2023-12-17T11:12:20.000Z</time>
      </trkpt>
      <trkpt lat="44.856" lon="4.80563">
        <ele>230.19999694824</ele>
        <time>2023-12-17T11:12:26.000Z</time>
      </trkpt>
      <trkpt lat="44.8561" lon="4.8057">
        <ele>230.39999389648</ele>
        <time>2023-12-17T11:12:29.000Z</time>
      </trkpt>
      <trkpt lat="44.85621" lon="4.80576">
        <ele>231</ele>
        <time>2023-12-17T11:12:32.000Z</time>
      </trkpt>
      <trkpt lat="44.85627" lon="4.80579">
        <ele>231.39999389648</ele>
        <time>2023-12-17T11:12:34.000Z</time>
      </trkpt>
      <trkpt lat="44.85636" lon="4.8058">
        <ele>232.39999389648</ele>
        <time>2023-12-17T11:12:38.000Z</time>
      </trkpt>
      <trkpt lat="44.85639" lon="4.80579">
        <ele>232.60000610352</ele>
        <time>2023-12-17T11:12:39.000Z</time>
      </trkpt>
      <trkpt lat="44.85651" lon="4.80568">
        <ele>233.19999694824</ele>
        <time>2023-12-17T11:12:44.000Z</time>
      </trkpt>
      <trkpt lat="44.85658" lon="4.80557">
        <ele>233.80000305176</ele>
        <time>2023-12-17T11:12:47.000Z</time>
      </trkpt>
      <trkpt lat="44.85659" lon="4.80552">
        <ele>234</ele>
        <time>2023-12-17T11:12:48.000Z</time>
      </trkpt>
      <trkpt lat="44.85661" lon="4.80542">
        <ele>234.80000305176</ele>
        <time>2023-12-17T11:12:50.000Z</time>
      </trkpt>
      <trkpt lat="44.85669" lon="4.80525">
        <ele>236</ele>
        <time>2023-12-17T11:12:54.000Z</time>
      </trkpt>
      <trkpt lat="44.85681" lon="4.80505">
        <ele>237</ele>
        <time>2023-12-17T11:12:59.000Z</time>
      </trkpt>
      <trkpt lat="44.85683" lon="4.80503">
        <ele>237.60000610352</ele>
        <time>2023-12-17T11:13:00.000Z</time>
      </trkpt>
      <trkpt lat="44.85689" lon="4.805">
        <ele>238.39999389648</ele>
        <time>2023-12-17T11:13:02.000Z</time>
      </trkpt>
      <trkpt lat="44.85696" lon="4.80501">
        <ele>238.80000305176</ele>
        <time>2023-12-17T11:13:04.000Z</time>
      </trkpt>
      <trkpt lat="44.8572" lon="4.80512">
        <ele>239.39999389648</ele>
        <time>2023-12-17T11:13:11.000Z</time>
      </trkpt>
      <trkpt lat="44.85723" lon="4.80514">
        <ele>239.80000305176</ele>
        <time>2023-12-17T11:13:12.000Z</time>
      </trkpt>
      <trkpt lat="44.85736" lon="4.80521">
        <ele>240.19999694824</ele>
        <time>2023-12-17T11:13:15.000Z</time>
      </trkpt>
      <trkpt lat="44.85748" lon="4.80528">
        <ele>240.39999389648</ele>
        <time>2023-12-17T11:13:18.000Z</time>
      </trkpt>
      <trkpt lat="44.8578" lon="4.80551">
        <ele>240.19999694824</ele>
        <time>2023-12-17T11:13:26.000Z</time>
      </trkpt>
      <trkpt lat="44.85811" lon="4.8057">
        <ele>239</ele>
        <time>2023-12-17T11:13:33.000Z</time>
      </trkpt>
      <trkpt lat="44.85816" lon="4.80571">
        <ele>239</ele>
        <time>2023-12-17T11:13:34.000Z</time>
      </trkpt>
      <trkpt lat="44.85826" lon="4.80575">
        <ele>238.80000305176</ele>
        <time>2023-12-17T11:13:36.000Z</time>
      </trkpt>
      <trkpt lat="44.85831" lon="4.80578">
        <ele>238.60000610352</ele>
        <time>2023-12-17T11:13:37.000Z</time>
      </trkpt>
      <trkpt lat="44.85836" lon="4.80582">
        <ele>238.39999389648</ele>
        <time>2023-12-17T11:13:38.000Z</time>
      </trkpt>
      <trkpt lat="44.8584" lon="4.80587">
        <ele>238.19999694824</ele>
        <time>2023-12-17T11:13:39.000Z</time>
      </trkpt>
      <trkpt lat="44.85859" lon="4.80613">
        <ele>237.60000610352</ele>
        <time>2023-12-17T11:13:44.000Z</time>
      </trkpt>
      <trkpt lat="44.85869" lon="4.80622">
        <ele>237</ele>
        <time>2023-12-17T11:13:46.000Z</time>
      </trkpt>
      <trkpt lat="44.85879" lon="4.80627">
        <ele>236.80000305176</ele>
        <time>2023-12-17T11:13:48.000Z</time>
      </trkpt>
      <trkpt lat="44.8589" lon="4.80632">
        <ele>236.60000610352</ele>
        <time>2023-12-17T11:13:50.000Z</time>
      </trkpt>
      <trkpt lat="44.85896" lon="4.80632">
        <ele>236.60000610352</ele>
        <time>2023-12-17T11:13:51.000Z</time>
      </trkpt>
      <trkpt lat="44.85913" lon="4.80631">
        <ele>237.39999389648</ele>
        <time>2023-12-17T11:13:54.000Z</time>
      </trkpt>
      <trkpt lat="44.85931" lon="4.8063">
        <ele>238.80000305176</ele>
        <time>2023-12-17T11:13:57.000Z</time>
      </trkpt>
      <trkpt lat="44.85942" lon="4.80629">
        <ele>239.80000305176</ele>
        <time>2023-12-17T11:13:59.000Z</time>
      </trkpt>
      <trkpt lat="44.85947" lon="4.8063">
        <ele>240</ele>
        <time>2023-12-17T11:14:00.000Z</time>
      </trkpt>
      <trkpt lat="44.85952" lon="4.80633">
        <ele>240.19999694824</ele>
        <time>2023-12-17T11:14:01.000Z</time>
      </trkpt>
      <trkpt lat="44.85961" lon="4.80643">
        <ele>240.60000610352</ele>
        <time>2023-12-17T11:14:03.000Z</time>
      </trkpt>
      <trkpt lat="44.85965" lon="4.80648">
        <ele>240.60000610352</ele>
        <time>2023-12-17T11:14:04.000Z</time>
      </trkpt>
      <trkpt lat="44.8597" lon="4.80659">
        <ele>240.80000305176</ele>
        <time>2023-12-17T11:14:06.000Z</time>
      </trkpt>
      <trkpt lat="44.85975" lon="4.8067">
        <ele>240.80000305176</ele>
        <time>2023-12-17T11:14:08.000Z</time>
      </trkpt>
      <trkpt lat="44.85983" lon="4.80698">
        <ele>239.39999389648</ele>
        <time>2023-12-17T11:14:13.000Z</time>
      </trkpt>
      <trkpt lat="44.8599" lon="4.80704">
        <ele>239.60000610352</ele>
        <time>2023-12-17T11:14:17.000Z</time>
      </trkpt>
      <trkpt lat="44.85996" lon="4.80707">
        <ele>239.60000610352</ele>
        <time>2023-12-17T11:14:23.000Z</time>
      </trkpt>
      <trkpt lat="44.85995" lon="4.80707">
        <ele>239.60000610352</ele>
        <time>2023-12-17T11:14:31.000Z</time>
      </trkpt>
    </trkseg>
  </trk>
</gpx>